<?xml version="1.0"?>
<gpx
 version="1.1"
 creator="Satmap Active 20"
 xmlns:xsi="http://www.w3.org/2001/XMLSchema-instance"
 xmlns="http://www.topografix.com/GPX/1/1"
 xmlns:satmap="http://www.satmap.com/updates/xmlschemas/GpxExtensions/v2/GpxExtensions_v2.xsd"
 xsi:schemaLocation="http://www.topografix.com/GPX/1/1 http://www.topografix.com/GPX/1/1/gpx.xsd">
<metadata>
<time>2023-01-14T09:45:04Z</time>
<extensions>
<satmap:platform>43</satmap:platform>
<satmap:software version="3.12.831">SM15.exe</satmap:software>
<satmap:username>Jim Grant</satmap:username>
<satmap:network_ids>
<satmap:network_id type="wifi">00-23-A7-EC-D5-78</satmap:network_id>
<satmap:network_id type="bluetooth">80-BB-EB-D7-5B-7C</satmap:network_id>
</satmap:network_ids>
<satmap:snap_type>simple</satmap:snap_type>
</extensions>
</metadata>
<trk>
<name>2023-01-14_0945</name>
<desc>Track 1</desc>
<number>1</number>
<trkseg>
<trkpt lat="52.983103" lon="-3.318539"><ele>129</ele><time>2023-01-14T09:45:04Z</time><name>PT1</name></trkpt>
<trkpt lat="52.983101" lon="-3.318541"><ele>130</ele><time>2023-01-14T09:45:15Z</time><name>PT2</name></trkpt>
<trkpt lat="52.983102" lon="-3.318542"><ele>130</ele><time>2023-01-14T09:45:18Z</time><name>PT3</name></trkpt>
<trkpt lat="52.983104" lon="-3.318521"><ele>130</ele><time>2023-01-14T09:45:22Z</time><name>PT4</name></trkpt>
<trkpt lat="52.983095" lon="-3.318521"><ele>130</ele><time>2023-01-14T09:45:25Z</time><name>PT5</name></trkpt>
<trkpt lat="52.983093" lon="-3.318516"><ele>130</ele><time>2023-01-14T09:45:46Z</time><name>PT6</name></trkpt>
<trkpt lat="52.983105" lon="-3.318506"><ele>130</ele><time>2023-01-14T09:45:57Z</time><name>PT7</name></trkpt>
<trkpt lat="52.983105" lon="-3.318514"><ele>131</ele><time>2023-01-14T09:46:00Z</time><name>PT8</name></trkpt>
<trkpt lat="52.983109" lon="-3.318517"><ele>131</ele><time>2023-01-14T09:46:03Z</time><name>PT9</name></trkpt>
<trkpt lat="52.983109" lon="-3.318538"><ele>131</ele><time>2023-01-14T09:46:10Z</time><name>PT10</name></trkpt>
<trkpt lat="52.983113" lon="-3.318575"><ele>130</ele><time>2023-01-14T09:46:13Z</time><name>PT11</name></trkpt>
<trkpt lat="52.983110" lon="-3.318592"><ele>130</ele><time>2023-01-14T09:46:18Z</time><name>PT12</name></trkpt>
<trkpt lat="52.983116" lon="-3.318642"><ele>128</ele><time>2023-01-14T09:46:21Z</time><name>PT13</name></trkpt>
<trkpt lat="52.983123" lon="-3.318670"><ele>126</ele><time>2023-01-14T09:46:24Z</time><name>PT14</name></trkpt>
<trkpt lat="52.983126" lon="-3.318724"><ele>125</ele><time>2023-01-14T09:46:28Z</time><name>PT15</name></trkpt>
<trkpt lat="52.983136" lon="-3.318788"><ele>124</ele><time>2023-01-14T09:46:33Z</time><name>PT16</name></trkpt>
<trkpt lat="52.983155" lon="-3.318849"><ele>123</ele><time>2023-01-14T09:46:36Z</time><name>PT17</name></trkpt>
<trkpt lat="52.983165" lon="-3.318908"><ele>122</ele><time>2023-01-14T09:46:40Z</time><name>PT18</name></trkpt>
<trkpt lat="52.983165" lon="-3.318976"><ele>123</ele><time>2023-01-14T09:46:45Z</time><name>PT19</name></trkpt>
<trkpt lat="52.983166" lon="-3.318985"><ele>124</ele><time>2023-01-14T09:46:48Z</time><name>PT20</name></trkpt>
<trkpt lat="52.983175" lon="-3.319034"><ele>124</ele><time>2023-01-14T09:46:54Z</time><name>PT21</name></trkpt>
<trkpt lat="52.983199" lon="-3.319114"><ele>123</ele><time>2023-01-14T09:46:57Z</time><name>PT22</name></trkpt>
<trkpt lat="52.983229" lon="-3.319146"><ele>123</ele><time>2023-01-14T09:47:00Z</time><name>PT23</name></trkpt>
<trkpt lat="52.983266" lon="-3.319171"><ele>124</ele><time>2023-01-14T09:47:04Z</time><name>PT24</name></trkpt>
<trkpt lat="52.983294" lon="-3.319179"><ele>125</ele><time>2023-01-14T09:47:07Z</time><name>PT25</name></trkpt>
<trkpt lat="52.983340" lon="-3.319187"><ele>126</ele><time>2023-01-14T09:47:12Z</time><name>PT26</name></trkpt>
<trkpt lat="52.983372" lon="-3.319195"><ele>126</ele><time>2023-01-14T09:47:15Z</time><name>PT27</name></trkpt>
<trkpt lat="52.983410" lon="-3.319193"><ele>127</ele><time>2023-01-14T09:47:18Z</time><name>PT28</name></trkpt>
<trkpt lat="52.983453" lon="-3.319199"><ele>127</ele><time>2023-01-14T09:47:21Z</time><name>PT29</name></trkpt>
<trkpt lat="52.983508" lon="-3.319211"><ele>128</ele><time>2023-01-14T09:47:25Z</time><name>PT30</name></trkpt>
<trkpt lat="52.983553" lon="-3.319217"><ele>128</ele><time>2023-01-14T09:47:30Z</time><name>PT31</name></trkpt>
<trkpt lat="52.983599" lon="-3.319224"><ele>129</ele><time>2023-01-14T09:47:33Z</time><name>PT32</name></trkpt>
<trkpt lat="52.983624" lon="-3.319229"><ele>129</ele><time>2023-01-14T09:47:36Z</time><name>PT33</name></trkpt>
<trkpt lat="52.983651" lon="-3.319250"><ele>130</ele><time>2023-01-14T09:47:40Z</time><name>PT34</name></trkpt>
<trkpt lat="52.983687" lon="-3.319292"><ele>129</ele><time>2023-01-14T09:47:45Z</time><name>PT35</name></trkpt>
<trkpt lat="52.983711" lon="-3.319339"><ele>129</ele><time>2023-01-14T09:47:48Z</time><name>PT36</name></trkpt>
<trkpt lat="52.983729" lon="-3.319391"><ele>128</ele><time>2023-01-14T09:47:52Z</time><name>PT37</name></trkpt>
<trkpt lat="52.983737" lon="-3.319437"><ele>128</ele><time>2023-01-14T09:47:55Z</time><name>PT38</name></trkpt>
<trkpt lat="52.983755" lon="-3.319479"><ele>126</ele><time>2023-01-14T09:48:00Z</time><name>PT39</name></trkpt>
<trkpt lat="52.983753" lon="-3.319516"><ele>126</ele><time>2023-01-14T09:48:03Z</time><name>PT40</name></trkpt>
<trkpt lat="52.983749" lon="-3.319562"><ele>126</ele><time>2023-01-14T09:48:06Z</time><name>PT41</name></trkpt>
<trkpt lat="52.983748" lon="-3.319646"><ele>128</ele><time>2023-01-14T09:48:10Z</time><name>PT42</name></trkpt>
<trkpt lat="52.983745" lon="-3.319707"><ele>129</ele><time>2023-01-14T09:48:13Z</time><name>PT43</name></trkpt>
<trkpt lat="52.983741" lon="-3.319754"><ele>129</ele><time>2023-01-14T09:48:16Z</time><name>PT44</name></trkpt>
<trkpt lat="52.983743" lon="-3.319794"><ele>129</ele><time>2023-01-14T09:48:19Z</time><name>PT45</name></trkpt>
<trkpt lat="52.983732" lon="-3.319873"><ele>130</ele><time>2023-01-14T09:48:24Z</time><name>PT46</name></trkpt>
<trkpt lat="52.983726" lon="-3.319937"><ele>131</ele><time>2023-01-14T09:48:27Z</time><name>PT47</name></trkpt>
<trkpt lat="52.983724" lon="-3.320005"><ele>132</ele><time>2023-01-14T09:48:30Z</time><name>PT48</name></trkpt>
<trkpt lat="52.983722" lon="-3.320069"><ele>132</ele><time>2023-01-14T09:48:34Z</time><name>PT49</name></trkpt>
<trkpt lat="52.983744" lon="-3.320088"><ele>132</ele><time>2023-01-14T09:48:37Z</time><name>PT50</name></trkpt>
<trkpt lat="52.983773" lon="-3.320116"><ele>133</ele><time>2023-01-14T09:48:42Z</time><name>PT51</name></trkpt>
<trkpt lat="52.983803" lon="-3.320123"><ele>133</ele><time>2023-01-14T09:48:45Z</time><name>PT52</name></trkpt>
<trkpt lat="52.983829" lon="-3.320135"><ele>134</ele><time>2023-01-14T09:48:48Z</time><name>PT53</name></trkpt>
<trkpt lat="52.983852" lon="-3.320132"><ele>135</ele><time>2023-01-14T09:48:52Z</time><name>PT54</name></trkpt>
<trkpt lat="52.983889" lon="-3.320128"><ele>135</ele><time>2023-01-14T09:48:57Z</time><name>PT55</name></trkpt>
<trkpt lat="52.983913" lon="-3.320119"><ele>134</ele><time>2023-01-14T09:49:00Z</time><name>PT56</name></trkpt>
<trkpt lat="52.983933" lon="-3.320108"><ele>135</ele><time>2023-01-14T09:49:03Z</time><name>PT57</name></trkpt>
<trkpt lat="52.983938" lon="-3.320105"><ele>136</ele><time>2023-01-14T09:49:07Z</time><name>PT58</name></trkpt>
<trkpt lat="52.983959" lon="-3.320052"><ele>137</ele><time>2023-01-14T09:49:15Z</time><name>PT59</name></trkpt>
<trkpt lat="52.983985" lon="-3.320012"><ele>138</ele><time>2023-01-14T09:49:18Z</time><name>PT60</name></trkpt>
<trkpt lat="52.984017" lon="-3.319998"><ele>139</ele><time>2023-01-14T09:49:22Z</time><name>PT61</name></trkpt>
<trkpt lat="52.984047" lon="-3.319973"><ele>139</ele><time>2023-01-14T09:49:27Z</time><name>PT62</name></trkpt>
<trkpt lat="52.984076" lon="-3.319951"><ele>141</ele><time>2023-01-14T09:49:30Z</time><name>PT63</name></trkpt>
<trkpt lat="52.984097" lon="-3.319935"><ele>142</ele><time>2023-01-14T09:49:34Z</time><name>PT64</name></trkpt>
<trkpt lat="52.984119" lon="-3.319905"><ele>144</ele><time>2023-01-14T09:49:39Z</time><name>PT65</name></trkpt>
<trkpt lat="52.984141" lon="-3.319888"><ele>142</ele><time>2023-01-14T09:49:42Z</time><name>PT66</name></trkpt>
<trkpt lat="52.984159" lon="-3.319882"><ele>141</ele><time>2023-01-14T09:49:46Z</time><name>PT67</name></trkpt>
<trkpt lat="52.984163" lon="-3.319906"><ele>141</ele><time>2023-01-14T09:49:51Z</time><name>PT68</name></trkpt>
<trkpt lat="52.984183" lon="-3.319934"><ele>141</ele><time>2023-01-14T09:49:54Z</time><name>PT69</name></trkpt>
<trkpt lat="52.984198" lon="-3.319978"><ele>142</ele><time>2023-01-14T09:49:57Z</time><name>PT70</name></trkpt>
<trkpt lat="52.984215" lon="-3.319999"><ele>142</ele><time>2023-01-14T09:50:01Z</time><name>PT71</name></trkpt>
<trkpt lat="52.984227" lon="-3.320030"><ele>143</ele><time>2023-01-14T09:50:06Z</time><name>PT72</name></trkpt>
<trkpt lat="52.984246" lon="-3.320061"><ele>142</ele><time>2023-01-14T09:50:09Z</time><name>PT73</name></trkpt>
<trkpt lat="52.984257" lon="-3.320085"><ele>141</ele><time>2023-01-14T09:50:13Z</time><name>PT74</name></trkpt>
<trkpt lat="52.984262" lon="-3.320118"><ele>139</ele><time>2023-01-14T09:50:18Z</time><name>PT75</name></trkpt>
<trkpt lat="52.984264" lon="-3.320144"><ele>140</ele><time>2023-01-14T09:50:21Z</time><name>PT76</name></trkpt>
<trkpt lat="52.984280" lon="-3.320180"><ele>142</ele><time>2023-01-14T09:50:24Z</time><name>PT77</name></trkpt>
<trkpt lat="52.984299" lon="-3.320223"><ele>143</ele><time>2023-01-14T09:50:27Z</time><name>PT78</name></trkpt>
<trkpt lat="52.984303" lon="-3.320273"><ele>145</ele><time>2023-01-14T09:50:31Z</time><name>PT79</name></trkpt>
<trkpt lat="52.984310" lon="-3.320334"><ele>147</ele><time>2023-01-14T09:50:36Z</time><name>PT80</name></trkpt>
<trkpt lat="52.984311" lon="-3.320365"><ele>146</ele><time>2023-01-14T09:50:39Z</time><name>PT81</name></trkpt>
<trkpt lat="52.984315" lon="-3.320389"><ele>146</ele><time>2023-01-14T09:50:42Z</time><name>PT82</name></trkpt>
<trkpt lat="52.984330" lon="-3.320427"><ele>146</ele><time>2023-01-14T09:50:45Z</time><name>PT83</name></trkpt>
<trkpt lat="52.984331" lon="-3.320484"><ele>150</ele><time>2023-01-14T09:50:48Z</time><name>PT84</name></trkpt>
<trkpt lat="52.984347" lon="-3.320512"><ele>149</ele><time>2023-01-14T09:50:52Z</time><name>PT85</name></trkpt>
<trkpt lat="52.984347" lon="-3.320537"><ele>150</ele><time>2023-01-14T09:50:55Z</time><name>PT86</name></trkpt>
<trkpt lat="52.984346" lon="-3.320566"><ele>149</ele><time>2023-01-14T09:51:00Z</time><name>PT87</name></trkpt>
<trkpt lat="52.984366" lon="-3.320652"><ele>149</ele><time>2023-01-14T09:51:03Z</time><name>PT88</name></trkpt>
<trkpt lat="52.984373" lon="-3.320702"><ele>149</ele><time>2023-01-14T09:51:06Z</time><name>PT89</name></trkpt>
<trkpt lat="52.984373" lon="-3.320742"><ele>148</ele><time>2023-01-14T09:51:09Z</time><name>PT90</name></trkpt>
<trkpt lat="52.984390" lon="-3.320803"><ele>149</ele><time>2023-01-14T09:51:13Z</time><name>PT91</name></trkpt>
<trkpt lat="52.984408" lon="-3.320851"><ele>150</ele><time>2023-01-14T09:51:18Z</time><name>PT92</name></trkpt>
<trkpt lat="52.984416" lon="-3.320893"><ele>151</ele><time>2023-01-14T09:51:21Z</time><name>PT93</name></trkpt>
<trkpt lat="52.984419" lon="-3.320900"><ele>151</ele><time>2023-01-14T09:51:24Z</time><name>PT94</name></trkpt>
<trkpt lat="52.984420" lon="-3.320934"><ele>153</ele><time>2023-01-14T09:51:27Z</time><name>PT95</name></trkpt>
<trkpt lat="52.984427" lon="-3.320955"><ele>151</ele><time>2023-01-14T09:51:31Z</time><name>PT96</name></trkpt>
<trkpt lat="52.984422" lon="-3.321005"><ele>151</ele><time>2023-01-14T09:51:36Z</time><name>PT97</name></trkpt>
<trkpt lat="52.984418" lon="-3.321042"><ele>153</ele><time>2023-01-14T09:51:39Z</time><name>PT98</name></trkpt>
<trkpt lat="52.984420" lon="-3.321056"><ele>152</ele><time>2023-01-14T09:51:42Z</time><name>PT99</name></trkpt>
<trkpt lat="52.984426" lon="-3.321114"><ele>153</ele><time>2023-01-14T09:51:46Z</time><name>PT100</name></trkpt>
<trkpt lat="52.984433" lon="-3.321157"><ele>154</ele><time>2023-01-14T09:51:51Z</time><name>PT101</name></trkpt>
<trkpt lat="52.984435" lon="-3.321180"><ele>154</ele><time>2023-01-14T09:51:54Z</time><name>PT102</name></trkpt>
<trkpt lat="52.984435" lon="-3.321224"><ele>156</ele><time>2023-01-14T09:51:57Z</time><name>PT103</name></trkpt>
<trkpt lat="52.984437" lon="-3.321254"><ele>156</ele><time>2023-01-14T09:52:01Z</time><name>PT104</name></trkpt>
<trkpt lat="52.984445" lon="-3.321302"><ele>157</ele><time>2023-01-14T09:52:04Z</time><name>PT105</name></trkpt>
<trkpt lat="52.984447" lon="-3.321348"><ele>158</ele><time>2023-01-14T09:52:07Z</time><name>PT106</name></trkpt>
<trkpt lat="52.984459" lon="-3.321386"><ele>158</ele><time>2023-01-14T09:52:12Z</time><name>PT107</name></trkpt>
<trkpt lat="52.984462" lon="-3.321395"><ele>158</ele><time>2023-01-14T09:52:15Z</time><name>PT108</name></trkpt>
<trkpt lat="52.984471" lon="-3.321408"><ele>157</ele><time>2023-01-14T09:52:18Z</time><name>PT109</name></trkpt>
<trkpt lat="52.984499" lon="-3.321464"><ele>155</ele><time>2023-01-14T09:52:22Z</time><name>PT110</name></trkpt>
<trkpt lat="52.984517" lon="-3.321506"><ele>156</ele><time>2023-01-14T09:52:27Z</time><name>PT111</name></trkpt>
<trkpt lat="52.984536" lon="-3.321531"><ele>157</ele><time>2023-01-14T09:52:30Z</time><name>PT112</name></trkpt>
<trkpt lat="52.984545" lon="-3.321550"><ele>158</ele><time>2023-01-14T09:52:33Z</time><name>PT113</name></trkpt>
<trkpt lat="52.984565" lon="-3.321553"><ele>159</ele><time>2023-01-14T09:52:37Z</time><name>PT114</name></trkpt>
<trkpt lat="52.984573" lon="-3.321558"><ele>160</ele><time>2023-01-14T09:52:40Z</time><name>PT115</name></trkpt>
<trkpt lat="52.984596" lon="-3.321574"><ele>163</ele><time>2023-01-14T09:52:45Z</time><name>PT116</name></trkpt>
<trkpt lat="52.984609" lon="-3.321576"><ele>165</ele><time>2023-01-14T09:52:48Z</time><name>PT117</name></trkpt>
<trkpt lat="52.984620" lon="-3.321575"><ele>165</ele><time>2023-01-14T09:52:51Z</time><name>PT118</name></trkpt>
<trkpt lat="52.984624" lon="-3.321582"><ele>166</ele><time>2023-01-14T09:52:54Z</time><name>PT119</name></trkpt>
<trkpt lat="52.984631" lon="-3.321575"><ele>165</ele><time>2023-01-14T09:52:58Z</time><name>PT120</name></trkpt>
<trkpt lat="52.984654" lon="-3.321564"><ele>166</ele><time>2023-01-14T09:53:01Z</time><name>PT121</name></trkpt>
<trkpt lat="52.984675" lon="-3.321555"><ele>169</ele><time>2023-01-14T09:53:06Z</time><name>PT122</name></trkpt>
<trkpt lat="52.984689" lon="-3.321561"><ele>171</ele><time>2023-01-14T09:53:09Z</time><name>PT123</name></trkpt>
<trkpt lat="52.984700" lon="-3.321575"><ele>173</ele><time>2023-01-14T09:53:12Z</time><name>PT124</name></trkpt>
<trkpt lat="52.984722" lon="-3.321602"><ele>172</ele><time>2023-01-14T09:53:15Z</time><name>PT125</name></trkpt>
<trkpt lat="52.984727" lon="-3.321623"><ele>172</ele><time>2023-01-14T09:53:18Z</time><name>PT126</name></trkpt>
<trkpt lat="52.984751" lon="-3.321633"><ele>172</ele><time>2023-01-14T09:53:22Z</time><name>PT127</name></trkpt>
<trkpt lat="52.984776" lon="-3.321647"><ele>173</ele><time>2023-01-14T09:53:27Z</time><name>PT128</name></trkpt>
<trkpt lat="52.984791" lon="-3.321644"><ele>175</ele><time>2023-01-14T09:53:30Z</time><name>PT129</name></trkpt>
<trkpt lat="52.984796" lon="-3.321648"><ele>176</ele><time>2023-01-14T09:53:33Z</time><name>PT130</name></trkpt>
<trkpt lat="52.984808" lon="-3.321639"><ele>176</ele><time>2023-01-14T09:53:36Z</time><name>PT131</name></trkpt>
<trkpt lat="52.984823" lon="-3.321643"><ele>177</ele><time>2023-01-14T09:53:40Z</time><name>PT132</name></trkpt>
<trkpt lat="52.984834" lon="-3.321644"><ele>178</ele><time>2023-01-14T09:53:43Z</time><name>PT133</name></trkpt>
<trkpt lat="52.984855" lon="-3.321657"><ele>179</ele><time>2023-01-14T09:53:48Z</time><name>PT134</name></trkpt>
<trkpt lat="52.984879" lon="-3.321662"><ele>181</ele><time>2023-01-14T09:53:51Z</time><name>PT135</name></trkpt>
<trkpt lat="52.984893" lon="-3.321669"><ele>184</ele><time>2023-01-14T09:53:54Z</time><name>PT136</name></trkpt>
<trkpt lat="52.984903" lon="-3.321677"><ele>184</ele><time>2023-01-14T09:53:57Z</time><name>PT137</name></trkpt>
<trkpt lat="52.984907" lon="-3.321687"><ele>185</ele><time>2023-01-14T09:54:00Z</time><name>PT138</name></trkpt>
<trkpt lat="52.984916" lon="-3.321685"><ele>186</ele><time>2023-01-14T09:54:03Z</time><name>PT139</name></trkpt>
<trkpt lat="52.984928" lon="-3.321687"><ele>186</ele><time>2023-01-14T09:54:07Z</time><name>PT140</name></trkpt>
<trkpt lat="52.984937" lon="-3.321688"><ele>186</ele><time>2023-01-14T09:54:10Z</time><name>PT141</name></trkpt>
<trkpt lat="52.984934" lon="-3.321686"><ele>188</ele><time>2023-01-14T09:54:13Z</time><name>PT142</name></trkpt>
<trkpt lat="52.984937" lon="-3.321703"><ele>188</ele><time>2023-01-14T09:54:18Z</time><name>PT143</name></trkpt>
<trkpt lat="52.984938" lon="-3.321705"><ele>188</ele><time>2023-01-14T09:54:21Z</time><name>PT144</name></trkpt>
<trkpt lat="52.984933" lon="-3.321693"><ele>189</ele><time>2023-01-14T09:54:28Z</time><name>PT145</name></trkpt>
<trkpt lat="52.984926" lon="-3.321688"><ele>189</ele><time>2023-01-14T09:54:31Z</time><name>PT146</name></trkpt>
<trkpt lat="52.984924" lon="-3.321679"><ele>189</ele><time>2023-01-14T09:54:36Z</time><name>PT147</name></trkpt>
<trkpt lat="52.984927" lon="-3.321658"><ele>189</ele><time>2023-01-14T09:54:46Z</time><name>PT148</name></trkpt>
<trkpt lat="52.984928" lon="-3.321659"><ele>189</ele><time>2023-01-14T09:54:49Z</time><name>PT149</name></trkpt>
<trkpt lat="52.984929" lon="-3.321639"><ele>189</ele><time>2023-01-14T09:54:54Z</time><name>PT150</name></trkpt>
<trkpt lat="52.984932" lon="-3.321619"><ele>189</ele><time>2023-01-14T09:54:57Z</time><name>PT151</name></trkpt>
<trkpt lat="52.984941" lon="-3.321602"><ele>189</ele><time>2023-01-14T09:55:00Z</time><name>PT152</name></trkpt>
<trkpt lat="52.984954" lon="-3.321580"><ele>188</ele><time>2023-01-14T09:55:03Z</time><name>PT153</name></trkpt>
<trkpt lat="52.984969" lon="-3.321534"><ele>187</ele><time>2023-01-14T09:55:07Z</time><name>PT154</name></trkpt>
<trkpt lat="52.984976" lon="-3.321487"><ele>187</ele><time>2023-01-14T09:55:12Z</time><name>PT155</name></trkpt>
<trkpt lat="52.984991" lon="-3.321443"><ele>187</ele><time>2023-01-14T09:55:15Z</time><name>PT156</name></trkpt>
<trkpt lat="52.985017" lon="-3.321407"><ele>187</ele><time>2023-01-14T09:55:18Z</time><name>PT157</name></trkpt>
<trkpt lat="52.985041" lon="-3.321363"><ele>188</ele><time>2023-01-14T09:55:21Z</time><name>PT158</name></trkpt>
<trkpt lat="52.985056" lon="-3.321342"><ele>187</ele><time>2023-01-14T09:55:25Z</time><name>PT159</name></trkpt>
<trkpt lat="52.985071" lon="-3.321306"><ele>191</ele><time>2023-01-14T09:55:28Z</time><name>PT160</name></trkpt>
<trkpt lat="52.985110" lon="-3.321263"><ele>190</ele><time>2023-01-14T09:55:33Z</time><name>PT161</name></trkpt>
<trkpt lat="52.985126" lon="-3.321236"><ele>189</ele><time>2023-01-14T09:55:36Z</time><name>PT162</name></trkpt>
<trkpt lat="52.985143" lon="-3.321205"><ele>191</ele><time>2023-01-14T09:55:39Z</time><name>PT163</name></trkpt>
<trkpt lat="52.985165" lon="-3.321161"><ele>191</ele><time>2023-01-14T09:55:43Z</time><name>PT164</name></trkpt>
<trkpt lat="52.985183" lon="-3.321123"><ele>190</ele><time>2023-01-14T09:55:46Z</time><name>PT165</name></trkpt>
<trkpt lat="52.985205" lon="-3.321079"><ele>190</ele><time>2023-01-14T09:55:51Z</time><name>PT166</name></trkpt>
<trkpt lat="52.985219" lon="-3.321050"><ele>189</ele><time>2023-01-14T09:55:54Z</time><name>PT167</name></trkpt>
<trkpt lat="52.985234" lon="-3.321014"><ele>191</ele><time>2023-01-14T09:55:57Z</time><name>PT168</name></trkpt>
<trkpt lat="52.985247" lon="-3.320991"><ele>194</ele><time>2023-01-14T09:56:00Z</time><name>PT169</name></trkpt>
<trkpt lat="52.985263" lon="-3.320965"><ele>192</ele><time>2023-01-14T09:56:04Z</time><name>PT170</name></trkpt>
<trkpt lat="52.985284" lon="-3.320943"><ele>193</ele><time>2023-01-14T09:56:09Z</time><name>PT171</name></trkpt>
<trkpt lat="52.985295" lon="-3.320904"><ele>194</ele><time>2023-01-14T09:56:12Z</time><name>PT172</name></trkpt>
<trkpt lat="52.985315" lon="-3.320874"><ele>194</ele><time>2023-01-14T09:56:15Z</time><name>PT173</name></trkpt>
<trkpt lat="52.985331" lon="-3.320826"><ele>194</ele><time>2023-01-14T09:56:18Z</time><name>PT174</name></trkpt>
<trkpt lat="52.985332" lon="-3.320779"><ele>198</ele><time>2023-01-14T09:56:22Z</time><name>PT175</name></trkpt>
<trkpt lat="52.985340" lon="-3.320707"><ele>195</ele><time>2023-01-14T09:56:25Z</time><name>PT176</name></trkpt>
<trkpt lat="52.985358" lon="-3.320614"><ele>194</ele><time>2023-01-14T09:56:28Z</time><name>PT177</name></trkpt>
<trkpt lat="52.985398" lon="-3.320545"><ele>195</ele><time>2023-01-14T09:56:33Z</time><name>PT178</name></trkpt>
<trkpt lat="52.985418" lon="-3.320499"><ele>193</ele><time>2023-01-14T09:56:36Z</time><name>PT179</name></trkpt>
<trkpt lat="52.985429" lon="-3.320482"><ele>193</ele><time>2023-01-14T09:56:39Z</time><name>PT180</name></trkpt>
<trkpt lat="52.985430" lon="-3.320456"><ele>193</ele><time>2023-01-14T09:56:42Z</time><name>PT181</name></trkpt>
<trkpt lat="52.985459" lon="-3.320449"><ele>191</ele><time>2023-01-14T09:56:45Z</time><name>PT182</name></trkpt>
<trkpt lat="52.985485" lon="-3.320402"><ele>189</ele><time>2023-01-14T09:56:49Z</time><name>PT183</name></trkpt>
<trkpt lat="52.985497" lon="-3.320349"><ele>189</ele><time>2023-01-14T09:56:52Z</time><name>PT184</name></trkpt>
<trkpt lat="52.985523" lon="-3.320305"><ele>187</ele><time>2023-01-14T09:56:55Z</time><name>PT185</name></trkpt>
<trkpt lat="52.985535" lon="-3.320261"><ele>184</ele><time>2023-01-14T09:57:00Z</time><name>PT186</name></trkpt>
<trkpt lat="52.985550" lon="-3.320224"><ele>185</ele><time>2023-01-14T09:57:03Z</time><name>PT187</name></trkpt>
<trkpt lat="52.985561" lon="-3.320194"><ele>186</ele><time>2023-01-14T09:57:06Z</time><name>PT188</name></trkpt>
<trkpt lat="52.985571" lon="-3.320168"><ele>187</ele><time>2023-01-14T09:57:10Z</time><name>PT189</name></trkpt>
<trkpt lat="52.985579" lon="-3.320127"><ele>188</ele><time>2023-01-14T09:57:15Z</time><name>PT190</name></trkpt>
<trkpt lat="52.985581" lon="-3.320116"><ele>189</ele><time>2023-01-14T09:57:18Z</time><name>PT191</name></trkpt>
<trkpt lat="52.985584" lon="-3.320046"><ele>193</ele><time>2023-01-14T09:57:21Z</time><name>PT192</name></trkpt>
<trkpt lat="52.985579" lon="-3.319997"><ele>199</ele><time>2023-01-14T09:57:25Z</time><name>PT193</name></trkpt>
<trkpt lat="52.985595" lon="-3.319975"><ele>201</ele><time>2023-01-14T09:57:30Z</time><name>PT194</name></trkpt>
<trkpt lat="52.985602" lon="-3.319945"><ele>204</ele><time>2023-01-14T09:57:33Z</time><name>PT195</name></trkpt>
<trkpt lat="52.985611" lon="-3.319925"><ele>203</ele><time>2023-01-14T09:57:36Z</time><name>PT196</name></trkpt>
<trkpt lat="52.985624" lon="-3.319883"><ele>203</ele><time>2023-01-14T09:57:39Z</time><name>PT197</name></trkpt>
<trkpt lat="52.985644" lon="-3.319838"><ele>206</ele><time>2023-01-14T09:57:42Z</time><name>PT198</name></trkpt>
<trkpt lat="52.985648" lon="-3.319807"><ele>207</ele><time>2023-01-14T09:57:45Z</time><name>PT199</name></trkpt>
<trkpt lat="52.985665" lon="-3.319760"><ele>205</ele><time>2023-01-14T09:57:50Z</time><name>PT200</name></trkpt>
<trkpt lat="52.985675" lon="-3.319715"><ele>204</ele><time>2023-01-14T09:57:53Z</time><name>PT201</name></trkpt>
<trkpt lat="52.985694" lon="-3.319674"><ele>198</ele><time>2023-01-14T09:57:57Z</time><name>PT202</name></trkpt>
<trkpt lat="52.985711" lon="-3.319675"><ele>194</ele><time>2023-01-14T09:58:00Z</time><name>PT203</name></trkpt>
<trkpt lat="52.985729" lon="-3.319638"><ele>193</ele><time>2023-01-14T09:58:05Z</time><name>PT204</name></trkpt>
<trkpt lat="52.985741" lon="-3.319605"><ele>191</ele><time>2023-01-14T09:58:08Z</time><name>PT205</name></trkpt>
<trkpt lat="52.985750" lon="-3.319539"><ele>196</ele><time>2023-01-14T09:58:11Z</time><name>PT206</name></trkpt>
<trkpt lat="52.985755" lon="-3.319508"><ele>198</ele><time>2023-01-14T09:58:14Z</time><name>PT207</name></trkpt>
<trkpt lat="52.985757" lon="-3.319460"><ele>201</ele><time>2023-01-14T09:58:18Z</time><name>PT208</name></trkpt>
<trkpt lat="52.985770" lon="-3.319443"><ele>200</ele><time>2023-01-14T09:58:21Z</time><name>PT209</name></trkpt>
<trkpt lat="52.985791" lon="-3.319408"><ele>200</ele><time>2023-01-14T09:58:26Z</time><name>PT210</name></trkpt>
<trkpt lat="52.985808" lon="-3.319372"><ele>202</ele><time>2023-01-14T09:58:29Z</time><name>PT211</name></trkpt>
<trkpt lat="52.985820" lon="-3.319324"><ele>205</ele><time>2023-01-14T09:58:33Z</time><name>PT212</name></trkpt>
<trkpt lat="52.985840" lon="-3.319291"><ele>205</ele><time>2023-01-14T09:58:38Z</time><name>PT213</name></trkpt>
<trkpt lat="52.985853" lon="-3.319271"><ele>210</ele><time>2023-01-14T09:58:41Z</time><name>PT214</name></trkpt>
<trkpt lat="52.985856" lon="-3.319252"><ele>211</ele><time>2023-01-14T09:58:44Z</time><name>PT215</name></trkpt>
<trkpt lat="52.985914" lon="-3.319173"><ele>212</ele><time>2023-01-14T09:58:48Z</time><name>PT216</name></trkpt>
<trkpt lat="52.985942" lon="-3.319116"><ele>212</ele><time>2023-01-14T09:58:53Z</time><name>PT217</name></trkpt>
<trkpt lat="52.985959" lon="-3.319056"><ele>210</ele><time>2023-01-14T09:58:56Z</time><name>PT218</name></trkpt>
<trkpt lat="52.985973" lon="-3.319016"><ele>211</ele><time>2023-01-14T09:59:00Z</time><name>PT219</name></trkpt>
<trkpt lat="52.985983" lon="-3.318965"><ele>211</ele><time>2023-01-14T09:59:03Z</time><name>PT220</name></trkpt>
<trkpt lat="52.985994" lon="-3.318932"><ele>209</ele><time>2023-01-14T09:59:08Z</time><name>PT221</name></trkpt>
<trkpt lat="52.985997" lon="-3.318897"><ele>209</ele><time>2023-01-14T09:59:11Z</time><name>PT222</name></trkpt>
<trkpt lat="52.986007" lon="-3.318882"><ele>210</ele><time>2023-01-14T09:59:14Z</time><name>PT223</name></trkpt>
<trkpt lat="52.986010" lon="-3.318852"><ele>212</ele><time>2023-01-14T09:59:18Z</time><name>PT224</name></trkpt>
<trkpt lat="52.986009" lon="-3.318825"><ele>212</ele><time>2023-01-14T09:59:21Z</time><name>PT225</name></trkpt>
<trkpt lat="52.986018" lon="-3.318808"><ele>213</ele><time>2023-01-14T09:59:24Z</time><name>PT226</name></trkpt>
<trkpt lat="52.986027" lon="-3.318778"><ele>215</ele><time>2023-01-14T09:59:29Z</time><name>PT227</name></trkpt>
<trkpt lat="52.986040" lon="-3.318749"><ele>215</ele><time>2023-01-14T09:59:32Z</time><name>PT228</name></trkpt>
<trkpt lat="52.986046" lon="-3.318731"><ele>217</ele><time>2023-01-14T09:59:36Z</time><name>PT229</name></trkpt>
<trkpt lat="52.986055" lon="-3.318712"><ele>219</ele><time>2023-01-14T09:59:39Z</time><name>PT230</name></trkpt>
<trkpt lat="52.986060" lon="-3.318706"><ele>219</ele><time>2023-01-14T09:59:44Z</time><name>PT231</name></trkpt>
<trkpt lat="52.986064" lon="-3.318694"><ele>219</ele><time>2023-01-14T09:59:47Z</time><name>PT232</name></trkpt>
<trkpt lat="52.986080" lon="-3.318650"><ele>219</ele><time>2023-01-14T09:59:51Z</time><name>PT233</name></trkpt>
<trkpt lat="52.986094" lon="-3.318621"><ele>220</ele><time>2023-01-14T09:59:56Z</time><name>PT234</name></trkpt>
<trkpt lat="52.986113" lon="-3.318611"><ele>223</ele><time>2023-01-14T09:59:59Z</time><name>PT235</name></trkpt>
<trkpt lat="52.986127" lon="-3.318570"><ele>225</ele><time>2023-01-14T10:00:02Z</time><name>PT236</name></trkpt>
<trkpt lat="52.986142" lon="-3.318537"><ele>226</ele><time>2023-01-14T10:00:05Z</time><name>PT237</name></trkpt>
<trkpt lat="52.986153" lon="-3.318512"><ele>225</ele><time>2023-01-14T10:00:08Z</time><name>PT238</name></trkpt>
<trkpt lat="52.986172" lon="-3.318468"><ele>224</ele><time>2023-01-14T10:00:12Z</time><name>PT239</name></trkpt>
<trkpt lat="52.986185" lon="-3.318428"><ele>223</ele><time>2023-01-14T10:00:17Z</time><name>PT240</name></trkpt>
<trkpt lat="52.986192" lon="-3.318414"><ele>223</ele><time>2023-01-14T10:00:20Z</time><name>PT241</name></trkpt>
<trkpt lat="52.986193" lon="-3.318371"><ele>222</ele><time>2023-01-14T10:00:23Z</time><name>PT242</name></trkpt>
<trkpt lat="52.986190" lon="-3.318332"><ele>223</ele><time>2023-01-14T10:00:26Z</time><name>PT243</name></trkpt>
<trkpt lat="52.986203" lon="-3.318308"><ele>224</ele><time>2023-01-14T10:00:29Z</time><name>PT244</name></trkpt>
<trkpt lat="52.986208" lon="-3.318292"><ele>225</ele><time>2023-01-14T10:00:32Z</time><name>PT245</name></trkpt>
<trkpt lat="52.986217" lon="-3.318267"><ele>225</ele><time>2023-01-14T10:00:36Z</time><name>PT246</name></trkpt>
<trkpt lat="52.986236" lon="-3.318235"><ele>227</ele><time>2023-01-14T10:00:41Z</time><name>PT247</name></trkpt>
<trkpt lat="52.986253" lon="-3.318204"><ele>226</ele><time>2023-01-14T10:00:44Z</time><name>PT248</name></trkpt>
<trkpt lat="52.986269" lon="-3.318176"><ele>226</ele><time>2023-01-14T10:00:48Z</time><name>PT249</name></trkpt>
<trkpt lat="52.986268" lon="-3.318155"><ele>227</ele><time>2023-01-14T10:00:51Z</time><name>PT250</name></trkpt>
<trkpt lat="52.986279" lon="-3.318136"><ele>230</ele><time>2023-01-14T10:00:56Z</time><name>PT251</name></trkpt>
<trkpt lat="52.986287" lon="-3.318119"><ele>232</ele><time>2023-01-14T10:00:59Z</time><name>PT252</name></trkpt>
<trkpt lat="52.986303" lon="-3.318103"><ele>233</ele><time>2023-01-14T10:01:02Z</time><name>PT253</name></trkpt>
<trkpt lat="52.986309" lon="-3.318074"><ele>235</ele><time>2023-01-14T10:01:05Z</time><name>PT254</name></trkpt>
<trkpt lat="52.986319" lon="-3.318048"><ele>234</ele><time>2023-01-14T10:01:09Z</time><name>PT255</name></trkpt>
<trkpt lat="52.986319" lon="-3.318004"><ele>236</ele><time>2023-01-14T10:01:14Z</time><name>PT256</name></trkpt>
<trkpt lat="52.986314" lon="-3.317966"><ele>237</ele><time>2023-01-14T10:01:17Z</time><name>PT257</name></trkpt>
<trkpt lat="52.986312" lon="-3.317944"><ele>239</ele><time>2023-01-14T10:01:20Z</time><name>PT258</name></trkpt>
<trkpt lat="52.986313" lon="-3.317908"><ele>239</ele><time>2023-01-14T10:01:24Z</time><name>PT259</name></trkpt>
<trkpt lat="52.986327" lon="-3.317872"><ele>238</ele><time>2023-01-14T10:01:29Z</time><name>PT260</name></trkpt>
<trkpt lat="52.986331" lon="-3.317832"><ele>237</ele><time>2023-01-14T10:01:32Z</time><name>PT261</name></trkpt>
<trkpt lat="52.986339" lon="-3.317806"><ele>237</ele><time>2023-01-14T10:01:35Z</time><name>PT262</name></trkpt>
<trkpt lat="52.986346" lon="-3.317767"><ele>237</ele><time>2023-01-14T10:01:38Z</time><name>PT263</name></trkpt>
<trkpt lat="52.986354" lon="-3.317738"><ele>236</ele><time>2023-01-14T10:01:42Z</time><name>PT264</name></trkpt>
<trkpt lat="52.986365" lon="-3.317712"><ele>237</ele><time>2023-01-14T10:01:45Z</time><name>PT265</name></trkpt>
<trkpt lat="52.986380" lon="-3.317670"><ele>241</ele><time>2023-01-14T10:01:50Z</time><name>PT266</name></trkpt>
<trkpt lat="52.986392" lon="-3.317641"><ele>239</ele><time>2023-01-14T10:01:53Z</time><name>PT267</name></trkpt>
<trkpt lat="52.986398" lon="-3.317617"><ele>238</ele><time>2023-01-14T10:01:56Z</time><name>PT268</name></trkpt>
<trkpt lat="52.986411" lon="-3.317594"><ele>237</ele><time>2023-01-14T10:01:59Z</time><name>PT269</name></trkpt>
<trkpt lat="52.986417" lon="-3.317547"><ele>237</ele><time>2023-01-14T10:02:03Z</time><name>PT270</name></trkpt>
<trkpt lat="52.986422" lon="-3.317511"><ele>237</ele><time>2023-01-14T10:02:06Z</time><name>PT271</name></trkpt>
<trkpt lat="52.986435" lon="-3.317467"><ele>238</ele><time>2023-01-14T10:02:11Z</time><name>PT272</name></trkpt>
<trkpt lat="52.986441" lon="-3.317427"><ele>239</ele><time>2023-01-14T10:02:14Z</time><name>PT273</name></trkpt>
<trkpt lat="52.986451" lon="-3.317374"><ele>240</ele><time>2023-01-14T10:02:17Z</time><name>PT274</name></trkpt>
<trkpt lat="52.986462" lon="-3.317336"><ele>240</ele><time>2023-01-14T10:02:20Z</time><name>PT275</name></trkpt>
<trkpt lat="52.986476" lon="-3.317296"><ele>240</ele><time>2023-01-14T10:02:24Z</time><name>PT276</name></trkpt>
<trkpt lat="52.986485" lon="-3.317254"><ele>242</ele><time>2023-01-14T10:02:27Z</time><name>PT277</name></trkpt>
<trkpt lat="52.986494" lon="-3.317205"><ele>241</ele><time>2023-01-14T10:02:32Z</time><name>PT278</name></trkpt>
<trkpt lat="52.986501" lon="-3.317174"><ele>241</ele><time>2023-01-14T10:02:35Z</time><name>PT279</name></trkpt>
<trkpt lat="52.986509" lon="-3.317139"><ele>240</ele><time>2023-01-14T10:02:38Z</time><name>PT280</name></trkpt>
<trkpt lat="52.986515" lon="-3.317097"><ele>241</ele><time>2023-01-14T10:02:41Z</time><name>PT281</name></trkpt>
<trkpt lat="52.986521" lon="-3.317069"><ele>240</ele><time>2023-01-14T10:02:45Z</time><name>PT282</name></trkpt>
<trkpt lat="52.986541" lon="-3.317017"><ele>241</ele><time>2023-01-14T10:02:50Z</time><name>PT283</name></trkpt>
<trkpt lat="52.986562" lon="-3.316958"><ele>237</ele><time>2023-01-14T10:02:53Z</time><name>PT284</name></trkpt>
<trkpt lat="52.986576" lon="-3.316900"><ele>236</ele><time>2023-01-14T10:02:56Z</time><name>PT285</name></trkpt>
<trkpt lat="52.986586" lon="-3.316866"><ele>236</ele><time>2023-01-14T10:02:59Z</time><name>PT286</name></trkpt>
<trkpt lat="52.986595" lon="-3.316829"><ele>238</ele><time>2023-01-14T10:03:03Z</time><name>PT287</name></trkpt>
<trkpt lat="52.986613" lon="-3.316809"><ele>238</ele><time>2023-01-14T10:03:08Z</time><name>PT288</name></trkpt>
<trkpt lat="52.986626" lon="-3.316798"><ele>237</ele><time>2023-01-14T10:03:11Z</time><name>PT289</name></trkpt>
<trkpt lat="52.986640" lon="-3.316772"><ele>236</ele><time>2023-01-14T10:03:14Z</time><name>PT290</name></trkpt>
<trkpt lat="52.986653" lon="-3.316755"><ele>236</ele><time>2023-01-14T10:03:17Z</time><name>PT291</name></trkpt>
<trkpt lat="52.986659" lon="-3.316731"><ele>235</ele><time>2023-01-14T10:03:21Z</time><name>PT292</name></trkpt>
<trkpt lat="52.986663" lon="-3.316710"><ele>237</ele><time>2023-01-14T10:03:24Z</time><name>PT293</name></trkpt>
<trkpt lat="52.986667" lon="-3.316673"><ele>238</ele><time>2023-01-14T10:03:29Z</time><name>PT294</name></trkpt>
<trkpt lat="52.986689" lon="-3.316629"><ele>239</ele><time>2023-01-14T10:03:32Z</time><name>PT295</name></trkpt>
<trkpt lat="52.986713" lon="-3.316599"><ele>241</ele><time>2023-01-14T10:03:36Z</time><name>PT296</name></trkpt>
<trkpt lat="52.986727" lon="-3.316557"><ele>244</ele><time>2023-01-14T10:03:41Z</time><name>PT297</name></trkpt>
<trkpt lat="52.986732" lon="-3.316515"><ele>244</ele><time>2023-01-14T10:03:44Z</time><name>PT298</name></trkpt>
<trkpt lat="52.986743" lon="-3.316503"><ele>246</ele><time>2023-01-14T10:03:47Z</time><name>PT299</name></trkpt>
<trkpt lat="52.986753" lon="-3.316469"><ele>247</ele><time>2023-01-14T10:03:51Z</time><name>PT300</name></trkpt>
<trkpt lat="52.986764" lon="-3.316445"><ele>250</ele><time>2023-01-14T10:03:54Z</time><name>PT301</name></trkpt>
<trkpt lat="52.986774" lon="-3.316430"><ele>253</ele><time>2023-01-14T10:03:59Z</time><name>PT302</name></trkpt>
<trkpt lat="52.986777" lon="-3.316404"><ele>252</ele><time>2023-01-14T10:04:02Z</time><name>PT303</name></trkpt>
<trkpt lat="52.986778" lon="-3.316349"><ele>253</ele><time>2023-01-14T10:04:05Z</time><name>PT304</name></trkpt>
<trkpt lat="52.986783" lon="-3.316317"><ele>252</ele><time>2023-01-14T10:04:08Z</time><name>PT305</name></trkpt>
<trkpt lat="52.986794" lon="-3.316283"><ele>253</ele><time>2023-01-14T10:04:12Z</time><name>PT306</name></trkpt>
<trkpt lat="52.986803" lon="-3.316270"><ele>253</ele><time>2023-01-14T10:04:17Z</time><name>PT307</name></trkpt>
<trkpt lat="52.986831" lon="-3.316183"><ele>252</ele><time>2023-01-14T10:04:20Z</time><name>PT308</name></trkpt>
<trkpt lat="52.986849" lon="-3.316127"><ele>252</ele><time>2023-01-14T10:04:23Z</time><name>PT309</name></trkpt>
<trkpt lat="52.986866" lon="-3.316060"><ele>252</ele><time>2023-01-14T10:04:27Z</time><name>PT310</name></trkpt>
<trkpt lat="52.986880" lon="-3.316042"><ele>252</ele><time>2023-01-14T10:04:30Z</time><name>PT311</name></trkpt>
<trkpt lat="52.986895" lon="-3.316008"><ele>251</ele><time>2023-01-14T10:04:35Z</time><name>PT312</name></trkpt>
<trkpt lat="52.986914" lon="-3.315996"><ele>253</ele><time>2023-01-14T10:04:38Z</time><name>PT313</name></trkpt>
<trkpt lat="52.986917" lon="-3.315987"><ele>253</ele><time>2023-01-14T10:04:41Z</time><name>PT314</name></trkpt>
<trkpt lat="52.986942" lon="-3.315957"><ele>253</ele><time>2023-01-14T10:04:45Z</time><name>PT315</name></trkpt>
<trkpt lat="52.986958" lon="-3.315930"><ele>254</ele><time>2023-01-14T10:04:48Z</time><name>PT316</name></trkpt>
<trkpt lat="52.986975" lon="-3.315898"><ele>255</ele><time>2023-01-14T10:04:53Z</time><name>PT317</name></trkpt>
<trkpt lat="52.986998" lon="-3.315857"><ele>256</ele><time>2023-01-14T10:04:56Z</time><name>PT318</name></trkpt>
<trkpt lat="52.987014" lon="-3.315836"><ele>258</ele><time>2023-01-14T10:04:59Z</time><name>PT319</name></trkpt>
<trkpt lat="52.987039" lon="-3.315829"><ele>260</ele><time>2023-01-14T10:05:03Z</time><name>PT320</name></trkpt>
<trkpt lat="52.987061" lon="-3.315816"><ele>261</ele><time>2023-01-14T10:05:08Z</time><name>PT321</name></trkpt>
<trkpt lat="52.987075" lon="-3.315800"><ele>262</ele><time>2023-01-14T10:05:11Z</time><name>PT322</name></trkpt>
<trkpt lat="52.987078" lon="-3.315779"><ele>263</ele><time>2023-01-14T10:05:14Z</time><name>PT323</name></trkpt>
<trkpt lat="52.987090" lon="-3.315757"><ele>263</ele><time>2023-01-14T10:05:17Z</time><name>PT324</name></trkpt>
<trkpt lat="52.987105" lon="-3.315720"><ele>263</ele><time>2023-01-14T10:05:21Z</time><name>PT325</name></trkpt>
<trkpt lat="52.987119" lon="-3.315683"><ele>263</ele><time>2023-01-14T10:05:26Z</time><name>PT326</name></trkpt>
<trkpt lat="52.987134" lon="-3.315653"><ele>264</ele><time>2023-01-14T10:05:29Z</time><name>PT327</name></trkpt>
<trkpt lat="52.987151" lon="-3.315618"><ele>265</ele><time>2023-01-14T10:05:33Z</time><name>PT328</name></trkpt>
<trkpt lat="52.987161" lon="-3.315601"><ele>266</ele><time>2023-01-14T10:05:36Z</time><name>PT329</name></trkpt>
<trkpt lat="52.987162" lon="-3.315579"><ele>266</ele><time>2023-01-14T10:05:44Z</time><name>PT330</name></trkpt>
<trkpt lat="52.987188" lon="-3.315523"><ele>265</ele><time>2023-01-14T10:05:47Z</time><name>PT331</name></trkpt>
<trkpt lat="52.987215" lon="-3.315471"><ele>266</ele><time>2023-01-14T10:05:50Z</time><name>PT332</name></trkpt>
<trkpt lat="52.987231" lon="-3.315445"><ele>266</ele><time>2023-01-14T10:05:54Z</time><name>PT333</name></trkpt>
<trkpt lat="52.987249" lon="-3.315408"><ele>265</ele><time>2023-01-14T10:05:59Z</time><name>PT334</name></trkpt>
<trkpt lat="52.987264" lon="-3.315379"><ele>265</ele><time>2023-01-14T10:06:02Z</time><name>PT335</name></trkpt>
<trkpt lat="52.987284" lon="-3.315351"><ele>266</ele><time>2023-01-14T10:06:05Z</time><name>PT336</name></trkpt>
<trkpt lat="52.987296" lon="-3.315320"><ele>267</ele><time>2023-01-14T10:06:08Z</time><name>PT337</name></trkpt>
<trkpt lat="52.987305" lon="-3.315294"><ele>266</ele><time>2023-01-14T10:06:11Z</time><name>PT338</name></trkpt>
<trkpt lat="52.987314" lon="-3.315268"><ele>267</ele><time>2023-01-14T10:06:14Z</time><name>PT339</name></trkpt>
<trkpt lat="52.987335" lon="-3.315257"><ele>268</ele><time>2023-01-14T10:06:17Z</time><name>PT340</name></trkpt>
<trkpt lat="52.987357" lon="-3.315250"><ele>268</ele><time>2023-01-14T10:06:20Z</time><name>PT341</name></trkpt>
<trkpt lat="52.987364" lon="-3.315250"><ele>268</ele><time>2023-01-14T10:06:25Z</time><name>PT342</name></trkpt>
<trkpt lat="52.987390" lon="-3.315247"><ele>267</ele><time>2023-01-14T10:06:32Z</time><name>PT343</name></trkpt>
<trkpt lat="52.987405" lon="-3.315267"><ele>271</ele><time>2023-01-14T10:07:14Z</time><name>PT344</name></trkpt>
<trkpt lat="52.987423" lon="-3.315263"><ele>271</ele><time>2023-01-14T10:07:17Z</time><name>PT345</name></trkpt>
<trkpt lat="52.987433" lon="-3.315253"><ele>271</ele><time>2023-01-14T10:07:21Z</time><name>PT346</name></trkpt>
<trkpt lat="52.987447" lon="-3.315278"><ele>271</ele><time>2023-01-14T10:07:26Z</time><name>PT347</name></trkpt>
<trkpt lat="52.987458" lon="-3.315296"><ele>271</ele><time>2023-01-14T10:07:29Z</time><name>PT348</name></trkpt>
<trkpt lat="52.987477" lon="-3.315310"><ele>272</ele><time>2023-01-14T10:07:32Z</time><name>PT349</name></trkpt>
<trkpt lat="52.987494" lon="-3.315311"><ele>271</ele><time>2023-01-14T10:07:36Z</time><name>PT350</name></trkpt>
<trkpt lat="52.987510" lon="-3.315298"><ele>272</ele><time>2023-01-14T10:07:41Z</time><name>PT351</name></trkpt>
<trkpt lat="52.987538" lon="-3.315288"><ele>273</ele><time>2023-01-14T10:07:44Z</time><name>PT352</name></trkpt>
<trkpt lat="52.987556" lon="-3.315304"><ele>274</ele><time>2023-01-14T10:07:47Z</time><name>PT353</name></trkpt>
<trkpt lat="52.987583" lon="-3.315292"><ele>274</ele><time>2023-01-14T10:07:51Z</time><name>PT354</name></trkpt>
<trkpt lat="52.987591" lon="-3.315273"><ele>274</ele><time>2023-01-14T10:08:02Z</time><name>PT355</name></trkpt>
<trkpt lat="52.987621" lon="-3.315201"><ele>275</ele><time>2023-01-14T10:08:06Z</time><name>PT356</name></trkpt>
<trkpt lat="52.987642" lon="-3.315167"><ele>275</ele><time>2023-01-14T10:08:09Z</time><name>PT357</name></trkpt>
<trkpt lat="52.987646" lon="-3.315157"><ele>275</ele><time>2023-01-14T10:08:12Z</time><name>PT358</name></trkpt>
<trkpt lat="52.987667" lon="-3.315113"><ele>275</ele><time>2023-01-14T10:08:17Z</time><name>PT359</name></trkpt>
<trkpt lat="52.987681" lon="-3.315080"><ele>277</ele><time>2023-01-14T10:08:20Z</time><name>PT360</name></trkpt>
<trkpt lat="52.987692" lon="-3.315052"><ele>279</ele><time>2023-01-14T10:08:24Z</time><name>PT361</name></trkpt>
<trkpt lat="52.987694" lon="-3.315037"><ele>278</ele><time>2023-01-14T10:08:29Z</time><name>PT362</name></trkpt>
<trkpt lat="52.987712" lon="-3.314995"><ele>279</ele><time>2023-01-14T10:08:35Z</time><name>PT363</name></trkpt>
<trkpt lat="52.987720" lon="-3.314940"><ele>279</ele><time>2023-01-14T10:08:39Z</time><name>PT364</name></trkpt>
<trkpt lat="52.987733" lon="-3.314895"><ele>278</ele><time>2023-01-14T10:08:44Z</time><name>PT365</name></trkpt>
<trkpt lat="52.987742" lon="-3.314871"><ele>278</ele><time>2023-01-14T10:08:47Z</time><name>PT366</name></trkpt>
<trkpt lat="52.987750" lon="-3.314859"><ele>279</ele><time>2023-01-14T10:08:50Z</time><name>PT367</name></trkpt>
<trkpt lat="52.987766" lon="-3.314825"><ele>279</ele><time>2023-01-14T10:08:54Z</time><name>PT368</name></trkpt>
<trkpt lat="52.987777" lon="-3.314797"><ele>279</ele><time>2023-01-14T10:08:59Z</time><name>PT369</name></trkpt>
<trkpt lat="52.987776" lon="-3.314795"><ele>279</ele><time>2023-01-14T10:09:02Z</time><name>PT370</name></trkpt>
<trkpt lat="52.987786" lon="-3.314772"><ele>280</ele><time>2023-01-14T10:09:09Z</time><name>PT371</name></trkpt>
<trkpt lat="52.987801" lon="-3.314751"><ele>280</ele><time>2023-01-14T10:09:12Z</time><name>PT372</name></trkpt>
<trkpt lat="52.987820" lon="-3.314739"><ele>280</ele><time>2023-01-14T10:09:15Z</time><name>PT373</name></trkpt>
<trkpt lat="52.987836" lon="-3.314721"><ele>280</ele><time>2023-01-14T10:09:20Z</time><name>PT374</name></trkpt>
<trkpt lat="52.987838" lon="-3.314709"><ele>280</ele><time>2023-01-14T10:09:26Z</time><name>PT375</name></trkpt>
<trkpt lat="52.987847" lon="-3.314691"><ele>280</ele><time>2023-01-14T10:09:29Z</time><name>PT376</name></trkpt>
<trkpt lat="52.987849" lon="-3.314684"><ele>281</ele><time>2023-01-14T10:09:32Z</time><name>PT377</name></trkpt>
<trkpt lat="52.987856" lon="-3.314678"><ele>281</ele><time>2023-01-14T10:09:35Z</time><name>PT378</name></trkpt>
<trkpt lat="52.987882" lon="-3.314644"><ele>283</ele><time>2023-01-14T10:09:39Z</time><name>PT379</name></trkpt>
<trkpt lat="52.987913" lon="-3.314616"><ele>283</ele><time>2023-01-14T10:09:44Z</time><name>PT380</name></trkpt>
<trkpt lat="52.987930" lon="-3.314604"><ele>284</ele><time>2023-01-14T10:09:47Z</time><name>PT381</name></trkpt>
<trkpt lat="52.987949" lon="-3.314592"><ele>285</ele><time>2023-01-14T10:09:50Z</time><name>PT382</name></trkpt>
<trkpt lat="52.987972" lon="-3.314575"><ele>285</ele><time>2023-01-14T10:10:08Z</time><name>PT383</name></trkpt>
<trkpt lat="52.987998" lon="-3.314558"><ele>285</ele><time>2023-01-14T10:10:11Z</time><name>PT384</name></trkpt>
<trkpt lat="52.988017" lon="-3.314541"><ele>285</ele><time>2023-01-14T10:10:14Z</time><name>PT385</name></trkpt>
<trkpt lat="52.988038" lon="-3.314525"><ele>286</ele><time>2023-01-14T10:10:17Z</time><name>PT386</name></trkpt>
<trkpt lat="52.988048" lon="-3.314516"><ele>287</ele><time>2023-01-14T10:10:20Z</time><name>PT387</name></trkpt>
<trkpt lat="52.988054" lon="-3.314491"><ele>287</ele><time>2023-01-14T10:10:29Z</time><name>PT388</name></trkpt>
<trkpt lat="52.988079" lon="-3.314474"><ele>288</ele><time>2023-01-14T10:10:32Z</time><name>PT389</name></trkpt>
<trkpt lat="52.988113" lon="-3.314459"><ele>288</ele><time>2023-01-14T10:10:35Z</time><name>PT390</name></trkpt>
<trkpt lat="52.988137" lon="-3.314441"><ele>289</ele><time>2023-01-14T10:10:38Z</time><name>PT391</name></trkpt>
<trkpt lat="52.988177" lon="-3.314421"><ele>289</ele><time>2023-01-14T10:10:42Z</time><name>PT392</name></trkpt>
<trkpt lat="52.988208" lon="-3.314415"><ele>289</ele><time>2023-01-14T10:10:45Z</time><name>PT393</name></trkpt>
<trkpt lat="52.988239" lon="-3.314402"><ele>290</ele><time>2023-01-14T10:10:50Z</time><name>PT394</name></trkpt>
<trkpt lat="52.988278" lon="-3.314381"><ele>291</ele><time>2023-01-14T10:10:53Z</time><name>PT395</name></trkpt>
<trkpt lat="52.988302" lon="-3.314366"><ele>291</ele><time>2023-01-14T10:10:56Z</time><name>PT396</name></trkpt>
<trkpt lat="52.988324" lon="-3.314355"><ele>292</ele><time>2023-01-14T10:10:59Z</time><name>PT397</name></trkpt>
<trkpt lat="52.988348" lon="-3.314348"><ele>293</ele><time>2023-01-14T10:11:03Z</time><name>PT398</name></trkpt>
<trkpt lat="52.988378" lon="-3.314329"><ele>294</ele><time>2023-01-14T10:11:08Z</time><name>PT399</name></trkpt>
<trkpt lat="52.988401" lon="-3.314308"><ele>295</ele><time>2023-01-14T10:11:11Z</time><name>PT400</name></trkpt>
<trkpt lat="52.988422" lon="-3.314291"><ele>296</ele><time>2023-01-14T10:11:14Z</time><name>PT401</name></trkpt>
<trkpt lat="52.988445" lon="-3.314269"><ele>297</ele><time>2023-01-14T10:11:17Z</time><name>PT402</name></trkpt>
<trkpt lat="52.988465" lon="-3.314255"><ele>298</ele><time>2023-01-14T10:11:20Z</time><name>PT403</name></trkpt>
<trkpt lat="52.988495" lon="-3.314238"><ele>299</ele><time>2023-01-14T10:11:24Z</time><name>PT404</name></trkpt>
<trkpt lat="52.988515" lon="-3.314230"><ele>300</ele><time>2023-01-14T10:11:27Z</time><name>PT405</name></trkpt>
<trkpt lat="52.988544" lon="-3.314211"><ele>300</ele><time>2023-01-14T10:11:32Z</time><name>PT406</name></trkpt>
<trkpt lat="52.988571" lon="-3.314191"><ele>301</ele><time>2023-01-14T10:11:35Z</time><name>PT407</name></trkpt>
<trkpt lat="52.988592" lon="-3.314179"><ele>302</ele><time>2023-01-14T10:11:38Z</time><name>PT408</name></trkpt>
<trkpt lat="52.988612" lon="-3.314170"><ele>302</ele><time>2023-01-14T10:11:41Z</time><name>PT409</name></trkpt>
<trkpt lat="52.988634" lon="-3.314148"><ele>303</ele><time>2023-01-14T10:11:45Z</time><name>PT410</name></trkpt>
<trkpt lat="52.988660" lon="-3.314135"><ele>304</ele><time>2023-01-14T10:11:50Z</time><name>PT411</name></trkpt>
<trkpt lat="52.988683" lon="-3.314128"><ele>305</ele><time>2023-01-14T10:11:53Z</time><name>PT412</name></trkpt>
<trkpt lat="52.988711" lon="-3.314110"><ele>306</ele><time>2023-01-14T10:11:56Z</time><name>PT413</name></trkpt>
<trkpt lat="52.988733" lon="-3.314091"><ele>307</ele><time>2023-01-14T10:12:00Z</time><name>PT414</name></trkpt>
<trkpt lat="52.988752" lon="-3.314080"><ele>308</ele><time>2023-01-14T10:12:03Z</time><name>PT415</name></trkpt>
<trkpt lat="52.988770" lon="-3.314070"><ele>308</ele><time>2023-01-14T10:12:06Z</time><name>PT416</name></trkpt>
<trkpt lat="52.988790" lon="-3.314066"><ele>308</ele><time>2023-01-14T10:12:11Z</time><name>PT417</name></trkpt>
<trkpt lat="52.988810" lon="-3.314051"><ele>308</ele><time>2023-01-14T10:12:14Z</time><name>PT418</name></trkpt>
<trkpt lat="52.988834" lon="-3.314029"><ele>309</ele><time>2023-01-14T10:12:17Z</time><name>PT419</name></trkpt>
<trkpt lat="52.988856" lon="-3.314017"><ele>310</ele><time>2023-01-14T10:12:20Z</time><name>PT420</name></trkpt>
<trkpt lat="52.988880" lon="-3.313999"><ele>311</ele><time>2023-01-14T10:12:23Z</time><name>PT421</name></trkpt>
<trkpt lat="52.988903" lon="-3.313979"><ele>311</ele><time>2023-01-14T10:12:26Z</time><name>PT422</name></trkpt>
<trkpt lat="52.988922" lon="-3.313963"><ele>312</ele><time>2023-01-14T10:12:29Z</time><name>PT423</name></trkpt>
<trkpt lat="52.988937" lon="-3.313955"><ele>312</ele><time>2023-01-14T10:12:32Z</time><name>PT424</name></trkpt>
<trkpt lat="52.988953" lon="-3.313942"><ele>313</ele><time>2023-01-14T10:12:35Z</time><name>PT425</name></trkpt>
<trkpt lat="52.988975" lon="-3.313944"><ele>312</ele><time>2023-01-14T10:12:39Z</time><name>PT426</name></trkpt>
<trkpt lat="52.988996" lon="-3.313944"><ele>312</ele><time>2023-01-14T10:12:42Z</time><name>PT427</name></trkpt>
<trkpt lat="52.989027" lon="-3.313944"><ele>312</ele><time>2023-01-14T10:12:47Z</time><name>PT428</name></trkpt>
<trkpt lat="52.989072" lon="-3.313949"><ele>312</ele><time>2023-01-14T10:12:50Z</time><name>PT429</name></trkpt>
<trkpt lat="52.989100" lon="-3.313952"><ele>313</ele><time>2023-01-14T10:12:53Z</time><name>PT430</name></trkpt>
<trkpt lat="52.989140" lon="-3.313944"><ele>312</ele><time>2023-01-14T10:12:57Z</time><name>PT431</name></trkpt>
<trkpt lat="52.989170" lon="-3.313949"><ele>312</ele><time>2023-01-14T10:13:01Z</time><name>PT432</name></trkpt>
<trkpt lat="52.989202" lon="-3.313950"><ele>313</ele><time>2023-01-14T10:13:04Z</time><name>PT433</name></trkpt>
<trkpt lat="52.989241" lon="-3.313943"><ele>314</ele><time>2023-01-14T10:13:07Z</time><name>PT434</name></trkpt>
<trkpt lat="52.989270" lon="-3.313939"><ele>314</ele><time>2023-01-14T10:13:10Z</time><name>PT435</name></trkpt>
<trkpt lat="52.989297" lon="-3.313939"><ele>315</ele><time>2023-01-14T10:13:13Z</time><name>PT436</name></trkpt>
<trkpt lat="52.989336" lon="-3.313938"><ele>315</ele><time>2023-01-14T10:13:17Z</time><name>PT437</name></trkpt>
<trkpt lat="52.989363" lon="-3.313941"><ele>316</ele><time>2023-01-14T10:13:20Z</time><name>PT438</name></trkpt>
<trkpt lat="52.989395" lon="-3.313936"><ele>317</ele><time>2023-01-14T10:13:25Z</time><name>PT439</name></trkpt>
<trkpt lat="52.989417" lon="-3.313931"><ele>317</ele><time>2023-01-14T10:13:28Z</time><name>PT440</name></trkpt>
<trkpt lat="52.989449" lon="-3.313931"><ele>319</ele><time>2023-01-14T10:13:31Z</time><name>PT441</name></trkpt>
<trkpt lat="52.989470" lon="-3.313930"><ele>319</ele><time>2023-01-14T10:13:34Z</time><name>PT442</name></trkpt>
<trkpt lat="52.989497" lon="-3.313928"><ele>320</ele><time>2023-01-14T10:13:38Z</time><name>PT443</name></trkpt>
<trkpt lat="52.989525" lon="-3.313923"><ele>320</ele><time>2023-01-14T10:13:43Z</time><name>PT444</name></trkpt>
<trkpt lat="52.989544" lon="-3.313919"><ele>320</ele><time>2023-01-14T10:13:46Z</time><name>PT445</name></trkpt>
<trkpt lat="52.989575" lon="-3.313910"><ele>320</ele><time>2023-01-14T10:13:49Z</time><name>PT446</name></trkpt>
<trkpt lat="52.989597" lon="-3.313914"><ele>321</ele><time>2023-01-14T10:13:52Z</time><name>PT447</name></trkpt>
<trkpt lat="52.989620" lon="-3.313915"><ele>321</ele><time>2023-01-14T10:13:55Z</time><name>PT448</name></trkpt>
<trkpt lat="52.989642" lon="-3.313915"><ele>321</ele><time>2023-01-14T10:13:58Z</time><name>PT449</name></trkpt>
<trkpt lat="52.989671" lon="-3.313910"><ele>322</ele><time>2023-01-14T10:14:02Z</time><name>PT450</name></trkpt>
<trkpt lat="52.989694" lon="-3.313911"><ele>322</ele><time>2023-01-14T10:14:05Z</time><name>PT451</name></trkpt>
<trkpt lat="52.989714" lon="-3.313920"><ele>322</ele><time>2023-01-14T10:14:08Z</time><name>PT452</name></trkpt>
<trkpt lat="52.989754" lon="-3.313917"><ele>322</ele><time>2023-01-14T10:14:13Z</time><name>PT453</name></trkpt>
<trkpt lat="52.989781" lon="-3.313910"><ele>323</ele><time>2023-01-14T10:14:16Z</time><name>PT454</name></trkpt>
<trkpt lat="52.989817" lon="-3.313912"><ele>323</ele><time>2023-01-14T10:14:19Z</time><name>PT455</name></trkpt>
<trkpt lat="52.989848" lon="-3.313906"><ele>323</ele><time>2023-01-14T10:14:22Z</time><name>PT456</name></trkpt>
<trkpt lat="52.989888" lon="-3.313896"><ele>324</ele><time>2023-01-14T10:14:26Z</time><name>PT457</name></trkpt>
<trkpt lat="52.989923" lon="-3.313884"><ele>324</ele><time>2023-01-14T10:14:31Z</time><name>PT458</name></trkpt>
<trkpt lat="52.989950" lon="-3.313879"><ele>324</ele><time>2023-01-14T10:14:34Z</time><name>PT459</name></trkpt>
<trkpt lat="52.989975" lon="-3.313872"><ele>324</ele><time>2023-01-14T10:14:37Z</time><name>PT460</name></trkpt>
<trkpt lat="52.990014" lon="-3.313863"><ele>325</ele><time>2023-01-14T10:14:40Z</time><name>PT461</name></trkpt>
<trkpt lat="52.990036" lon="-3.313853"><ele>325</ele><time>2023-01-14T10:14:43Z</time><name>PT462</name></trkpt>
<trkpt lat="52.990072" lon="-3.313844"><ele>325</ele><time>2023-01-14T10:14:47Z</time><name>PT463</name></trkpt>
<trkpt lat="52.990096" lon="-3.313841"><ele>326</ele><time>2023-01-14T10:14:50Z</time><name>PT464</name></trkpt>
<trkpt lat="52.990131" lon="-3.313832"><ele>326</ele><time>2023-01-14T10:14:55Z</time><name>PT465</name></trkpt>
<trkpt lat="52.990159" lon="-3.313833"><ele>326</ele><time>2023-01-14T10:14:58Z</time><name>PT466</name></trkpt>
<trkpt lat="52.990197" lon="-3.313833"><ele>326</ele><time>2023-01-14T10:15:01Z</time><name>PT467</name></trkpt>
<trkpt lat="52.990222" lon="-3.313834"><ele>325</ele><time>2023-01-14T10:15:04Z</time><name>PT468</name></trkpt>
<trkpt lat="52.990262" lon="-3.313844"><ele>325</ele><time>2023-01-14T10:15:08Z</time><name>PT469</name></trkpt>
<trkpt lat="52.990301" lon="-3.313859"><ele>325</ele><time>2023-01-14T10:15:13Z</time><name>PT470</name></trkpt>
<trkpt lat="52.990330" lon="-3.313852"><ele>325</ele><time>2023-01-14T10:15:16Z</time><name>PT471</name></trkpt>
<trkpt lat="52.990344" lon="-3.313853"><ele>325</ele><time>2023-01-14T10:15:19Z</time><name>PT472</name></trkpt>
<trkpt lat="52.990347" lon="-3.313853"><ele>325</ele><time>2023-01-14T10:15:22Z</time><name>PT473</name></trkpt>
<trkpt lat="52.990351" lon="-3.313851"><ele>325</ele><time>2023-01-14T10:15:53Z</time><name>PT474</name></trkpt>
<trkpt lat="52.990391" lon="-3.313838"><ele>325</ele><time>2023-01-14T10:15:58Z</time><name>PT475</name></trkpt>
<trkpt lat="52.990425" lon="-3.313843"><ele>326</ele><time>2023-01-14T10:16:01Z</time><name>PT476</name></trkpt>
<trkpt lat="52.990458" lon="-3.313857"><ele>326</ele><time>2023-01-14T10:16:04Z</time><name>PT477</name></trkpt>
<trkpt lat="52.990495" lon="-3.313874"><ele>326</ele><time>2023-01-14T10:16:07Z</time><name>PT478</name></trkpt>
<trkpt lat="52.990502" lon="-3.313875"><ele>326</ele><time>2023-01-14T10:16:11Z</time><name>PT479</name></trkpt>
<trkpt lat="52.990506" lon="-3.313883"><ele>326</ele><time>2023-01-14T10:16:22Z</time><name>PT480</name></trkpt>
<trkpt lat="52.990510" lon="-3.313887"><ele>327</ele><time>2023-01-14T10:16:25Z</time><name>PT481</name></trkpt>
<trkpt lat="52.990512" lon="-3.313882"><ele>327</ele><time>2023-01-14T10:16:28Z</time><name>PT482</name></trkpt>
<trkpt lat="52.990515" lon="-3.313878"><ele>327</ele><time>2023-01-14T10:16:32Z</time><name>PT483</name></trkpt>
<trkpt lat="52.990517" lon="-3.313881"><ele>327</ele><time>2023-01-14T10:16:35Z</time><name>PT484</name></trkpt>
<trkpt lat="52.990531" lon="-3.313879"><ele>326</ele><time>2023-01-14T10:16:38Z</time><name>PT485</name></trkpt>
<trkpt lat="52.990555" lon="-3.313893"><ele>326</ele><time>2023-01-14T10:16:43Z</time><name>PT486</name></trkpt>
<trkpt lat="52.990583" lon="-3.313895"><ele>326</ele><time>2023-01-14T10:16:46Z</time><name>PT487</name></trkpt>
<trkpt lat="52.990599" lon="-3.313895"><ele>326</ele><time>2023-01-14T10:16:49Z</time><name>PT488</name></trkpt>
<trkpt lat="52.990600" lon="-3.313893"><ele>326</ele><time>2023-01-14T10:16:52Z</time><name>PT489</name></trkpt>
<trkpt lat="52.990641" lon="-3.313909"><ele>327</ele><time>2023-01-14T10:17:13Z</time><name>PT490</name></trkpt>
<trkpt lat="52.990675" lon="-3.313919"><ele>327</ele><time>2023-01-14T10:17:16Z</time><name>PT491</name></trkpt>
<trkpt lat="52.990721" lon="-3.313927"><ele>326</ele><time>2023-01-14T10:17:19Z</time><name>PT492</name></trkpt>
<trkpt lat="52.990757" lon="-3.313952"><ele>327</ele><time>2023-01-14T10:17:23Z</time><name>PT493</name></trkpt>
<trkpt lat="52.990787" lon="-3.313963"><ele>327</ele><time>2023-01-14T10:17:26Z</time><name>PT494</name></trkpt>
<trkpt lat="52.990828" lon="-3.313980"><ele>327</ele><time>2023-01-14T10:17:31Z</time><name>PT495</name></trkpt>
<trkpt lat="52.990856" lon="-3.313990"><ele>327</ele><time>2023-01-14T10:17:34Z</time><name>PT496</name></trkpt>
<trkpt lat="52.990896" lon="-3.313994"><ele>327</ele><time>2023-01-14T10:17:37Z</time><name>PT497</name></trkpt>
<trkpt lat="52.990929" lon="-3.314006"><ele>327</ele><time>2023-01-14T10:17:40Z</time><name>PT498</name></trkpt>
<trkpt lat="52.990973" lon="-3.314021"><ele>327</ele><time>2023-01-14T10:17:44Z</time><name>PT499</name></trkpt>
<trkpt lat="52.991008" lon="-3.314024"><ele>327</ele><time>2023-01-14T10:17:47Z</time><name>PT500</name></trkpt>
<trkpt lat="52.991039" lon="-3.314028"><ele>327</ele><time>2023-01-14T10:17:50Z</time><name>PT501</name></trkpt>
<trkpt lat="52.991073" lon="-3.314037"><ele>328</ele><time>2023-01-14T10:17:53Z</time><name>PT502</name></trkpt>
<trkpt lat="52.991112" lon="-3.314039"><ele>328</ele><time>2023-01-14T10:17:58Z</time><name>PT503</name></trkpt>
<trkpt lat="52.991149" lon="-3.314030"><ele>328</ele><time>2023-01-14T10:18:01Z</time><name>PT504</name></trkpt>
<trkpt lat="52.991179" lon="-3.314022"><ele>327</ele><time>2023-01-14T10:18:04Z</time><name>PT505</name></trkpt>
<trkpt lat="52.991214" lon="-3.314001"><ele>327</ele><time>2023-01-14T10:18:08Z</time><name>PT506</name></trkpt>
<trkpt lat="52.991239" lon="-3.313987"><ele>327</ele><time>2023-01-14T10:18:11Z</time><name>PT507</name></trkpt>
<trkpt lat="52.991273" lon="-3.313972"><ele>327</ele><time>2023-01-14T10:18:16Z</time><name>PT508</name></trkpt>
<trkpt lat="52.991310" lon="-3.313951"><ele>327</ele><time>2023-01-14T10:18:19Z</time><name>PT509</name></trkpt>
<trkpt lat="52.991354" lon="-3.313935"><ele>327</ele><time>2023-01-14T10:18:23Z</time><name>PT510</name></trkpt>
<trkpt lat="52.991380" lon="-3.313920"><ele>326</ele><time>2023-01-14T10:18:26Z</time><name>PT511</name></trkpt>
<trkpt lat="52.991420" lon="-3.313895"><ele>327</ele><time>2023-01-14T10:18:31Z</time><name>PT512</name></trkpt>
<trkpt lat="52.991459" lon="-3.313872"><ele>327</ele><time>2023-01-14T10:18:34Z</time><name>PT513</name></trkpt>
<trkpt lat="52.991488" lon="-3.313862"><ele>326</ele><time>2023-01-14T10:18:37Z</time><name>PT514</name></trkpt>
<trkpt lat="52.991527" lon="-3.313859"><ele>326</ele><time>2023-01-14T10:18:41Z</time><name>PT515</name></trkpt>
<trkpt lat="52.991561" lon="-3.313850"><ele>325</ele><time>2023-01-14T10:18:46Z</time><name>PT516</name></trkpt>
<trkpt lat="52.991583" lon="-3.313842"><ele>324</ele><time>2023-01-14T10:18:49Z</time><name>PT517</name></trkpt>
<trkpt lat="52.991618" lon="-3.313832"><ele>324</ele><time>2023-01-14T10:18:52Z</time><name>PT518</name></trkpt>
<trkpt lat="52.991654" lon="-3.313816"><ele>323</ele><time>2023-01-14T10:18:56Z</time><name>PT519</name></trkpt>
<trkpt lat="52.991691" lon="-3.313796"><ele>323</ele><time>2023-01-14T10:19:01Z</time><name>PT520</name></trkpt>
<trkpt lat="52.991724" lon="-3.313781"><ele>323</ele><time>2023-01-14T10:19:04Z</time><name>PT521</name></trkpt>
<trkpt lat="52.991758" lon="-3.313761"><ele>323</ele><time>2023-01-14T10:19:08Z</time><name>PT522</name></trkpt>
<trkpt lat="52.991785" lon="-3.313742"><ele>323</ele><time>2023-01-14T10:19:13Z</time><name>PT523</name></trkpt>
<trkpt lat="52.991808" lon="-3.313715"><ele>321</ele><time>2023-01-14T10:19:16Z</time><name>PT524</name></trkpt>
<trkpt lat="52.991821" lon="-3.313697"><ele>320</ele><time>2023-01-14T10:19:19Z</time><name>PT525</name></trkpt>
<trkpt lat="52.991849" lon="-3.313676"><ele>320</ele><time>2023-01-14T10:19:23Z</time><name>PT526</name></trkpt>
<trkpt lat="52.991883" lon="-3.313646"><ele>320</ele><time>2023-01-14T10:19:28Z</time><name>PT527</name></trkpt>
<trkpt lat="52.991921" lon="-3.313608"><ele>320</ele><time>2023-01-14T10:19:31Z</time><name>PT528</name></trkpt>
<trkpt lat="52.991948" lon="-3.313583"><ele>321</ele><time>2023-01-14T10:19:35Z</time><name>PT529</name></trkpt>
<trkpt lat="52.991975" lon="-3.313560"><ele>322</ele><time>2023-01-14T10:19:38Z</time><name>PT530</name></trkpt>
<trkpt lat="52.992006" lon="-3.313533"><ele>321</ele><time>2023-01-14T10:19:43Z</time><name>PT531</name></trkpt>
<trkpt lat="52.992045" lon="-3.313501"><ele>320</ele><time>2023-01-14T10:19:46Z</time><name>PT532</name></trkpt>
<trkpt lat="52.992074" lon="-3.313476"><ele>321</ele><time>2023-01-14T10:19:49Z</time><name>PT533</name></trkpt>
<trkpt lat="52.992107" lon="-3.313445"><ele>321</ele><time>2023-01-14T10:19:52Z</time><name>PT534</name></trkpt>
<trkpt lat="52.992142" lon="-3.313419"><ele>321</ele><time>2023-01-14T10:19:55Z</time><name>PT535</name></trkpt>
<trkpt lat="52.992195" lon="-3.313392"><ele>322</ele><time>2023-01-14T10:19:59Z</time><name>PT536</name></trkpt>
<trkpt lat="52.992236" lon="-3.313358"><ele>323</ele><time>2023-01-14T10:20:04Z</time><name>PT537</name></trkpt>
<trkpt lat="52.992274" lon="-3.313315"><ele>324</ele><time>2023-01-14T10:20:07Z</time><name>PT538</name></trkpt>
<trkpt lat="52.992313" lon="-3.313264"><ele>324</ele><time>2023-01-14T10:20:11Z</time><name>PT539</name></trkpt>
<trkpt lat="52.992354" lon="-3.313217"><ele>324</ele><time>2023-01-14T10:20:16Z</time><name>PT540</name></trkpt>
<trkpt lat="52.992378" lon="-3.313183"><ele>323</ele><time>2023-01-14T10:20:19Z</time><name>PT541</name></trkpt>
<trkpt lat="52.992410" lon="-3.313149"><ele>325</ele><time>2023-01-14T10:20:22Z</time><name>PT542</name></trkpt>
<trkpt lat="52.992430" lon="-3.313110"><ele>324</ele><time>2023-01-14T10:20:25Z</time><name>PT543</name></trkpt>
<trkpt lat="52.992449" lon="-3.313077"><ele>324</ele><time>2023-01-14T10:20:28Z</time><name>PT544</name></trkpt>
<trkpt lat="52.992477" lon="-3.313034"><ele>324</ele><time>2023-01-14T10:20:31Z</time><name>PT545</name></trkpt>
<trkpt lat="52.992505" lon="-3.312983"><ele>323</ele><time>2023-01-14T10:20:35Z</time><name>PT546</name></trkpt>
<trkpt lat="52.992537" lon="-3.312928"><ele>324</ele><time>2023-01-14T10:20:40Z</time><name>PT547</name></trkpt>
<trkpt lat="52.992562" lon="-3.312896"><ele>324</ele><time>2023-01-14T10:20:43Z</time><name>PT548</name></trkpt>
<trkpt lat="52.992595" lon="-3.312844"><ele>323</ele><time>2023-01-14T10:20:46Z</time><name>PT549</name></trkpt>
<trkpt lat="52.992626" lon="-3.312802"><ele>324</ele><time>2023-01-14T10:20:49Z</time><name>PT550</name></trkpt>
<trkpt lat="52.992651" lon="-3.312765"><ele>324</ele><time>2023-01-14T10:20:52Z</time><name>PT551</name></trkpt>
<trkpt lat="52.992691" lon="-3.312712"><ele>324</ele><time>2023-01-14T10:20:56Z</time><name>PT552</name></trkpt>
<trkpt lat="52.992719" lon="-3.312665"><ele>324</ele><time>2023-01-14T10:21:01Z</time><name>PT553</name></trkpt>
<trkpt lat="52.992740" lon="-3.312633"><ele>324</ele><time>2023-01-14T10:21:04Z</time><name>PT554</name></trkpt>
<trkpt lat="52.992765" lon="-3.312608"><ele>324</ele><time>2023-01-14T10:21:07Z</time><name>PT555</name></trkpt>
<trkpt lat="52.992794" lon="-3.312570"><ele>323</ele><time>2023-01-14T10:21:10Z</time><name>PT556</name></trkpt>
<trkpt lat="52.992814" lon="-3.312534"><ele>323</ele><time>2023-01-14T10:21:14Z</time><name>PT557</name></trkpt>
<trkpt lat="52.992813" lon="-3.312514"><ele>322</ele><time>2023-01-14T10:21:17Z</time><name>PT558</name></trkpt>
<trkpt lat="52.992838" lon="-3.312472"><ele>321</ele><time>2023-01-14T10:21:20Z</time><name>PT559</name></trkpt>
<trkpt lat="52.992856" lon="-3.312427"><ele>321</ele><time>2023-01-14T10:21:23Z</time><name>PT560</name></trkpt>
<trkpt lat="52.992896" lon="-3.312368"><ele>321</ele><time>2023-01-14T10:21:28Z</time><name>PT561</name></trkpt>
<trkpt lat="52.992923" lon="-3.312330"><ele>320</ele><time>2023-01-14T10:21:31Z</time><name>PT562</name></trkpt>
<trkpt lat="52.992953" lon="-3.312274"><ele>319</ele><time>2023-01-14T10:21:35Z</time><name>PT563</name></trkpt>
<trkpt lat="52.992975" lon="-3.312243"><ele>319</ele><time>2023-01-14T10:21:38Z</time><name>PT564</name></trkpt>
<trkpt lat="52.993001" lon="-3.312207"><ele>319</ele><time>2023-01-14T10:21:43Z</time><name>PT565</name></trkpt>
<trkpt lat="52.993022" lon="-3.312180"><ele>317</ele><time>2023-01-14T10:21:46Z</time><name>PT566</name></trkpt>
<trkpt lat="52.993055" lon="-3.312137"><ele>317</ele><time>2023-01-14T10:21:49Z</time><name>PT567</name></trkpt>
<trkpt lat="52.993076" lon="-3.312091"><ele>317</ele><time>2023-01-14T10:21:53Z</time><name>PT568</name></trkpt>
<trkpt lat="52.993094" lon="-3.312057"><ele>318</ele><time>2023-01-14T10:21:56Z</time><name>PT569</name></trkpt>
<trkpt lat="52.993118" lon="-3.312008"><ele>317</ele><time>2023-01-14T10:22:01Z</time><name>PT570</name></trkpt>
<trkpt lat="52.993145" lon="-3.311968"><ele>318</ele><time>2023-01-14T10:22:04Z</time><name>PT571</name></trkpt>
<trkpt lat="52.993163" lon="-3.311926"><ele>319</ele><time>2023-01-14T10:22:07Z</time><name>PT572</name></trkpt>
<trkpt lat="52.993188" lon="-3.311890"><ele>319</ele><time>2023-01-14T10:22:10Z</time><name>PT573</name></trkpt>
<trkpt lat="52.993232" lon="-3.311826"><ele>320</ele><time>2023-01-14T10:22:13Z</time><name>PT574</name></trkpt>
<trkpt lat="52.993263" lon="-3.311774"><ele>320</ele><time>2023-01-14T10:22:17Z</time><name>PT575</name></trkpt>
<trkpt lat="52.993288" lon="-3.311722"><ele>321</ele><time>2023-01-14T10:22:22Z</time><name>PT576</name></trkpt>
<trkpt lat="52.993309" lon="-3.311687"><ele>321</ele><time>2023-01-14T10:22:25Z</time><name>PT577</name></trkpt>
<trkpt lat="52.993332" lon="-3.311647"><ele>321</ele><time>2023-01-14T10:22:28Z</time><name>PT578</name></trkpt>
<trkpt lat="52.993351" lon="-3.311621"><ele>320</ele><time>2023-01-14T10:22:31Z</time><name>PT579</name></trkpt>
<trkpt lat="52.993370" lon="-3.311580"><ele>321</ele><time>2023-01-14T10:22:34Z</time><name>PT580</name></trkpt>
<trkpt lat="52.993401" lon="-3.311526"><ele>321</ele><time>2023-01-14T10:22:38Z</time><name>PT581</name></trkpt>
<trkpt lat="52.993416" lon="-3.311491"><ele>321</ele><time>2023-01-14T10:22:41Z</time><name>PT582</name></trkpt>
<trkpt lat="52.993447" lon="-3.311448"><ele>322</ele><time>2023-01-14T10:22:46Z</time><name>PT583</name></trkpt>
<trkpt lat="52.993465" lon="-3.311412"><ele>323</ele><time>2023-01-14T10:22:49Z</time><name>PT584</name></trkpt>
<trkpt lat="52.993497" lon="-3.311370"><ele>323</ele><time>2023-01-14T10:22:52Z</time><name>PT585</name></trkpt>
<trkpt lat="52.993520" lon="-3.311316"><ele>323</ele><time>2023-01-14T10:22:56Z</time><name>PT586</name></trkpt>
<trkpt lat="52.993533" lon="-3.311284"><ele>323</ele><time>2023-01-14T10:22:59Z</time><name>PT587</name></trkpt>
<trkpt lat="52.993547" lon="-3.311247"><ele>323</ele><time>2023-01-14T10:23:04Z</time><name>PT588</name></trkpt>
<trkpt lat="52.993551" lon="-3.311239"><ele>323</ele><time>2023-01-14T10:23:07Z</time><name>PT589</name></trkpt>
<trkpt lat="52.993559" lon="-3.311204"><ele>324</ele><time>2023-01-14T10:24:01Z</time><name>PT590</name></trkpt>
<trkpt lat="52.993582" lon="-3.311146"><ele>324</ele><time>2023-01-14T10:24:04Z</time><name>PT591</name></trkpt>
<trkpt lat="52.993609" lon="-3.311096"><ele>324</ele><time>2023-01-14T10:24:07Z</time><name>PT592</name></trkpt>
<trkpt lat="52.993635" lon="-3.311058"><ele>323</ele><time>2023-01-14T10:24:10Z</time><name>PT593</name></trkpt>
<trkpt lat="52.993665" lon="-3.311016"><ele>321</ele><time>2023-01-14T10:24:15Z</time><name>PT594</name></trkpt>
<trkpt lat="52.993685" lon="-3.310974"><ele>320</ele><time>2023-01-14T10:24:18Z</time><name>PT595</name></trkpt>
<trkpt lat="52.993710" lon="-3.310920"><ele>321</ele><time>2023-01-14T10:24:22Z</time><name>PT596</name></trkpt>
<trkpt lat="52.993720" lon="-3.310881"><ele>321</ele><time>2023-01-14T10:24:27Z</time><name>PT597</name></trkpt>
<trkpt lat="52.993747" lon="-3.310841"><ele>321</ele><time>2023-01-14T10:24:30Z</time><name>PT598</name></trkpt>
<trkpt lat="52.993776" lon="-3.310791"><ele>318</ele><time>2023-01-14T10:24:33Z</time><name>PT599</name></trkpt>
<trkpt lat="52.993790" lon="-3.310758"><ele>317</ele><time>2023-01-14T10:24:36Z</time><name>PT600</name></trkpt>
<trkpt lat="52.993809" lon="-3.310718"><ele>316</ele><time>2023-01-14T10:24:40Z</time><name>PT601</name></trkpt>
<trkpt lat="52.993823" lon="-3.310685"><ele>316</ele><time>2023-01-14T10:24:43Z</time><name>PT602</name></trkpt>
<trkpt lat="52.993854" lon="-3.310647"><ele>315</ele><time>2023-01-14T10:24:48Z</time><name>PT603</name></trkpt>
<trkpt lat="52.993897" lon="-3.310582"><ele>316</ele><time>2023-01-14T10:24:51Z</time><name>PT604</name></trkpt>
<trkpt lat="52.993932" lon="-3.310534"><ele>317</ele><time>2023-01-14T10:24:55Z</time><name>PT605</name></trkpt>
<trkpt lat="52.993950" lon="-3.310504"><ele>316</ele><time>2023-01-14T10:24:58Z</time><name>PT606</name></trkpt>
<trkpt lat="52.993987" lon="-3.310454"><ele>318</ele><time>2023-01-14T10:25:03Z</time><name>PT607</name></trkpt>
<trkpt lat="52.994004" lon="-3.310419"><ele>317</ele><time>2023-01-14T10:25:06Z</time><name>PT608</name></trkpt>
<trkpt lat="52.994032" lon="-3.310361"><ele>317</ele><time>2023-01-14T10:25:09Z</time><name>PT609</name></trkpt>
<trkpt lat="52.994054" lon="-3.310307"><ele>318</ele><time>2023-01-14T10:25:13Z</time><name>PT610</name></trkpt>
<trkpt lat="52.994078" lon="-3.310266"><ele>318</ele><time>2023-01-14T10:25:18Z</time><name>PT611</name></trkpt>
<trkpt lat="52.994110" lon="-3.310211"><ele>318</ele><time>2023-01-14T10:25:21Z</time><name>PT612</name></trkpt>
<trkpt lat="52.994145" lon="-3.310161"><ele>318</ele><time>2023-01-14T10:25:25Z</time><name>PT613</name></trkpt>
<trkpt lat="52.994163" lon="-3.310123"><ele>317</ele><time>2023-01-14T10:25:28Z</time><name>PT614</name></trkpt>
<trkpt lat="52.994186" lon="-3.310079"><ele>318</ele><time>2023-01-14T10:25:31Z</time><name>PT615</name></trkpt>
<trkpt lat="52.994210" lon="-3.310011"><ele>317</ele><time>2023-01-14T10:25:36Z</time><name>PT616</name></trkpt>
<trkpt lat="52.994231" lon="-3.309970"><ele>317</ele><time>2023-01-14T10:25:39Z</time><name>PT617</name></trkpt>
<trkpt lat="52.994281" lon="-3.309924"><ele>318</ele><time>2023-01-14T10:25:42Z</time><name>PT618</name></trkpt>
<trkpt lat="52.994319" lon="-3.309875"><ele>319</ele><time>2023-01-14T10:25:46Z</time><name>PT619</name></trkpt>
<trkpt lat="52.994345" lon="-3.309829"><ele>319</ele><time>2023-01-14T10:25:51Z</time><name>PT620</name></trkpt>
<trkpt lat="52.994369" lon="-3.309786"><ele>321</ele><time>2023-01-14T10:25:54Z</time><name>PT621</name></trkpt>
<trkpt lat="52.994393" lon="-3.309758"><ele>321</ele><time>2023-01-14T10:25:58Z</time><name>PT622</name></trkpt>
<trkpt lat="52.994423" lon="-3.309711"><ele>321</ele><time>2023-01-14T10:26:03Z</time><name>PT623</name></trkpt>
<trkpt lat="52.994431" lon="-3.309671"><ele>321</ele><time>2023-01-14T10:26:06Z</time><name>PT624</name></trkpt>
<trkpt lat="52.994446" lon="-3.309647"><ele>321</ele><time>2023-01-14T10:26:09Z</time><name>PT625</name></trkpt>
<trkpt lat="52.994465" lon="-3.309616"><ele>321</ele><time>2023-01-14T10:26:12Z</time><name>PT626</name></trkpt>
<trkpt lat="52.994467" lon="-3.309611"><ele>321</ele><time>2023-01-14T10:26:15Z</time><name>PT627</name></trkpt>
<trkpt lat="52.994471" lon="-3.309601"><ele>320</ele><time>2023-01-14T10:26:19Z</time><name>PT628</name></trkpt>
<trkpt lat="52.994474" lon="-3.309591"><ele>320</ele><time>2023-01-14T10:26:22Z</time><name>PT629</name></trkpt>
<trkpt lat="52.994500" lon="-3.309544"><ele>320</ele><time>2023-01-14T10:26:27Z</time><name>PT630</name></trkpt>
<trkpt lat="52.994534" lon="-3.309499"><ele>320</ele><time>2023-01-14T10:26:30Z</time><name>PT631</name></trkpt>
<trkpt lat="52.994558" lon="-3.309461"><ele>319</ele><time>2023-01-14T10:26:33Z</time><name>PT632</name></trkpt>
<trkpt lat="52.994583" lon="-3.309432"><ele>319</ele><time>2023-01-14T10:26:37Z</time><name>PT633</name></trkpt>
<trkpt lat="52.994579" lon="-3.309409"><ele>319</ele><time>2023-01-14T10:26:40Z</time><name>PT634</name></trkpt>
<trkpt lat="52.994584" lon="-3.309386"><ele>318</ele><time>2023-01-14T10:26:43Z</time><name>PT635</name></trkpt>
<trkpt lat="52.994597" lon="-3.309352"><ele>317</ele><time>2023-01-14T10:26:46Z</time><name>PT636</name></trkpt>
<trkpt lat="52.994629" lon="-3.309306"><ele>317</ele><time>2023-01-14T10:26:51Z</time><name>PT637</name></trkpt>
<trkpt lat="52.994661" lon="-3.309237"><ele>318</ele><time>2023-01-14T10:26:54Z</time><name>PT638</name></trkpt>
<trkpt lat="52.994691" lon="-3.309164"><ele>319</ele><time>2023-01-14T10:26:58Z</time><name>PT639</name></trkpt>
<trkpt lat="52.994711" lon="-3.309136"><ele>320</ele><time>2023-01-14T10:27:01Z</time><name>PT640</name></trkpt>
<trkpt lat="52.994738" lon="-3.309090"><ele>322</ele><time>2023-01-14T10:27:06Z</time><name>PT641</name></trkpt>
<trkpt lat="52.994757" lon="-3.309058"><ele>323</ele><time>2023-01-14T10:27:09Z</time><name>PT642</name></trkpt>
<trkpt lat="52.994791" lon="-3.309005"><ele>323</ele><time>2023-01-14T10:27:12Z</time><name>PT643</name></trkpt>
<trkpt lat="52.994816" lon="-3.308969"><ele>324</ele><time>2023-01-14T10:27:16Z</time><name>PT644</name></trkpt>
<trkpt lat="52.994839" lon="-3.308936"><ele>325</ele><time>2023-01-14T10:27:19Z</time><name>PT645</name></trkpt>
<trkpt lat="52.994859" lon="-3.308909"><ele>325</ele><time>2023-01-14T10:27:22Z</time><name>PT646</name></trkpt>
<trkpt lat="52.994879" lon="-3.308855"><ele>324</ele><time>2023-01-14T10:27:27Z</time><name>PT647</name></trkpt>
<trkpt lat="52.994899" lon="-3.308823"><ele>324</ele><time>2023-01-14T10:27:30Z</time><name>PT648</name></trkpt>
<trkpt lat="52.994925" lon="-3.308775"><ele>323</ele><time>2023-01-14T10:27:33Z</time><name>PT649</name></trkpt>
<trkpt lat="52.994950" lon="-3.308729"><ele>322</ele><time>2023-01-14T10:27:37Z</time><name>PT650</name></trkpt>
<trkpt lat="52.994973" lon="-3.308682"><ele>322</ele><time>2023-01-14T10:27:42Z</time><name>PT651</name></trkpt>
<trkpt lat="52.994980" lon="-3.308626"><ele>324</ele><time>2023-01-14T10:27:45Z</time><name>PT652</name></trkpt>
<trkpt lat="52.994993" lon="-3.308584"><ele>324</ele><time>2023-01-14T10:27:48Z</time><name>PT653</name></trkpt>
<trkpt lat="52.995015" lon="-3.308541"><ele>324</ele><time>2023-01-14T10:27:51Z</time><name>PT654</name></trkpt>
<trkpt lat="52.995040" lon="-3.308480"><ele>325</ele><time>2023-01-14T10:27:54Z</time><name>PT655</name></trkpt>
<trkpt lat="52.995050" lon="-3.308450"><ele>325</ele><time>2023-01-14T10:27:57Z</time><name>PT656</name></trkpt>
<trkpt lat="52.995072" lon="-3.308383"><ele>324</ele><time>2023-01-14T10:28:00Z</time><name>PT657</name></trkpt>
<trkpt lat="52.995092" lon="-3.308311"><ele>323</ele><time>2023-01-14T10:28:04Z</time><name>PT658</name></trkpt>
<trkpt lat="52.995117" lon="-3.308263"><ele>322</ele><time>2023-01-14T10:28:07Z</time><name>PT659</name></trkpt>
<trkpt lat="52.995136" lon="-3.308210"><ele>322</ele><time>2023-01-14T10:28:10Z</time><name>PT660</name></trkpt>
<trkpt lat="52.995158" lon="-3.308142"><ele>323</ele><time>2023-01-14T10:28:15Z</time><name>PT661</name></trkpt>
<trkpt lat="52.995177" lon="-3.308094"><ele>322</ele><time>2023-01-14T10:28:18Z</time><name>PT662</name></trkpt>
<trkpt lat="52.995185" lon="-3.308072"><ele>322</ele><time>2023-01-14T10:28:21Z</time><name>PT663</name></trkpt>
<trkpt lat="52.995200" lon="-3.308020"><ele>323</ele><time>2023-01-14T10:28:25Z</time><name>PT664</name></trkpt>
<trkpt lat="52.995207" lon="-3.308008"><ele>324</ele><time>2023-01-14T10:28:28Z</time><name>PT665</name></trkpt>
<trkpt lat="52.995219" lon="-3.307936"><ele>324</ele><time>2023-01-14T10:28:31Z</time><name>PT666</name></trkpt>
<trkpt lat="52.995248" lon="-3.307874"><ele>324</ele><time>2023-01-14T10:28:36Z</time><name>PT667</name></trkpt>
<trkpt lat="52.995266" lon="-3.307824"><ele>323</ele><time>2023-01-14T10:28:39Z</time><name>PT668</name></trkpt>
<trkpt lat="52.995272" lon="-3.307770"><ele>323</ele><time>2023-01-14T10:28:42Z</time><name>PT669</name></trkpt>
<trkpt lat="52.995277" lon="-3.307711"><ele>322</ele><time>2023-01-14T10:28:45Z</time><name>PT670</name></trkpt>
<trkpt lat="52.995289" lon="-3.307672"><ele>322</ele><time>2023-01-14T10:28:48Z</time><name>PT671</name></trkpt>
<trkpt lat="52.995293" lon="-3.307641"><ele>323</ele><time>2023-01-14T10:28:52Z</time><name>PT672</name></trkpt>
<trkpt lat="52.995304" lon="-3.307570"><ele>322</ele><time>2023-01-14T10:28:57Z</time><name>PT673</name></trkpt>
<trkpt lat="52.995311" lon="-3.307499"><ele>322</ele><time>2023-01-14T10:29:00Z</time><name>PT674</name></trkpt>
<trkpt lat="52.995321" lon="-3.307438"><ele>321</ele><time>2023-01-14T10:29:04Z</time><name>PT675</name></trkpt>
<trkpt lat="52.995333" lon="-3.307393"><ele>320</ele><time>2023-01-14T10:29:09Z</time><name>PT676</name></trkpt>
<trkpt lat="52.995342" lon="-3.307361"><ele>320</ele><time>2023-01-14T10:29:12Z</time><name>PT677</name></trkpt>
<trkpt lat="52.995359" lon="-3.307306"><ele>320</ele><time>2023-01-14T10:29:15Z</time><name>PT678</name></trkpt>
<trkpt lat="52.995372" lon="-3.307251"><ele>320</ele><time>2023-01-14T10:29:19Z</time><name>PT679</name></trkpt>
<trkpt lat="52.995374" lon="-3.307207"><ele>319</ele><time>2023-01-14T10:29:22Z</time><name>PT680</name></trkpt>
<trkpt lat="52.995395" lon="-3.307145"><ele>320</ele><time>2023-01-14T10:29:27Z</time><name>PT681</name></trkpt>
<trkpt lat="52.995406" lon="-3.307107"><ele>320</ele><time>2023-01-14T10:29:30Z</time><name>PT682</name></trkpt>
<trkpt lat="52.995409" lon="-3.307055"><ele>321</ele><time>2023-01-14T10:29:33Z</time><name>PT683</name></trkpt>
<trkpt lat="52.995417" lon="-3.307013"><ele>320</ele><time>2023-01-14T10:29:36Z</time><name>PT684</name></trkpt>
<trkpt lat="52.995421" lon="-3.306955"><ele>321</ele><time>2023-01-14T10:29:40Z</time><name>PT685</name></trkpt>
<trkpt lat="52.995434" lon="-3.306907"><ele>322</ele><time>2023-01-14T10:29:43Z</time><name>PT686</name></trkpt>
<trkpt lat="52.995444" lon="-3.306826"><ele>324</ele><time>2023-01-14T10:29:48Z</time><name>PT687</name></trkpt>
<trkpt lat="52.995451" lon="-3.306769"><ele>323</ele><time>2023-01-14T10:29:51Z</time><name>PT688</name></trkpt>
<trkpt lat="52.995454" lon="-3.306724"><ele>324</ele><time>2023-01-14T10:29:54Z</time><name>PT689</name></trkpt>
<trkpt lat="52.995457" lon="-3.306716"><ele>324</ele><time>2023-01-14T10:29:57Z</time><name>PT690</name></trkpt>
<trkpt lat="52.995454" lon="-3.306623"><ele>322</ele><time>2023-01-14T10:30:01Z</time><name>PT691</name></trkpt>
<trkpt lat="52.995461" lon="-3.306524"><ele>320</ele><time>2023-01-14T10:30:06Z</time><name>PT692</name></trkpt>
<trkpt lat="52.995479" lon="-3.306469"><ele>320</ele><time>2023-01-14T10:30:09Z</time><name>PT693</name></trkpt>
<trkpt lat="52.995490" lon="-3.306398"><ele>320</ele><time>2023-01-14T10:30:12Z</time><name>PT694</name></trkpt>
<trkpt lat="52.995511" lon="-3.306350"><ele>320</ele><time>2023-01-14T10:30:15Z</time><name>PT695</name></trkpt>
<trkpt lat="52.995518" lon="-3.306311"><ele>320</ele><time>2023-01-14T10:30:18Z</time><name>PT696</name></trkpt>
<trkpt lat="52.995527" lon="-3.306262"><ele>320</ele><time>2023-01-14T10:30:22Z</time><name>PT697</name></trkpt>
<trkpt lat="52.995540" lon="-3.306175"><ele>322</ele><time>2023-01-14T10:30:25Z</time><name>PT698</name></trkpt>
<trkpt lat="52.995556" lon="-3.306141"><ele>322</ele><time>2023-01-14T10:30:30Z</time><name>PT699</name></trkpt>
<trkpt lat="52.995572" lon="-3.306105"><ele>323</ele><time>2023-01-14T10:30:33Z</time><name>PT700</name></trkpt>
<trkpt lat="52.995578" lon="-3.306059"><ele>324</ele><time>2023-01-14T10:30:36Z</time><name>PT701</name></trkpt>
<trkpt lat="52.995579" lon="-3.306036"><ele>325</ele><time>2023-01-14T10:30:39Z</time><name>PT702</name></trkpt>
<trkpt lat="52.995574" lon="-3.306004"><ele>325</ele><time>2023-01-14T10:30:43Z</time><name>PT703</name></trkpt>
<trkpt lat="52.995574" lon="-3.305970"><ele>325</ele><time>2023-01-14T10:30:46Z</time><name>PT704</name></trkpt>
<trkpt lat="52.995584" lon="-3.305917"><ele>325</ele><time>2023-01-14T10:30:51Z</time><name>PT705</name></trkpt>
<trkpt lat="52.995584" lon="-3.305879"><ele>325</ele><time>2023-01-14T10:30:54Z</time><name>PT706</name></trkpt>
<trkpt lat="52.995596" lon="-3.305839"><ele>324</ele><time>2023-01-14T10:30:57Z</time><name>PT707</name></trkpt>
<trkpt lat="52.995609" lon="-3.305800"><ele>324</ele><time>2023-01-14T10:31:00Z</time><name>PT708</name></trkpt>
<trkpt lat="52.995622" lon="-3.305747"><ele>324</ele><time>2023-01-14T10:31:03Z</time><name>PT709</name></trkpt>
<trkpt lat="52.995630" lon="-3.305698"><ele>324</ele><time>2023-01-14T10:31:06Z</time><name>PT710</name></trkpt>
<trkpt lat="52.995639" lon="-3.305634"><ele>324</ele><time>2023-01-14T10:31:10Z</time><name>PT711</name></trkpt>
<trkpt lat="52.995649" lon="-3.305584"><ele>324</ele><time>2023-01-14T10:31:13Z</time><name>PT712</name></trkpt>
<trkpt lat="52.995660" lon="-3.305543"><ele>324</ele><time>2023-01-14T10:31:16Z</time><name>PT713</name></trkpt>
<trkpt lat="52.995684" lon="-3.305488"><ele>326</ele><time>2023-01-14T10:31:21Z</time><name>PT714</name></trkpt>
<trkpt lat="52.995702" lon="-3.305434"><ele>326</ele><time>2023-01-14T10:31:24Z</time><name>PT715</name></trkpt>
<trkpt lat="52.995717" lon="-3.305392"><ele>324</ele><time>2023-01-14T10:31:27Z</time><name>PT716</name></trkpt>
<trkpt lat="52.995728" lon="-3.305340"><ele>324</ele><time>2023-01-14T10:31:31Z</time><name>PT717</name></trkpt>
<trkpt lat="52.995743" lon="-3.305302"><ele>322</ele><time>2023-01-14T10:31:36Z</time><name>PT718</name></trkpt>
<trkpt lat="52.995760" lon="-3.305243"><ele>321</ele><time>2023-01-14T10:31:39Z</time><name>PT719</name></trkpt>
<trkpt lat="52.995765" lon="-3.305198"><ele>321</ele><time>2023-01-14T10:31:42Z</time><name>PT720</name></trkpt>
<trkpt lat="52.995778" lon="-3.305144"><ele>320</ele><time>2023-01-14T10:31:46Z</time><name>PT721</name></trkpt>
<trkpt lat="52.995785" lon="-3.305080"><ele>321</ele><time>2023-01-14T10:31:49Z</time><name>PT722</name></trkpt>
<trkpt lat="52.995795" lon="-3.305005"><ele>321</ele><time>2023-01-14T10:31:54Z</time><name>PT723</name></trkpt>
<trkpt lat="52.995810" lon="-3.304936"><ele>322</ele><time>2023-01-14T10:31:57Z</time><name>PT724</name></trkpt>
<trkpt lat="52.995817" lon="-3.304890"><ele>323</ele><time>2023-01-14T10:32:00Z</time><name>PT725</name></trkpt>
<trkpt lat="52.995830" lon="-3.304847"><ele>324</ele><time>2023-01-14T10:32:03Z</time><name>PT726</name></trkpt>
<trkpt lat="52.995839" lon="-3.304785"><ele>324</ele><time>2023-01-14T10:32:07Z</time><name>PT727</name></trkpt>
<trkpt lat="52.995845" lon="-3.304722"><ele>325</ele><time>2023-01-14T10:32:12Z</time><name>PT728</name></trkpt>
<trkpt lat="52.995849" lon="-3.304675"><ele>324</ele><time>2023-01-14T10:32:15Z</time><name>PT729</name></trkpt>
<trkpt lat="52.995861" lon="-3.304604"><ele>326</ele><time>2023-01-14T10:32:18Z</time><name>PT730</name></trkpt>
<trkpt lat="52.995876" lon="-3.304537"><ele>326</ele><time>2023-01-14T10:32:22Z</time><name>PT731</name></trkpt>
<trkpt lat="52.995885" lon="-3.304501"><ele>327</ele><time>2023-01-14T10:32:25Z</time><name>PT732</name></trkpt>
<trkpt lat="52.995897" lon="-3.304454"><ele>327</ele><time>2023-01-14T10:32:30Z</time><name>PT733</name></trkpt>
<trkpt lat="52.995912" lon="-3.304398"><ele>328</ele><time>2023-01-14T10:32:33Z</time><name>PT734</name></trkpt>
<trkpt lat="52.995921" lon="-3.304339"><ele>328</ele><time>2023-01-14T10:32:37Z</time><name>PT735</name></trkpt>
<trkpt lat="52.995929" lon="-3.304283"><ele>328</ele><time>2023-01-14T10:32:42Z</time><name>PT736</name></trkpt>
<trkpt lat="52.995935" lon="-3.304227"><ele>329</ele><time>2023-01-14T10:32:45Z</time><name>PT737</name></trkpt>
<trkpt lat="52.995942" lon="-3.304191"><ele>329</ele><time>2023-01-14T10:32:48Z</time><name>PT738</name></trkpt>
<trkpt lat="52.995956" lon="-3.304134"><ele>330</ele><time>2023-01-14T10:32:52Z</time><name>PT739</name></trkpt>
<trkpt lat="52.995970" lon="-3.304085"><ele>330</ele><time>2023-01-14T10:32:57Z</time><name>PT740</name></trkpt>
<trkpt lat="52.995970" lon="-3.304051"><ele>331</ele><time>2023-01-14T10:33:00Z</time><name>PT741</name></trkpt>
<trkpt lat="52.995967" lon="-3.304037"><ele>332</ele><time>2023-01-14T10:33:04Z</time><name>PT742</name></trkpt>
<trkpt lat="52.995968" lon="-3.304027"><ele>331</ele><time>2023-01-14T10:33:07Z</time><name>PT743</name></trkpt>
<trkpt lat="52.995969" lon="-3.304013"><ele>331</ele><time>2023-01-14T10:33:28Z</time><name>PT744</name></trkpt>
<trkpt lat="52.995986" lon="-3.303973"><ele>330</ele><time>2023-01-14T10:33:33Z</time><name>PT745</name></trkpt>
<trkpt lat="52.996018" lon="-3.303911"><ele>329</ele><time>2023-01-14T10:33:36Z</time><name>PT746</name></trkpt>
<trkpt lat="52.996046" lon="-3.303852"><ele>328</ele><time>2023-01-14T10:33:40Z</time><name>PT747</name></trkpt>
<trkpt lat="52.996072" lon="-3.303773"><ele>328</ele><time>2023-01-14T10:33:45Z</time><name>PT748</name></trkpt>
<trkpt lat="52.996095" lon="-3.303722"><ele>327</ele><time>2023-01-14T10:33:48Z</time><name>PT749</name></trkpt>
<trkpt lat="52.996110" lon="-3.303677"><ele>327</ele><time>2023-01-14T10:33:51Z</time><name>PT750</name></trkpt>
<trkpt lat="52.996134" lon="-3.303620"><ele>327</ele><time>2023-01-14T10:33:55Z</time><name>PT751</name></trkpt>
<trkpt lat="52.996153" lon="-3.303562"><ele>327</ele><time>2023-01-14T10:34:00Z</time><name>PT752</name></trkpt>
<trkpt lat="52.996170" lon="-3.303496"><ele>328</ele><time>2023-01-14T10:34:03Z</time><name>PT753</name></trkpt>
<trkpt lat="52.996184" lon="-3.303436"><ele>329</ele><time>2023-01-14T10:34:07Z</time><name>PT754</name></trkpt>
<trkpt lat="52.996198" lon="-3.303392"><ele>329</ele><time>2023-01-14T10:34:10Z</time><name>PT755</name></trkpt>
<trkpt lat="52.996218" lon="-3.303339"><ele>329</ele><time>2023-01-14T10:34:15Z</time><name>PT756</name></trkpt>
<trkpt lat="52.996233" lon="-3.303298"><ele>328</ele><time>2023-01-14T10:34:18Z</time><name>PT757</name></trkpt>
<trkpt lat="52.996236" lon="-3.303248"><ele>327</ele><time>2023-01-14T10:34:21Z</time><name>PT758</name></trkpt>
<trkpt lat="52.996252" lon="-3.303188"><ele>328</ele><time>2023-01-14T10:34:24Z</time><name>PT759</name></trkpt>
<trkpt lat="52.996267" lon="-3.303150"><ele>328</ele><time>2023-01-14T10:34:27Z</time><name>PT760</name></trkpt>
<trkpt lat="52.996282" lon="-3.303099"><ele>325</ele><time>2023-01-14T10:34:31Z</time><name>PT761</name></trkpt>
<trkpt lat="52.996305" lon="-3.303045"><ele>326</ele><time>2023-01-14T10:34:36Z</time><name>PT762</name></trkpt>
<trkpt lat="52.996327" lon="-3.302985"><ele>326</ele><time>2023-01-14T10:34:39Z</time><name>PT763</name></trkpt>
<trkpt lat="52.996350" lon="-3.302912"><ele>324</ele><time>2023-01-14T10:34:43Z</time><name>PT764</name></trkpt>
<trkpt lat="52.996375" lon="-3.302857"><ele>324</ele><time>2023-01-14T10:34:48Z</time><name>PT765</name></trkpt>
<trkpt lat="52.996399" lon="-3.302830"><ele>323</ele><time>2023-01-14T10:34:51Z</time><name>PT766</name></trkpt>
<trkpt lat="52.996424" lon="-3.302797"><ele>324</ele><time>2023-01-14T10:34:54Z</time><name>PT767</name></trkpt>
<trkpt lat="52.996440" lon="-3.302766"><ele>324</ele><time>2023-01-14T10:34:57Z</time><name>PT768</name></trkpt>
<trkpt lat="52.996462" lon="-3.302745"><ele>324</ele><time>2023-01-14T10:35:00Z</time><name>PT769</name></trkpt>
<trkpt lat="52.996496" lon="-3.302704"><ele>324</ele><time>2023-01-14T10:35:03Z</time><name>PT770</name></trkpt>
<trkpt lat="52.996518" lon="-3.302675"><ele>325</ele><time>2023-01-14T10:35:06Z</time><name>PT771</name></trkpt>
<trkpt lat="52.996553" lon="-3.302624"><ele>325</ele><time>2023-01-14T10:35:10Z</time><name>PT772</name></trkpt>
<trkpt lat="52.996577" lon="-3.302598"><ele>326</ele><time>2023-01-14T10:35:13Z</time><name>PT773</name></trkpt>
<trkpt lat="52.996610" lon="-3.302559"><ele>325</ele><time>2023-01-14T10:35:18Z</time><name>PT774</name></trkpt>
<trkpt lat="52.996637" lon="-3.302525"><ele>324</ele><time>2023-01-14T10:35:21Z</time><name>PT775</name></trkpt>
<trkpt lat="52.996664" lon="-3.302499"><ele>324</ele><time>2023-01-14T10:35:24Z</time><name>PT776</name></trkpt>
<trkpt lat="52.996701" lon="-3.302460"><ele>325</ele><time>2023-01-14T10:35:27Z</time><name>PT777</name></trkpt>
<trkpt lat="52.996733" lon="-3.302416"><ele>325</ele><time>2023-01-14T10:35:31Z</time><name>PT778</name></trkpt>
<trkpt lat="52.996769" lon="-3.302372"><ele>325</ele><time>2023-01-14T10:35:36Z</time><name>PT779</name></trkpt>
<trkpt lat="52.996797" lon="-3.302339"><ele>325</ele><time>2023-01-14T10:35:39Z</time><name>PT780</name></trkpt>
<trkpt lat="52.996831" lon="-3.302310"><ele>325</ele><time>2023-01-14T10:35:42Z</time><name>PT781</name></trkpt>
<trkpt lat="52.996859" lon="-3.302282"><ele>326</ele><time>2023-01-14T10:35:45Z</time><name>PT782</name></trkpt>
<trkpt lat="52.996896" lon="-3.302247"><ele>327</ele><time>2023-01-14T10:35:49Z</time><name>PT783</name></trkpt>
<trkpt lat="52.996933" lon="-3.302207"><ele>327</ele><time>2023-01-14T10:35:54Z</time><name>PT784</name></trkpt>
<trkpt lat="52.996960" lon="-3.302179"><ele>327</ele><time>2023-01-14T10:35:57Z</time><name>PT785</name></trkpt>
<trkpt lat="52.996983" lon="-3.302154"><ele>327</ele><time>2023-01-14T10:36:00Z</time><name>PT786</name></trkpt>
<trkpt lat="52.997009" lon="-3.302126"><ele>327</ele><time>2023-01-14T10:36:03Z</time><name>PT787</name></trkpt>
<trkpt lat="52.997038" lon="-3.302094"><ele>327</ele><time>2023-01-14T10:36:06Z</time><name>PT788</name></trkpt>
<trkpt lat="52.997065" lon="-3.302067"><ele>328</ele><time>2023-01-14T10:36:09Z</time><name>PT789</name></trkpt>
<trkpt lat="52.997099" lon="-3.302027"><ele>328</ele><time>2023-01-14T10:36:13Z</time><name>PT790</name></trkpt>
<trkpt lat="52.997120" lon="-3.302004"><ele>328</ele><time>2023-01-14T10:36:16Z</time><name>PT791</name></trkpt>
<trkpt lat="52.997151" lon="-3.301969"><ele>328</ele><time>2023-01-14T10:36:21Z</time><name>PT792</name></trkpt>
<trkpt lat="52.997171" lon="-3.301950"><ele>329</ele><time>2023-01-14T10:36:24Z</time><name>PT793</name></trkpt>
<trkpt lat="52.997193" lon="-3.301920"><ele>329</ele><time>2023-01-14T10:36:27Z</time><name>PT794</name></trkpt>
<trkpt lat="52.997216" lon="-3.301897"><ele>329</ele><time>2023-01-14T10:36:30Z</time><name>PT795</name></trkpt>
<trkpt lat="52.997252" lon="-3.301860"><ele>329</ele><time>2023-01-14T10:36:33Z</time><name>PT796</name></trkpt>
<trkpt lat="52.997286" lon="-3.301824"><ele>329</ele><time>2023-01-14T10:36:37Z</time><name>PT797</name></trkpt>
<trkpt lat="52.997325" lon="-3.301788"><ele>330</ele><time>2023-01-14T10:36:42Z</time><name>PT798</name></trkpt>
<trkpt lat="52.997352" lon="-3.301763"><ele>330</ele><time>2023-01-14T10:36:45Z</time><name>PT799</name></trkpt>
<trkpt lat="52.997383" lon="-3.301728"><ele>330</ele><time>2023-01-14T10:36:48Z</time><name>PT800</name></trkpt>
<trkpt lat="52.997407" lon="-3.301704"><ele>330</ele><time>2023-01-14T10:36:51Z</time><name>PT801</name></trkpt>
<trkpt lat="52.997436" lon="-3.301680"><ele>330</ele><time>2023-01-14T10:36:55Z</time><name>PT802</name></trkpt>
<trkpt lat="52.997456" lon="-3.301672"><ele>329</ele><time>2023-01-14T10:37:00Z</time><name>PT803</name></trkpt>
<trkpt lat="52.997464" lon="-3.301668"><ele>329</ele><time>2023-01-14T10:37:03Z</time><name>PT804</name></trkpt>
<trkpt lat="52.997469" lon="-3.301663"><ele>328</ele><time>2023-01-14T10:37:13Z</time><name>PT805</name></trkpt>
<trkpt lat="52.997482" lon="-3.301653"><ele>328</ele><time>2023-01-14T10:37:34Z</time><name>PT806</name></trkpt>
<trkpt lat="52.997496" lon="-3.301609"><ele>328</ele><time>2023-01-14T10:37:39Z</time><name>PT807</name></trkpt>
<trkpt lat="52.997523" lon="-3.301553"><ele>329</ele><time>2023-01-14T10:37:42Z</time><name>PT808</name></trkpt>
<trkpt lat="52.997543" lon="-3.301533"><ele>328</ele><time>2023-01-14T10:37:45Z</time><name>PT809</name></trkpt>
<trkpt lat="52.997555" lon="-3.301555"><ele>327</ele><time>2023-01-14T10:37:49Z</time><name>PT810</name></trkpt>
<trkpt lat="52.997573" lon="-3.301590"><ele>326</ele><time>2023-01-14T10:37:54Z</time><name>PT811</name></trkpt>
<trkpt lat="52.997601" lon="-3.301613"><ele>326</ele><time>2023-01-14T10:37:57Z</time><name>PT812</name></trkpt>
<trkpt lat="52.997638" lon="-3.301626"><ele>325</ele><time>2023-01-14T10:38:01Z</time><name>PT813</name></trkpt>
<trkpt lat="52.997665" lon="-3.301612"><ele>326</ele><time>2023-01-14T10:38:04Z</time><name>PT814</name></trkpt>
<trkpt lat="52.997695" lon="-3.301585"><ele>326</ele><time>2023-01-14T10:38:07Z</time><name>PT815</name></trkpt>
<trkpt lat="52.997723" lon="-3.301551"><ele>326</ele><time>2023-01-14T10:38:12Z</time><name>PT816</name></trkpt>
<trkpt lat="52.997747" lon="-3.301512"><ele>327</ele><time>2023-01-14T10:38:15Z</time><name>PT817</name></trkpt>
<trkpt lat="52.997778" lon="-3.301463"><ele>327</ele><time>2023-01-14T10:38:18Z</time><name>PT818</name></trkpt>
<trkpt lat="52.997807" lon="-3.301436"><ele>326</ele><time>2023-01-14T10:38:21Z</time><name>PT819</name></trkpt>
<trkpt lat="52.997848" lon="-3.301397"><ele>326</ele><time>2023-01-14T10:38:25Z</time><name>PT820</name></trkpt>
<trkpt lat="52.997888" lon="-3.301350"><ele>325</ele><time>2023-01-14T10:38:30Z</time><name>PT821</name></trkpt>
<trkpt lat="52.997917" lon="-3.301322"><ele>325</ele><time>2023-01-14T10:38:33Z</time><name>PT822</name></trkpt>
<trkpt lat="52.997954" lon="-3.301289"><ele>325</ele><time>2023-01-14T10:38:36Z</time><name>PT823</name></trkpt>
<trkpt lat="52.997986" lon="-3.301263"><ele>324</ele><time>2023-01-14T10:38:39Z</time><name>PT824</name></trkpt>
<trkpt lat="52.998028" lon="-3.301226"><ele>325</ele><time>2023-01-14T10:38:43Z</time><name>PT825</name></trkpt>
<trkpt lat="52.998067" lon="-3.301184"><ele>325</ele><time>2023-01-14T10:38:48Z</time><name>PT826</name></trkpt>
<trkpt lat="52.998102" lon="-3.301138"><ele>325</ele><time>2023-01-14T10:38:51Z</time><name>PT827</name></trkpt>
<trkpt lat="52.998142" lon="-3.301096"><ele>325</ele><time>2023-01-14T10:38:55Z</time><name>PT828</name></trkpt>
<trkpt lat="52.998167" lon="-3.301067"><ele>325</ele><time>2023-01-14T10:38:58Z</time><name>PT829</name></trkpt>
<trkpt lat="52.998204" lon="-3.301025"><ele>324</ele><time>2023-01-14T10:39:03Z</time><name>PT830</name></trkpt>
<trkpt lat="52.998233" lon="-3.301000"><ele>324</ele><time>2023-01-14T10:39:06Z</time><name>PT831</name></trkpt>
<trkpt lat="52.998272" lon="-3.300962"><ele>324</ele><time>2023-01-14T10:39:09Z</time><name>PT832</name></trkpt>
<trkpt lat="52.998298" lon="-3.300931"><ele>324</ele><time>2023-01-14T10:39:12Z</time><name>PT833</name></trkpt>
<trkpt lat="52.998336" lon="-3.300894"><ele>323</ele><time>2023-01-14T10:39:16Z</time><name>PT834</name></trkpt>
<trkpt lat="52.998361" lon="-3.300869"><ele>323</ele><time>2023-01-14T10:39:19Z</time><name>PT835</name></trkpt>
<trkpt lat="52.998393" lon="-3.300826"><ele>323</ele><time>2023-01-14T10:39:24Z</time><name>PT836</name></trkpt>
<trkpt lat="52.998430" lon="-3.300780"><ele>323</ele><time>2023-01-14T10:39:27Z</time><name>PT837</name></trkpt>
<trkpt lat="52.998455" lon="-3.300744"><ele>323</ele><time>2023-01-14T10:39:30Z</time><name>PT838</name></trkpt>
<trkpt lat="52.998491" lon="-3.300698"><ele>323</ele><time>2023-01-14T10:39:34Z</time><name>PT839</name></trkpt>
<trkpt lat="52.998514" lon="-3.300663"><ele>323</ele><time>2023-01-14T10:39:37Z</time><name>PT840</name></trkpt>
<trkpt lat="52.998547" lon="-3.300621"><ele>323</ele><time>2023-01-14T10:39:42Z</time><name>PT841</name></trkpt>
<trkpt lat="52.998581" lon="-3.300574"><ele>324</ele><time>2023-01-14T10:39:45Z</time><name>PT842</name></trkpt>
<trkpt lat="52.998593" lon="-3.300537"><ele>324</ele><time>2023-01-14T10:39:48Z</time><name>PT843</name></trkpt>
<trkpt lat="52.998604" lon="-3.300510"><ele>324</ele><time>2023-01-14T10:39:51Z</time><name>PT844</name></trkpt>
<trkpt lat="52.998613" lon="-3.300481"><ele>324</ele><time>2023-01-14T10:39:54Z</time><name>PT845</name></trkpt>
<trkpt lat="52.998626" lon="-3.300451"><ele>324</ele><time>2023-01-14T10:39:58Z</time><name>PT846</name></trkpt>
<trkpt lat="52.998633" lon="-3.300441"><ele>324</ele><time>2023-01-14T10:40:03Z</time><name>PT847</name></trkpt>
<trkpt lat="52.998635" lon="-3.300433"><ele>323</ele><time>2023-01-14T10:40:09Z</time><name>PT848</name></trkpt>
<trkpt lat="52.998650" lon="-3.300410"><ele>323</ele><time>2023-01-14T10:40:48Z</time><name>PT849</name></trkpt>
<trkpt lat="52.998695" lon="-3.300348"><ele>324</ele><time>2023-01-14T10:40:51Z</time><name>PT850</name></trkpt>
<trkpt lat="52.998728" lon="-3.300307"><ele>323</ele><time>2023-01-14T10:40:54Z</time><name>PT851</name></trkpt>
<trkpt lat="52.998766" lon="-3.300267"><ele>323</ele><time>2023-01-14T10:40:58Z</time><name>PT852</name></trkpt>
<trkpt lat="52.998795" lon="-3.300236"><ele>324</ele><time>2023-01-14T10:41:01Z</time><name>PT853</name></trkpt>
<trkpt lat="52.998832" lon="-3.300188"><ele>324</ele><time>2023-01-14T10:41:06Z</time><name>PT854</name></trkpt>
<trkpt lat="52.998856" lon="-3.300156"><ele>324</ele><time>2023-01-14T10:41:09Z</time><name>PT855</name></trkpt>
<trkpt lat="52.998892" lon="-3.300108"><ele>323</ele><time>2023-01-14T10:41:12Z</time><name>PT856</name></trkpt>
<trkpt lat="52.998921" lon="-3.300075"><ele>323</ele><time>2023-01-14T10:41:15Z</time><name>PT857</name></trkpt>
<trkpt lat="52.998959" lon="-3.300032"><ele>322</ele><time>2023-01-14T10:41:19Z</time><name>PT858</name></trkpt>
<trkpt lat="52.998987" lon="-3.300000"><ele>322</ele><time>2023-01-14T10:41:22Z</time><name>PT859</name></trkpt>
<trkpt lat="52.999022" lon="-3.299956"><ele>323</ele><time>2023-01-14T10:41:27Z</time><name>PT860</name></trkpt>
<trkpt lat="52.999046" lon="-3.299926"><ele>322</ele><time>2023-01-14T10:41:30Z</time><name>PT861</name></trkpt>
<trkpt lat="52.999089" lon="-3.299894"><ele>322</ele><time>2023-01-14T10:41:33Z</time><name>PT862</name></trkpt>
<trkpt lat="52.999116" lon="-3.299861"><ele>322</ele><time>2023-01-14T10:41:36Z</time><name>PT863</name></trkpt>
<trkpt lat="52.999151" lon="-3.299825"><ele>321</ele><time>2023-01-14T10:41:40Z</time><name>PT864</name></trkpt>
<trkpt lat="52.999179" lon="-3.299803"><ele>321</ele><time>2023-01-14T10:41:43Z</time><name>PT865</name></trkpt>
<trkpt lat="52.999200" lon="-3.299778"><ele>322</ele><time>2023-01-14T10:41:46Z</time><name>PT866</name></trkpt>
<trkpt lat="52.999237" lon="-3.299732"><ele>322</ele><time>2023-01-14T10:41:51Z</time><name>PT867</name></trkpt>
<trkpt lat="52.999264" lon="-3.299703"><ele>322</ele><time>2023-01-14T10:41:54Z</time><name>PT868</name></trkpt>
<trkpt lat="52.999306" lon="-3.299662"><ele>321</ele><time>2023-01-14T10:41:57Z</time><name>PT869</name></trkpt>
<trkpt lat="52.999334" lon="-3.299632"><ele>321</ele><time>2023-01-14T10:42:00Z</time><name>PT870</name></trkpt>
<trkpt lat="52.999359" lon="-3.299601"><ele>320</ele><time>2023-01-14T10:42:03Z</time><name>PT871</name></trkpt>
<trkpt lat="52.999400" lon="-3.299566"><ele>320</ele><time>2023-01-14T10:42:07Z</time><name>PT872</name></trkpt>
<trkpt lat="52.999427" lon="-3.299537"><ele>321</ele><time>2023-01-14T10:42:10Z</time><name>PT873</name></trkpt>
<trkpt lat="52.999456" lon="-3.299503"><ele>320</ele><time>2023-01-14T10:42:13Z</time><name>PT874</name></trkpt>
<trkpt lat="52.999497" lon="-3.299459"><ele>319</ele><time>2023-01-14T10:42:18Z</time><name>PT875</name></trkpt>
<trkpt lat="52.999524" lon="-3.299429"><ele>319</ele><time>2023-01-14T10:42:21Z</time><name>PT876</name></trkpt>
<trkpt lat="52.999561" lon="-3.299396"><ele>318</ele><time>2023-01-14T10:42:24Z</time><name>PT877</name></trkpt>
<trkpt lat="52.999593" lon="-3.299361"><ele>318</ele><time>2023-01-14T10:42:28Z</time><name>PT878</name></trkpt>
<trkpt lat="52.999627" lon="-3.299331"><ele>318</ele><time>2023-01-14T10:42:33Z</time><name>PT879</name></trkpt>
<trkpt lat="52.999661" lon="-3.299339"><ele>317</ele><time>2023-01-14T10:42:36Z</time><name>PT880</name></trkpt>
<trkpt lat="52.999702" lon="-3.299353"><ele>316</ele><time>2023-01-14T10:42:40Z</time><name>PT881</name></trkpt>
<trkpt lat="52.999741" lon="-3.299334"><ele>315</ele><time>2023-01-14T10:42:45Z</time><name>PT882</name></trkpt>
<trkpt lat="52.999778" lon="-3.299302"><ele>314</ele><time>2023-01-14T10:42:48Z</time><name>PT883</name></trkpt>
<trkpt lat="52.999818" lon="-3.299265"><ele>313</ele><time>2023-01-14T10:42:52Z</time><name>PT884</name></trkpt>
<trkpt lat="52.999852" lon="-3.299228"><ele>313</ele><time>2023-01-14T10:42:57Z</time><name>PT885</name></trkpt>
<trkpt lat="52.999879" lon="-3.299203"><ele>313</ele><time>2023-01-14T10:43:00Z</time><name>PT886</name></trkpt>
<trkpt lat="52.999915" lon="-3.299167"><ele>313</ele><time>2023-01-14T10:43:03Z</time><name>PT887</name></trkpt>
<trkpt lat="52.999950" lon="-3.299128"><ele>312</ele><time>2023-01-14T10:43:07Z</time><name>PT888</name></trkpt>
<trkpt lat="52.999984" lon="-3.299091"><ele>312</ele><time>2023-01-14T10:43:12Z</time><name>PT889</name></trkpt>
<trkpt lat="53.000011" lon="-3.299060"><ele>311</ele><time>2023-01-14T10:43:15Z</time><name>PT890</name></trkpt>
<trkpt lat="53.000044" lon="-3.299013"><ele>311</ele><time>2023-01-14T10:43:18Z</time><name>PT891</name></trkpt>
<trkpt lat="53.000072" lon="-3.298965"><ele>311</ele><time>2023-01-14T10:43:22Z</time><name>PT892</name></trkpt>
<trkpt lat="53.000086" lon="-3.298926"><ele>311</ele><time>2023-01-14T10:43:27Z</time><name>PT893</name></trkpt>
<trkpt lat="53.000099" lon="-3.298895"><ele>312</ele><time>2023-01-14T10:43:30Z</time><name>PT894</name></trkpt>
<trkpt lat="53.000117" lon="-3.298859"><ele>311</ele><time>2023-01-14T10:43:33Z</time><name>PT895</name></trkpt>
<trkpt lat="53.000122" lon="-3.298827"><ele>310</ele><time>2023-01-14T10:43:36Z</time><name>PT896</name></trkpt>
<trkpt lat="53.000123" lon="-3.298801"><ele>309</ele><time>2023-01-14T10:43:39Z</time><name>PT897</name></trkpt>
<trkpt lat="53.000135" lon="-3.298788"><ele>309</ele><time>2023-01-14T10:43:42Z</time><name>PT898</name></trkpt>
<trkpt lat="53.000137" lon="-3.298788"><ele>310</ele><time>2023-01-14T10:43:45Z</time><name>PT899</name></trkpt>
<trkpt lat="53.000169" lon="-3.298738"><ele>310</ele><time>2023-01-14T10:43:49Z</time><name>PT900</name></trkpt>
<trkpt lat="53.000207" lon="-3.298685"><ele>310</ele><time>2023-01-14T10:43:54Z</time><name>PT901</name></trkpt>
<trkpt lat="53.000238" lon="-3.298648"><ele>309</ele><time>2023-01-14T10:43:57Z</time><name>PT902</name></trkpt>
<trkpt lat="53.000266" lon="-3.298608"><ele>309</ele><time>2023-01-14T10:44:00Z</time><name>PT903</name></trkpt>
<trkpt lat="53.000308" lon="-3.298561"><ele>309</ele><time>2023-01-14T10:44:03Z</time><name>PT904</name></trkpt>
<trkpt lat="53.000337" lon="-3.298523"><ele>309</ele><time>2023-01-14T10:44:06Z</time><name>PT905</name></trkpt>
<trkpt lat="53.000379" lon="-3.298479"><ele>309</ele><time>2023-01-14T10:44:10Z</time><name>PT906</name></trkpt>
<trkpt lat="53.000410" lon="-3.298450"><ele>308</ele><time>2023-01-14T10:44:13Z</time><name>PT907</name></trkpt>
<trkpt lat="53.000443" lon="-3.298420"><ele>308</ele><time>2023-01-14T10:44:16Z</time><name>PT908</name></trkpt>
<trkpt lat="53.000476" lon="-3.298390"><ele>308</ele><time>2023-01-14T10:44:19Z</time><name>PT909</name></trkpt>
<trkpt lat="53.000505" lon="-3.298362"><ele>307</ele><time>2023-01-14T10:44:22Z</time><name>PT910</name></trkpt>
<trkpt lat="53.000534" lon="-3.298332"><ele>307</ele><time>2023-01-14T10:44:25Z</time><name>PT911</name></trkpt>
<trkpt lat="53.000575" lon="-3.298292"><ele>307</ele><time>2023-01-14T10:44:30Z</time><name>PT912</name></trkpt>
<trkpt lat="53.000614" lon="-3.298256"><ele>306</ele><time>2023-01-14T10:44:33Z</time><name>PT913</name></trkpt>
<trkpt lat="53.000651" lon="-3.298223"><ele>306</ele><time>2023-01-14T10:44:37Z</time><name>PT914</name></trkpt>
<trkpt lat="53.000687" lon="-3.298202"><ele>306</ele><time>2023-01-14T10:44:40Z</time><name>PT915</name></trkpt>
<trkpt lat="53.000728" lon="-3.298172"><ele>306</ele><time>2023-01-14T10:44:45Z</time><name>PT916</name></trkpt>
<trkpt lat="53.000770" lon="-3.298144"><ele>305</ele><time>2023-01-14T10:44:48Z</time><name>PT917</name></trkpt>
<trkpt lat="53.000803" lon="-3.298122"><ele>305</ele><time>2023-01-14T10:44:51Z</time><name>PT918</name></trkpt>
<trkpt lat="53.000843" lon="-3.298092"><ele>304</ele><time>2023-01-14T10:44:55Z</time><name>PT919</name></trkpt>
<trkpt lat="53.000883" lon="-3.298061"><ele>303</ele><time>2023-01-14T10:45:00Z</time><name>PT920</name></trkpt>
<trkpt lat="53.000908" lon="-3.298043"><ele>302</ele><time>2023-01-14T10:45:03Z</time><name>PT921</name></trkpt>
<trkpt lat="53.000940" lon="-3.298022"><ele>302</ele><time>2023-01-14T10:45:06Z</time><name>PT922</name></trkpt>
<trkpt lat="53.000982" lon="-3.297999"><ele>302</ele><time>2023-01-14T10:45:09Z</time><name>PT923</name></trkpt>
<trkpt lat="53.001026" lon="-3.297977"><ele>302</ele><time>2023-01-14T10:45:13Z</time><name>PT924</name></trkpt>
<trkpt lat="53.001067" lon="-3.297952"><ele>301</ele><time>2023-01-14T10:45:18Z</time><name>PT925</name></trkpt>
<trkpt lat="53.001094" lon="-3.297933"><ele>300</ele><time>2023-01-14T10:45:21Z</time><name>PT926</name></trkpt>
<trkpt lat="53.001127" lon="-3.297915"><ele>299</ele><time>2023-01-14T10:45:24Z</time><name>PT927</name></trkpt>
<trkpt lat="53.001165" lon="-3.297891"><ele>298</ele><time>2023-01-14T10:45:27Z</time><name>PT928</name></trkpt>
<trkpt lat="53.001192" lon="-3.297869"><ele>297</ele><time>2023-01-14T10:45:30Z</time><name>PT929</name></trkpt>
<trkpt lat="53.001237" lon="-3.297847"><ele>296</ele><time>2023-01-14T10:45:34Z</time><name>PT930</name></trkpt>
<trkpt lat="53.001268" lon="-3.297830"><ele>296</ele><time>2023-01-14T10:45:37Z</time><name>PT931</name></trkpt>
<trkpt lat="53.001311" lon="-3.297805"><ele>295</ele><time>2023-01-14T10:45:42Z</time><name>PT932</name></trkpt>
<trkpt lat="53.001355" lon="-3.297778"><ele>295</ele><time>2023-01-14T10:45:45Z</time><name>PT933</name></trkpt>
<trkpt lat="53.001389" lon="-3.297760"><ele>294</ele><time>2023-01-14T10:45:48Z</time><name>PT934</name></trkpt>
<trkpt lat="53.001433" lon="-3.297739"><ele>293</ele><time>2023-01-14T10:45:52Z</time><name>PT935</name></trkpt>
<trkpt lat="53.001479" lon="-3.297722"><ele>292</ele><time>2023-01-14T10:45:57Z</time><name>PT936</name></trkpt>
<trkpt lat="53.001505" lon="-3.297706"><ele>292</ele><time>2023-01-14T10:46:00Z</time><name>PT937</name></trkpt>
<trkpt lat="53.001543" lon="-3.297692"><ele>290</ele><time>2023-01-14T10:46:03Z</time><name>PT938</name></trkpt>
<trkpt lat="53.001589" lon="-3.297673"><ele>290</ele><time>2023-01-14T10:46:07Z</time><name>PT939</name></trkpt>
<trkpt lat="53.001635" lon="-3.297650"><ele>290</ele><time>2023-01-14T10:46:12Z</time><name>PT940</name></trkpt>
<trkpt lat="53.001684" lon="-3.297634"><ele>290</ele><time>2023-01-14T10:46:15Z</time><name>PT941</name></trkpt>
<trkpt lat="53.001725" lon="-3.297628"><ele>289</ele><time>2023-01-14T10:46:19Z</time><name>PT942</name></trkpt>
<trkpt lat="53.001767" lon="-3.297621"><ele>289</ele><time>2023-01-14T10:46:24Z</time><name>PT943</name></trkpt>
<trkpt lat="53.001795" lon="-3.297620"><ele>287</ele><time>2023-01-14T10:46:27Z</time><name>PT944</name></trkpt>
<trkpt lat="53.001830" lon="-3.297621"><ele>285</ele><time>2023-01-14T10:46:30Z</time><name>PT945</name></trkpt>
<trkpt lat="53.001849" lon="-3.297629"><ele>284</ele><time>2023-01-14T10:46:33Z</time><name>PT946</name></trkpt>
<trkpt lat="53.001872" lon="-3.297631"><ele>285</ele><time>2023-01-14T10:46:37Z</time><name>PT947</name></trkpt>
<trkpt lat="53.001882" lon="-3.297631"><ele>284</ele><time>2023-01-14T10:46:52Z</time><name>PT948</name></trkpt>
<trkpt lat="53.001897" lon="-3.297641"><ele>284</ele><time>2023-01-14T10:46:55Z</time><name>PT949</name></trkpt>
<trkpt lat="53.001913" lon="-3.297633"><ele>285</ele><time>2023-01-14T10:46:58Z</time><name>PT950</name></trkpt>
<trkpt lat="53.001926" lon="-3.297624"><ele>285</ele><time>2023-01-14T10:47:27Z</time><name>PT951</name></trkpt>
<trkpt lat="53.001945" lon="-3.297632"><ele>284</ele><time>2023-01-14T10:47:30Z</time><name>PT952</name></trkpt>
<trkpt lat="53.001958" lon="-3.297639"><ele>284</ele><time>2023-01-14T10:47:37Z</time><name>PT953</name></trkpt>
<trkpt lat="53.001983" lon="-3.297665"><ele>282</ele><time>2023-01-14T10:47:40Z</time><name>PT954</name></trkpt>
<trkpt lat="53.002020" lon="-3.297645"><ele>281</ele><time>2023-01-14T10:47:45Z</time><name>PT955</name></trkpt>
<trkpt lat="53.002051" lon="-3.297612"><ele>281</ele><time>2023-01-14T10:47:48Z</time><name>PT956</name></trkpt>
<trkpt lat="53.002097" lon="-3.297566"><ele>280</ele><time>2023-01-14T10:47:51Z</time><name>PT957</name></trkpt>
<trkpt lat="53.002128" lon="-3.297523"><ele>280</ele><time>2023-01-14T10:47:54Z</time><name>PT958</name></trkpt>
<trkpt lat="53.002156" lon="-3.297479"><ele>280</ele><time>2023-01-14T10:47:57Z</time><name>PT959</name></trkpt>
<trkpt lat="53.002194" lon="-3.297413"><ele>281</ele><time>2023-01-14T10:48:01Z</time><name>PT960</name></trkpt>
<trkpt lat="53.002225" lon="-3.297365"><ele>281</ele><time>2023-01-14T10:48:06Z</time><name>PT961</name></trkpt>
<trkpt lat="53.002255" lon="-3.297306"><ele>281</ele><time>2023-01-14T10:48:09Z</time><name>PT962</name></trkpt>
<trkpt lat="53.002275" lon="-3.297264"><ele>281</ele><time>2023-01-14T10:48:13Z</time><name>PT963</name></trkpt>
<trkpt lat="53.002283" lon="-3.297243"><ele>282</ele><time>2023-01-14T10:48:18Z</time><name>PT964</name></trkpt>
<trkpt lat="53.002289" lon="-3.297232"><ele>283</ele><time>2023-01-14T10:48:21Z</time><name>PT965</name></trkpt>
<trkpt lat="53.002290" lon="-3.297229"><ele>283</ele><time>2023-01-14T10:48:25Z</time><name>PT966</name></trkpt>
<trkpt lat="53.002290" lon="-3.297207"><ele>283</ele><time>2023-01-14T10:48:30Z</time><name>PT967</name></trkpt>
<trkpt lat="53.002291" lon="-3.297194"><ele>283</ele><time>2023-01-14T10:48:37Z</time><name>PT968</name></trkpt>
<trkpt lat="53.002283" lon="-3.297174"><ele>284</ele><time>2023-01-14T10:48:42Z</time><name>PT969</name></trkpt>
<trkpt lat="53.002276" lon="-3.297143"><ele>284</ele><time>2023-01-14T10:48:45Z</time><name>PT970</name></trkpt>
<trkpt lat="53.002268" lon="-3.297118"><ele>285</ele><time>2023-01-14T10:48:48Z</time><name>PT971</name></trkpt>
<trkpt lat="53.002267" lon="-3.297112"><ele>285</ele><time>2023-01-14T10:48:51Z</time><name>PT972</name></trkpt>
<trkpt lat="53.002258" lon="-3.297099"><ele>285</ele><time>2023-01-14T10:49:09Z</time><name>PT973</name></trkpt>
<trkpt lat="53.002238" lon="-3.297066"><ele>287</ele><time>2023-01-14T10:49:12Z</time><name>PT974</name></trkpt>
<trkpt lat="53.002232" lon="-3.297055"><ele>287</ele><time>2023-01-14T10:49:15Z</time><name>PT975</name></trkpt>
<trkpt lat="53.002227" lon="-3.297038"><ele>287</ele><time>2023-01-14T10:49:21Z</time><name>PT976</name></trkpt>
<trkpt lat="53.002212" lon="-3.297013"><ele>288</ele><time>2023-01-14T10:49:24Z</time><name>PT977</name></trkpt>
<trkpt lat="53.002205" lon="-3.297006"><ele>289</ele><time>2023-01-14T10:49:45Z</time><name>PT978</name></trkpt>
<trkpt lat="53.002171" lon="-3.296965"><ele>289</ele><time>2023-01-14T10:49:48Z</time><name>PT979</name></trkpt>
<trkpt lat="53.002127" lon="-3.296926"><ele>290</ele><time>2023-01-14T10:49:51Z</time><name>PT980</name></trkpt>
<trkpt lat="53.002095" lon="-3.296896"><ele>291</ele><time>2023-01-14T10:49:55Z</time><name>PT981</name></trkpt>
<trkpt lat="53.002075" lon="-3.296878"><ele>291</ele><time>2023-01-14T10:49:58Z</time><name>PT982</name></trkpt>
<trkpt lat="53.002047" lon="-3.296858"><ele>292</ele><time>2023-01-14T10:50:03Z</time><name>PT983</name></trkpt>
<trkpt lat="53.002023" lon="-3.296841"><ele>292</ele><time>2023-01-14T10:50:06Z</time><name>PT984</name></trkpt>
<trkpt lat="53.001986" lon="-3.296820"><ele>292</ele><time>2023-01-14T10:50:09Z</time><name>PT985</name></trkpt>
<trkpt lat="53.001962" lon="-3.296794"><ele>293</ele><time>2023-01-14T10:50:13Z</time><name>PT986</name></trkpt>
<trkpt lat="53.001952" lon="-3.296785"><ele>294</ele><time>2023-01-14T10:50:18Z</time><name>PT987</name></trkpt>
<trkpt lat="53.001931" lon="-3.296771"><ele>293</ele><time>2023-01-14T10:50:39Z</time><name>PT988</name></trkpt>
<trkpt lat="53.001922" lon="-3.296770"><ele>294</ele><time>2023-01-14T10:50:42Z</time><name>PT989</name></trkpt>
<trkpt lat="53.001913" lon="-3.296764"><ele>294</ele><time>2023-01-14T10:50:48Z</time><name>PT990</name></trkpt>
<trkpt lat="53.001899" lon="-3.296727"><ele>292</ele><time>2023-01-14T10:57:00Z</time><name>PT991</name></trkpt>
<trkpt lat="53.001885" lon="-3.296716"><ele>291</ele><time>2023-01-14T10:57:10Z</time><name>PT992</name></trkpt>
<trkpt lat="53.001876" lon="-3.296701"><ele>290</ele><time>2023-01-14T10:57:18Z</time><name>PT993</name></trkpt>
<trkpt lat="53.001886" lon="-3.296704"><ele>291</ele><time>2023-01-14T10:57:22Z</time><name>PT994</name></trkpt>
<trkpt lat="53.001887" lon="-3.296703"><ele>290</ele><time>2023-01-14T10:57:25Z</time><name>PT995</name></trkpt>
<trkpt lat="53.001876" lon="-3.296718"><ele>289</ele><time>2023-01-14T10:57:45Z</time><name>PT996</name></trkpt>
<trkpt lat="53.001874" lon="-3.296727"><ele>289</ele><time>2023-01-14T10:57:48Z</time><name>PT997</name></trkpt>
<trkpt lat="53.001870" lon="-3.296730"><ele>289</ele><time>2023-01-14T10:57:51Z</time><name>PT998</name></trkpt>
<trkpt lat="53.001863" lon="-3.296726"><ele>289</ele><time>2023-01-14T10:57:54Z</time><name>PT999</name></trkpt>
<trkpt lat="53.001859" lon="-3.296712"><ele>289</ele><time>2023-01-14T10:57:58Z</time><name>PT1000</name></trkpt>
<trkpt lat="53.001858" lon="-3.296717"><ele>290</ele><time>2023-01-14T10:58:57Z</time><name>PT1001</name></trkpt>
<trkpt lat="53.001849" lon="-3.296727"><ele>291</ele><time>2023-01-14T10:59:00Z</time><name>PT1002</name></trkpt>
<trkpt lat="53.001852" lon="-3.296725"><ele>290</ele><time>2023-01-14T10:59:03Z</time><name>PT1003</name></trkpt>
<trkpt lat="53.001853" lon="-3.296726"><ele>290</ele><time>2023-01-14T10:59:07Z</time><name>PT1004</name></trkpt>
<trkpt lat="53.001850" lon="-3.296725"><ele>290</ele><time>2023-01-14T10:59:37Z</time><name>PT1005</name></trkpt>
<trkpt lat="53.001850" lon="-3.296728"><ele>290</ele><time>2023-01-14T10:59:42Z</time><name>PT1006</name></trkpt>
<trkpt lat="53.001849" lon="-3.296729"><ele>290</ele><time>2023-01-14T10:59:45Z</time><name>PT1007</name></trkpt>
<trkpt lat="53.001852" lon="-3.296735"><ele>290</ele><time>2023-01-14T10:59:48Z</time><name>PT1008</name></trkpt>
<trkpt lat="53.001865" lon="-3.296718"><ele>291</ele><time>2023-01-14T11:00:21Z</time><name>PT1009</name></trkpt>
<trkpt lat="53.001846" lon="-3.296693"><ele>292</ele><time>2023-01-14T11:02:06Z</time><name>PT1010</name></trkpt>
<trkpt lat="53.001835" lon="-3.296644"><ele>292</ele><time>2023-01-14T11:02:09Z</time><name>PT1011</name></trkpt>
<trkpt lat="53.001798" lon="-3.296590"><ele>291</ele><time>2023-01-14T11:02:13Z</time><name>PT1012</name></trkpt>
<trkpt lat="53.001791" lon="-3.296563"><ele>291</ele><time>2023-01-14T11:02:16Z</time><name>PT1013</name></trkpt>
<trkpt lat="53.001780" lon="-3.296525"><ele>290</ele><time>2023-01-14T11:02:21Z</time><name>PT1014</name></trkpt>
<trkpt lat="53.001767" lon="-3.296466"><ele>291</ele><time>2023-01-14T11:02:24Z</time><name>PT1015</name></trkpt>
<trkpt lat="53.001751" lon="-3.296411"><ele>292</ele><time>2023-01-14T11:02:28Z</time><name>PT1016</name></trkpt>
<trkpt lat="53.001743" lon="-3.296383"><ele>292</ele><time>2023-01-14T11:02:31Z</time><name>PT1017</name></trkpt>
<trkpt lat="53.001729" lon="-3.296334"><ele>293</ele><time>2023-01-14T11:02:36Z</time><name>PT1018</name></trkpt>
<trkpt lat="53.001708" lon="-3.296276"><ele>296</ele><time>2023-01-14T11:02:39Z</time><name>PT1019</name></trkpt>
<trkpt lat="53.001705" lon="-3.296228"><ele>297</ele><time>2023-01-14T11:02:42Z</time><name>PT1020</name></trkpt>
<trkpt lat="53.001691" lon="-3.296174"><ele>298</ele><time>2023-01-14T11:02:46Z</time><name>PT1021</name></trkpt>
<trkpt lat="53.001686" lon="-3.296142"><ele>299</ele><time>2023-01-14T11:02:49Z</time><name>PT1022</name></trkpt>
<trkpt lat="53.001677" lon="-3.296095"><ele>300</ele><time>2023-01-14T11:02:54Z</time><name>PT1023</name></trkpt>
<trkpt lat="53.001666" lon="-3.296073"><ele>300</ele><time>2023-01-14T11:02:57Z</time><name>PT1024</name></trkpt>
<trkpt lat="53.001664" lon="-3.296039"><ele>300</ele><time>2023-01-14T11:03:00Z</time><name>PT1025</name></trkpt>
<trkpt lat="53.001658" lon="-3.296004"><ele>300</ele><time>2023-01-14T11:03:03Z</time><name>PT1026</name></trkpt>
<trkpt lat="53.001654" lon="-3.295969"><ele>301</ele><time>2023-01-14T11:03:06Z</time><name>PT1027</name></trkpt>
<trkpt lat="53.001644" lon="-3.295917"><ele>301</ele><time>2023-01-14T11:03:09Z</time><name>PT1028</name></trkpt>
<trkpt lat="53.001639" lon="-3.295877"><ele>302</ele><time>2023-01-14T11:03:12Z</time><name>PT1029</name></trkpt>
<trkpt lat="53.001627" lon="-3.295816"><ele>304</ele><time>2023-01-14T11:03:16Z</time><name>PT1030</name></trkpt>
<trkpt lat="53.001616" lon="-3.295781"><ele>304</ele><time>2023-01-14T11:03:19Z</time><name>PT1031</name></trkpt>
<trkpt lat="53.001608" lon="-3.295743"><ele>304</ele><time>2023-01-14T11:03:24Z</time><name>PT1032</name></trkpt>
<trkpt lat="53.001598" lon="-3.295700"><ele>305</ele><time>2023-01-14T11:03:27Z</time><name>PT1033</name></trkpt>
<trkpt lat="53.001584" lon="-3.295645"><ele>306</ele><time>2023-01-14T11:03:30Z</time><name>PT1034</name></trkpt>
<trkpt lat="53.001574" lon="-3.295607"><ele>307</ele><time>2023-01-14T11:03:33Z</time><name>PT1035</name></trkpt>
<trkpt lat="53.001561" lon="-3.295576"><ele>308</ele><time>2023-01-14T11:03:36Z</time><name>PT1036</name></trkpt>
<trkpt lat="53.001551" lon="-3.295551"><ele>308</ele><time>2023-01-14T11:03:40Z</time><name>PT1037</name></trkpt>
<trkpt lat="53.001526" lon="-3.295498"><ele>309</ele><time>2023-01-14T11:03:45Z</time><name>PT1038</name></trkpt>
<trkpt lat="53.001500" lon="-3.295466"><ele>309</ele><time>2023-01-14T11:03:48Z</time><name>PT1039</name></trkpt>
<trkpt lat="53.001481" lon="-3.295421"><ele>308</ele><time>2023-01-14T11:03:52Z</time><name>PT1040</name></trkpt>
<trkpt lat="53.001453" lon="-3.295391"><ele>308</ele><time>2023-01-14T11:03:57Z</time><name>PT1041</name></trkpt>
<trkpt lat="53.001419" lon="-3.295357"><ele>308</ele><time>2023-01-14T11:04:00Z</time><name>PT1042</name></trkpt>
<trkpt lat="53.001389" lon="-3.295324"><ele>308</ele><time>2023-01-14T11:04:04Z</time><name>PT1043</name></trkpt>
<trkpt lat="53.001368" lon="-3.295307"><ele>309</ele><time>2023-01-14T11:04:09Z</time><name>PT1044</name></trkpt>
<trkpt lat="53.001353" lon="-3.295288"><ele>309</ele><time>2023-01-14T11:04:12Z</time><name>PT1045</name></trkpt>
<trkpt lat="53.001335" lon="-3.295260"><ele>309</ele><time>2023-01-14T11:04:15Z</time><name>PT1046</name></trkpt>
<trkpt lat="53.001321" lon="-3.295234"><ele>310</ele><time>2023-01-14T11:04:18Z</time><name>PT1047</name></trkpt>
<trkpt lat="53.001296" lon="-3.295187"><ele>312</ele><time>2023-01-14T11:04:22Z</time><name>PT1048</name></trkpt>
<trkpt lat="53.001280" lon="-3.295144"><ele>312</ele><time>2023-01-14T11:04:27Z</time><name>PT1049</name></trkpt>
<trkpt lat="53.001252" lon="-3.295106"><ele>312</ele><time>2023-01-14T11:04:30Z</time><name>PT1050</name></trkpt>
<trkpt lat="53.001224" lon="-3.295081"><ele>314</ele><time>2023-01-14T11:04:34Z</time><name>PT1051</name></trkpt>
<trkpt lat="53.001217" lon="-3.295029"><ele>314</ele><time>2023-01-14T11:04:39Z</time><name>PT1052</name></trkpt>
<trkpt lat="53.001207" lon="-3.294988"><ele>315</ele><time>2023-01-14T11:04:42Z</time><name>PT1053</name></trkpt>
<trkpt lat="53.001201" lon="-3.294940"><ele>315</ele><time>2023-01-14T11:04:45Z</time><name>PT1054</name></trkpt>
<trkpt lat="53.001190" lon="-3.294889"><ele>316</ele><time>2023-01-14T11:04:49Z</time><name>PT1055</name></trkpt>
<trkpt lat="53.001179" lon="-3.294825"><ele>317</ele><time>2023-01-14T11:04:54Z</time><name>PT1056</name></trkpt>
<trkpt lat="53.001169" lon="-3.294781"><ele>319</ele><time>2023-01-14T11:04:57Z</time><name>PT1057</name></trkpt>
<trkpt lat="53.001157" lon="-3.294741"><ele>319</ele><time>2023-01-14T11:05:00Z</time><name>PT1058</name></trkpt>
<trkpt lat="53.001155" lon="-3.294715"><ele>319</ele><time>2023-01-14T11:05:03Z</time><name>PT1059</name></trkpt>
<trkpt lat="53.001142" lon="-3.294660"><ele>319</ele><time>2023-01-14T11:05:06Z</time><name>PT1060</name></trkpt>
<trkpt lat="53.001133" lon="-3.294617"><ele>320</ele><time>2023-01-14T11:05:09Z</time><name>PT1061</name></trkpt>
<trkpt lat="53.001121" lon="-3.294559"><ele>321</ele><time>2023-01-14T11:05:13Z</time><name>PT1062</name></trkpt>
<trkpt lat="53.001114" lon="-3.294514"><ele>321</ele><time>2023-01-14T11:05:16Z</time><name>PT1063</name></trkpt>
<trkpt lat="53.001106" lon="-3.294455"><ele>321</ele><time>2023-01-14T11:05:21Z</time><name>PT1064</name></trkpt>
<trkpt lat="53.001100" lon="-3.294410"><ele>321</ele><time>2023-01-14T11:05:24Z</time><name>PT1065</name></trkpt>
<trkpt lat="53.001092" lon="-3.294364"><ele>322</ele><time>2023-01-14T11:05:27Z</time><name>PT1066</name></trkpt>
<trkpt lat="53.001079" lon="-3.294304"><ele>322</ele><time>2023-01-14T11:05:30Z</time><name>PT1067</name></trkpt>
<trkpt lat="53.001069" lon="-3.294263"><ele>322</ele><time>2023-01-14T11:05:33Z</time><name>PT1068</name></trkpt>
<trkpt lat="53.001053" lon="-3.294208"><ele>323</ele><time>2023-01-14T11:05:37Z</time><name>PT1069</name></trkpt>
<trkpt lat="53.001042" lon="-3.294163"><ele>323</ele><time>2023-01-14T11:05:40Z</time><name>PT1070</name></trkpt>
<trkpt lat="53.001023" lon="-3.294107"><ele>324</ele><time>2023-01-14T11:05:45Z</time><name>PT1071</name></trkpt>
<trkpt lat="53.001010" lon="-3.294070"><ele>324</ele><time>2023-01-14T11:05:48Z</time><name>PT1072</name></trkpt>
<trkpt lat="53.000997" lon="-3.294032"><ele>325</ele><time>2023-01-14T11:05:51Z</time><name>PT1073</name></trkpt>
<trkpt lat="53.000979" lon="-3.293983"><ele>325</ele><time>2023-01-14T11:05:54Z</time><name>PT1074</name></trkpt>
<trkpt lat="53.000967" lon="-3.293936"><ele>326</ele><time>2023-01-14T11:05:58Z</time><name>PT1075</name></trkpt>
<trkpt lat="53.000951" lon="-3.293882"><ele>326</ele><time>2023-01-14T11:06:03Z</time><name>PT1076</name></trkpt>
<trkpt lat="53.000929" lon="-3.293832"><ele>327</ele><time>2023-01-14T11:06:06Z</time><name>PT1077</name></trkpt>
<trkpt lat="53.000916" lon="-3.293801"><ele>327</ele><time>2023-01-14T11:06:09Z</time><name>PT1078</name></trkpt>
<trkpt lat="53.000903" lon="-3.293765"><ele>327</ele><time>2023-01-14T11:06:12Z</time><name>PT1079</name></trkpt>
<trkpt lat="53.000893" lon="-3.293711"><ele>328</ele><time>2023-01-14T11:06:17Z</time><name>PT1080</name></trkpt>
<trkpt lat="53.000881" lon="-3.293655"><ele>329</ele><time>2023-01-14T11:06:20Z</time><name>PT1081</name></trkpt>
<trkpt lat="53.000870" lon="-3.293621"><ele>329</ele><time>2023-01-14T11:06:23Z</time><name>PT1082</name></trkpt>
<trkpt lat="53.000860" lon="-3.293572"><ele>330</ele><time>2023-01-14T11:06:27Z</time><name>PT1083</name></trkpt>
<trkpt lat="53.000851" lon="-3.293539"><ele>331</ele><time>2023-01-14T11:06:30Z</time><name>PT1084</name></trkpt>
<trkpt lat="53.000845" lon="-3.293507"><ele>330</ele><time>2023-01-14T11:06:33Z</time><name>PT1085</name></trkpt>
<trkpt lat="53.000847" lon="-3.293455"><ele>331</ele><time>2023-01-14T11:06:36Z</time><name>PT1086</name></trkpt>
<trkpt lat="53.000847" lon="-3.293401"><ele>331</ele><time>2023-01-14T11:06:41Z</time><name>PT1087</name></trkpt>
<trkpt lat="53.000849" lon="-3.293360"><ele>331</ele><time>2023-01-14T11:06:44Z</time><name>PT1088</name></trkpt>
<trkpt lat="53.000847" lon="-3.293324"><ele>332</ele><time>2023-01-14T11:06:47Z</time><name>PT1089</name></trkpt>
<trkpt lat="53.000846" lon="-3.293284"><ele>332</ele><time>2023-01-14T11:06:50Z</time><name>PT1090</name></trkpt>
<trkpt lat="53.000835" lon="-3.293238"><ele>332</ele><time>2023-01-14T11:06:53Z</time><name>PT1091</name></trkpt>
<trkpt lat="53.000835" lon="-3.293198"><ele>332</ele><time>2023-01-14T11:06:56Z</time><name>PT1092</name></trkpt>
<trkpt lat="53.000836" lon="-3.293154"><ele>333</ele><time>2023-01-14T11:06:59Z</time><name>PT1093</name></trkpt>
<trkpt lat="53.000838" lon="-3.293091"><ele>333</ele><time>2023-01-14T11:07:03Z</time><name>PT1094</name></trkpt>
<trkpt lat="53.000839" lon="-3.293039"><ele>333</ele><time>2023-01-14T11:07:06Z</time><name>PT1095</name></trkpt>
<trkpt lat="53.000839" lon="-3.292982"><ele>333</ele><time>2023-01-14T11:07:11Z</time><name>PT1096</name></trkpt>
<trkpt lat="53.000836" lon="-3.292930"><ele>334</ele><time>2023-01-14T11:07:14Z</time><name>PT1097</name></trkpt>
<trkpt lat="53.000832" lon="-3.292858"><ele>334</ele><time>2023-01-14T11:07:17Z</time><name>PT1098</name></trkpt>
<trkpt lat="53.000827" lon="-3.292788"><ele>335</ele><time>2023-01-14T11:07:21Z</time><name>PT1099</name></trkpt>
<trkpt lat="53.000825" lon="-3.292744"><ele>335</ele><time>2023-01-14T11:07:24Z</time><name>PT1100</name></trkpt>
<trkpt lat="53.000823" lon="-3.292683"><ele>335</ele><time>2023-01-14T11:07:29Z</time><name>PT1101</name></trkpt>
<trkpt lat="53.000820" lon="-3.292635"><ele>336</ele><time>2023-01-14T11:07:32Z</time><name>PT1102</name></trkpt>
<trkpt lat="53.000817" lon="-3.292578"><ele>336</ele><time>2023-01-14T11:07:35Z</time><name>PT1103</name></trkpt>
<trkpt lat="53.000814" lon="-3.292558"><ele>336</ele><time>2023-01-14T11:07:38Z</time><name>PT1104</name></trkpt>
<trkpt lat="53.000813" lon="-3.292555"><ele>336</ele><time>2023-01-14T11:07:42Z</time><name>PT1105</name></trkpt>
<trkpt lat="53.000815" lon="-3.292554"><ele>336</ele><time>2023-01-14T11:07:56Z</time><name>PT1106</name></trkpt>
<trkpt lat="53.000822" lon="-3.292522"><ele>336</ele><time>2023-01-14T11:07:59Z</time><name>PT1107</name></trkpt>
<trkpt lat="53.000829" lon="-3.292471"><ele>335</ele><time>2023-01-14T11:08:03Z</time><name>PT1108</name></trkpt>
<trkpt lat="53.000829" lon="-3.292430"><ele>335</ele><time>2023-01-14T11:08:06Z</time><name>PT1109</name></trkpt>
<trkpt lat="53.000819" lon="-3.292382"><ele>337</ele><time>2023-01-14T11:08:09Z</time><name>PT1110</name></trkpt>
<trkpt lat="53.000816" lon="-3.292336"><ele>337</ele><time>2023-01-14T11:08:13Z</time><name>PT1111</name></trkpt>
<trkpt lat="53.000818" lon="-3.292286"><ele>338</ele><time>2023-01-14T11:08:17Z</time><name>PT1112</name></trkpt>
<trkpt lat="53.000821" lon="-3.292249"><ele>338</ele><time>2023-01-14T11:08:20Z</time><name>PT1113</name></trkpt>
<trkpt lat="53.000823" lon="-3.292217"><ele>339</ele><time>2023-01-14T11:08:23Z</time><name>PT1114</name></trkpt>
<trkpt lat="53.000816" lon="-3.292169"><ele>339</ele><time>2023-01-14T11:08:26Z</time><name>PT1115</name></trkpt>
<trkpt lat="53.000806" lon="-3.292107"><ele>339</ele><time>2023-01-14T11:08:30Z</time><name>PT1116</name></trkpt>
<trkpt lat="53.000799" lon="-3.292066"><ele>339</ele><time>2023-01-14T11:08:33Z</time><name>PT1117</name></trkpt>
<trkpt lat="53.000794" lon="-3.292036"><ele>340</ele><time>2023-01-14T11:08:36Z</time><name>PT1118</name></trkpt>
<trkpt lat="53.000784" lon="-3.291991"><ele>340</ele><time>2023-01-14T11:08:41Z</time><name>PT1119</name></trkpt>
<trkpt lat="53.000787" lon="-3.291986"><ele>340</ele><time>2023-01-14T11:08:44Z</time><name>PT1120</name></trkpt>
<trkpt lat="53.000777" lon="-3.291972"><ele>340</ele><time>2023-01-14T11:08:47Z</time><name>PT1121</name></trkpt>
<trkpt lat="53.000777" lon="-3.291967"><ele>341</ele><time>2023-01-14T11:08:51Z</time><name>PT1122</name></trkpt>
<trkpt lat="53.000777" lon="-3.291965"><ele>340</ele><time>2023-01-14T11:08:56Z</time><name>PT1123</name></trkpt>
<trkpt lat="53.000777" lon="-3.291961"><ele>340</ele><time>2023-01-14T11:08:59Z</time><name>PT1124</name></trkpt>
<trkpt lat="53.000773" lon="-3.291944"><ele>340</ele><time>2023-01-14T11:09:02Z</time><name>PT1125</name></trkpt>
<trkpt lat="53.000772" lon="-3.291904"><ele>339</ele><time>2023-01-14T11:09:05Z</time><name>PT1126</name></trkpt>
<trkpt lat="53.000789" lon="-3.291861"><ele>339</ele><time>2023-01-14T11:09:09Z</time><name>PT1127</name></trkpt>
<trkpt lat="53.000803" lon="-3.291836"><ele>339</ele><time>2023-01-14T11:09:12Z</time><name>PT1128</name></trkpt>
<trkpt lat="53.000815" lon="-3.291807"><ele>340</ele><time>2023-01-14T11:09:17Z</time><name>PT1129</name></trkpt>
<trkpt lat="53.000815" lon="-3.291813"><ele>340</ele><time>2023-01-14T11:09:20Z</time><name>PT1130</name></trkpt>
<trkpt lat="53.000832" lon="-3.291801"><ele>340</ele><time>2023-01-14T11:09:24Z</time><name>PT1131</name></trkpt>
<trkpt lat="53.000864" lon="-3.291770"><ele>340</ele><time>2023-01-14T11:09:29Z</time><name>PT1132</name></trkpt>
<trkpt lat="53.000884" lon="-3.291746"><ele>340</ele><time>2023-01-14T11:09:32Z</time><name>PT1133</name></trkpt>
<trkpt lat="53.000914" lon="-3.291722"><ele>341</ele><time>2023-01-14T11:09:35Z</time><name>PT1134</name></trkpt>
<trkpt lat="53.000931" lon="-3.291701"><ele>341</ele><time>2023-01-14T11:09:38Z</time><name>PT1135</name></trkpt>
<trkpt lat="53.000952" lon="-3.291687"><ele>341</ele><time>2023-01-14T11:09:42Z</time><name>PT1136</name></trkpt>
<trkpt lat="53.000970" lon="-3.291658"><ele>342</ele><time>2023-01-14T11:09:45Z</time><name>PT1137</name></trkpt>
<trkpt lat="53.000996" lon="-3.291614"><ele>341</ele><time>2023-01-14T11:09:50Z</time><name>PT1138</name></trkpt>
<trkpt lat="53.001027" lon="-3.291555"><ele>342</ele><time>2023-01-14T11:09:53Z</time><name>PT1139</name></trkpt>
<trkpt lat="53.001049" lon="-3.291508"><ele>343</ele><time>2023-01-14T11:09:56Z</time><name>PT1140</name></trkpt>
<trkpt lat="53.001063" lon="-3.291467"><ele>343</ele><time>2023-01-14T11:10:00Z</time><name>PT1141</name></trkpt>
<trkpt lat="53.001077" lon="-3.291427"><ele>343</ele><time>2023-01-14T11:10:03Z</time><name>PT1142</name></trkpt>
<trkpt lat="53.001097" lon="-3.291392"><ele>344</ele><time>2023-01-14T11:10:06Z</time><name>PT1143</name></trkpt>
<trkpt lat="53.001127" lon="-3.291331"><ele>343</ele><time>2023-01-14T11:10:11Z</time><name>PT1144</name></trkpt>
<trkpt lat="53.001143" lon="-3.291300"><ele>342</ele><time>2023-01-14T11:10:14Z</time><name>PT1145</name></trkpt>
<trkpt lat="53.001169" lon="-3.291254"><ele>342</ele><time>2023-01-14T11:10:17Z</time><name>PT1146</name></trkpt>
<trkpt lat="53.001183" lon="-3.291216"><ele>342</ele><time>2023-01-14T11:10:20Z</time><name>PT1147</name></trkpt>
<trkpt lat="53.001182" lon="-3.291214"><ele>342</ele><time>2023-01-14T11:10:25Z</time><name>PT1148</name></trkpt>
<trkpt lat="53.001188" lon="-3.291167"><ele>342</ele><time>2023-01-14T11:10:34Z</time><name>PT1149</name></trkpt>
<trkpt lat="53.001208" lon="-3.291128"><ele>341</ele><time>2023-01-14T11:10:37Z</time><name>PT1150</name></trkpt>
<trkpt lat="53.001225" lon="-3.291089"><ele>342</ele><time>2023-01-14T11:10:40Z</time><name>PT1151</name></trkpt>
<trkpt lat="53.001255" lon="-3.291035"><ele>342</ele><time>2023-01-14T11:10:44Z</time><name>PT1152</name></trkpt>
<trkpt lat="53.001270" lon="-3.290994"><ele>343</ele><time>2023-01-14T11:10:47Z</time><name>PT1153</name></trkpt>
<trkpt lat="53.001286" lon="-3.290950"><ele>343</ele><time>2023-01-14T11:10:50Z</time><name>PT1154</name></trkpt>
<trkpt lat="53.001299" lon="-3.290900"><ele>344</ele><time>2023-01-14T11:10:53Z</time><name>PT1155</name></trkpt>
<trkpt lat="53.001314" lon="-3.290843"><ele>344</ele><time>2023-01-14T11:10:58Z</time><name>PT1156</name></trkpt>
<trkpt lat="53.001331" lon="-3.290777"><ele>344</ele><time>2023-01-14T11:11:01Z</time><name>PT1157</name></trkpt>
<trkpt lat="53.001343" lon="-3.290716"><ele>344</ele><time>2023-01-14T11:11:04Z</time><name>PT1158</name></trkpt>
<trkpt lat="53.001365" lon="-3.290650"><ele>344</ele><time>2023-01-14T11:11:08Z</time><name>PT1159</name></trkpt>
<trkpt lat="53.001386" lon="-3.290599"><ele>344</ele><time>2023-01-14T11:11:11Z</time><name>PT1160</name></trkpt>
<trkpt lat="53.001407" lon="-3.290535"><ele>343</ele><time>2023-01-14T11:11:16Z</time><name>PT1161</name></trkpt>
<trkpt lat="53.001421" lon="-3.290493"><ele>343</ele><time>2023-01-14T11:11:19Z</time><name>PT1162</name></trkpt>
<trkpt lat="53.001442" lon="-3.290430"><ele>343</ele><time>2023-01-14T11:11:22Z</time><name>PT1163</name></trkpt>
<trkpt lat="53.001458" lon="-3.290384"><ele>343</ele><time>2023-01-14T11:11:25Z</time><name>PT1164</name></trkpt>
<trkpt lat="53.001472" lon="-3.290347"><ele>343</ele><time>2023-01-14T11:11:28Z</time><name>PT1165</name></trkpt>
<trkpt lat="53.001492" lon="-3.290305"><ele>343</ele><time>2023-01-14T11:11:31Z</time><name>PT1166</name></trkpt>
<trkpt lat="53.001519" lon="-3.290251"><ele>343</ele><time>2023-01-14T11:11:35Z</time><name>PT1167</name></trkpt>
<trkpt lat="53.001540" lon="-3.290211"><ele>343</ele><time>2023-01-14T11:11:38Z</time><name>PT1168</name></trkpt>
<trkpt lat="53.001562" lon="-3.290169"><ele>343</ele><time>2023-01-14T11:11:41Z</time><name>PT1169</name></trkpt>
<trkpt lat="53.001589" lon="-3.290124"><ele>343</ele><time>2023-01-14T11:11:45Z</time><name>PT1170</name></trkpt>
<trkpt lat="53.001623" lon="-3.290077"><ele>343</ele><time>2023-01-14T11:11:49Z</time><name>PT1171</name></trkpt>
<trkpt lat="53.001660" lon="-3.290032"><ele>343</ele><time>2023-01-14T11:11:52Z</time><name>PT1172</name></trkpt>
<trkpt lat="53.001691" lon="-3.290000"><ele>343</ele><time>2023-01-14T11:11:55Z</time><name>PT1173</name></trkpt>
<trkpt lat="53.001731" lon="-3.289960"><ele>343</ele><time>2023-01-14T11:11:59Z</time><name>PT1174</name></trkpt>
<trkpt lat="53.001766" lon="-3.289922"><ele>344</ele><time>2023-01-14T11:12:04Z</time><name>PT1175</name></trkpt>
<trkpt lat="53.001802" lon="-3.289881"><ele>344</ele><time>2023-01-14T11:12:07Z</time><name>PT1176</name></trkpt>
<trkpt lat="53.001839" lon="-3.289830"><ele>344</ele><time>2023-01-14T11:12:11Z</time><name>PT1177</name></trkpt>
<trkpt lat="53.001873" lon="-3.289780"><ele>344</ele><time>2023-01-14T11:12:16Z</time><name>PT1178</name></trkpt>
<trkpt lat="53.001898" lon="-3.289744"><ele>345</ele><time>2023-01-14T11:12:19Z</time><name>PT1179</name></trkpt>
<trkpt lat="53.001920" lon="-3.289708"><ele>345</ele><time>2023-01-14T11:12:22Z</time><name>PT1180</name></trkpt>
<trkpt lat="53.001950" lon="-3.289651"><ele>346</ele><time>2023-01-14T11:12:25Z</time><name>PT1181</name></trkpt>
<trkpt lat="53.001974" lon="-3.289602"><ele>346</ele><time>2023-01-14T11:12:28Z</time><name>PT1182</name></trkpt>
<trkpt lat="53.002000" lon="-3.289543"><ele>346</ele><time>2023-01-14T11:12:32Z</time><name>PT1183</name></trkpt>
<trkpt lat="53.002024" lon="-3.289480"><ele>347</ele><time>2023-01-14T11:12:37Z</time><name>PT1184</name></trkpt>
<trkpt lat="53.002046" lon="-3.289428"><ele>346</ele><time>2023-01-14T11:12:40Z</time><name>PT1185</name></trkpt>
<trkpt lat="53.002062" lon="-3.289381"><ele>346</ele><time>2023-01-14T11:12:43Z</time><name>PT1186</name></trkpt>
<trkpt lat="53.002077" lon="-3.289337"><ele>347</ele><time>2023-01-14T11:12:46Z</time><name>PT1187</name></trkpt>
<trkpt lat="53.002094" lon="-3.289273"><ele>347</ele><time>2023-01-14T11:12:49Z</time><name>PT1188</name></trkpt>
<trkpt lat="53.002113" lon="-3.289210"><ele>347</ele><time>2023-01-14T11:12:53Z</time><name>PT1189</name></trkpt>
<trkpt lat="53.002133" lon="-3.289150"><ele>347</ele><time>2023-01-14T11:12:58Z</time><name>PT1190</name></trkpt>
<trkpt lat="53.002150" lon="-3.289108"><ele>347</ele><time>2023-01-14T11:13:01Z</time><name>PT1191</name></trkpt>
<trkpt lat="53.002176" lon="-3.289051"><ele>347</ele><time>2023-01-14T11:13:04Z</time><name>PT1192</name></trkpt>
<trkpt lat="53.002201" lon="-3.288992"><ele>347</ele><time>2023-01-14T11:13:08Z</time><name>PT1193</name></trkpt>
<trkpt lat="53.002225" lon="-3.288933"><ele>347</ele><time>2023-01-14T11:13:13Z</time><name>PT1194</name></trkpt>
<trkpt lat="53.002252" lon="-3.288875"><ele>347</ele><time>2023-01-14T11:13:16Z</time><name>PT1195</name></trkpt>
<trkpt lat="53.002269" lon="-3.288831"><ele>348</ele><time>2023-01-14T11:13:19Z</time><name>PT1196</name></trkpt>
<trkpt lat="53.002296" lon="-3.288764"><ele>347</ele><time>2023-01-14T11:13:23Z</time><name>PT1197</name></trkpt>
<trkpt lat="53.002315" lon="-3.288714"><ele>347</ele><time>2023-01-14T11:13:26Z</time><name>PT1198</name></trkpt>
<trkpt lat="53.002338" lon="-3.288663"><ele>347</ele><time>2023-01-14T11:13:29Z</time><name>PT1199</name></trkpt>
<trkpt lat="53.002359" lon="-3.288618"><ele>346</ele><time>2023-01-14T11:13:32Z</time><name>PT1200</name></trkpt>
<trkpt lat="53.002389" lon="-3.288554"><ele>346</ele><time>2023-01-14T11:13:37Z</time><name>PT1201</name></trkpt>
<trkpt lat="53.002410" lon="-3.288508"><ele>345</ele><time>2023-01-14T11:13:40Z</time><name>PT1202</name></trkpt>
<trkpt lat="53.002439" lon="-3.288452"><ele>344</ele><time>2023-01-14T11:13:43Z</time><name>PT1203</name></trkpt>
<trkpt lat="53.002460" lon="-3.288408"><ele>344</ele><time>2023-01-14T11:13:46Z</time><name>PT1204</name></trkpt>
<trkpt lat="53.002485" lon="-3.288364"><ele>344</ele><time>2023-01-14T11:13:49Z</time><name>PT1205</name></trkpt>
<trkpt lat="53.002510" lon="-3.288314"><ele>344</ele><time>2023-01-14T11:13:53Z</time><name>PT1206</name></trkpt>
<trkpt lat="53.002540" lon="-3.288250"><ele>344</ele><time>2023-01-14T11:13:58Z</time><name>PT1207</name></trkpt>
<trkpt lat="53.002565" lon="-3.288185"><ele>344</ele><time>2023-01-14T11:14:01Z</time><name>PT1208</name></trkpt>
<trkpt lat="53.002578" lon="-3.288137"><ele>343</ele><time>2023-01-14T11:14:04Z</time><name>PT1209</name></trkpt>
<trkpt lat="53.002595" lon="-3.288067"><ele>344</ele><time>2023-01-14T11:14:08Z</time><name>PT1210</name></trkpt>
<trkpt lat="53.002604" lon="-3.288004"><ele>343</ele><time>2023-01-14T11:14:11Z</time><name>PT1211</name></trkpt>
<trkpt lat="53.002628" lon="-3.287932"><ele>343</ele><time>2023-01-14T11:14:16Z</time><name>PT1212</name></trkpt>
<trkpt lat="53.002647" lon="-3.287864"><ele>342</ele><time>2023-01-14T11:14:19Z</time><name>PT1213</name></trkpt>
<trkpt lat="53.002657" lon="-3.287822"><ele>342</ele><time>2023-01-14T11:14:22Z</time><name>PT1214</name></trkpt>
<trkpt lat="53.002673" lon="-3.287775"><ele>343</ele><time>2023-01-14T11:14:26Z</time><name>PT1215</name></trkpt>
<trkpt lat="53.002696" lon="-3.287708"><ele>343</ele><time>2023-01-14T11:14:31Z</time><name>PT1216</name></trkpt>
<trkpt lat="53.002719" lon="-3.287649"><ele>343</ele><time>2023-01-14T11:14:34Z</time><name>PT1217</name></trkpt>
<trkpt lat="53.002738" lon="-3.287585"><ele>341</ele><time>2023-01-14T11:14:38Z</time><name>PT1218</name></trkpt>
<trkpt lat="53.002759" lon="-3.287527"><ele>341</ele><time>2023-01-14T11:14:43Z</time><name>PT1219</name></trkpt>
<trkpt lat="53.002769" lon="-3.287478"><ele>341</ele><time>2023-01-14T11:14:46Z</time><name>PT1220</name></trkpt>
<trkpt lat="53.002777" lon="-3.287431"><ele>341</ele><time>2023-01-14T11:14:49Z</time><name>PT1221</name></trkpt>
<trkpt lat="53.002795" lon="-3.287387"><ele>341</ele><time>2023-01-14T11:14:52Z</time><name>PT1222</name></trkpt>
<trkpt lat="53.002814" lon="-3.287317"><ele>341</ele><time>2023-01-14T11:14:55Z</time><name>PT1223</name></trkpt>
<trkpt lat="53.002823" lon="-3.287260"><ele>340</ele><time>2023-01-14T11:14:58Z</time><name>PT1224</name></trkpt>
<trkpt lat="53.002838" lon="-3.287192"><ele>339</ele><time>2023-01-14T11:15:02Z</time><name>PT1225</name></trkpt>
<trkpt lat="53.002840" lon="-3.287168"><ele>338</ele><time>2023-01-14T11:15:05Z</time><name>PT1226</name></trkpt>
<trkpt lat="53.002842" lon="-3.287172"><ele>338</ele><time>2023-01-14T11:15:10Z</time><name>PT1227</name></trkpt>
<trkpt lat="53.002848" lon="-3.287125"><ele>338</ele><time>2023-01-14T11:15:13Z</time><name>PT1228</name></trkpt>
<trkpt lat="53.002862" lon="-3.287041"><ele>338</ele><time>2023-01-14T11:15:17Z</time><name>PT1229</name></trkpt>
<trkpt lat="53.002874" lon="-3.286969"><ele>338</ele><time>2023-01-14T11:15:22Z</time><name>PT1230</name></trkpt>
<trkpt lat="53.002880" lon="-3.286920"><ele>338</ele><time>2023-01-14T11:15:25Z</time><name>PT1231</name></trkpt>
<trkpt lat="53.002890" lon="-3.286878"><ele>338</ele><time>2023-01-14T11:15:28Z</time><name>PT1232</name></trkpt>
<trkpt lat="53.002899" lon="-3.286822"><ele>338</ele><time>2023-01-14T11:15:31Z</time><name>PT1233</name></trkpt>
<trkpt lat="53.002914" lon="-3.286746"><ele>338</ele><time>2023-01-14T11:15:34Z</time><name>PT1234</name></trkpt>
<trkpt lat="53.002924" lon="-3.286687"><ele>338</ele><time>2023-01-14T11:15:37Z</time><name>PT1235</name></trkpt>
<trkpt lat="53.002932" lon="-3.286608"><ele>338</ele><time>2023-01-14T11:15:41Z</time><name>PT1236</name></trkpt>
<trkpt lat="53.002939" lon="-3.286551"><ele>338</ele><time>2023-01-14T11:15:44Z</time><name>PT1237</name></trkpt>
<trkpt lat="53.002950" lon="-3.286478"><ele>338</ele><time>2023-01-14T11:15:49Z</time><name>PT1238</name></trkpt>
<trkpt lat="53.002956" lon="-3.286435"><ele>338</ele><time>2023-01-14T11:15:52Z</time><name>PT1239</name></trkpt>
<trkpt lat="53.002965" lon="-3.286361"><ele>337</ele><time>2023-01-14T11:15:55Z</time><name>PT1240</name></trkpt>
<trkpt lat="53.002974" lon="-3.286286"><ele>338</ele><time>2023-01-14T11:15:59Z</time><name>PT1241</name></trkpt>
<trkpt lat="53.002989" lon="-3.286210"><ele>338</ele><time>2023-01-14T11:16:04Z</time><name>PT1242</name></trkpt>
<trkpt lat="53.002999" lon="-3.286147"><ele>338</ele><time>2023-01-14T11:16:07Z</time><name>PT1243</name></trkpt>
<trkpt lat="53.003006" lon="-3.286088"><ele>338</ele><time>2023-01-14T11:16:10Z</time><name>PT1244</name></trkpt>
<trkpt lat="53.003011" lon="-3.286008"><ele>338</ele><time>2023-01-14T11:16:13Z</time><name>PT1245</name></trkpt>
<trkpt lat="53.003019" lon="-3.285946"><ele>338</ele><time>2023-01-14T11:16:16Z</time><name>PT1246</name></trkpt>
<trkpt lat="53.003031" lon="-3.285874"><ele>338</ele><time>2023-01-14T11:16:20Z</time><name>PT1247</name></trkpt>
<trkpt lat="53.003038" lon="-3.285800"><ele>338</ele><time>2023-01-14T11:16:25Z</time><name>PT1248</name></trkpt>
<trkpt lat="53.003044" lon="-3.285752"><ele>338</ele><time>2023-01-14T11:16:28Z</time><name>PT1249</name></trkpt>
<trkpt lat="53.003055" lon="-3.285679"><ele>338</ele><time>2023-01-14T11:16:31Z</time><name>PT1250</name></trkpt>
<trkpt lat="53.003065" lon="-3.285600"><ele>338</ele><time>2023-01-14T11:16:35Z</time><name>PT1251</name></trkpt>
<trkpt lat="53.003076" lon="-3.285544"><ele>338</ele><time>2023-01-14T11:16:38Z</time><name>PT1252</name></trkpt>
<trkpt lat="53.003084" lon="-3.285488"><ele>338</ele><time>2023-01-14T11:16:41Z</time><name>PT1253</name></trkpt>
<trkpt lat="53.003091" lon="-3.285425"><ele>338</ele><time>2023-01-14T11:16:44Z</time><name>PT1254</name></trkpt>
<trkpt lat="53.003095" lon="-3.285370"><ele>338</ele><time>2023-01-14T11:16:47Z</time><name>PT1255</name></trkpt>
<trkpt lat="53.003105" lon="-3.285292"><ele>338</ele><time>2023-01-14T11:16:52Z</time><name>PT1256</name></trkpt>
<trkpt lat="53.003108" lon="-3.285215"><ele>337</ele><time>2023-01-14T11:16:55Z</time><name>PT1257</name></trkpt>
<trkpt lat="53.003107" lon="-3.285142"><ele>337</ele><time>2023-01-14T11:16:59Z</time><name>PT1258</name></trkpt>
<trkpt lat="53.003104" lon="-3.285090"><ele>337</ele><time>2023-01-14T11:17:02Z</time><name>PT1259</name></trkpt>
<trkpt lat="53.003095" lon="-3.285041"><ele>337</ele><time>2023-01-14T11:17:05Z</time><name>PT1260</name></trkpt>
<trkpt lat="53.003086" lon="-3.284990"><ele>336</ele><time>2023-01-14T11:17:10Z</time><name>PT1261</name></trkpt>
<trkpt lat="53.003077" lon="-3.284935"><ele>335</ele><time>2023-01-14T11:17:13Z</time><name>PT1262</name></trkpt>
<trkpt lat="53.003063" lon="-3.284859"><ele>335</ele><time>2023-01-14T11:17:16Z</time><name>PT1263</name></trkpt>
<trkpt lat="53.003052" lon="-3.284803"><ele>335</ele><time>2023-01-14T11:17:19Z</time><name>PT1264</name></trkpt>
<trkpt lat="53.003046" lon="-3.284756"><ele>334</ele><time>2023-01-14T11:17:22Z</time><name>PT1265</name></trkpt>
<trkpt lat="53.003036" lon="-3.284680"><ele>334</ele><time>2023-01-14T11:17:26Z</time><name>PT1266</name></trkpt>
<trkpt lat="53.003024" lon="-3.284619"><ele>332</ele><time>2023-01-14T11:17:31Z</time><name>PT1267</name></trkpt>
<trkpt lat="53.003011" lon="-3.284575"><ele>333</ele><time>2023-01-14T11:17:34Z</time><name>PT1268</name></trkpt>
<trkpt lat="53.002998" lon="-3.284522"><ele>332</ele><time>2023-01-14T11:17:37Z</time><name>PT1269</name></trkpt>
<trkpt lat="53.003005" lon="-3.284465"><ele>332</ele><time>2023-01-14T11:17:40Z</time><name>PT1270</name></trkpt>
<trkpt lat="53.003013" lon="-3.284417"><ele>331</ele><time>2023-01-14T11:17:44Z</time><name>PT1271</name></trkpt>
<trkpt lat="53.003007" lon="-3.284378"><ele>331</ele><time>2023-01-14T11:17:49Z</time><name>PT1272</name></trkpt>
<trkpt lat="53.002996" lon="-3.284327"><ele>331</ele><time>2023-01-14T11:17:52Z</time><name>PT1273</name></trkpt>
<trkpt lat="53.002980" lon="-3.284264"><ele>332</ele><time>2023-01-14T11:17:55Z</time><name>PT1274</name></trkpt>
<trkpt lat="53.002977" lon="-3.284224"><ele>332</ele><time>2023-01-14T11:17:58Z</time><name>PT1275</name></trkpt>
<trkpt lat="53.002987" lon="-3.284164"><ele>332</ele><time>2023-01-14T11:18:02Z</time><name>PT1276</name></trkpt>
<trkpt lat="53.003006" lon="-3.284082"><ele>333</ele><time>2023-01-14T11:18:07Z</time><name>PT1277</name></trkpt>
<trkpt lat="53.003024" lon="-3.284020"><ele>335</ele><time>2023-01-14T11:18:10Z</time><name>PT1278</name></trkpt>
<trkpt lat="53.003039" lon="-3.283963"><ele>336</ele><time>2023-01-14T11:18:13Z</time><name>PT1279</name></trkpt>
<trkpt lat="53.003053" lon="-3.283915"><ele>336</ele><time>2023-01-14T11:18:16Z</time><name>PT1280</name></trkpt>
<trkpt lat="53.003082" lon="-3.283858"><ele>337</ele><time>2023-01-14T11:18:19Z</time><name>PT1281</name></trkpt>
<trkpt lat="53.003103" lon="-3.283805"><ele>337</ele><time>2023-01-14T11:18:22Z</time><name>PT1282</name></trkpt>
<trkpt lat="53.003124" lon="-3.283732"><ele>337</ele><time>2023-01-14T11:18:26Z</time><name>PT1283</name></trkpt>
<trkpt lat="53.003146" lon="-3.283666"><ele>337</ele><time>2023-01-14T11:18:31Z</time><name>PT1284</name></trkpt>
<trkpt lat="53.003161" lon="-3.283608"><ele>337</ele><time>2023-01-14T11:18:34Z</time><name>PT1285</name></trkpt>
<trkpt lat="53.003173" lon="-3.283563"><ele>337</ele><time>2023-01-14T11:18:37Z</time><name>PT1286</name></trkpt>
<trkpt lat="53.003179" lon="-3.283530"><ele>338</ele><time>2023-01-14T11:18:40Z</time><name>PT1287</name></trkpt>
<trkpt lat="53.003180" lon="-3.283521"><ele>338</ele><time>2023-01-14T11:18:43Z</time><name>PT1288</name></trkpt>
<trkpt lat="53.003185" lon="-3.283474"><ele>338</ele><time>2023-01-14T11:18:46Z</time><name>PT1289</name></trkpt>
<trkpt lat="53.003201" lon="-3.283376"><ele>338</ele><time>2023-01-14T11:18:50Z</time><name>PT1290</name></trkpt>
<trkpt lat="53.003219" lon="-3.283314"><ele>338</ele><time>2023-01-14T11:18:53Z</time><name>PT1291</name></trkpt>
<trkpt lat="53.003236" lon="-3.283253"><ele>339</ele><time>2023-01-14T11:18:56Z</time><name>PT1292</name></trkpt>
<trkpt lat="53.003258" lon="-3.283181"><ele>339</ele><time>2023-01-14T11:19:01Z</time><name>PT1293</name></trkpt>
<trkpt lat="53.003279" lon="-3.283135"><ele>339</ele><time>2023-01-14T11:19:04Z</time><name>PT1294</name></trkpt>
<trkpt lat="53.003311" lon="-3.283067"><ele>339</ele><time>2023-01-14T11:19:07Z</time><name>PT1295</name></trkpt>
<trkpt lat="53.003334" lon="-3.283020"><ele>338</ele><time>2023-01-14T11:19:10Z</time><name>PT1296</name></trkpt>
<trkpt lat="53.003363" lon="-3.282952"><ele>339</ele><time>2023-01-14T11:19:14Z</time><name>PT1297</name></trkpt>
<trkpt lat="53.003382" lon="-3.282905"><ele>339</ele><time>2023-01-14T11:19:17Z</time><name>PT1298</name></trkpt>
<trkpt lat="53.003405" lon="-3.282832"><ele>340</ele><time>2023-01-14T11:19:22Z</time><name>PT1299</name></trkpt>
<trkpt lat="53.003427" lon="-3.282780"><ele>341</ele><time>2023-01-14T11:19:25Z</time><name>PT1300</name></trkpt>
<trkpt lat="53.003443" lon="-3.282728"><ele>342</ele><time>2023-01-14T11:19:28Z</time><name>PT1301</name></trkpt>
<trkpt lat="53.003461" lon="-3.282663"><ele>343</ele><time>2023-01-14T11:19:31Z</time><name>PT1302</name></trkpt>
<trkpt lat="53.003470" lon="-3.282597"><ele>345</ele><time>2023-01-14T11:19:35Z</time><name>PT1303</name></trkpt>
<trkpt lat="53.003470" lon="-3.282593"><ele>345</ele><time>2023-01-14T11:19:40Z</time><name>PT1304</name></trkpt>
<trkpt lat="53.003488" lon="-3.282538"><ele>346</ele><time>2023-01-14T11:19:49Z</time><name>PT1305</name></trkpt>
<trkpt lat="53.003507" lon="-3.282458"><ele>346</ele><time>2023-01-14T11:19:53Z</time><name>PT1306</name></trkpt>
<trkpt lat="53.003525" lon="-3.282402"><ele>347</ele><time>2023-01-14T11:19:58Z</time><name>PT1307</name></trkpt>
<trkpt lat="53.003542" lon="-3.282342"><ele>347</ele><time>2023-01-14T11:20:01Z</time><name>PT1308</name></trkpt>
<trkpt lat="53.003559" lon="-3.282271"><ele>349</ele><time>2023-01-14T11:20:04Z</time><name>PT1309</name></trkpt>
<trkpt lat="53.003585" lon="-3.282205"><ele>350</ele><time>2023-01-14T11:20:08Z</time><name>PT1310</name></trkpt>
<trkpt lat="53.003604" lon="-3.282155"><ele>350</ele><time>2023-01-14T11:20:11Z</time><name>PT1311</name></trkpt>
<trkpt lat="53.003629" lon="-3.282087"><ele>350</ele><time>2023-01-14T11:20:16Z</time><name>PT1312</name></trkpt>
<trkpt lat="53.003655" lon="-3.282005"><ele>351</ele><time>2023-01-14T11:20:19Z</time><name>PT1313</name></trkpt>
<trkpt lat="53.003683" lon="-3.281925"><ele>351</ele><time>2023-01-14T11:20:23Z</time><name>PT1314</name></trkpt>
<trkpt lat="53.003705" lon="-3.281867"><ele>352</ele><time>2023-01-14T11:20:26Z</time><name>PT1315</name></trkpt>
<trkpt lat="53.003730" lon="-3.281795"><ele>352</ele><time>2023-01-14T11:20:31Z</time><name>PT1316</name></trkpt>
<trkpt lat="53.003751" lon="-3.281738"><ele>352</ele><time>2023-01-14T11:20:34Z</time><name>PT1317</name></trkpt>
<trkpt lat="53.003772" lon="-3.281664"><ele>353</ele><time>2023-01-14T11:20:37Z</time><name>PT1318</name></trkpt>
<trkpt lat="53.003793" lon="-3.281619"><ele>353</ele><time>2023-01-14T11:20:40Z</time><name>PT1319</name></trkpt>
<trkpt lat="53.003823" lon="-3.281548"><ele>353</ele><time>2023-01-14T11:20:44Z</time><name>PT1320</name></trkpt>
<trkpt lat="53.003846" lon="-3.281495"><ele>354</ele><time>2023-01-14T11:20:47Z</time><name>PT1321</name></trkpt>
<trkpt lat="53.003870" lon="-3.281428"><ele>354</ele><time>2023-01-14T11:20:52Z</time><name>PT1322</name></trkpt>
<trkpt lat="53.003891" lon="-3.281361"><ele>354</ele><time>2023-01-14T11:20:55Z</time><name>PT1323</name></trkpt>
<trkpt lat="53.003917" lon="-3.281281"><ele>355</ele><time>2023-01-14T11:20:58Z</time><name>PT1324</name></trkpt>
<trkpt lat="53.003942" lon="-3.281226"><ele>355</ele><time>2023-01-14T11:21:01Z</time><name>PT1325</name></trkpt>
<trkpt lat="53.003965" lon="-3.281141"><ele>356</ele><time>2023-01-14T11:21:05Z</time><name>PT1326</name></trkpt>
<trkpt lat="53.003983" lon="-3.281084"><ele>355</ele><time>2023-01-14T11:21:08Z</time><name>PT1327</name></trkpt>
<trkpt lat="53.004009" lon="-3.281010"><ele>355</ele><time>2023-01-14T11:21:13Z</time><name>PT1328</name></trkpt>
<trkpt lat="53.004027" lon="-3.280960"><ele>356</ele><time>2023-01-14T11:21:16Z</time><name>PT1329</name></trkpt>
<trkpt lat="53.004050" lon="-3.280868"><ele>357</ele><time>2023-01-14T11:21:19Z</time><name>PT1330</name></trkpt>
<trkpt lat="53.004071" lon="-3.280810"><ele>357</ele><time>2023-01-14T11:21:22Z</time><name>PT1331</name></trkpt>
<trkpt lat="53.004096" lon="-3.280743"><ele>357</ele><time>2023-01-14T11:21:26Z</time><name>PT1332</name></trkpt>
<trkpt lat="53.004124" lon="-3.280674"><ele>357</ele><time>2023-01-14T11:21:31Z</time><name>PT1333</name></trkpt>
<trkpt lat="53.004149" lon="-3.280607"><ele>358</ele><time>2023-01-14T11:21:34Z</time><name>PT1334</name></trkpt>
<trkpt lat="53.004177" lon="-3.280541"><ele>358</ele><time>2023-01-14T11:21:38Z</time><name>PT1335</name></trkpt>
<trkpt lat="53.004196" lon="-3.280491"><ele>359</ele><time>2023-01-14T11:21:41Z</time><name>PT1336</name></trkpt>
<trkpt lat="53.004223" lon="-3.280417"><ele>359</ele><time>2023-01-14T11:21:46Z</time><name>PT1337</name></trkpt>
<trkpt lat="53.004243" lon="-3.280361"><ele>359</ele><time>2023-01-14T11:21:49Z</time><name>PT1338</name></trkpt>
<trkpt lat="53.004269" lon="-3.280297"><ele>360</ele><time>2023-01-14T11:21:52Z</time><name>PT1339</name></trkpt>
<trkpt lat="53.004289" lon="-3.280236"><ele>360</ele><time>2023-01-14T11:21:56Z</time><name>PT1340</name></trkpt>
<trkpt lat="53.004304" lon="-3.280180"><ele>361</ele><time>2023-01-14T11:21:59Z</time><name>PT1341</name></trkpt>
<trkpt lat="53.004331" lon="-3.280107"><ele>362</ele><time>2023-01-14T11:22:04Z</time><name>PT1342</name></trkpt>
<trkpt lat="53.004355" lon="-3.280036"><ele>361</ele><time>2023-01-14T11:22:07Z</time><name>PT1343</name></trkpt>
<trkpt lat="53.004367" lon="-3.279987"><ele>361</ele><time>2023-01-14T11:22:10Z</time><name>PT1344</name></trkpt>
<trkpt lat="53.004392" lon="-3.279923"><ele>361</ele><time>2023-01-14T11:22:14Z</time><name>PT1345</name></trkpt>
<trkpt lat="53.004417" lon="-3.279851"><ele>361</ele><time>2023-01-14T11:22:19Z</time><name>PT1346</name></trkpt>
<trkpt lat="53.004441" lon="-3.279799"><ele>362</ele><time>2023-01-14T11:22:22Z</time><name>PT1347</name></trkpt>
<trkpt lat="53.004460" lon="-3.279743"><ele>362</ele><time>2023-01-14T11:22:25Z</time><name>PT1348</name></trkpt>
<trkpt lat="53.004478" lon="-3.279687"><ele>362</ele><time>2023-01-14T11:22:28Z</time><name>PT1349</name></trkpt>
<trkpt lat="53.004495" lon="-3.279621"><ele>362</ele><time>2023-01-14T11:22:31Z</time><name>PT1350</name></trkpt>
<trkpt lat="53.004510" lon="-3.279569"><ele>363</ele><time>2023-01-14T11:22:34Z</time><name>PT1351</name></trkpt>
<trkpt lat="53.004528" lon="-3.279520"><ele>363</ele><time>2023-01-14T11:22:37Z</time><name>PT1352</name></trkpt>
<trkpt lat="53.004555" lon="-3.279454"><ele>364</ele><time>2023-01-14T11:22:41Z</time><name>PT1353</name></trkpt>
<trkpt lat="53.004576" lon="-3.279374"><ele>365</ele><time>2023-01-14T11:22:46Z</time><name>PT1354</name></trkpt>
<trkpt lat="53.004599" lon="-3.279301"><ele>365</ele><time>2023-01-14T11:22:49Z</time><name>PT1355</name></trkpt>
<trkpt lat="53.004614" lon="-3.279223"><ele>365</ele><time>2023-01-14T11:22:53Z</time><name>PT1356</name></trkpt>
<trkpt lat="53.004629" lon="-3.279171"><ele>366</ele><time>2023-01-14T11:22:56Z</time><name>PT1357</name></trkpt>
<trkpt lat="53.004651" lon="-3.279108"><ele>365</ele><time>2023-01-14T11:23:01Z</time><name>PT1358</name></trkpt>
<trkpt lat="53.004664" lon="-3.279052"><ele>364</ele><time>2023-01-14T11:23:04Z</time><name>PT1359</name></trkpt>
<trkpt lat="53.004681" lon="-3.278980"><ele>362</ele><time>2023-01-14T11:23:07Z</time><name>PT1360</name></trkpt>
<trkpt lat="53.004701" lon="-3.278931"><ele>362</ele><time>2023-01-14T11:23:10Z</time><name>PT1361</name></trkpt>
<trkpt lat="53.004729" lon="-3.278873"><ele>362</ele><time>2023-01-14T11:23:14Z</time><name>PT1362</name></trkpt>
<trkpt lat="53.004763" lon="-3.278822"><ele>363</ele><time>2023-01-14T11:23:19Z</time><name>PT1363</name></trkpt>
<trkpt lat="53.004786" lon="-3.278789"><ele>362</ele><time>2023-01-14T11:23:22Z</time><name>PT1364</name></trkpt>
<trkpt lat="53.004813" lon="-3.278748"><ele>363</ele><time>2023-01-14T11:23:25Z</time><name>PT1365</name></trkpt>
<trkpt lat="53.004842" lon="-3.278697"><ele>364</ele><time>2023-01-14T11:23:28Z</time><name>PT1366</name></trkpt>
<trkpt lat="53.004863" lon="-3.278649"><ele>364</ele><time>2023-01-14T11:23:31Z</time><name>PT1367</name></trkpt>
<trkpt lat="53.004890" lon="-3.278590"><ele>363</ele><time>2023-01-14T11:23:35Z</time><name>PT1368</name></trkpt>
<trkpt lat="53.004918" lon="-3.278513"><ele>364</ele><time>2023-01-14T11:23:40Z</time><name>PT1369</name></trkpt>
<trkpt lat="53.004937" lon="-3.278461"><ele>364</ele><time>2023-01-14T11:23:43Z</time><name>PT1370</name></trkpt>
<trkpt lat="53.004972" lon="-3.278386"><ele>365</ele><time>2023-01-14T11:23:46Z</time><name>PT1371</name></trkpt>
<trkpt lat="53.004991" lon="-3.278334"><ele>365</ele><time>2023-01-14T11:23:49Z</time><name>PT1372</name></trkpt>
<trkpt lat="53.005016" lon="-3.278292"><ele>365</ele><time>2023-01-14T11:23:52Z</time><name>PT1373</name></trkpt>
<trkpt lat="53.005040" lon="-3.278222"><ele>365</ele><time>2023-01-14T11:23:56Z</time><name>PT1374</name></trkpt>
<trkpt lat="53.005067" lon="-3.278158"><ele>365</ele><time>2023-01-14T11:24:01Z</time><name>PT1375</name></trkpt>
<trkpt lat="53.005088" lon="-3.278111"><ele>365</ele><time>2023-01-14T11:24:04Z</time><name>PT1376</name></trkpt>
<trkpt lat="53.005102" lon="-3.278058"><ele>365</ele><time>2023-01-14T11:24:07Z</time><name>PT1377</name></trkpt>
<trkpt lat="53.005123" lon="-3.277992"><ele>365</ele><time>2023-01-14T11:24:10Z</time><name>PT1378</name></trkpt>
<trkpt lat="53.005147" lon="-3.277923"><ele>365</ele><time>2023-01-14T11:24:14Z</time><name>PT1379</name></trkpt>
<trkpt lat="53.005164" lon="-3.277873"><ele>364</ele><time>2023-01-14T11:24:17Z</time><name>PT1380</name></trkpt>
<trkpt lat="53.005182" lon="-3.277828"><ele>364</ele><time>2023-01-14T11:24:20Z</time><name>PT1381</name></trkpt>
<trkpt lat="53.005200" lon="-3.277778"><ele>364</ele><time>2023-01-14T11:24:23Z</time><name>PT1382</name></trkpt>
<trkpt lat="53.005224" lon="-3.277717"><ele>364</ele><time>2023-01-14T11:24:28Z</time><name>PT1383</name></trkpt>
<trkpt lat="53.005242" lon="-3.277660"><ele>364</ele><time>2023-01-14T11:24:31Z</time><name>PT1384</name></trkpt>
<trkpt lat="53.005264" lon="-3.277603"><ele>364</ele><time>2023-01-14T11:24:34Z</time><name>PT1385</name></trkpt>
<trkpt lat="53.005287" lon="-3.277533"><ele>364</ele><time>2023-01-14T11:24:37Z</time><name>PT1386</name></trkpt>
<trkpt lat="53.005308" lon="-3.277467"><ele>364</ele><time>2023-01-14T11:24:41Z</time><name>PT1387</name></trkpt>
<trkpt lat="53.005326" lon="-3.277390"><ele>364</ele><time>2023-01-14T11:24:46Z</time><name>PT1388</name></trkpt>
<trkpt lat="53.005351" lon="-3.277316"><ele>364</ele><time>2023-01-14T11:24:49Z</time><name>PT1389</name></trkpt>
<trkpt lat="53.005375" lon="-3.277242"><ele>364</ele><time>2023-01-14T11:24:53Z</time><name>PT1390</name></trkpt>
<trkpt lat="53.005391" lon="-3.277192"><ele>364</ele><time>2023-01-14T11:24:56Z</time><name>PT1391</name></trkpt>
<trkpt lat="53.005427" lon="-3.277128"><ele>366</ele><time>2023-01-14T11:25:01Z</time><name>PT1392</name></trkpt>
<trkpt lat="53.005447" lon="-3.277067"><ele>366</ele><time>2023-01-14T11:25:04Z</time><name>PT1393</name></trkpt>
<trkpt lat="53.005463" lon="-3.277018"><ele>366</ele><time>2023-01-14T11:25:07Z</time><name>PT1394</name></trkpt>
<trkpt lat="53.005484" lon="-3.276968"><ele>367</ele><time>2023-01-14T11:25:10Z</time><name>PT1395</name></trkpt>
<trkpt lat="53.005504" lon="-3.276916"><ele>368</ele><time>2023-01-14T11:25:13Z</time><name>PT1396</name></trkpt>
<trkpt lat="53.005523" lon="-3.276843"><ele>367</ele><time>2023-01-14T11:25:16Z</time><name>PT1397</name></trkpt>
<trkpt lat="53.005547" lon="-3.276780"><ele>367</ele><time>2023-01-14T11:25:20Z</time><name>PT1398</name></trkpt>
<trkpt lat="53.005566" lon="-3.276735"><ele>367</ele><time>2023-01-14T11:25:23Z</time><name>PT1399</name></trkpt>
<trkpt lat="53.005588" lon="-3.276682"><ele>367</ele><time>2023-01-14T11:25:26Z</time><name>PT1400</name></trkpt>
<trkpt lat="53.005609" lon="-3.276615"><ele>366</ele><time>2023-01-14T11:25:31Z</time><name>PT1401</name></trkpt>
<trkpt lat="53.005627" lon="-3.276564"><ele>366</ele><time>2023-01-14T11:25:34Z</time><name>PT1402</name></trkpt>
<trkpt lat="53.005642" lon="-3.276510"><ele>365</ele><time>2023-01-14T11:25:37Z</time><name>PT1403</name></trkpt>
<trkpt lat="53.005666" lon="-3.276438"><ele>365</ele><time>2023-01-14T11:25:40Z</time><name>PT1404</name></trkpt>
<trkpt lat="53.005685" lon="-3.276386"><ele>365</ele><time>2023-01-14T11:25:43Z</time><name>PT1405</name></trkpt>
<trkpt lat="53.005713" lon="-3.276304"><ele>366</ele><time>2023-01-14T11:25:47Z</time><name>PT1406</name></trkpt>
<trkpt lat="53.005740" lon="-3.276226"><ele>365</ele><time>2023-01-14T11:25:52Z</time><name>PT1407</name></trkpt>
<trkpt lat="53.005758" lon="-3.276142"><ele>365</ele><time>2023-01-14T11:25:55Z</time><name>PT1408</name></trkpt>
<trkpt lat="53.005774" lon="-3.276072"><ele>364</ele><time>2023-01-14T11:25:59Z</time><name>PT1409</name></trkpt>
<trkpt lat="53.005794" lon="-3.275999"><ele>365</ele><time>2023-01-14T11:26:04Z</time><name>PT1410</name></trkpt>
<trkpt lat="53.005801" lon="-3.275948"><ele>364</ele><time>2023-01-14T11:26:07Z</time><name>PT1411</name></trkpt>
<trkpt lat="53.005807" lon="-3.275896"><ele>365</ele><time>2023-01-14T11:26:10Z</time><name>PT1412</name></trkpt>
<trkpt lat="53.005807" lon="-3.275857"><ele>365</ele><time>2023-01-14T11:26:13Z</time><name>PT1413</name></trkpt>
<trkpt lat="53.005806" lon="-3.275858"><ele>365</ele><time>2023-01-14T11:26:16Z</time><name>PT1414</name></trkpt>
<trkpt lat="53.005802" lon="-3.275845"><ele>365</ele><time>2023-01-14T11:26:19Z</time><name>PT1415</name></trkpt>
<trkpt lat="53.005800" lon="-3.275823"><ele>365</ele><time>2023-01-14T11:26:23Z</time><name>PT1416</name></trkpt>
<trkpt lat="53.005799" lon="-3.275826"><ele>364</ele><time>2023-01-14T11:26:26Z</time><name>PT1417</name></trkpt>
<trkpt lat="53.005800" lon="-3.275799"><ele>364</ele><time>2023-01-14T11:27:10Z</time><name>PT1418</name></trkpt>
<trkpt lat="53.005794" lon="-3.275758"><ele>364</ele><time>2023-01-14T11:27:13Z</time><name>PT1419</name></trkpt>
<trkpt lat="53.005789" lon="-3.275710"><ele>364</ele><time>2023-01-14T11:27:16Z</time><name>PT1420</name></trkpt>
<trkpt lat="53.005781" lon="-3.275649"><ele>364</ele><time>2023-01-14T11:27:19Z</time><name>PT1421</name></trkpt>
<trkpt lat="53.005763" lon="-3.275614"><ele>364</ele><time>2023-01-14T11:27:22Z</time><name>PT1422</name></trkpt>
<trkpt lat="53.005735" lon="-3.275582"><ele>364</ele><time>2023-01-14T11:27:26Z</time><name>PT1423</name></trkpt>
<trkpt lat="53.005706" lon="-3.275546"><ele>364</ele><time>2023-01-14T11:27:31Z</time><name>PT1424</name></trkpt>
<trkpt lat="53.005679" lon="-3.275525"><ele>364</ele><time>2023-01-14T11:27:34Z</time><name>PT1425</name></trkpt>
<trkpt lat="53.005645" lon="-3.275504"><ele>364</ele><time>2023-01-14T11:27:37Z</time><name>PT1426</name></trkpt>
<trkpt lat="53.005618" lon="-3.275487"><ele>365</ele><time>2023-01-14T11:27:40Z</time><name>PT1427</name></trkpt>
<trkpt lat="53.005593" lon="-3.275467"><ele>364</ele><time>2023-01-14T11:27:43Z</time><name>PT1428</name></trkpt>
<trkpt lat="53.005568" lon="-3.275452"><ele>364</ele><time>2023-01-14T11:27:46Z</time><name>PT1429</name></trkpt>
<trkpt lat="53.005531" lon="-3.275433"><ele>365</ele><time>2023-01-14T11:27:50Z</time><name>PT1430</name></trkpt>
<trkpt lat="53.005498" lon="-3.275413"><ele>365</ele><time>2023-01-14T11:27:55Z</time><name>PT1431</name></trkpt>
<trkpt lat="53.005464" lon="-3.275393"><ele>364</ele><time>2023-01-14T11:27:58Z</time><name>PT1432</name></trkpt>
<trkpt lat="53.005425" lon="-3.275372"><ele>365</ele><time>2023-01-14T11:28:02Z</time><name>PT1433</name></trkpt>
<trkpt lat="53.005395" lon="-3.275352"><ele>365</ele><time>2023-01-14T11:28:05Z</time><name>PT1434</name></trkpt>
<trkpt lat="53.005359" lon="-3.275329"><ele>365</ele><time>2023-01-14T11:28:10Z</time><name>PT1435</name></trkpt>
<trkpt lat="53.005322" lon="-3.275303"><ele>366</ele><time>2023-01-14T11:28:13Z</time><name>PT1436</name></trkpt>
<trkpt lat="53.005285" lon="-3.275275"><ele>366</ele><time>2023-01-14T11:28:17Z</time><name>PT1437</name></trkpt>
<trkpt lat="53.005256" lon="-3.275260"><ele>366</ele><time>2023-01-14T11:28:20Z</time><name>PT1438</name></trkpt>
<trkpt lat="53.005221" lon="-3.275235"><ele>366</ele><time>2023-01-14T11:28:25Z</time><name>PT1439</name></trkpt>
<trkpt lat="53.005185" lon="-3.275210"><ele>366</ele><time>2023-01-14T11:28:28Z</time><name>PT1440</name></trkpt>
<trkpt lat="53.005158" lon="-3.275194"><ele>366</ele><time>2023-01-14T11:28:31Z</time><name>PT1441</name></trkpt>
<trkpt lat="53.005123" lon="-3.275167"><ele>366</ele><time>2023-01-14T11:28:35Z</time><name>PT1442</name></trkpt>
<trkpt lat="53.005085" lon="-3.275143"><ele>366</ele><time>2023-01-14T11:28:40Z</time><name>PT1443</name></trkpt>
<trkpt lat="53.005058" lon="-3.275124"><ele>367</ele><time>2023-01-14T11:28:43Z</time><name>PT1444</name></trkpt>
<trkpt lat="53.005028" lon="-3.275102"><ele>367</ele><time>2023-01-14T11:28:46Z</time><name>PT1445</name></trkpt>
<trkpt lat="53.004991" lon="-3.275080"><ele>367</ele><time>2023-01-14T11:28:49Z</time><name>PT1446</name></trkpt>
<trkpt lat="53.004962" lon="-3.275063"><ele>367</ele><time>2023-01-14T11:28:52Z</time><name>PT1447</name></trkpt>
<trkpt lat="53.004936" lon="-3.275043"><ele>368</ele><time>2023-01-14T11:28:55Z</time><name>PT1448</name></trkpt>
<trkpt lat="53.004898" lon="-3.275016"><ele>369</ele><time>2023-01-14T11:28:59Z</time><name>PT1449</name></trkpt>
<trkpt lat="53.004871" lon="-3.274997"><ele>369</ele><time>2023-01-14T11:29:02Z</time><name>PT1450</name></trkpt>
<trkpt lat="53.004834" lon="-3.274974"><ele>369</ele><time>2023-01-14T11:29:07Z</time><name>PT1451</name></trkpt>
<trkpt lat="53.004805" lon="-3.274957"><ele>370</ele><time>2023-01-14T11:29:10Z</time><name>PT1452</name></trkpt>
<trkpt lat="53.004771" lon="-3.274932"><ele>370</ele><time>2023-01-14T11:29:13Z</time><name>PT1453</name></trkpt>
<trkpt lat="53.004739" lon="-3.274909"><ele>371</ele><time>2023-01-14T11:29:17Z</time><name>PT1454</name></trkpt>
<trkpt lat="53.004699" lon="-3.274885"><ele>371</ele><time>2023-01-14T11:29:22Z</time><name>PT1455</name></trkpt>
<trkpt lat="53.004670" lon="-3.274863"><ele>372</ele><time>2023-01-14T11:29:25Z</time><name>PT1456</name></trkpt>
<trkpt lat="53.004641" lon="-3.274844"><ele>372</ele><time>2023-01-14T11:29:28Z</time><name>PT1457</name></trkpt>
<trkpt lat="53.004604" lon="-3.274823"><ele>372</ele><time>2023-01-14T11:29:31Z</time><name>PT1458</name></trkpt>
<trkpt lat="53.004567" lon="-3.274795"><ele>374</ele><time>2023-01-14T11:29:35Z</time><name>PT1459</name></trkpt>
<trkpt lat="53.004540" lon="-3.274771"><ele>375</ele><time>2023-01-14T11:29:38Z</time><name>PT1460</name></trkpt>
<trkpt lat="53.004501" lon="-3.274747"><ele>376</ele><time>2023-01-14T11:29:43Z</time><name>PT1461</name></trkpt>
<trkpt lat="53.004463" lon="-3.274726"><ele>376</ele><time>2023-01-14T11:29:46Z</time><name>PT1462</name></trkpt>
<trkpt lat="53.004417" lon="-3.274709"><ele>376</ele><time>2023-01-14T11:29:50Z</time><name>PT1463</name></trkpt>
<trkpt lat="53.004404" lon="-3.274723"><ele>378</ele><time>2023-01-14T11:29:53Z</time><name>PT1464</name></trkpt>
<trkpt lat="53.004367" lon="-3.274725"><ele>377</ele><time>2023-01-14T11:29:58Z</time><name>PT1465</name></trkpt>
<trkpt lat="53.004337" lon="-3.274712"><ele>377</ele><time>2023-01-14T11:30:01Z</time><name>PT1466</name></trkpt>
<trkpt lat="53.004296" lon="-3.274696"><ele>378</ele><time>2023-01-14T11:30:04Z</time><name>PT1467</name></trkpt>
<trkpt lat="53.004257" lon="-3.274675"><ele>378</ele><time>2023-01-14T11:30:08Z</time><name>PT1468</name></trkpt>
<trkpt lat="53.004225" lon="-3.274653"><ele>379</ele><time>2023-01-14T11:30:11Z</time><name>PT1469</name></trkpt>
<trkpt lat="53.004188" lon="-3.274624"><ele>378</ele><time>2023-01-14T11:30:16Z</time><name>PT1470</name></trkpt>
<trkpt lat="53.004158" lon="-3.274593"><ele>380</ele><time>2023-01-14T11:30:19Z</time><name>PT1471</name></trkpt>
<trkpt lat="53.004125" lon="-3.274546"><ele>382</ele><time>2023-01-14T11:30:22Z</time><name>PT1472</name></trkpt>
<trkpt lat="53.004097" lon="-3.274511"><ele>384</ele><time>2023-01-14T11:30:25Z</time><name>PT1473</name></trkpt>
<trkpt lat="53.004069" lon="-3.274478"><ele>385</ele><time>2023-01-14T11:30:28Z</time><name>PT1474</name></trkpt>
<trkpt lat="53.004038" lon="-3.274449"><ele>386</ele><time>2023-01-14T11:30:31Z</time><name>PT1475</name></trkpt>
<trkpt lat="53.004015" lon="-3.274429"><ele>386</ele><time>2023-01-14T11:30:34Z</time><name>PT1476</name></trkpt>
<trkpt lat="53.003974" lon="-3.274390"><ele>387</ele><time>2023-01-14T11:30:38Z</time><name>PT1477</name></trkpt>
<trkpt lat="53.003944" lon="-3.274367"><ele>387</ele><time>2023-01-14T11:30:41Z</time><name>PT1478</name></trkpt>
<trkpt lat="53.003915" lon="-3.274337"><ele>388</ele><time>2023-01-14T11:30:44Z</time><name>PT1479</name></trkpt>
<trkpt lat="53.003878" lon="-3.274298"><ele>389</ele><time>2023-01-14T11:30:49Z</time><name>PT1480</name></trkpt>
<trkpt lat="53.003847" lon="-3.274269"><ele>390</ele><time>2023-01-14T11:30:52Z</time><name>PT1481</name></trkpt>
<trkpt lat="53.003819" lon="-3.274236"><ele>390</ele><time>2023-01-14T11:30:55Z</time><name>PT1482</name></trkpt>
<trkpt lat="53.003779" lon="-3.274197"><ele>390</ele><time>2023-01-14T11:30:58Z</time><name>PT1483</name></trkpt>
<trkpt lat="53.003757" lon="-3.274167"><ele>391</ele><time>2023-01-14T11:31:01Z</time><name>PT1484</name></trkpt>
<trkpt lat="53.003717" lon="-3.274122"><ele>392</ele><time>2023-01-14T11:31:05Z</time><name>PT1485</name></trkpt>
<trkpt lat="53.003688" lon="-3.274093"><ele>393</ele><time>2023-01-14T11:31:08Z</time><name>PT1486</name></trkpt>
<trkpt lat="53.003657" lon="-3.274052"><ele>393</ele><time>2023-01-14T11:31:13Z</time><name>PT1487</name></trkpt>
<trkpt lat="53.003634" lon="-3.274018"><ele>394</ele><time>2023-01-14T11:31:16Z</time><name>PT1488</name></trkpt>
<trkpt lat="53.003600" lon="-3.273978"><ele>394</ele><time>2023-01-14T11:31:19Z</time><name>PT1489</name></trkpt>
<trkpt lat="53.003565" lon="-3.273936"><ele>394</ele><time>2023-01-14T11:31:23Z</time><name>PT1490</name></trkpt>
<trkpt lat="53.003532" lon="-3.273904"><ele>395</ele><time>2023-01-14T11:31:28Z</time><name>PT1491</name></trkpt>
<trkpt lat="53.003509" lon="-3.273867"><ele>395</ele><time>2023-01-14T11:31:31Z</time><name>PT1492</name></trkpt>
<trkpt lat="53.003473" lon="-3.273820"><ele>395</ele><time>2023-01-14T11:31:34Z</time><name>PT1493</name></trkpt>
<trkpt lat="53.003437" lon="-3.273779"><ele>396</ele><time>2023-01-14T11:31:38Z</time><name>PT1494</name></trkpt>
<trkpt lat="53.003413" lon="-3.273754"><ele>396</ele><time>2023-01-14T11:31:41Z</time><name>PT1495</name></trkpt>
<trkpt lat="53.003377" lon="-3.273712"><ele>396</ele><time>2023-01-14T11:31:46Z</time><name>PT1496</name></trkpt>
<trkpt lat="53.003354" lon="-3.273687"><ele>397</ele><time>2023-01-14T11:31:49Z</time><name>PT1497</name></trkpt>
<trkpt lat="53.003326" lon="-3.273658"><ele>397</ele><time>2023-01-14T11:31:52Z</time><name>PT1498</name></trkpt>
<trkpt lat="53.003300" lon="-3.273627"><ele>397</ele><time>2023-01-14T11:31:55Z</time><name>PT1499</name></trkpt>
<trkpt lat="53.003260" lon="-3.273584"><ele>396</ele><time>2023-01-14T11:31:58Z</time><name>PT1500</name></trkpt>
<trkpt lat="53.003221" lon="-3.273545"><ele>397</ele><time>2023-01-14T11:32:02Z</time><name>PT1501</name></trkpt>
<trkpt lat="53.003191" lon="-3.273515"><ele>396</ele><time>2023-01-14T11:32:05Z</time><name>PT1502</name></trkpt>
<trkpt lat="53.003147" lon="-3.273466"><ele>398</ele><time>2023-01-14T11:32:10Z</time><name>PT1503</name></trkpt>
<trkpt lat="53.003108" lon="-3.273442"><ele>398</ele><time>2023-01-14T11:32:13Z</time><name>PT1504</name></trkpt>
<trkpt lat="53.003067" lon="-3.273412"><ele>398</ele><time>2023-01-14T11:32:17Z</time><name>PT1505</name></trkpt>
<trkpt lat="53.003031" lon="-3.273394"><ele>399</ele><time>2023-01-14T11:32:20Z</time><name>PT1506</name></trkpt>
<trkpt lat="53.002996" lon="-3.273377"><ele>399</ele><time>2023-01-14T11:32:23Z</time><name>PT1507</name></trkpt>
<trkpt lat="53.002960" lon="-3.273366"><ele>399</ele><time>2023-01-14T11:32:26Z</time><name>PT1508</name></trkpt>
<trkpt lat="53.002913" lon="-3.273358"><ele>399</ele><time>2023-01-14T11:32:31Z</time><name>PT1509</name></trkpt>
<trkpt lat="53.002874" lon="-3.273358"><ele>399</ele><time>2023-01-14T11:32:34Z</time><name>PT1510</name></trkpt>
<trkpt lat="53.002830" lon="-3.273336"><ele>400</ele><time>2023-01-14T11:32:37Z</time><name>PT1511</name></trkpt>
<trkpt lat="53.002786" lon="-3.273325"><ele>399</ele><time>2023-01-14T11:32:40Z</time><name>PT1512</name></trkpt>
<trkpt lat="53.002755" lon="-3.273309"><ele>400</ele><time>2023-01-14T11:32:43Z</time><name>PT1513</name></trkpt>
<trkpt lat="53.002718" lon="-3.273300"><ele>399</ele><time>2023-01-14T11:32:47Z</time><name>PT1514</name></trkpt>
<trkpt lat="53.002683" lon="-3.273267"><ele>398</ele><time>2023-01-14T11:32:52Z</time><name>PT1515</name></trkpt>
<trkpt lat="53.002646" lon="-3.273224"><ele>398</ele><time>2023-01-14T11:32:55Z</time><name>PT1516</name></trkpt>
<trkpt lat="53.002627" lon="-3.273190"><ele>398</ele><time>2023-01-14T11:32:58Z</time><name>PT1517</name></trkpt>
<trkpt lat="53.002607" lon="-3.273143"><ele>398</ele><time>2023-01-14T11:33:01Z</time><name>PT1518</name></trkpt>
<trkpt lat="53.002577" lon="-3.273082"><ele>399</ele><time>2023-01-14T11:33:05Z</time><name>PT1519</name></trkpt>
<trkpt lat="53.002551" lon="-3.273029"><ele>399</ele><time>2023-01-14T11:33:10Z</time><name>PT1520</name></trkpt>
<trkpt lat="53.002530" lon="-3.272968"><ele>399</ele><time>2023-01-14T11:33:13Z</time><name>PT1521</name></trkpt>
<trkpt lat="53.002518" lon="-3.272897"><ele>400</ele><time>2023-01-14T11:33:17Z</time><name>PT1522</name></trkpt>
<trkpt lat="53.002512" lon="-3.272837"><ele>400</ele><time>2023-01-14T11:33:20Z</time><name>PT1523</name></trkpt>
<trkpt lat="53.002503" lon="-3.272755"><ele>400</ele><time>2023-01-14T11:33:25Z</time><name>PT1524</name></trkpt>
<trkpt lat="53.002505" lon="-3.272696"><ele>400</ele><time>2023-01-14T11:33:28Z</time><name>PT1525</name></trkpt>
<trkpt lat="53.002508" lon="-3.272639"><ele>400</ele><time>2023-01-14T11:33:31Z</time><name>PT1526</name></trkpt>
<trkpt lat="53.002514" lon="-3.272579"><ele>400</ele><time>2023-01-14T11:33:34Z</time><name>PT1527</name></trkpt>
<trkpt lat="53.002517" lon="-3.272514"><ele>400</ele><time>2023-01-14T11:33:37Z</time><name>PT1528</name></trkpt>
<trkpt lat="53.002526" lon="-3.272447"><ele>400</ele><time>2023-01-14T11:33:41Z</time><name>PT1529</name></trkpt>
<trkpt lat="53.002540" lon="-3.272374"><ele>401</ele><time>2023-01-14T11:33:46Z</time><name>PT1530</name></trkpt>
<trkpt lat="53.002551" lon="-3.272320"><ele>400</ele><time>2023-01-14T11:33:49Z</time><name>PT1531</name></trkpt>
<trkpt lat="53.002562" lon="-3.272231"><ele>401</ele><time>2023-01-14T11:33:52Z</time><name>PT1532</name></trkpt>
<trkpt lat="53.002575" lon="-3.272168"><ele>401</ele><time>2023-01-14T11:33:55Z</time><name>PT1533</name></trkpt>
<trkpt lat="53.002592" lon="-3.272086"><ele>401</ele><time>2023-01-14T11:33:59Z</time><name>PT1534</name></trkpt>
<trkpt lat="53.002606" lon="-3.272010"><ele>401</ele><time>2023-01-14T11:34:04Z</time><name>PT1535</name></trkpt>
<trkpt lat="53.002621" lon="-3.271941"><ele>401</ele><time>2023-01-14T11:34:07Z</time><name>PT1536</name></trkpt>
<trkpt lat="53.002641" lon="-3.271868"><ele>401</ele><time>2023-01-14T11:34:10Z</time><name>PT1537</name></trkpt>
<trkpt lat="53.002657" lon="-3.271815"><ele>403</ele><time>2023-01-14T11:34:13Z</time><name>PT1538</name></trkpt>
<trkpt lat="53.002676" lon="-3.271753"><ele>403</ele><time>2023-01-14T11:34:17Z</time><name>PT1539</name></trkpt>
<trkpt lat="53.002697" lon="-3.271683"><ele>403</ele><time>2023-01-14T11:34:22Z</time><name>PT1540</name></trkpt>
<trkpt lat="53.002719" lon="-3.271630"><ele>404</ele><time>2023-01-14T11:34:25Z</time><name>PT1541</name></trkpt>
<trkpt lat="53.002753" lon="-3.271560"><ele>404</ele><time>2023-01-14T11:34:28Z</time><name>PT1542</name></trkpt>
<trkpt lat="53.002780" lon="-3.271499"><ele>405</ele><time>2023-01-14T11:34:31Z</time><name>PT1543</name></trkpt>
<trkpt lat="53.002822" lon="-3.271432"><ele>406</ele><time>2023-01-14T11:34:35Z</time><name>PT1544</name></trkpt>
<trkpt lat="53.002861" lon="-3.271383"><ele>405</ele><time>2023-01-14T11:34:40Z</time><name>PT1545</name></trkpt>
<trkpt lat="53.002887" lon="-3.271345"><ele>405</ele><time>2023-01-14T11:34:43Z</time><name>PT1546</name></trkpt>
<trkpt lat="53.002925" lon="-3.271283"><ele>404</ele><time>2023-01-14T11:34:46Z</time><name>PT1547</name></trkpt>
<trkpt lat="53.002921" lon="-3.271233"><ele>404</ele><time>2023-01-14T11:34:49Z</time><name>PT1548</name></trkpt>
<trkpt lat="53.002894" lon="-3.271215"><ele>403</ele><time>2023-01-14T11:34:52Z</time><name>PT1549</name></trkpt>
<trkpt lat="53.002860" lon="-3.271197"><ele>403</ele><time>2023-01-14T11:34:56Z</time><name>PT1550</name></trkpt>
<trkpt lat="53.002817" lon="-3.271191"><ele>402</ele><time>2023-01-14T11:35:01Z</time><name>PT1551</name></trkpt>
<trkpt lat="53.002804" lon="-3.271194"><ele>402</ele><time>2023-01-14T11:35:04Z</time><name>PT1552</name></trkpt>
<trkpt lat="53.002780" lon="-3.271195"><ele>402</ele><time>2023-01-14T11:35:07Z</time><name>PT1553</name></trkpt>
<trkpt lat="53.002734" lon="-3.271191"><ele>402</ele><time>2023-01-14T11:35:11Z</time><name>PT1554</name></trkpt>
<trkpt lat="53.002681" lon="-3.271195"><ele>402</ele><time>2023-01-14T11:35:16Z</time><name>PT1555</name></trkpt>
<trkpt lat="53.002633" lon="-3.271195"><ele>402</ele><time>2023-01-14T11:35:19Z</time><name>PT1556</name></trkpt>
<trkpt lat="53.002589" lon="-3.271203"><ele>401</ele><time>2023-01-14T11:35:23Z</time><name>PT1557</name></trkpt>
<trkpt lat="53.002556" lon="-3.271210"><ele>401</ele><time>2023-01-14T11:35:26Z</time><name>PT1558</name></trkpt>
<trkpt lat="53.002512" lon="-3.271220"><ele>402</ele><time>2023-01-14T11:35:31Z</time><name>PT1559</name></trkpt>
<trkpt lat="53.002479" lon="-3.271223"><ele>402</ele><time>2023-01-14T11:35:34Z</time><name>PT1560</name></trkpt>
<trkpt lat="53.002436" lon="-3.271230"><ele>402</ele><time>2023-01-14T11:35:37Z</time><name>PT1561</name></trkpt>
<trkpt lat="53.002394" lon="-3.271242"><ele>403</ele><time>2023-01-14T11:35:41Z</time><name>PT1562</name></trkpt>
<trkpt lat="53.002352" lon="-3.271253"><ele>403</ele><time>2023-01-14T11:35:46Z</time><name>PT1563</name></trkpt>
<trkpt lat="53.002314" lon="-3.271263"><ele>403</ele><time>2023-01-14T11:35:49Z</time><name>PT1564</name></trkpt>
<trkpt lat="53.002265" lon="-3.271275"><ele>404</ele><time>2023-01-14T11:35:52Z</time><name>PT1565</name></trkpt>
<trkpt lat="53.002221" lon="-3.271285"><ele>405</ele><time>2023-01-14T11:35:56Z</time><name>PT1566</name></trkpt>
<trkpt lat="53.002187" lon="-3.271295"><ele>405</ele><time>2023-01-14T11:35:59Z</time><name>PT1567</name></trkpt>
<trkpt lat="53.002135" lon="-3.271310"><ele>406</ele><time>2023-01-14T11:36:04Z</time><name>PT1568</name></trkpt>
<trkpt lat="53.002099" lon="-3.271317"><ele>406</ele><time>2023-01-14T11:36:07Z</time><name>PT1569</name></trkpt>
<trkpt lat="53.002043" lon="-3.271323"><ele>408</ele><time>2023-01-14T11:36:10Z</time><name>PT1570</name></trkpt>
<trkpt lat="53.002008" lon="-3.271331"><ele>409</ele><time>2023-01-14T11:36:13Z</time><name>PT1571</name></trkpt>
<trkpt lat="53.001973" lon="-3.271339"><ele>409</ele><time>2023-01-14T11:36:16Z</time><name>PT1572</name></trkpt>
<trkpt lat="53.001927" lon="-3.271352"><ele>408</ele><time>2023-01-14T11:36:20Z</time><name>PT1573</name></trkpt>
<trkpt lat="53.001885" lon="-3.271363"><ele>409</ele><time>2023-01-14T11:36:25Z</time><name>PT1574</name></trkpt>
<trkpt lat="53.001850" lon="-3.271372"><ele>408</ele><time>2023-01-14T11:36:28Z</time><name>PT1575</name></trkpt>
<trkpt lat="53.001813" lon="-3.271379"><ele>408</ele><time>2023-01-14T11:36:31Z</time><name>PT1576</name></trkpt>
<trkpt lat="53.001766" lon="-3.271392"><ele>409</ele><time>2023-01-14T11:36:34Z</time><name>PT1577</name></trkpt>
<trkpt lat="53.001720" lon="-3.271405"><ele>409</ele><time>2023-01-14T11:36:38Z</time><name>PT1578</name></trkpt>
<trkpt lat="53.001680" lon="-3.271422"><ele>409</ele><time>2023-01-14T11:36:43Z</time><name>PT1579</name></trkpt>
<trkpt lat="53.001643" lon="-3.271431"><ele>410</ele><time>2023-01-14T11:36:46Z</time><name>PT1580</name></trkpt>
<trkpt lat="53.001607" lon="-3.271446"><ele>410</ele><time>2023-01-14T11:36:49Z</time><name>PT1581</name></trkpt>
<trkpt lat="53.001558" lon="-3.271463"><ele>411</ele><time>2023-01-14T11:36:52Z</time><name>PT1582</name></trkpt>
<trkpt lat="53.001522" lon="-3.271472"><ele>411</ele><time>2023-01-14T11:36:55Z</time><name>PT1583</name></trkpt>
<trkpt lat="53.001477" lon="-3.271493"><ele>411</ele><time>2023-01-14T11:36:59Z</time><name>PT1584</name></trkpt>
<trkpt lat="53.001444" lon="-3.271503"><ele>411</ele><time>2023-01-14T11:37:02Z</time><name>PT1585</name></trkpt>
<trkpt lat="53.001413" lon="-3.271511"><ele>411</ele><time>2023-01-14T11:37:05Z</time><name>PT1586</name></trkpt>
<trkpt lat="53.001377" lon="-3.271520"><ele>411</ele><time>2023-01-14T11:37:08Z</time><name>PT1587</name></trkpt>
<trkpt lat="53.001328" lon="-3.271526"><ele>412</ele><time>2023-01-14T11:37:13Z</time><name>PT1588</name></trkpt>
<trkpt lat="53.001277" lon="-3.271534"><ele>413</ele><time>2023-01-14T11:37:16Z</time><name>PT1589</name></trkpt>
<trkpt lat="53.001228" lon="-3.271539"><ele>413</ele><time>2023-01-14T11:37:20Z</time><name>PT1590</name></trkpt>
<trkpt lat="53.001180" lon="-3.271548"><ele>414</ele><time>2023-01-14T11:37:25Z</time><name>PT1591</name></trkpt>
<trkpt lat="53.001131" lon="-3.271552"><ele>416</ele><time>2023-01-14T11:37:28Z</time><name>PT1592</name></trkpt>
<trkpt lat="53.001077" lon="-3.271556"><ele>417</ele><time>2023-01-14T11:37:32Z</time><name>PT1593</name></trkpt>
<trkpt lat="53.001029" lon="-3.271561"><ele>417</ele><time>2023-01-14T11:37:37Z</time><name>PT1594</name></trkpt>
<trkpt lat="53.000999" lon="-3.271561"><ele>416</ele><time>2023-01-14T11:37:40Z</time><name>PT1595</name></trkpt>
<trkpt lat="53.000963" lon="-3.271560"><ele>416</ele><time>2023-01-14T11:37:43Z</time><name>PT1596</name></trkpt>
<trkpt lat="53.000910" lon="-3.271561"><ele>418</ele><time>2023-01-14T11:37:46Z</time><name>PT1597</name></trkpt>
<trkpt lat="53.000866" lon="-3.271562"><ele>418</ele><time>2023-01-14T11:37:50Z</time><name>PT1598</name></trkpt>
<trkpt lat="53.000824" lon="-3.271557"><ele>419</ele><time>2023-01-14T11:37:55Z</time><name>PT1599</name></trkpt>
<trkpt lat="53.000791" lon="-3.271558"><ele>419</ele><time>2023-01-14T11:37:58Z</time><name>PT1600</name></trkpt>
<trkpt lat="53.000743" lon="-3.271560"><ele>419</ele><time>2023-01-14T11:38:01Z</time><name>PT1601</name></trkpt>
<trkpt lat="53.000695" lon="-3.271558"><ele>419</ele><time>2023-01-14T11:38:05Z</time><name>PT1602</name></trkpt>
<trkpt lat="53.000649" lon="-3.271554"><ele>419</ele><time>2023-01-14T11:38:10Z</time><name>PT1603</name></trkpt>
<trkpt lat="53.000621" lon="-3.271552"><ele>420</ele><time>2023-01-14T11:38:13Z</time><name>PT1604</name></trkpt>
<trkpt lat="53.000603" lon="-3.271541"><ele>421</ele><time>2023-01-14T11:38:16Z</time><name>PT1605</name></trkpt>
<trkpt lat="53.000592" lon="-3.271539"><ele>420</ele><time>2023-01-14T11:38:19Z</time><name>PT1606</name></trkpt>
<trkpt lat="53.000569" lon="-3.271535"><ele>421</ele><time>2023-01-14T11:38:22Z</time><name>PT1607</name></trkpt>
<trkpt lat="53.000540" lon="-3.271534"><ele>421</ele><time>2023-01-14T11:38:26Z</time><name>PT1608</name></trkpt>
<trkpt lat="53.000525" lon="-3.271537"><ele>421</ele><time>2023-01-14T11:38:31Z</time><name>PT1609</name></trkpt>
<trkpt lat="53.000524" lon="-3.271533"><ele>421</ele><time>2023-01-14T11:38:34Z</time><name>PT1610</name></trkpt>
<trkpt lat="53.000521" lon="-3.271536"><ele>421</ele><time>2023-01-14T11:38:37Z</time><name>PT1611</name></trkpt>
<trkpt lat="53.000515" lon="-3.271534"><ele>421</ele><time>2023-01-14T11:38:53Z</time><name>PT1612</name></trkpt>
<trkpt lat="53.000510" lon="-3.271530"><ele>421</ele><time>2023-01-14T11:38:58Z</time><name>PT1613</name></trkpt>
<trkpt lat="53.000506" lon="-3.271523"><ele>421</ele><time>2023-01-14T11:39:01Z</time><name>PT1614</name></trkpt>
<trkpt lat="53.000493" lon="-3.271505"><ele>421</ele><time>2023-01-14T11:39:04Z</time><name>PT1615</name></trkpt>
<trkpt lat="53.000488" lon="-3.271513"><ele>421</ele><time>2023-01-14T11:39:08Z</time><name>PT1616</name></trkpt>
<trkpt lat="53.000464" lon="-3.271512"><ele>421</ele><time>2023-01-14T11:39:13Z</time><name>PT1617</name></trkpt>
<trkpt lat="53.000443" lon="-3.271508"><ele>421</ele><time>2023-01-14T11:39:16Z</time><name>PT1618</name></trkpt>
<trkpt lat="53.000433" lon="-3.271508"><ele>420</ele><time>2023-01-14T11:39:19Z</time><name>PT1619</name></trkpt>
<trkpt lat="53.000414" lon="-3.271500"><ele>420</ele><time>2023-01-14T11:39:34Z</time><name>PT1620</name></trkpt>
<trkpt lat="53.000412" lon="-3.271499"><ele>420</ele><time>2023-01-14T11:39:37Z</time><name>PT1621</name></trkpt>
<trkpt lat="53.000407" lon="-3.271528"><ele>420</ele><time>2023-01-14T11:39:43Z</time><name>PT1622</name></trkpt>
<trkpt lat="53.000379" lon="-3.271524"><ele>420</ele><time>2023-01-14T11:39:47Z</time><name>PT1623</name></trkpt>
<trkpt lat="53.000368" lon="-3.271521"><ele>420</ele><time>2023-01-14T11:39:52Z</time><name>PT1624</name></trkpt>
<trkpt lat="53.000357" lon="-3.271515"><ele>422</ele><time>2023-01-14T11:39:58Z</time><name>PT1625</name></trkpt>
<trkpt lat="53.000359" lon="-3.271513"><ele>421</ele><time>2023-01-14T11:40:04Z</time><name>PT1626</name></trkpt>
<trkpt lat="53.000358" lon="-3.271509"><ele>421</ele><time>2023-01-14T11:40:07Z</time><name>PT1627</name></trkpt>
<trkpt lat="53.000351" lon="-3.271496"><ele>421</ele><time>2023-01-14T11:40:28Z</time><name>PT1628</name></trkpt>
<trkpt lat="53.000350" lon="-3.271494"><ele>421</ele><time>2023-01-14T11:40:31Z</time><name>PT1629</name></trkpt>
<trkpt lat="53.000348" lon="-3.271497"><ele>421</ele><time>2023-01-14T11:40:34Z</time><name>PT1630</name></trkpt>
<trkpt lat="53.000351" lon="-3.271478"><ele>421</ele><time>2023-01-14T11:40:59Z</time><name>PT1631</name></trkpt>
<trkpt lat="53.000348" lon="-3.271491"><ele>420</ele><time>2023-01-14T11:41:02Z</time><name>PT1632</name></trkpt>
<trkpt lat="53.000346" lon="-3.271497"><ele>421</ele><time>2023-01-14T11:41:07Z</time><name>PT1633</name></trkpt>
<trkpt lat="53.000348" lon="-3.271494"><ele>421</ele><time>2023-01-14T11:41:37Z</time><name>PT1634</name></trkpt>
<trkpt lat="53.000357" lon="-3.271489"><ele>422</ele><time>2023-01-14T11:41:40Z</time><name>PT1635</name></trkpt>
<trkpt lat="53.000357" lon="-3.271481"><ele>425</ele><time>2023-01-14T11:41:43Z</time><name>PT1636</name></trkpt>
<trkpt lat="53.000357" lon="-3.271489"><ele>424</ele><time>2023-01-14T11:41:47Z</time><name>PT1637</name></trkpt>
<trkpt lat="53.000349" lon="-3.271493"><ele>424</ele><time>2023-01-14T11:41:52Z</time><name>PT1638</name></trkpt>
<trkpt lat="53.000348" lon="-3.271481"><ele>424</ele><time>2023-01-14T11:42:13Z</time><name>PT1639</name></trkpt>
<trkpt lat="53.000350" lon="-3.271470"><ele>424</ele><time>2023-01-14T11:42:17Z</time><name>PT1640</name></trkpt>
<trkpt lat="53.000347" lon="-3.271471"><ele>425</ele><time>2023-01-14T11:42:20Z</time><name>PT1641</name></trkpt>
<trkpt lat="53.000344" lon="-3.271480"><ele>424</ele><time>2023-01-14T11:42:23Z</time><name>PT1642</name></trkpt>
<trkpt lat="53.000340" lon="-3.271484"><ele>424</ele><time>2023-01-14T11:42:26Z</time><name>PT1643</name></trkpt>
<trkpt lat="53.000347" lon="-3.271492"><ele>424</ele><time>2023-01-14T11:42:29Z</time><name>PT1644</name></trkpt>
<trkpt lat="53.000349" lon="-3.271495"><ele>424</ele><time>2023-01-14T11:42:34Z</time><name>PT1645</name></trkpt>
<trkpt lat="53.000350" lon="-3.271476"><ele>424</ele><time>2023-01-14T11:42:37Z</time><name>PT1646</name></trkpt>
<trkpt lat="53.000367" lon="-3.271480"><ele>425</ele><time>2023-01-14T11:42:40Z</time><name>PT1647</name></trkpt>
<trkpt lat="53.000395" lon="-3.271476"><ele>425</ele><time>2023-01-14T11:42:44Z</time><name>PT1648</name></trkpt>
<trkpt lat="53.000428" lon="-3.271481"><ele>424</ele><time>2023-01-14T11:42:49Z</time><name>PT1649</name></trkpt>
<trkpt lat="53.000471" lon="-3.271489"><ele>425</ele><time>2023-01-14T11:42:52Z</time><name>PT1650</name></trkpt>
<trkpt lat="53.000511" lon="-3.271502"><ele>425</ele><time>2023-01-14T11:42:56Z</time><name>PT1651</name></trkpt>
<trkpt lat="53.000541" lon="-3.271506"><ele>425</ele><time>2023-01-14T11:42:59Z</time><name>PT1652</name></trkpt>
<trkpt lat="53.000579" lon="-3.271502"><ele>425</ele><time>2023-01-14T11:43:04Z</time><name>PT1653</name></trkpt>
<trkpt lat="53.000613" lon="-3.271480"><ele>425</ele><time>2023-01-14T11:43:07Z</time><name>PT1654</name></trkpt>
<trkpt lat="53.000642" lon="-3.271455"><ele>426</ele><time>2023-01-14T11:43:10Z</time><name>PT1655</name></trkpt>
<trkpt lat="53.000683" lon="-3.271420"><ele>426</ele><time>2023-01-14T11:43:14Z</time><name>PT1656</name></trkpt>
<trkpt lat="53.000712" lon="-3.271391"><ele>427</ele><time>2023-01-14T11:43:17Z</time><name>PT1657</name></trkpt>
<trkpt lat="53.000732" lon="-3.271329"><ele>427</ele><time>2023-01-14T11:43:22Z</time><name>PT1658</name></trkpt>
<trkpt lat="53.000742" lon="-3.271266"><ele>427</ele><time>2023-01-14T11:43:25Z</time><name>PT1659</name></trkpt>
<trkpt lat="53.000753" lon="-3.271213"><ele>427</ele><time>2023-01-14T11:43:29Z</time><name>PT1660</name></trkpt>
<trkpt lat="53.000761" lon="-3.271164"><ele>427</ele><time>2023-01-14T11:43:32Z</time><name>PT1661</name></trkpt>
<trkpt lat="53.000766" lon="-3.271091"><ele>428</ele><time>2023-01-14T11:43:37Z</time><name>PT1662</name></trkpt>
<trkpt lat="53.000770" lon="-3.271042"><ele>429</ele><time>2023-01-14T11:43:40Z</time><name>PT1663</name></trkpt>
<trkpt lat="53.000774" lon="-3.270985"><ele>429</ele><time>2023-01-14T11:43:43Z</time><name>PT1664</name></trkpt>
<trkpt lat="53.000781" lon="-3.270921"><ele>429</ele><time>2023-01-14T11:43:47Z</time><name>PT1665</name></trkpt>
<trkpt lat="53.000783" lon="-3.270869"><ele>429</ele><time>2023-01-14T11:43:52Z</time><name>PT1666</name></trkpt>
<trkpt lat="53.000786" lon="-3.270816"><ele>429</ele><time>2023-01-14T11:43:55Z</time><name>PT1667</name></trkpt>
<trkpt lat="53.000787" lon="-3.270797"><ele>429</ele><time>2023-01-14T11:43:58Z</time><name>PT1668</name></trkpt>
<trkpt lat="53.000793" lon="-3.270773"><ele>430</ele><time>2023-01-14T11:44:01Z</time><name>PT1669</name></trkpt>
<trkpt lat="53.000800" lon="-3.270738"><ele>430</ele><time>2023-01-14T11:44:04Z</time><name>PT1670</name></trkpt>
<trkpt lat="53.000803" lon="-3.270669"><ele>431</ele><time>2023-01-14T11:44:08Z</time><name>PT1671</name></trkpt>
<trkpt lat="53.000809" lon="-3.270606"><ele>430</ele><time>2023-01-14T11:44:13Z</time><name>PT1672</name></trkpt>
<trkpt lat="53.000815" lon="-3.270560"><ele>431</ele><time>2023-01-14T11:44:16Z</time><name>PT1673</name></trkpt>
<trkpt lat="53.000816" lon="-3.270528"><ele>431</ele><time>2023-01-14T11:44:19Z</time><name>PT1674</name></trkpt>
<trkpt lat="53.000820" lon="-3.270470"><ele>432</ele><time>2023-01-14T11:44:22Z</time><name>PT1675</name></trkpt>
<trkpt lat="53.000823" lon="-3.270423"><ele>432</ele><time>2023-01-14T11:44:25Z</time><name>PT1676</name></trkpt>
<trkpt lat="53.000828" lon="-3.270372"><ele>432</ele><time>2023-01-14T11:44:29Z</time><name>PT1677</name></trkpt>
<trkpt lat="53.000831" lon="-3.270331"><ele>432</ele><time>2023-01-14T11:44:34Z</time><name>PT1678</name></trkpt>
<trkpt lat="53.000836" lon="-3.270279"><ele>432</ele><time>2023-01-14T11:44:37Z</time><name>PT1679</name></trkpt>
<trkpt lat="53.000839" lon="-3.270237"><ele>432</ele><time>2023-01-14T11:44:40Z</time><name>PT1680</name></trkpt>
<trkpt lat="53.000845" lon="-3.270180"><ele>432</ele><time>2023-01-14T11:44:44Z</time><name>PT1681</name></trkpt>
<trkpt lat="53.000850" lon="-3.270121"><ele>432</ele><time>2023-01-14T11:44:49Z</time><name>PT1682</name></trkpt>
<trkpt lat="53.000854" lon="-3.270077"><ele>433</ele><time>2023-01-14T11:44:52Z</time><name>PT1683</name></trkpt>
<trkpt lat="53.000856" lon="-3.270042"><ele>433</ele><time>2023-01-14T11:44:55Z</time><name>PT1684</name></trkpt>
<trkpt lat="53.000861" lon="-3.269973"><ele>433</ele><time>2023-01-14T11:44:58Z</time><name>PT1685</name></trkpt>
<trkpt lat="53.000867" lon="-3.269920"><ele>434</ele><time>2023-01-14T11:45:01Z</time><name>PT1686</name></trkpt>
<trkpt lat="53.000878" lon="-3.269861"><ele>434</ele><time>2023-01-14T11:45:05Z</time><name>PT1687</name></trkpt>
<trkpt lat="53.000884" lon="-3.269785"><ele>436</ele><time>2023-01-14T11:45:10Z</time><name>PT1688</name></trkpt>
<trkpt lat="53.000889" lon="-3.269733"><ele>436</ele><time>2023-01-14T11:45:13Z</time><name>PT1689</name></trkpt>
<trkpt lat="53.000899" lon="-3.269657"><ele>438</ele><time>2023-01-14T11:45:16Z</time><name>PT1690</name></trkpt>
<trkpt lat="53.000902" lon="-3.269586"><ele>439</ele><time>2023-01-14T11:45:20Z</time><name>PT1691</name></trkpt>
<trkpt lat="53.000903" lon="-3.269538"><ele>440</ele><time>2023-01-14T11:45:23Z</time><name>PT1692</name></trkpt>
<trkpt lat="53.000909" lon="-3.269479"><ele>439</ele><time>2023-01-14T11:45:28Z</time><name>PT1693</name></trkpt>
<trkpt lat="53.000915" lon="-3.269421"><ele>440</ele><time>2023-01-14T11:45:31Z</time><name>PT1694</name></trkpt>
<trkpt lat="53.000916" lon="-3.269386"><ele>440</ele><time>2023-01-14T11:45:34Z</time><name>PT1695</name></trkpt>
<trkpt lat="53.000925" lon="-3.269329"><ele>441</ele><time>2023-01-14T11:45:38Z</time><name>PT1696</name></trkpt>
<trkpt lat="53.000929" lon="-3.269286"><ele>442</ele><time>2023-01-14T11:45:41Z</time><name>PT1697</name></trkpt>
<trkpt lat="53.000936" lon="-3.269231"><ele>443</ele><time>2023-01-14T11:45:46Z</time><name>PT1698</name></trkpt>
<trkpt lat="53.000942" lon="-3.269183"><ele>443</ele><time>2023-01-14T11:45:49Z</time><name>PT1699</name></trkpt>
<trkpt lat="53.000947" lon="-3.269130"><ele>444</ele><time>2023-01-14T11:45:53Z</time><name>PT1700</name></trkpt>
<trkpt lat="53.000951" lon="-3.269094"><ele>445</ele><time>2023-01-14T11:45:56Z</time><name>PT1701</name></trkpt>
<trkpt lat="53.000951" lon="-3.269053"><ele>445</ele><time>2023-01-14T11:45:59Z</time><name>PT1702</name></trkpt>
<trkpt lat="53.000953" lon="-3.269008"><ele>445</ele><time>2023-01-14T11:46:02Z</time><name>PT1703</name></trkpt>
<trkpt lat="53.000961" lon="-3.268953"><ele>446</ele><time>2023-01-14T11:46:07Z</time><name>PT1704</name></trkpt>
<trkpt lat="53.000968" lon="-3.268913"><ele>448</ele><time>2023-01-14T11:46:10Z</time><name>PT1705</name></trkpt>
<trkpt lat="53.000974" lon="-3.268874"><ele>448</ele><time>2023-01-14T11:46:13Z</time><name>PT1706</name></trkpt>
<trkpt lat="53.000978" lon="-3.268841"><ele>448</ele><time>2023-01-14T11:46:16Z</time><name>PT1707</name></trkpt>
<trkpt lat="53.000984" lon="-3.268799"><ele>448</ele><time>2023-01-14T11:46:19Z</time><name>PT1708</name></trkpt>
<trkpt lat="53.000986" lon="-3.268773"><ele>449</ele><time>2023-01-14T11:46:22Z</time><name>PT1709</name></trkpt>
<trkpt lat="53.000988" lon="-3.268736"><ele>449</ele><time>2023-01-14T11:46:26Z</time><name>PT1710</name></trkpt>
<trkpt lat="53.000990" lon="-3.268700"><ele>449</ele><time>2023-01-14T11:46:29Z</time><name>PT1711</name></trkpt>
<trkpt lat="53.000994" lon="-3.268661"><ele>450</ele><time>2023-01-14T11:46:32Z</time><name>PT1712</name></trkpt>
<trkpt lat="53.001000" lon="-3.268619"><ele>451</ele><time>2023-01-14T11:46:35Z</time><name>PT1713</name></trkpt>
<trkpt lat="53.001005" lon="-3.268564"><ele>452</ele><time>2023-01-14T11:46:40Z</time><name>PT1714</name></trkpt>
<trkpt lat="53.001012" lon="-3.268526"><ele>453</ele><time>2023-01-14T11:46:43Z</time><name>PT1715</name></trkpt>
<trkpt lat="53.001017" lon="-3.268486"><ele>454</ele><time>2023-01-14T11:46:46Z</time><name>PT1716</name></trkpt>
<trkpt lat="53.001024" lon="-3.268440"><ele>454</ele><time>2023-01-14T11:46:50Z</time><name>PT1717</name></trkpt>
<trkpt lat="53.001029" lon="-3.268385"><ele>455</ele><time>2023-01-14T11:46:55Z</time><name>PT1718</name></trkpt>
<trkpt lat="53.001031" lon="-3.268340"><ele>455</ele><time>2023-01-14T11:46:58Z</time><name>PT1719</name></trkpt>
<trkpt lat="53.001028" lon="-3.268281"><ele>456</ele><time>2023-01-14T11:47:02Z</time><name>PT1720</name></trkpt>
<trkpt lat="53.001036" lon="-3.268239"><ele>456</ele><time>2023-01-14T11:47:05Z</time><name>PT1721</name></trkpt>
<trkpt lat="53.001043" lon="-3.268192"><ele>456</ele><time>2023-01-14T11:47:10Z</time><name>PT1722</name></trkpt>
<trkpt lat="53.001049" lon="-3.268154"><ele>455</ele><time>2023-01-14T11:47:13Z</time><name>PT1723</name></trkpt>
<trkpt lat="53.001057" lon="-3.268103"><ele>455</ele><time>2023-01-14T11:47:16Z</time><name>PT1724</name></trkpt>
<trkpt lat="53.001068" lon="-3.268052"><ele>456</ele><time>2023-01-14T11:47:20Z</time><name>PT1725</name></trkpt>
<trkpt lat="53.001073" lon="-3.268002"><ele>456</ele><time>2023-01-14T11:47:25Z</time><name>PT1726</name></trkpt>
<trkpt lat="53.001077" lon="-3.267967"><ele>457</ele><time>2023-01-14T11:47:28Z</time><name>PT1727</name></trkpt>
<trkpt lat="53.001083" lon="-3.267909"><ele>458</ele><time>2023-01-14T11:47:31Z</time><name>PT1728</name></trkpt>
<trkpt lat="53.001089" lon="-3.267867"><ele>458</ele><time>2023-01-14T11:47:35Z</time><name>PT1729</name></trkpt>
<trkpt lat="53.001090" lon="-3.267832"><ele>458</ele><time>2023-01-14T11:47:38Z</time><name>PT1730</name></trkpt>
<trkpt lat="53.001093" lon="-3.267788"><ele>459</ele><time>2023-01-14T11:47:43Z</time><name>PT1731</name></trkpt>
<trkpt lat="53.001097" lon="-3.267753"><ele>459</ele><time>2023-01-14T11:47:46Z</time><name>PT1732</name></trkpt>
<trkpt lat="53.001100" lon="-3.267716"><ele>459</ele><time>2023-01-14T11:47:49Z</time><name>PT1733</name></trkpt>
<trkpt lat="53.001100" lon="-3.267679"><ele>459</ele><time>2023-01-14T11:47:52Z</time><name>PT1734</name></trkpt>
<trkpt lat="53.001103" lon="-3.267629"><ele>459</ele><time>2023-01-14T11:47:55Z</time><name>PT1735</name></trkpt>
<trkpt lat="53.001106" lon="-3.267590"><ele>459</ele><time>2023-01-14T11:47:59Z</time><name>PT1736</name></trkpt>
<trkpt lat="53.001110" lon="-3.267547"><ele>460</ele><time>2023-01-14T11:48:04Z</time><name>PT1737</name></trkpt>
<trkpt lat="53.001112" lon="-3.267491"><ele>461</ele><time>2023-01-14T11:48:07Z</time><name>PT1738</name></trkpt>
<trkpt lat="53.001114" lon="-3.267440"><ele>461</ele><time>2023-01-14T11:48:11Z</time><name>PT1739</name></trkpt>
<trkpt lat="53.001119" lon="-3.267385"><ele>462</ele><time>2023-01-14T11:48:16Z</time><name>PT1740</name></trkpt>
<trkpt lat="53.001124" lon="-3.267341"><ele>462</ele><time>2023-01-14T11:48:19Z</time><name>PT1741</name></trkpt>
<trkpt lat="53.001127" lon="-3.267296"><ele>462</ele><time>2023-01-14T11:48:22Z</time><name>PT1742</name></trkpt>
<trkpt lat="53.001133" lon="-3.267259"><ele>461</ele><time>2023-01-14T11:48:26Z</time><name>PT1743</name></trkpt>
<trkpt lat="53.001137" lon="-3.267208"><ele>462</ele><time>2023-01-14T11:48:29Z</time><name>PT1744</name></trkpt>
<trkpt lat="53.001141" lon="-3.267164"><ele>462</ele><time>2023-01-14T11:48:32Z</time><name>PT1745</name></trkpt>
<trkpt lat="53.001144" lon="-3.267103"><ele>462</ele><time>2023-01-14T11:48:37Z</time><name>PT1746</name></trkpt>
<trkpt lat="53.001156" lon="-3.267047"><ele>463</ele><time>2023-01-14T11:48:40Z</time><name>PT1747</name></trkpt>
<trkpt lat="53.001163" lon="-3.267002"><ele>464</ele><time>2023-01-14T11:48:43Z</time><name>PT1748</name></trkpt>
<trkpt lat="53.001168" lon="-3.266926"><ele>464</ele><time>2023-01-14T11:48:46Z</time><name>PT1749</name></trkpt>
<trkpt lat="53.001172" lon="-3.266860"><ele>463</ele><time>2023-01-14T11:48:50Z</time><name>PT1750</name></trkpt>
<trkpt lat="53.001177" lon="-3.266814"><ele>464</ele><time>2023-01-14T11:48:53Z</time><name>PT1751</name></trkpt>
<trkpt lat="53.001182" lon="-3.266733"><ele>464</ele><time>2023-01-14T11:48:58Z</time><name>PT1752</name></trkpt>
<trkpt lat="53.001184" lon="-3.266676"><ele>464</ele><time>2023-01-14T11:49:01Z</time><name>PT1753</name></trkpt>
<trkpt lat="53.001189" lon="-3.266620"><ele>465</ele><time>2023-01-14T11:49:04Z</time><name>PT1754</name></trkpt>
<trkpt lat="53.001194" lon="-3.266575"><ele>464</ele><time>2023-01-14T11:49:07Z</time><name>PT1755</name></trkpt>
<trkpt lat="53.001197" lon="-3.266522"><ele>463</ele><time>2023-01-14T11:49:10Z</time><name>PT1756</name></trkpt>
<trkpt lat="53.001199" lon="-3.266463"><ele>462</ele><time>2023-01-14T11:49:13Z</time><name>PT1757</name></trkpt>
<trkpt lat="53.001201" lon="-3.266407"><ele>462</ele><time>2023-01-14T11:49:16Z</time><name>PT1758</name></trkpt>
<trkpt lat="53.001205" lon="-3.266349"><ele>463</ele><time>2023-01-14T11:49:19Z</time><name>PT1759</name></trkpt>
<trkpt lat="53.001212" lon="-3.266281"><ele>464</ele><time>2023-01-14T11:49:23Z</time><name>PT1760</name></trkpt>
<trkpt lat="53.001223" lon="-3.266223"><ele>465</ele><time>2023-01-14T11:49:26Z</time><name>PT1761</name></trkpt>
<trkpt lat="53.001225" lon="-3.266176"><ele>463</ele><time>2023-01-14T11:49:29Z</time><name>PT1762</name></trkpt>
<trkpt lat="53.001230" lon="-3.266107"><ele>464</ele><time>2023-01-14T11:49:34Z</time><name>PT1763</name></trkpt>
<trkpt lat="53.001233" lon="-3.266048"><ele>464</ele><time>2023-01-14T11:49:37Z</time><name>PT1764</name></trkpt>
<trkpt lat="53.001239" lon="-3.265969"><ele>464</ele><time>2023-01-14T11:49:40Z</time><name>PT1765</name></trkpt>
<trkpt lat="53.001241" lon="-3.265909"><ele>463</ele><time>2023-01-14T11:49:43Z</time><name>PT1766</name></trkpt>
<trkpt lat="53.001248" lon="-3.265853"><ele>463</ele><time>2023-01-14T11:49:46Z</time><name>PT1767</name></trkpt>
<trkpt lat="53.001257" lon="-3.265775"><ele>464</ele><time>2023-01-14T11:49:50Z</time><name>PT1768</name></trkpt>
<trkpt lat="53.001262" lon="-3.265706"><ele>465</ele><time>2023-01-14T11:49:55Z</time><name>PT1769</name></trkpt>
<trkpt lat="53.001266" lon="-3.265653"><ele>465</ele><time>2023-01-14T11:49:58Z</time><name>PT1770</name></trkpt>
<trkpt lat="53.001263" lon="-3.265590"><ele>468</ele><time>2023-01-14T11:50:01Z</time><name>PT1771</name></trkpt>
<trkpt lat="53.001269" lon="-3.265525"><ele>469</ele><time>2023-01-14T11:50:05Z</time><name>PT1772</name></trkpt>
<trkpt lat="53.001267" lon="-3.265474"><ele>471</ele><time>2023-01-14T11:50:08Z</time><name>PT1773</name></trkpt>
<trkpt lat="53.001269" lon="-3.265400"><ele>473</ele><time>2023-01-14T11:50:13Z</time><name>PT1774</name></trkpt>
<trkpt lat="53.001270" lon="-3.265345"><ele>474</ele><time>2023-01-14T11:50:16Z</time><name>PT1775</name></trkpt>
<trkpt lat="53.001275" lon="-3.265275"><ele>475</ele><time>2023-01-14T11:50:19Z</time><name>PT1776</name></trkpt>
<trkpt lat="53.001281" lon="-3.265204"><ele>475</ele><time>2023-01-14T11:50:23Z</time><name>PT1777</name></trkpt>
<trkpt lat="53.001283" lon="-3.265146"><ele>475</ele><time>2023-01-14T11:50:26Z</time><name>PT1778</name></trkpt>
<trkpt lat="53.001288" lon="-3.265092"><ele>476</ele><time>2023-01-14T11:50:29Z</time><name>PT1779</name></trkpt>
<trkpt lat="53.001293" lon="-3.265017"><ele>476</ele><time>2023-01-14T11:50:34Z</time><name>PT1780</name></trkpt>
<trkpt lat="53.001300" lon="-3.264940"><ele>476</ele><time>2023-01-14T11:50:37Z</time><name>PT1781</name></trkpt>
<trkpt lat="53.001307" lon="-3.264867"><ele>476</ele><time>2023-01-14T11:50:41Z</time><name>PT1782</name></trkpt>
<trkpt lat="53.001312" lon="-3.264815"><ele>476</ele><time>2023-01-14T11:50:44Z</time><name>PT1783</name></trkpt>
<trkpt lat="53.001319" lon="-3.264763"><ele>476</ele><time>2023-01-14T11:50:47Z</time><name>PT1784</name></trkpt>
<trkpt lat="53.001328" lon="-3.264688"><ele>477</ele><time>2023-01-14T11:50:52Z</time><name>PT1785</name></trkpt>
<trkpt lat="53.001332" lon="-3.264620"><ele>477</ele><time>2023-01-14T11:50:55Z</time><name>PT1786</name></trkpt>
<trkpt lat="53.001335" lon="-3.264565"><ele>477</ele><time>2023-01-14T11:50:58Z</time><name>PT1787</name></trkpt>
<trkpt lat="53.001341" lon="-3.264510"><ele>477</ele><time>2023-01-14T11:51:01Z</time><name>PT1788</name></trkpt>
<trkpt lat="53.001341" lon="-3.264469"><ele>477</ele><time>2023-01-14T11:51:04Z</time><name>PT1789</name></trkpt>
<trkpt lat="53.001344" lon="-3.264396"><ele>476</ele><time>2023-01-14T11:51:08Z</time><name>PT1790</name></trkpt>
<trkpt lat="53.001354" lon="-3.264341"><ele>476</ele><time>2023-01-14T11:51:11Z</time><name>PT1791</name></trkpt>
<trkpt lat="53.001361" lon="-3.264290"><ele>476</ele><time>2023-01-14T11:51:14Z</time><name>PT1792</name></trkpt>
<trkpt lat="53.001363" lon="-3.264240"><ele>476</ele><time>2023-01-14T11:51:17Z</time><name>PT1793</name></trkpt>
<trkpt lat="53.001371" lon="-3.264174"><ele>476</ele><time>2023-01-14T11:51:22Z</time><name>PT1794</name></trkpt>
<trkpt lat="53.001383" lon="-3.264099"><ele>477</ele><time>2023-01-14T11:51:25Z</time><name>PT1795</name></trkpt>
<trkpt lat="53.001393" lon="-3.264020"><ele>477</ele><time>2023-01-14T11:51:29Z</time><name>PT1796</name></trkpt>
<trkpt lat="53.001397" lon="-3.263966"><ele>477</ele><time>2023-01-14T11:51:32Z</time><name>PT1797</name></trkpt>
<trkpt lat="53.001413" lon="-3.263896"><ele>478</ele><time>2023-01-14T11:51:37Z</time><name>PT1798</name></trkpt>
<trkpt lat="53.001425" lon="-3.263818"><ele>479</ele><time>2023-01-14T11:51:40Z</time><name>PT1799</name></trkpt>
<trkpt lat="53.001440" lon="-3.263755"><ele>479</ele><time>2023-01-14T11:51:44Z</time><name>PT1800</name></trkpt>
<trkpt lat="53.001450" lon="-3.263678"><ele>478</ele><time>2023-01-14T11:51:49Z</time><name>PT1801</name></trkpt>
<trkpt lat="53.001457" lon="-3.263624"><ele>478</ele><time>2023-01-14T11:51:52Z</time><name>PT1802</name></trkpt>
<trkpt lat="53.001469" lon="-3.263553"><ele>478</ele><time>2023-01-14T11:51:55Z</time><name>PT1803</name></trkpt>
<trkpt lat="53.001479" lon="-3.263476"><ele>477</ele><time>2023-01-14T11:51:59Z</time><name>PT1804</name></trkpt>
<trkpt lat="53.001491" lon="-3.263418"><ele>477</ele><time>2023-01-14T11:52:02Z</time><name>PT1805</name></trkpt>
<trkpt lat="53.001499" lon="-3.263342"><ele>477</ele><time>2023-01-14T11:52:07Z</time><name>PT1806</name></trkpt>
<trkpt lat="53.001509" lon="-3.263289"><ele>477</ele><time>2023-01-14T11:52:10Z</time><name>PT1807</name></trkpt>
<trkpt lat="53.001516" lon="-3.263229"><ele>477</ele><time>2023-01-14T11:52:13Z</time><name>PT1808</name></trkpt>
<trkpt lat="53.001527" lon="-3.263161"><ele>476</ele><time>2023-01-14T11:52:16Z</time><name>PT1809</name></trkpt>
<trkpt lat="53.001536" lon="-3.263088"><ele>475</ele><time>2023-01-14T11:52:20Z</time><name>PT1810</name></trkpt>
<trkpt lat="53.001547" lon="-3.263034"><ele>475</ele><time>2023-01-14T11:52:23Z</time><name>PT1811</name></trkpt>
<trkpt lat="53.001557" lon="-3.262952"><ele>475</ele><time>2023-01-14T11:52:28Z</time><name>PT1812</name></trkpt>
<trkpt lat="53.001563" lon="-3.262897"><ele>476</ele><time>2023-01-14T11:52:31Z</time><name>PT1813</name></trkpt>
<trkpt lat="53.001573" lon="-3.262816"><ele>475</ele><time>2023-01-14T11:52:34Z</time><name>PT1814</name></trkpt>
<trkpt lat="53.001586" lon="-3.262739"><ele>475</ele><time>2023-01-14T11:52:38Z</time><name>PT1815</name></trkpt>
<trkpt lat="53.001594" lon="-3.262663"><ele>475</ele><time>2023-01-14T11:52:43Z</time><name>PT1816</name></trkpt>
<trkpt lat="53.001609" lon="-3.262588"><ele>476</ele><time>2023-01-14T11:52:46Z</time><name>PT1817</name></trkpt>
<trkpt lat="53.001628" lon="-3.262503"><ele>478</ele><time>2023-01-14T11:52:50Z</time><name>PT1818</name></trkpt>
<trkpt lat="53.001642" lon="-3.262430"><ele>479</ele><time>2023-01-14T11:52:55Z</time><name>PT1819</name></trkpt>
<trkpt lat="53.001661" lon="-3.262350"><ele>481</ele><time>2023-01-14T11:52:58Z</time><name>PT1820</name></trkpt>
<trkpt lat="53.001672" lon="-3.262274"><ele>482</ele><time>2023-01-14T11:53:02Z</time><name>PT1821</name></trkpt>
<trkpt lat="53.001682" lon="-3.262216"><ele>483</ele><time>2023-01-14T11:53:05Z</time><name>PT1822</name></trkpt>
<trkpt lat="53.001690" lon="-3.262164"><ele>483</ele><time>2023-01-14T11:53:10Z</time><name>PT1823</name></trkpt>
<trkpt lat="53.001698" lon="-3.262118"><ele>482</ele><time>2023-01-14T11:53:13Z</time><name>PT1824</name></trkpt>
<trkpt lat="53.001708" lon="-3.262066"><ele>482</ele><time>2023-01-14T11:53:16Z</time><name>PT1825</name></trkpt>
<trkpt lat="53.001721" lon="-3.261996"><ele>481</ele><time>2023-01-14T11:53:19Z</time><name>PT1826</name></trkpt>
<trkpt lat="53.001732" lon="-3.261933"><ele>480</ele><time>2023-01-14T11:53:23Z</time><name>PT1827</name></trkpt>
<trkpt lat="53.001742" lon="-3.261869"><ele>479</ele><time>2023-01-14T11:53:28Z</time><name>PT1828</name></trkpt>
<trkpt lat="53.001750" lon="-3.261803"><ele>479</ele><time>2023-01-14T11:53:31Z</time><name>PT1829</name></trkpt>
<trkpt lat="53.001759" lon="-3.261699"><ele>477</ele><time>2023-01-14T11:53:34Z</time><name>PT1830</name></trkpt>
<trkpt lat="53.001765" lon="-3.261651"><ele>472</ele><time>2023-01-14T11:53:37Z</time><name>PT1831</name></trkpt>
<trkpt lat="53.001774" lon="-3.261585"><ele>472</ele><time>2023-01-14T11:53:41Z</time><name>PT1832</name></trkpt>
<trkpt lat="53.001782" lon="-3.261536"><ele>473</ele><time>2023-01-14T11:53:44Z</time><name>PT1833</name></trkpt>
<trkpt lat="53.001795" lon="-3.261469"><ele>474</ele><time>2023-01-14T11:53:49Z</time><name>PT1834</name></trkpt>
<trkpt lat="53.001807" lon="-3.261407"><ele>473</ele><time>2023-01-14T11:53:52Z</time><name>PT1835</name></trkpt>
<trkpt lat="53.001816" lon="-3.261362"><ele>474</ele><time>2023-01-14T11:53:55Z</time><name>PT1836</name></trkpt>
<trkpt lat="53.001827" lon="-3.261304"><ele>474</ele><time>2023-01-14T11:53:59Z</time><name>PT1837</name></trkpt>
<trkpt lat="53.001839" lon="-3.261240"><ele>474</ele><time>2023-01-14T11:54:04Z</time><name>PT1838</name></trkpt>
<trkpt lat="53.001848" lon="-3.261191"><ele>474</ele><time>2023-01-14T11:54:07Z</time><name>PT1839</name></trkpt>
<trkpt lat="53.001857" lon="-3.261145"><ele>475</ele><time>2023-01-14T11:54:10Z</time><name>PT1840</name></trkpt>
<trkpt lat="53.001867" lon="-3.261081"><ele>475</ele><time>2023-01-14T11:54:13Z</time><name>PT1841</name></trkpt>
<trkpt lat="53.001883" lon="-3.261015"><ele>475</ele><time>2023-01-14T11:54:17Z</time><name>PT1842</name></trkpt>
<trkpt lat="53.001893" lon="-3.260964"><ele>475</ele><time>2023-01-14T11:54:20Z</time><name>PT1843</name></trkpt>
<trkpt lat="53.001903" lon="-3.260921"><ele>475</ele><time>2023-01-14T11:54:23Z</time><name>PT1844</name></trkpt>
<trkpt lat="53.001914" lon="-3.260873"><ele>475</ele><time>2023-01-14T11:54:28Z</time><name>PT1845</name></trkpt>
<trkpt lat="53.001920" lon="-3.260828"><ele>475</ele><time>2023-01-14T11:54:31Z</time><name>PT1846</name></trkpt>
<trkpt lat="53.001929" lon="-3.260776"><ele>475</ele><time>2023-01-14T11:54:34Z</time><name>PT1847</name></trkpt>
<trkpt lat="53.001938" lon="-3.260713"><ele>476</ele><time>2023-01-14T11:54:37Z</time><name>PT1848</name></trkpt>
<trkpt lat="53.001942" lon="-3.260649"><ele>476</ele><time>2023-01-14T11:54:41Z</time><name>PT1849</name></trkpt>
<trkpt lat="53.001949" lon="-3.260610"><ele>476</ele><time>2023-01-14T11:54:44Z</time><name>PT1850</name></trkpt>
<trkpt lat="53.001957" lon="-3.260540"><ele>476</ele><time>2023-01-14T11:54:49Z</time><name>PT1851</name></trkpt>
<trkpt lat="53.001963" lon="-3.260485"><ele>476</ele><time>2023-01-14T11:54:52Z</time><name>PT1852</name></trkpt>
<trkpt lat="53.001972" lon="-3.260419"><ele>477</ele><time>2023-01-14T11:54:55Z</time><name>PT1853</name></trkpt>
<trkpt lat="53.001976" lon="-3.260376"><ele>477</ele><time>2023-01-14T11:54:58Z</time><name>PT1854</name></trkpt>
<trkpt lat="53.001988" lon="-3.260317"><ele>478</ele><time>2023-01-14T11:55:02Z</time><name>PT1855</name></trkpt>
<trkpt lat="53.002000" lon="-3.260272"><ele>478</ele><time>2023-01-14T11:55:05Z</time><name>PT1856</name></trkpt>
<trkpt lat="53.002009" lon="-3.260232"><ele>478</ele><time>2023-01-14T11:55:09Z</time><name>PT1857</name></trkpt>
<trkpt lat="53.002029" lon="-3.260151"><ele>478</ele><time>2023-01-14T11:55:13Z</time><name>PT1858</name></trkpt>
<trkpt lat="53.002044" lon="-3.260091"><ele>478</ele><time>2023-01-14T11:55:17Z</time><name>PT1859</name></trkpt>
<trkpt lat="53.002055" lon="-3.260044"><ele>478</ele><time>2023-01-14T11:55:20Z</time><name>PT1860</name></trkpt>
<trkpt lat="53.002066" lon="-3.259995"><ele>478</ele><time>2023-01-14T11:55:25Z</time><name>PT1861</name></trkpt>
<trkpt lat="53.002076" lon="-3.259949"><ele>477</ele><time>2023-01-14T11:55:28Z</time><name>PT1862</name></trkpt>
<trkpt lat="53.002085" lon="-3.259931"><ele>478</ele><time>2023-01-14T11:55:31Z</time><name>PT1863</name></trkpt>
<trkpt lat="53.002090" lon="-3.259919"><ele>478</ele><time>2023-01-14T11:55:34Z</time><name>PT1864</name></trkpt>
<trkpt lat="53.002100" lon="-3.259909"><ele>478</ele><time>2023-01-14T11:55:52Z</time><name>PT1865</name></trkpt>
<trkpt lat="53.002098" lon="-3.259891"><ele>477</ele><time>2023-01-14T11:55:56Z</time><name>PT1866</name></trkpt>
<trkpt lat="53.002112" lon="-3.259863"><ele>476</ele><time>2023-01-14T11:56:01Z</time><name>PT1867</name></trkpt>
<trkpt lat="53.002129" lon="-3.259833"><ele>476</ele><time>2023-01-14T11:56:04Z</time><name>PT1868</name></trkpt>
<trkpt lat="53.002148" lon="-3.259788"><ele>476</ele><time>2023-01-14T11:56:07Z</time><name>PT1869</name></trkpt>
<trkpt lat="53.002160" lon="-3.259756"><ele>477</ele><time>2023-01-14T11:56:10Z</time><name>PT1870</name></trkpt>
<trkpt lat="53.002176" lon="-3.259720"><ele>477</ele><time>2023-01-14T11:56:13Z</time><name>PT1871</name></trkpt>
<trkpt lat="53.002192" lon="-3.259656"><ele>477</ele><time>2023-01-14T11:56:17Z</time><name>PT1872</name></trkpt>
<trkpt lat="53.002210" lon="-3.259591"><ele>477</ele><time>2023-01-14T11:56:22Z</time><name>PT1873</name></trkpt>
<trkpt lat="53.002222" lon="-3.259525"><ele>477</ele><time>2023-01-14T11:56:25Z</time><name>PT1874</name></trkpt>
<trkpt lat="53.002240" lon="-3.259488"><ele>477</ele><time>2023-01-14T11:56:28Z</time><name>PT1875</name></trkpt>
<trkpt lat="53.002265" lon="-3.259459"><ele>476</ele><time>2023-01-14T11:56:31Z</time><name>PT1876</name></trkpt>
<trkpt lat="53.002283" lon="-3.259404"><ele>476</ele><time>2023-01-14T11:56:35Z</time><name>PT1877</name></trkpt>
<trkpt lat="53.002298" lon="-3.259351"><ele>476</ele><time>2023-01-14T11:56:40Z</time><name>PT1878</name></trkpt>
<trkpt lat="53.002312" lon="-3.259292"><ele>476</ele><time>2023-01-14T11:56:43Z</time><name>PT1879</name></trkpt>
<trkpt lat="53.002325" lon="-3.259229"><ele>477</ele><time>2023-01-14T11:56:47Z</time><name>PT1880</name></trkpt>
<trkpt lat="53.002335" lon="-3.259184"><ele>477</ele><time>2023-01-14T11:56:50Z</time><name>PT1881</name></trkpt>
<trkpt lat="53.002345" lon="-3.259123"><ele>477</ele><time>2023-01-14T11:56:55Z</time><name>PT1882</name></trkpt>
<trkpt lat="53.002358" lon="-3.259079"><ele>477</ele><time>2023-01-14T11:56:58Z</time><name>PT1883</name></trkpt>
<trkpt lat="53.002370" lon="-3.259018"><ele>478</ele><time>2023-01-14T11:57:01Z</time><name>PT1884</name></trkpt>
<trkpt lat="53.002379" lon="-3.258974"><ele>478</ele><time>2023-01-14T11:57:04Z</time><name>PT1885</name></trkpt>
<trkpt lat="53.002391" lon="-3.258933"><ele>478</ele><time>2023-01-14T11:57:07Z</time><name>PT1886</name></trkpt>
<trkpt lat="53.002404" lon="-3.258869"><ele>479</ele><time>2023-01-14T11:57:11Z</time><name>PT1887</name></trkpt>
<trkpt lat="53.002415" lon="-3.258822"><ele>479</ele><time>2023-01-14T11:57:14Z</time><name>PT1888</name></trkpt>
<trkpt lat="53.002426" lon="-3.258776"><ele>479</ele><time>2023-01-14T11:57:17Z</time><name>PT1889</name></trkpt>
<trkpt lat="53.002436" lon="-3.258734"><ele>480</ele><time>2023-01-14T11:57:20Z</time><name>PT1890</name></trkpt>
<trkpt lat="53.002452" lon="-3.258680"><ele>481</ele><time>2023-01-14T11:57:25Z</time><name>PT1891</name></trkpt>
<trkpt lat="53.002466" lon="-3.258635"><ele>481</ele><time>2023-01-14T11:57:28Z</time><name>PT1892</name></trkpt>
<trkpt lat="53.002477" lon="-3.258584"><ele>482</ele><time>2023-01-14T11:57:31Z</time><name>PT1893</name></trkpt>
<trkpt lat="53.002496" lon="-3.258517"><ele>482</ele><time>2023-01-14T11:57:34Z</time><name>PT1894</name></trkpt>
<trkpt lat="53.002505" lon="-3.258459"><ele>482</ele><time>2023-01-14T11:57:38Z</time><name>PT1895</name></trkpt>
<trkpt lat="53.002516" lon="-3.258414"><ele>483</ele><time>2023-01-14T11:57:41Z</time><name>PT1896</name></trkpt>
<trkpt lat="53.002532" lon="-3.258356"><ele>483</ele><time>2023-01-14T11:57:46Z</time><name>PT1897</name></trkpt>
<trkpt lat="53.002550" lon="-3.258311"><ele>485</ele><time>2023-01-14T11:57:49Z</time><name>PT1898</name></trkpt>
<trkpt lat="53.002560" lon="-3.258262"><ele>485</ele><time>2023-01-14T11:57:52Z</time><name>PT1899</name></trkpt>
<trkpt lat="53.002574" lon="-3.258200"><ele>486</ele><time>2023-01-14T11:57:55Z</time><name>PT1900</name></trkpt>
<trkpt lat="53.002586" lon="-3.258145"><ele>486</ele><time>2023-01-14T11:57:59Z</time><name>PT1901</name></trkpt>
<trkpt lat="53.002595" lon="-3.258104"><ele>486</ele><time>2023-01-14T11:58:02Z</time><name>PT1902</name></trkpt>
<trkpt lat="53.002611" lon="-3.258040"><ele>487</ele><time>2023-01-14T11:58:07Z</time><name>PT1903</name></trkpt>
<trkpt lat="53.002615" lon="-3.257997"><ele>487</ele><time>2023-01-14T11:58:10Z</time><name>PT1904</name></trkpt>
<trkpt lat="53.002625" lon="-3.257943"><ele>487</ele><time>2023-01-14T11:58:13Z</time><name>PT1905</name></trkpt>
<trkpt lat="53.002635" lon="-3.257885"><ele>488</ele><time>2023-01-14T11:58:17Z</time><name>PT1906</name></trkpt>
<trkpt lat="53.002645" lon="-3.257819"><ele>488</ele><time>2023-01-14T11:58:22Z</time><name>PT1907</name></trkpt>
<trkpt lat="53.002655" lon="-3.257769"><ele>489</ele><time>2023-01-14T11:58:25Z</time><name>PT1908</name></trkpt>
<trkpt lat="53.002667" lon="-3.257702"><ele>490</ele><time>2023-01-14T11:58:29Z</time><name>PT1909</name></trkpt>
<trkpt lat="53.002677" lon="-3.257663"><ele>491</ele><time>2023-01-14T11:58:32Z</time><name>PT1910</name></trkpt>
<trkpt lat="53.002687" lon="-3.257609"><ele>492</ele><time>2023-01-14T11:58:37Z</time><name>PT1911</name></trkpt>
<trkpt lat="53.002694" lon="-3.257557"><ele>492</ele><time>2023-01-14T11:58:40Z</time><name>PT1912</name></trkpt>
<trkpt lat="53.002700" lon="-3.257498"><ele>492</ele><time>2023-01-14T11:58:44Z</time><name>PT1913</name></trkpt>
<trkpt lat="53.002708" lon="-3.257457"><ele>493</ele><time>2023-01-14T11:58:47Z</time><name>PT1914</name></trkpt>
<trkpt lat="53.002718" lon="-3.257409"><ele>495</ele><time>2023-01-14T11:58:52Z</time><name>PT1915</name></trkpt>
<trkpt lat="53.002727" lon="-3.257360"><ele>497</ele><time>2023-01-14T11:58:55Z</time><name>PT1916</name></trkpt>
<trkpt lat="53.002732" lon="-3.257321"><ele>498</ele><time>2023-01-14T11:58:59Z</time><name>PT1917</name></trkpt>
<trkpt lat="53.002735" lon="-3.257302"><ele>498</ele><time>2023-01-14T11:59:04Z</time><name>PT1918</name></trkpt>
<trkpt lat="53.002757" lon="-3.257228"><ele>500</ele><time>2023-01-14T11:59:26Z</time><name>PT1919</name></trkpt>
<trkpt lat="53.002767" lon="-3.257151"><ele>502</ele><time>2023-01-14T11:59:29Z</time><name>PT1920</name></trkpt>
<trkpt lat="53.002768" lon="-3.257093"><ele>502</ele><time>2023-01-14T11:59:34Z</time><name>PT1921</name></trkpt>
<trkpt lat="53.002770" lon="-3.257071"><ele>503</ele><time>2023-01-14T11:59:37Z</time><name>PT1922</name></trkpt>
<trkpt lat="53.002774" lon="-3.256836"><ele>506</ele><time>2023-01-14T12:00:13Z</time><name>PT1923</name></trkpt>
<trkpt lat="53.002771" lon="-3.256774"><ele>507</ele><time>2023-01-14T12:00:17Z</time><name>PT1924</name></trkpt>
<trkpt lat="53.002772" lon="-3.256698"><ele>507</ele><time>2023-01-14T12:00:22Z</time><name>PT1925</name></trkpt>
<trkpt lat="53.002772" lon="-3.256615"><ele>508</ele><time>2023-01-14T12:00:25Z</time><name>PT1926</name></trkpt>
<trkpt lat="53.002766" lon="-3.256559"><ele>508</ele><time>2023-01-14T12:00:28Z</time><name>PT1927</name></trkpt>
<trkpt lat="53.002765" lon="-3.256497"><ele>509</ele><time>2023-01-14T12:00:32Z</time><name>PT1928</name></trkpt>
<trkpt lat="53.002762" lon="-3.256428"><ele>510</ele><time>2023-01-14T12:00:37Z</time><name>PT1929</name></trkpt>
<trkpt lat="53.002758" lon="-3.256374"><ele>510</ele><time>2023-01-14T12:00:40Z</time><name>PT1930</name></trkpt>
<trkpt lat="53.002757" lon="-3.256296"><ele>510</ele><time>2023-01-14T12:00:43Z</time><name>PT1931</name></trkpt>
<trkpt lat="53.002754" lon="-3.256255"><ele>511</ele><time>2023-01-14T12:00:46Z</time><name>PT1932</name></trkpt>
<trkpt lat="53.002752" lon="-3.256221"><ele>511</ele><time>2023-01-14T12:00:49Z</time><name>PT1933</name></trkpt>
<trkpt lat="53.002751" lon="-3.256164"><ele>513</ele><time>2023-01-14T12:00:53Z</time><name>PT1934</name></trkpt>
<trkpt lat="53.002744" lon="-3.256125"><ele>513</ele><time>2023-01-14T12:00:56Z</time><name>PT1935</name></trkpt>
<trkpt lat="53.002744" lon="-3.256084"><ele>514</ele><time>2023-01-14T12:00:59Z</time><name>PT1936</name></trkpt>
<trkpt lat="53.002734" lon="-3.256032"><ele>515</ele><time>2023-01-14T12:01:04Z</time><name>PT1937</name></trkpt>
<trkpt lat="53.002729" lon="-3.255993"><ele>515</ele><time>2023-01-14T12:01:07Z</time><name>PT1938</name></trkpt>
<trkpt lat="53.002724" lon="-3.255949"><ele>515</ele><time>2023-01-14T12:01:10Z</time><name>PT1939</name></trkpt>
<trkpt lat="53.002716" lon="-3.255910"><ele>515</ele><time>2023-01-14T12:01:13Z</time><name>PT1940</name></trkpt>
<trkpt lat="53.002708" lon="-3.255875"><ele>515</ele><time>2023-01-14T12:01:16Z</time><name>PT1941</name></trkpt>
<trkpt lat="53.002701" lon="-3.255843"><ele>516</ele><time>2023-01-14T12:01:19Z</time><name>PT1942</name></trkpt>
<trkpt lat="53.002690" lon="-3.255793"><ele>516</ele><time>2023-01-14T12:01:22Z</time><name>PT1943</name></trkpt>
<trkpt lat="53.002681" lon="-3.255728"><ele>517</ele><time>2023-01-14T12:01:26Z</time><name>PT1944</name></trkpt>
<trkpt lat="53.002671" lon="-3.255681"><ele>517</ele><time>2023-01-14T12:01:31Z</time><name>PT1945</name></trkpt>
<trkpt lat="53.002667" lon="-3.255629"><ele>520</ele><time>2023-01-14T12:01:34Z</time><name>PT1946</name></trkpt>
<trkpt lat="53.002658" lon="-3.255574"><ele>521</ele><time>2023-01-14T12:01:38Z</time><name>PT1947</name></trkpt>
<trkpt lat="53.002653" lon="-3.255516"><ele>521</ele><time>2023-01-14T12:01:43Z</time><name>PT1948</name></trkpt>
<trkpt lat="53.002649" lon="-3.255452"><ele>522</ele><time>2023-01-14T12:01:46Z</time><name>PT1949</name></trkpt>
<trkpt lat="53.002645" lon="-3.255403"><ele>522</ele><time>2023-01-14T12:01:49Z</time><name>PT1950</name></trkpt>
<trkpt lat="53.002641" lon="-3.255342"><ele>523</ele><time>2023-01-14T12:01:53Z</time><name>PT1951</name></trkpt>
<trkpt lat="53.002635" lon="-3.255298"><ele>522</ele><time>2023-01-14T12:01:56Z</time><name>PT1952</name></trkpt>
<trkpt lat="53.002629" lon="-3.255251"><ele>523</ele><time>2023-01-14T12:01:59Z</time><name>PT1953</name></trkpt>
<trkpt lat="53.002625" lon="-3.255204"><ele>524</ele><time>2023-01-14T12:02:02Z</time><name>PT1954</name></trkpt>
<trkpt lat="53.002622" lon="-3.255147"><ele>525</ele><time>2023-01-14T12:02:07Z</time><name>PT1955</name></trkpt>
<trkpt lat="53.002618" lon="-3.255086"><ele>525</ele><time>2023-01-14T12:02:10Z</time><name>PT1956</name></trkpt>
<trkpt lat="53.002614" lon="-3.255036"><ele>526</ele><time>2023-01-14T12:02:14Z</time><name>PT1957</name></trkpt>
<trkpt lat="53.002612" lon="-3.255004"><ele>528</ele><time>2023-01-14T12:02:17Z</time><name>PT1958</name></trkpt>
<trkpt lat="53.002609" lon="-3.254970"><ele>529</ele><time>2023-01-14T12:02:20Z</time><name>PT1959</name></trkpt>
<trkpt lat="53.002609" lon="-3.254924"><ele>530</ele><time>2023-01-14T12:02:25Z</time><name>PT1960</name></trkpt>
<trkpt lat="53.002602" lon="-3.254860"><ele>531</ele><time>2023-01-14T12:02:28Z</time><name>PT1961</name></trkpt>
<trkpt lat="53.002599" lon="-3.254810"><ele>532</ele><time>2023-01-14T12:02:32Z</time><name>PT1962</name></trkpt>
<trkpt lat="53.002592" lon="-3.254754"><ele>533</ele><time>2023-01-14T12:02:37Z</time><name>PT1963</name></trkpt>
<trkpt lat="53.002588" lon="-3.254719"><ele>534</ele><time>2023-01-14T12:02:40Z</time><name>PT1964</name></trkpt>
<trkpt lat="53.002581" lon="-3.254666"><ele>536</ele><time>2023-01-14T12:02:43Z</time><name>PT1965</name></trkpt>
<trkpt lat="53.002579" lon="-3.254627"><ele>539</ele><time>2023-01-14T12:02:47Z</time><name>PT1966</name></trkpt>
<trkpt lat="53.002574" lon="-3.254595"><ele>539</ele><time>2023-01-14T12:02:50Z</time><name>PT1967</name></trkpt>
<trkpt lat="53.002575" lon="-3.254564"><ele>540</ele><time>2023-01-14T12:02:55Z</time><name>PT1968</name></trkpt>
<trkpt lat="53.002574" lon="-3.254533"><ele>541</ele><time>2023-01-14T12:02:58Z</time><name>PT1969</name></trkpt>
<trkpt lat="53.002572" lon="-3.254503"><ele>541</ele><time>2023-01-14T12:03:01Z</time><name>PT1970</name></trkpt>
<trkpt lat="53.002566" lon="-3.254462"><ele>542</ele><time>2023-01-14T12:03:04Z</time><name>PT1971</name></trkpt>
<trkpt lat="53.002572" lon="-3.254411"><ele>545</ele><time>2023-01-14T12:03:08Z</time><name>PT1972</name></trkpt>
<trkpt lat="53.002573" lon="-3.254363"><ele>547</ele><time>2023-01-14T12:03:11Z</time><name>PT1973</name></trkpt>
<trkpt lat="53.002578" lon="-3.254308"><ele>547</ele><time>2023-01-14T12:03:16Z</time><name>PT1974</name></trkpt>
<trkpt lat="53.002580" lon="-3.254255"><ele>549</ele><time>2023-01-14T12:03:19Z</time><name>PT1975</name></trkpt>
<trkpt lat="53.002584" lon="-3.254198"><ele>550</ele><time>2023-01-14T12:03:23Z</time><name>PT1976</name></trkpt>
<trkpt lat="53.002590" lon="-3.254150"><ele>551</ele><time>2023-01-14T12:03:28Z</time><name>PT1977</name></trkpt>
<trkpt lat="53.002585" lon="-3.254102"><ele>552</ele><time>2023-01-14T12:03:31Z</time><name>PT1978</name></trkpt>
<trkpt lat="53.002587" lon="-3.254067"><ele>553</ele><time>2023-01-14T12:03:34Z</time><name>PT1979</name></trkpt>
<trkpt lat="53.002584" lon="-3.254034"><ele>554</ele><time>2023-01-14T12:03:37Z</time><name>PT1980</name></trkpt>
<trkpt lat="53.002586" lon="-3.253999"><ele>554</ele><time>2023-01-14T12:03:40Z</time><name>PT1981</name></trkpt>
<trkpt lat="53.002593" lon="-3.253949"><ele>554</ele><time>2023-01-14T12:03:44Z</time><name>PT1982</name></trkpt>
<trkpt lat="53.002600" lon="-3.253913"><ele>554</ele><time>2023-01-14T12:03:47Z</time><name>PT1983</name></trkpt>
<trkpt lat="53.002606" lon="-3.253875"><ele>556</ele><time>2023-01-14T12:03:50Z</time><name>PT1984</name></trkpt>
<trkpt lat="53.002607" lon="-3.253838"><ele>556</ele><time>2023-01-14T12:03:53Z</time><name>PT1985</name></trkpt>
<trkpt lat="53.002608" lon="-3.253801"><ele>556</ele><time>2023-01-14T12:03:56Z</time><name>PT1986</name></trkpt>
<trkpt lat="53.002603" lon="-3.253763"><ele>556</ele><time>2023-01-14T12:03:59Z</time><name>PT1987</name></trkpt>
<trkpt lat="53.002599" lon="-3.253735"><ele>557</ele><time>2023-01-14T12:04:04Z</time><name>PT1988</name></trkpt>
<trkpt lat="53.002602" lon="-3.253698"><ele>556</ele><time>2023-01-14T12:04:11Z</time><name>PT1989</name></trkpt>
<trkpt lat="53.002594" lon="-3.253678"><ele>556</ele><time>2023-01-14T12:04:14Z</time><name>PT1990</name></trkpt>
<trkpt lat="53.002593" lon="-3.253675"><ele>556</ele><time>2023-01-14T12:04:19Z</time><name>PT1991</name></trkpt>
<trkpt lat="53.002592" lon="-3.253665"><ele>556</ele><time>2023-01-14T12:04:47Z</time><name>PT1992</name></trkpt>
<trkpt lat="53.002591" lon="-3.253642"><ele>556</ele><time>2023-01-14T12:05:13Z</time><name>PT1993</name></trkpt>
<trkpt lat="53.002599" lon="-3.253633"><ele>556</ele><time>2023-01-14T12:05:16Z</time><name>PT1994</name></trkpt>
<trkpt lat="53.002596" lon="-3.253631"><ele>556</ele><time>2023-01-14T12:05:19Z</time><name>PT1995</name></trkpt>
<trkpt lat="53.002594" lon="-3.253636"><ele>556</ele><time>2023-01-14T12:05:26Z</time><name>PT1996</name></trkpt>
<trkpt lat="53.002579" lon="-3.253636"><ele>556</ele><time>2023-01-14T12:05:29Z</time><name>PT1997</name></trkpt>
<trkpt lat="53.002584" lon="-3.253635"><ele>556</ele><time>2023-01-14T12:05:34Z</time><name>PT1998</name></trkpt>
<trkpt lat="53.002587" lon="-3.253641"><ele>557</ele><time>2023-01-14T12:05:37Z</time><name>PT1999</name></trkpt>
<trkpt lat="53.002587" lon="-3.253640"><ele>557</ele><time>2023-01-14T12:05:40Z</time><name>PT2000</name></trkpt>
<trkpt lat="53.002575" lon="-3.253641"><ele>557</ele><time>2023-01-14T12:05:44Z</time><name>PT2001</name></trkpt>
<trkpt lat="53.002582" lon="-3.253643"><ele>557</ele><time>2023-01-14T12:05:47Z</time><name>PT2002</name></trkpt>
<trkpt lat="53.002582" lon="-3.253646"><ele>556</ele><time>2023-01-14T12:06:05Z</time><name>PT2003</name></trkpt>
<trkpt lat="53.002581" lon="-3.253646"><ele>555</ele><time>2023-01-14T12:06:08Z</time><name>PT2004</name></trkpt>
<trkpt lat="53.002579" lon="-3.253658"><ele>555</ele><time>2023-01-14T12:06:25Z</time><name>PT2005</name></trkpt>
<trkpt lat="53.002579" lon="-3.253659"><ele>555</ele><time>2023-01-14T12:06:29Z</time><name>PT2006</name></trkpt>
<trkpt lat="53.002601" lon="-3.253674"><ele>554</ele><time>2023-01-14T12:06:32Z</time><name>PT2007</name></trkpt>
<trkpt lat="53.002602" lon="-3.253692"><ele>553</ele><time>2023-01-14T12:06:37Z</time><name>PT2008</name></trkpt>
<trkpt lat="53.002612" lon="-3.253738"><ele>553</ele><time>2023-01-14T12:06:40Z</time><name>PT2009</name></trkpt>
<trkpt lat="53.002613" lon="-3.253740"><ele>553</ele><time>2023-01-14T12:06:43Z</time><name>PT2010</name></trkpt>
<trkpt lat="53.002615" lon="-3.253731"><ele>553</ele><time>2023-01-14T12:06:47Z</time><name>PT2011</name></trkpt>
<trkpt lat="53.002626" lon="-3.253765"><ele>552</ele><time>2023-01-14T12:07:10Z</time><name>PT2012</name></trkpt>
<trkpt lat="53.002634" lon="-3.253803"><ele>552</ele><time>2023-01-14T12:07:13Z</time><name>PT2013</name></trkpt>
<trkpt lat="53.002625" lon="-3.253865"><ele>551</ele><time>2023-01-14T12:07:16Z</time><name>PT2014</name></trkpt>
<trkpt lat="53.002618" lon="-3.253907"><ele>550</ele><time>2023-01-14T12:07:19Z</time><name>PT2015</name></trkpt>
<trkpt lat="53.002614" lon="-3.253969"><ele>548</ele><time>2023-01-14T12:07:23Z</time><name>PT2016</name></trkpt>
<trkpt lat="53.002613" lon="-3.254036"><ele>546</ele><time>2023-01-14T12:07:28Z</time><name>PT2017</name></trkpt>
<trkpt lat="53.002605" lon="-3.254082"><ele>545</ele><time>2023-01-14T12:07:31Z</time><name>PT2018</name></trkpt>
<trkpt lat="53.002605" lon="-3.254142"><ele>544</ele><time>2023-01-14T12:07:34Z</time><name>PT2019</name></trkpt>
<trkpt lat="53.002603" lon="-3.254184"><ele>543</ele><time>2023-01-14T12:07:37Z</time><name>PT2020</name></trkpt>
<trkpt lat="53.002602" lon="-3.254249"><ele>541</ele><time>2023-01-14T12:07:41Z</time><name>PT2021</name></trkpt>
<trkpt lat="53.002601" lon="-3.254302"><ele>540</ele><time>2023-01-14T12:07:44Z</time><name>PT2022</name></trkpt>
<trkpt lat="53.002595" lon="-3.254350"><ele>539</ele><time>2023-01-14T12:07:47Z</time><name>PT2023</name></trkpt>
<trkpt lat="53.002598" lon="-3.254405"><ele>537</ele><time>2023-01-14T12:07:52Z</time><name>PT2024</name></trkpt>
<trkpt lat="53.002593" lon="-3.254459"><ele>536</ele><time>2023-01-14T12:07:55Z</time><name>PT2025</name></trkpt>
<trkpt lat="53.002587" lon="-3.254517"><ele>535</ele><time>2023-01-14T12:07:59Z</time><name>PT2026</name></trkpt>
<trkpt lat="53.002593" lon="-3.254556"><ele>534</ele><time>2023-01-14T12:08:02Z</time><name>PT2027</name></trkpt>
<trkpt lat="53.002594" lon="-3.254612"><ele>533</ele><time>2023-01-14T12:08:07Z</time><name>PT2028</name></trkpt>
<trkpt lat="53.002590" lon="-3.254666"><ele>532</ele><time>2023-01-14T12:08:10Z</time><name>PT2029</name></trkpt>
<trkpt lat="53.002598" lon="-3.254711"><ele>530</ele><time>2023-01-14T12:08:14Z</time><name>PT2030</name></trkpt>
<trkpt lat="53.002603" lon="-3.254751"><ele>529</ele><time>2023-01-14T12:08:17Z</time><name>PT2031</name></trkpt>
<trkpt lat="53.002599" lon="-3.254804"><ele>527</ele><time>2023-01-14T12:08:22Z</time><name>PT2032</name></trkpt>
<trkpt lat="53.002605" lon="-3.254857"><ele>526</ele><time>2023-01-14T12:08:25Z</time><name>PT2033</name></trkpt>
<trkpt lat="53.002604" lon="-3.254911"><ele>524</ele><time>2023-01-14T12:08:29Z</time><name>PT2034</name></trkpt>
<trkpt lat="53.002606" lon="-3.254954"><ele>523</ele><time>2023-01-14T12:08:32Z</time><name>PT2035</name></trkpt>
<trkpt lat="53.002611" lon="-3.254997"><ele>522</ele><time>2023-01-14T12:08:35Z</time><name>PT2036</name></trkpt>
<trkpt lat="53.002618" lon="-3.255056"><ele>521</ele><time>2023-01-14T12:08:40Z</time><name>PT2037</name></trkpt>
<trkpt lat="53.002621" lon="-3.255112"><ele>520</ele><time>2023-01-14T12:08:43Z</time><name>PT2038</name></trkpt>
<trkpt lat="53.002627" lon="-3.255175"><ele>519</ele><time>2023-01-14T12:08:47Z</time><name>PT2039</name></trkpt>
<trkpt lat="53.002633" lon="-3.255229"><ele>519</ele><time>2023-01-14T12:08:50Z</time><name>PT2040</name></trkpt>
<trkpt lat="53.002642" lon="-3.255292"><ele>518</ele><time>2023-01-14T12:08:55Z</time><name>PT2041</name></trkpt>
<trkpt lat="53.002642" lon="-3.255338"><ele>518</ele><time>2023-01-14T12:08:58Z</time><name>PT2042</name></trkpt>
<trkpt lat="53.002644" lon="-3.255377"><ele>517</ele><time>2023-01-14T12:09:01Z</time><name>PT2043</name></trkpt>
<trkpt lat="53.002653" lon="-3.255414"><ele>517</ele><time>2023-01-14T12:09:04Z</time><name>PT2044</name></trkpt>
<trkpt lat="53.002660" lon="-3.255419"><ele>516</ele><time>2023-01-14T12:09:07Z</time><name>PT2045</name></trkpt>
<trkpt lat="53.002660" lon="-3.255419"><ele>516</ele><time>2023-01-14T12:09:11Z</time><name>PT2046</name></trkpt>
<trkpt lat="53.002659" lon="-3.255463"><ele>516</ele><time>2023-01-14T12:09:16Z</time><name>PT2047</name></trkpt>
<trkpt lat="53.002659" lon="-3.255527"><ele>515</ele><time>2023-01-14T12:09:19Z</time><name>PT2048</name></trkpt>
<trkpt lat="53.002664" lon="-3.255578"><ele>514</ele><time>2023-01-14T12:09:22Z</time><name>PT2049</name></trkpt>
<trkpt lat="53.002675" lon="-3.255642"><ele>513</ele><time>2023-01-14T12:09:26Z</time><name>PT2050</name></trkpt>
<trkpt lat="53.002684" lon="-3.255702"><ele>512</ele><time>2023-01-14T12:09:31Z</time><name>PT2051</name></trkpt>
<trkpt lat="53.002693" lon="-3.255748"><ele>512</ele><time>2023-01-14T12:09:34Z</time><name>PT2052</name></trkpt>
<trkpt lat="53.002705" lon="-3.255815"><ele>511</ele><time>2023-01-14T12:09:37Z</time><name>PT2053</name></trkpt>
<trkpt lat="53.002713" lon="-3.255860"><ele>510</ele><time>2023-01-14T12:09:40Z</time><name>PT2054</name></trkpt>
<trkpt lat="53.002721" lon="-3.255931"><ele>509</ele><time>2023-01-14T12:09:44Z</time><name>PT2055</name></trkpt>
<trkpt lat="53.002728" lon="-3.255983"><ele>508</ele><time>2023-01-14T12:09:47Z</time><name>PT2056</name></trkpt>
<trkpt lat="53.002736" lon="-3.256043"><ele>507</ele><time>2023-01-14T12:09:52Z</time><name>PT2057</name></trkpt>
<trkpt lat="53.002739" lon="-3.256088"><ele>506</ele><time>2023-01-14T12:09:55Z</time><name>PT2058</name></trkpt>
<trkpt lat="53.002746" lon="-3.256153"><ele>505</ele><time>2023-01-14T12:09:58Z</time><name>PT2059</name></trkpt>
<trkpt lat="53.002748" lon="-3.256195"><ele>504</ele><time>2023-01-14T12:10:01Z</time><name>PT2060</name></trkpt>
<trkpt lat="53.002756" lon="-3.256232"><ele>503</ele><time>2023-01-14T12:10:04Z</time><name>PT2061</name></trkpt>
<trkpt lat="53.002759" lon="-3.256300"><ele>502</ele><time>2023-01-14T12:10:08Z</time><name>PT2062</name></trkpt>
<trkpt lat="53.002759" lon="-3.256347"><ele>501</ele><time>2023-01-14T12:10:11Z</time><name>PT2063</name></trkpt>
<trkpt lat="53.002761" lon="-3.256414"><ele>500</ele><time>2023-01-14T12:10:16Z</time><name>PT2064</name></trkpt>
<trkpt lat="53.002765" lon="-3.256469"><ele>499</ele><time>2023-01-14T12:10:19Z</time><name>PT2065</name></trkpt>
<trkpt lat="53.002767" lon="-3.256529"><ele>498</ele><time>2023-01-14T12:10:22Z</time><name>PT2066</name></trkpt>
<trkpt lat="53.002767" lon="-3.256590"><ele>496</ele><time>2023-01-14T12:10:26Z</time><name>PT2067</name></trkpt>
<trkpt lat="53.002767" lon="-3.256637"><ele>495</ele><time>2023-01-14T12:10:29Z</time><name>PT2068</name></trkpt>
<trkpt lat="53.002762" lon="-3.256692"><ele>494</ele><time>2023-01-14T12:10:34Z</time><name>PT2069</name></trkpt>
<trkpt lat="53.002761" lon="-3.256740"><ele>493</ele><time>2023-01-14T12:10:37Z</time><name>PT2070</name></trkpt>
<trkpt lat="53.002765" lon="-3.256798"><ele>492</ele><time>2023-01-14T12:10:40Z</time><name>PT2071</name></trkpt>
<trkpt lat="53.002763" lon="-3.256847"><ele>491</ele><time>2023-01-14T12:10:44Z</time><name>PT2072</name></trkpt>
<trkpt lat="53.002763" lon="-3.256903"><ele>490</ele><time>2023-01-14T12:10:49Z</time><name>PT2073</name></trkpt>
<trkpt lat="53.002760" lon="-3.256947"><ele>490</ele><time>2023-01-14T12:10:52Z</time><name>PT2074</name></trkpt>
<trkpt lat="53.002753" lon="-3.256988"><ele>490</ele><time>2023-01-14T12:10:55Z</time><name>PT2075</name></trkpt>
<trkpt lat="53.002750" lon="-3.257026"><ele>489</ele><time>2023-01-14T12:10:58Z</time><name>PT2076</name></trkpt>
<trkpt lat="53.002749" lon="-3.257078"><ele>489</ele><time>2023-01-14T12:11:01Z</time><name>PT2077</name></trkpt>
<trkpt lat="53.002746" lon="-3.257120"><ele>488</ele><time>2023-01-14T12:11:04Z</time><name>PT2078</name></trkpt>
<trkpt lat="53.002741" lon="-3.257172"><ele>487</ele><time>2023-01-14T12:11:08Z</time><name>PT2079</name></trkpt>
<trkpt lat="53.002736" lon="-3.257211"><ele>486</ele><time>2023-01-14T12:11:13Z</time><name>PT2080</name></trkpt>
<trkpt lat="53.002732" lon="-3.257246"><ele>486</ele><time>2023-01-14T12:11:16Z</time><name>PT2081</name></trkpt>
<trkpt lat="53.002733" lon="-3.257285"><ele>485</ele><time>2023-01-14T12:11:19Z</time><name>PT2082</name></trkpt>
<trkpt lat="53.002724" lon="-3.257333"><ele>484</ele><time>2023-01-14T12:11:22Z</time><name>PT2083</name></trkpt>
<trkpt lat="53.002717" lon="-3.257390"><ele>484</ele><time>2023-01-14T12:11:26Z</time><name>PT2084</name></trkpt>
<trkpt lat="53.002708" lon="-3.257431"><ele>483</ele><time>2023-01-14T12:11:29Z</time><name>PT2085</name></trkpt>
<trkpt lat="53.002700" lon="-3.257476"><ele>483</ele><time>2023-01-14T12:11:32Z</time><name>PT2086</name></trkpt>
<trkpt lat="53.002690" lon="-3.257525"><ele>482</ele><time>2023-01-14T12:11:37Z</time><name>PT2087</name></trkpt>
<trkpt lat="53.002682" lon="-3.257557"><ele>481</ele><time>2023-01-14T12:11:40Z</time><name>PT2088</name></trkpt>
<trkpt lat="53.002669" lon="-3.257612"><ele>481</ele><time>2023-01-14T12:11:43Z</time><name>PT2089</name></trkpt>
<trkpt lat="53.002662" lon="-3.257667"><ele>481</ele><time>2023-01-14T12:11:47Z</time><name>PT2090</name></trkpt>
<trkpt lat="53.002649" lon="-3.257740"><ele>480</ele><time>2023-01-14T12:11:52Z</time><name>PT2091</name></trkpt>
<trkpt lat="53.002636" lon="-3.257799"><ele>480</ele><time>2023-01-14T12:11:55Z</time><name>PT2092</name></trkpt>
<trkpt lat="53.002625" lon="-3.257887"><ele>478</ele><time>2023-01-14T12:11:58Z</time><name>PT2093</name></trkpt>
<trkpt lat="53.002613" lon="-3.257938"><ele>477</ele><time>2023-01-14T12:12:01Z</time><name>PT2094</name></trkpt>
<trkpt lat="53.002597" lon="-3.258016"><ele>477</ele><time>2023-01-14T12:12:05Z</time><name>PT2095</name></trkpt>
<trkpt lat="53.002581" lon="-3.258064"><ele>476</ele><time>2023-01-14T12:12:08Z</time><name>PT2096</name></trkpt>
<trkpt lat="53.002568" lon="-3.258120"><ele>476</ele><time>2023-01-14T12:12:11Z</time><name>PT2097</name></trkpt>
<trkpt lat="53.002557" lon="-3.258189"><ele>477</ele><time>2023-01-14T12:12:16Z</time><name>PT2098</name></trkpt>
<trkpt lat="53.002539" lon="-3.258263"><ele>476</ele><time>2023-01-14T12:12:19Z</time><name>PT2099</name></trkpt>
<trkpt lat="53.002524" lon="-3.258330"><ele>476</ele><time>2023-01-14T12:12:23Z</time><name>PT2100</name></trkpt>
<trkpt lat="53.002507" lon="-3.258399"><ele>475</ele><time>2023-01-14T12:12:28Z</time><name>PT2101</name></trkpt>
<trkpt lat="53.002482" lon="-3.258473"><ele>474</ele><time>2023-01-14T12:12:31Z</time><name>PT2102</name></trkpt>
<trkpt lat="53.002469" lon="-3.258529"><ele>474</ele><time>2023-01-14T12:12:34Z</time><name>PT2103</name></trkpt>
<trkpt lat="53.002450" lon="-3.258603"><ele>473</ele><time>2023-01-14T12:12:38Z</time><name>PT2104</name></trkpt>
<trkpt lat="53.002437" lon="-3.258668"><ele>472</ele><time>2023-01-14T12:12:41Z</time><name>PT2105</name></trkpt>
<trkpt lat="53.002422" lon="-3.258734"><ele>471</ele><time>2023-01-14T12:12:46Z</time><name>PT2106</name></trkpt>
<trkpt lat="53.002406" lon="-3.258810"><ele>470</ele><time>2023-01-14T12:12:49Z</time><name>PT2107</name></trkpt>
<trkpt lat="53.002391" lon="-3.258871"><ele>470</ele><time>2023-01-14T12:12:52Z</time><name>PT2108</name></trkpt>
<trkpt lat="53.002370" lon="-3.258953"><ele>469</ele><time>2023-01-14T12:12:56Z</time><name>PT2109</name></trkpt>
<trkpt lat="53.002357" lon="-3.259011"><ele>468</ele><time>2023-01-14T12:12:59Z</time><name>PT2110</name></trkpt>
<trkpt lat="53.002345" lon="-3.259072"><ele>468</ele><time>2023-01-14T12:13:02Z</time><name>PT2111</name></trkpt>
<trkpt lat="53.002328" lon="-3.259157"><ele>467</ele><time>2023-01-14T12:13:07Z</time><name>PT2112</name></trkpt>
<trkpt lat="53.002318" lon="-3.259221"><ele>467</ele><time>2023-01-14T12:13:10Z</time><name>PT2113</name></trkpt>
<trkpt lat="53.002306" lon="-3.259277"><ele>467</ele><time>2023-01-14T12:13:13Z</time><name>PT2114</name></trkpt>
<trkpt lat="53.002296" lon="-3.259336"><ele>467</ele><time>2023-01-14T12:13:16Z</time><name>PT2115</name></trkpt>
<trkpt lat="53.002282" lon="-3.259417"><ele>467</ele><time>2023-01-14T12:13:19Z</time><name>PT2116</name></trkpt>
<trkpt lat="53.002262" lon="-3.259498"><ele>467</ele><time>2023-01-14T12:13:23Z</time><name>PT2117</name></trkpt>
<trkpt lat="53.002250" lon="-3.259554"><ele>466</ele><time>2023-01-14T12:13:26Z</time><name>PT2118</name></trkpt>
<trkpt lat="53.002240" lon="-3.259608"><ele>466</ele><time>2023-01-14T12:13:29Z</time><name>PT2119</name></trkpt>
<trkpt lat="53.002222" lon="-3.259687"><ele>466</ele><time>2023-01-14T12:13:34Z</time><name>PT2120</name></trkpt>
<trkpt lat="53.002205" lon="-3.259738"><ele>467</ele><time>2023-01-14T12:13:37Z</time><name>PT2121</name></trkpt>
<trkpt lat="53.002176" lon="-3.259801"><ele>466</ele><time>2023-01-14T12:13:40Z</time><name>PT2122</name></trkpt>
<trkpt lat="53.002141" lon="-3.259858"><ele>467</ele><time>2023-01-14T12:13:44Z</time><name>PT2123</name></trkpt>
<trkpt lat="53.002112" lon="-3.259899"><ele>467</ele><time>2023-01-14T12:13:47Z</time><name>PT2124</name></trkpt>
<trkpt lat="53.002082" lon="-3.259929"><ele>466</ele><time>2023-01-14T12:13:52Z</time><name>PT2125</name></trkpt>
<trkpt lat="53.002083" lon="-3.259929"><ele>466</ele><time>2023-01-14T12:13:55Z</time><name>PT2126</name></trkpt>
<trkpt lat="53.002068" lon="-3.259941"><ele>466</ele><time>2023-01-14T12:14:05Z</time><name>PT2127</name></trkpt>
<trkpt lat="53.002042" lon="-3.259952"><ele>465</ele><time>2023-01-14T12:14:08Z</time><name>PT2128</name></trkpt>
<trkpt lat="53.002010" lon="-3.259968"><ele>463</ele><time>2023-01-14T12:14:13Z</time><name>PT2129</name></trkpt>
<trkpt lat="53.001983" lon="-3.259978"><ele>463</ele><time>2023-01-14T12:14:16Z</time><name>PT2130</name></trkpt>
<trkpt lat="53.001946" lon="-3.259992"><ele>463</ele><time>2023-01-14T12:14:19Z</time><name>PT2131</name></trkpt>
<trkpt lat="53.001907" lon="-3.260031"><ele>462</ele><time>2023-01-14T12:14:22Z</time><name>PT2132</name></trkpt>
<trkpt lat="53.001896" lon="-3.260072"><ele>462</ele><time>2023-01-14T12:14:25Z</time><name>PT2133</name></trkpt>
<trkpt lat="53.001899" lon="-3.260089"><ele>462</ele><time>2023-01-14T12:14:28Z</time><name>PT2134</name></trkpt>
<trkpt lat="53.001882" lon="-3.260133"><ele>462</ele><time>2023-01-14T12:14:32Z</time><name>PT2135</name></trkpt>
<trkpt lat="53.001861" lon="-3.260178"><ele>462</ele><time>2023-01-14T12:14:37Z</time><name>PT2136</name></trkpt>
<trkpt lat="53.001833" lon="-3.260193"><ele>462</ele><time>2023-01-14T12:14:40Z</time><name>PT2137</name></trkpt>
<trkpt lat="53.001792" lon="-3.260216"><ele>462</ele><time>2023-01-14T12:14:43Z</time><name>PT2138</name></trkpt>
<trkpt lat="53.001747" lon="-3.260206"><ele>462</ele><time>2023-01-14T12:14:47Z</time><name>PT2139</name></trkpt>
<trkpt lat="53.001707" lon="-3.260219"><ele>461</ele><time>2023-01-14T12:14:52Z</time><name>PT2140</name></trkpt>
<trkpt lat="53.001680" lon="-3.260240"><ele>461</ele><time>2023-01-14T12:14:55Z</time><name>PT2141</name></trkpt>
<trkpt lat="53.001657" lon="-3.260243"><ele>461</ele><time>2023-01-14T12:14:58Z</time><name>PT2142</name></trkpt>
<trkpt lat="53.001631" lon="-3.260266"><ele>461</ele><time>2023-01-14T12:15:01Z</time><name>PT2143</name></trkpt>
<trkpt lat="53.001599" lon="-3.260312"><ele>462</ele><time>2023-01-14T12:15:05Z</time><name>PT2144</name></trkpt>
<trkpt lat="53.001567" lon="-3.260352"><ele>462</ele><time>2023-01-14T12:15:10Z</time><name>PT2145</name></trkpt>
<trkpt lat="53.001535" lon="-3.260391"><ele>462</ele><time>2023-01-14T12:15:13Z</time><name>PT2146</name></trkpt>
<trkpt lat="53.001503" lon="-3.260432"><ele>463</ele><time>2023-01-14T12:15:17Z</time><name>PT2147</name></trkpt>
<trkpt lat="53.001473" lon="-3.260472"><ele>463</ele><time>2023-01-14T12:15:22Z</time><name>PT2148</name></trkpt>
<trkpt lat="53.001439" lon="-3.260513"><ele>464</ele><time>2023-01-14T12:15:25Z</time><name>PT2149</name></trkpt>
<trkpt lat="53.001415" lon="-3.260545"><ele>464</ele><time>2023-01-14T12:15:28Z</time><name>PT2150</name></trkpt>
<trkpt lat="53.001390" lon="-3.260579"><ele>464</ele><time>2023-01-14T12:15:31Z</time><name>PT2151</name></trkpt>
<trkpt lat="53.001377" lon="-3.260597"><ele>464</ele><time>2023-01-14T12:15:34Z</time><name>PT2152</name></trkpt>
<trkpt lat="53.001344" lon="-3.260639"><ele>464</ele><time>2023-01-14T12:15:38Z</time><name>PT2153</name></trkpt>
<trkpt lat="53.001321" lon="-3.260671"><ele>465</ele><time>2023-01-14T12:15:41Z</time><name>PT2154</name></trkpt>
<trkpt lat="53.001300" lon="-3.260713"><ele>465</ele><time>2023-01-14T12:15:44Z</time><name>PT2155</name></trkpt>
<trkpt lat="53.001272" lon="-3.260762"><ele>466</ele><time>2023-01-14T12:15:49Z</time><name>PT2156</name></trkpt>
<trkpt lat="53.001250" lon="-3.260811"><ele>466</ele><time>2023-01-14T12:15:52Z</time><name>PT2157</name></trkpt>
<trkpt lat="53.001227" lon="-3.260866"><ele>467</ele><time>2023-01-14T12:15:56Z</time><name>PT2158</name></trkpt>
<trkpt lat="53.001206" lon="-3.260901"><ele>468</ele><time>2023-01-14T12:15:59Z</time><name>PT2159</name></trkpt>
<trkpt lat="53.001183" lon="-3.260947"><ele>468</ele><time>2023-01-14T12:16:04Z</time><name>PT2160</name></trkpt>
<trkpt lat="53.001157" lon="-3.261003"><ele>468</ele><time>2023-01-14T12:16:07Z</time><name>PT2161</name></trkpt>
<trkpt lat="53.001129" lon="-3.261045"><ele>467</ele><time>2023-01-14T12:16:10Z</time><name>PT2162</name></trkpt>
<trkpt lat="53.001095" lon="-3.261103"><ele>467</ele><time>2023-01-14T12:16:14Z</time><name>PT2163</name></trkpt>
<trkpt lat="53.001077" lon="-3.261176"><ele>468</ele><time>2023-01-14T12:16:19Z</time><name>PT2164</name></trkpt>
<trkpt lat="53.001060" lon="-3.261219"><ele>467</ele><time>2023-01-14T12:16:22Z</time><name>PT2165</name></trkpt>
<trkpt lat="53.001040" lon="-3.261292"><ele>468</ele><time>2023-01-14T12:16:25Z</time><name>PT2166</name></trkpt>
<trkpt lat="53.001016" lon="-3.261334"><ele>468</ele><time>2023-01-14T12:16:28Z</time><name>PT2167</name></trkpt>
<trkpt lat="53.000991" lon="-3.261386"><ele>468</ele><time>2023-01-14T12:16:31Z</time><name>PT2168</name></trkpt>
<trkpt lat="53.000970" lon="-3.261429"><ele>469</ele><time>2023-01-14T12:16:34Z</time><name>PT2169</name></trkpt>
<trkpt lat="53.000946" lon="-3.261488"><ele>468</ele><time>2023-01-14T12:16:38Z</time><name>PT2170</name></trkpt>
<trkpt lat="53.000922" lon="-3.261553"><ele>469</ele><time>2023-01-14T12:16:43Z</time><name>PT2171</name></trkpt>
<trkpt lat="53.000902" lon="-3.261594"><ele>470</ele><time>2023-01-14T12:16:46Z</time><name>PT2172</name></trkpt>
<trkpt lat="53.000876" lon="-3.261658"><ele>470</ele><time>2023-01-14T12:16:49Z</time><name>PT2173</name></trkpt>
<trkpt lat="53.000851" lon="-3.261723"><ele>470</ele><time>2023-01-14T12:16:53Z</time><name>PT2174</name></trkpt>
<trkpt lat="53.000834" lon="-3.261771"><ele>470</ele><time>2023-01-14T12:16:56Z</time><name>PT2175</name></trkpt>
<trkpt lat="53.000808" lon="-3.261831"><ele>470</ele><time>2023-01-14T12:17:01Z</time><name>PT2176</name></trkpt>
<trkpt lat="53.000791" lon="-3.261879"><ele>469</ele><time>2023-01-14T12:17:04Z</time><name>PT2177</name></trkpt>
<trkpt lat="53.000763" lon="-3.261941"><ele>469</ele><time>2023-01-14T12:17:07Z</time><name>PT2178</name></trkpt>
<trkpt lat="53.000738" lon="-3.261984"><ele>469</ele><time>2023-01-14T12:17:10Z</time><name>PT2179</name></trkpt>
<trkpt lat="53.000703" lon="-3.262043"><ele>468</ele><time>2023-01-14T12:17:14Z</time><name>PT2180</name></trkpt>
<trkpt lat="53.000660" lon="-3.262085"><ele>468</ele><time>2023-01-14T12:17:19Z</time><name>PT2181</name></trkpt>
<trkpt lat="53.000631" lon="-3.262134"><ele>468</ele><time>2023-01-14T12:17:22Z</time><name>PT2182</name></trkpt>
<trkpt lat="53.000602" lon="-3.262191"><ele>468</ele><time>2023-01-14T12:17:26Z</time><name>PT2183</name></trkpt>
<trkpt lat="53.000587" lon="-3.262232"><ele>469</ele><time>2023-01-14T12:17:29Z</time><name>PT2184</name></trkpt>
<trkpt lat="53.000573" lon="-3.262250"><ele>468</ele><time>2023-01-14T12:17:34Z</time><name>PT2185</name></trkpt>
<trkpt lat="53.000563" lon="-3.262278"><ele>468</ele><time>2023-01-14T12:17:37Z</time><name>PT2186</name></trkpt>
<trkpt lat="53.000542" lon="-3.262329"><ele>468</ele><time>2023-01-14T12:17:41Z</time><name>PT2187</name></trkpt>
<trkpt lat="53.000528" lon="-3.262365"><ele>467</ele><time>2023-01-14T12:17:46Z</time><name>PT2188</name></trkpt>
<trkpt lat="53.000528" lon="-3.262368"><ele>467</ele><time>2023-01-14T12:17:49Z</time><name>PT2189</name></trkpt>
<trkpt lat="53.000513" lon="-3.262405"><ele>467</ele><time>2023-01-14T12:17:53Z</time><name>PT2190</name></trkpt>
<trkpt lat="53.000487" lon="-3.262463"><ele>466</ele><time>2023-01-14T12:17:56Z</time><name>PT2191</name></trkpt>
<trkpt lat="53.000457" lon="-3.262510"><ele>466</ele><time>2023-01-14T12:18:01Z</time><name>PT2192</name></trkpt>
<trkpt lat="53.000440" lon="-3.262558"><ele>466</ele><time>2023-01-14T12:18:04Z</time><name>PT2193</name></trkpt>
<trkpt lat="53.000421" lon="-3.262594"><ele>465</ele><time>2023-01-14T12:18:07Z</time><name>PT2194</name></trkpt>
<trkpt lat="53.000400" lon="-3.262646"><ele>465</ele><time>2023-01-14T12:18:10Z</time><name>PT2195</name></trkpt>
<trkpt lat="53.000385" lon="-3.262686"><ele>465</ele><time>2023-01-14T12:18:13Z</time><name>PT2196</name></trkpt>
<trkpt lat="53.000355" lon="-3.262753"><ele>465</ele><time>2023-01-14T12:18:17Z</time><name>PT2197</name></trkpt>
<trkpt lat="53.000326" lon="-3.262814"><ele>464</ele><time>2023-01-14T12:18:22Z</time><name>PT2198</name></trkpt>
<trkpt lat="53.000289" lon="-3.262867"><ele>463</ele><time>2023-01-14T12:18:25Z</time><name>PT2199</name></trkpt>
<trkpt lat="53.000267" lon="-3.262901"><ele>463</ele><time>2023-01-14T12:18:28Z</time><name>PT2200</name></trkpt>
<trkpt lat="53.000231" lon="-3.262948"><ele>462</ele><time>2023-01-14T12:18:32Z</time><name>PT2201</name></trkpt>
<trkpt lat="53.000204" lon="-3.262986"><ele>461</ele><time>2023-01-14T12:18:35Z</time><name>PT2202</name></trkpt>
<trkpt lat="53.000176" lon="-3.263025"><ele>461</ele><time>2023-01-14T12:18:40Z</time><name>PT2203</name></trkpt>
<trkpt lat="53.000162" lon="-3.263051"><ele>461</ele><time>2023-01-14T12:18:43Z</time><name>PT2204</name></trkpt>
<trkpt lat="53.000155" lon="-3.263071"><ele>461</ele><time>2023-01-14T12:18:46Z</time><name>PT2205</name></trkpt>
<trkpt lat="53.000138" lon="-3.263094"><ele>460</ele><time>2023-01-14T12:19:04Z</time><name>PT2206</name></trkpt>
<trkpt lat="53.000103" lon="-3.263132"><ele>460</ele><time>2023-01-14T12:19:07Z</time><name>PT2207</name></trkpt>
<trkpt lat="53.000074" lon="-3.263171"><ele>461</ele><time>2023-01-14T12:19:10Z</time><name>PT2208</name></trkpt>
<trkpt lat="53.000052" lon="-3.263232"><ele>461</ele><time>2023-01-14T12:19:13Z</time><name>PT2209</name></trkpt>
<trkpt lat="53.000030" lon="-3.263279"><ele>461</ele><time>2023-01-14T12:19:16Z</time><name>PT2210</name></trkpt>
<trkpt lat="52.999994" lon="-3.263337"><ele>461</ele><time>2023-01-14T12:19:20Z</time><name>PT2211</name></trkpt>
<trkpt lat="52.999963" lon="-3.263374"><ele>460</ele><time>2023-01-14T12:19:23Z</time><name>PT2212</name></trkpt>
<trkpt lat="52.999919" lon="-3.263415"><ele>460</ele><time>2023-01-14T12:19:28Z</time><name>PT2213</name></trkpt>
<trkpt lat="52.999884" lon="-3.263450"><ele>460</ele><time>2023-01-14T12:19:31Z</time><name>PT2214</name></trkpt>
<trkpt lat="52.999870" lon="-3.263465"><ele>460</ele><time>2023-01-14T12:19:34Z</time><name>PT2215</name></trkpt>
<trkpt lat="52.999864" lon="-3.263471"><ele>460</ele><time>2023-01-14T12:19:37Z</time><name>PT2216</name></trkpt>
<trkpt lat="52.999820" lon="-3.263528"><ele>460</ele><time>2023-01-14T12:19:41Z</time><name>PT2217</name></trkpt>
<trkpt lat="52.999787" lon="-3.263573"><ele>461</ele><time>2023-01-14T12:19:44Z</time><name>PT2218</name></trkpt>
<trkpt lat="52.999754" lon="-3.263625"><ele>460</ele><time>2023-01-14T12:19:49Z</time><name>PT2219</name></trkpt>
<trkpt lat="52.999731" lon="-3.263653"><ele>460</ele><time>2023-01-14T12:19:52Z</time><name>PT2220</name></trkpt>
<trkpt lat="52.999704" lon="-3.263707"><ele>461</ele><time>2023-01-14T12:19:55Z</time><name>PT2221</name></trkpt>
<trkpt lat="52.999686" lon="-3.263748"><ele>461</ele><time>2023-01-14T12:19:58Z</time><name>PT2222</name></trkpt>
<trkpt lat="52.999673" lon="-3.263781"><ele>461</ele><time>2023-01-14T12:20:01Z</time><name>PT2223</name></trkpt>
<trkpt lat="52.999661" lon="-3.263816"><ele>461</ele><time>2023-01-14T12:20:05Z</time><name>PT2224</name></trkpt>
<trkpt lat="52.999660" lon="-3.263816"><ele>461</ele><time>2023-01-14T12:20:08Z</time><name>PT2225</name></trkpt>
<trkpt lat="52.999658" lon="-3.263823"><ele>462</ele><time>2023-01-14T12:20:11Z</time><name>PT2226</name></trkpt>
<trkpt lat="52.999640" lon="-3.263885"><ele>463</ele><time>2023-01-14T12:20:16Z</time><name>PT2227</name></trkpt>
<trkpt lat="52.999626" lon="-3.263933"><ele>463</ele><time>2023-01-14T12:20:19Z</time><name>PT2228</name></trkpt>
<trkpt lat="52.999610" lon="-3.263983"><ele>463</ele><time>2023-01-14T12:20:22Z</time><name>PT2229</name></trkpt>
<trkpt lat="52.999594" lon="-3.264017"><ele>463</ele><time>2023-01-14T12:20:25Z</time><name>PT2230</name></trkpt>
<trkpt lat="52.999575" lon="-3.264042"><ele>462</ele><time>2023-01-14T12:20:28Z</time><name>PT2231</name></trkpt>
<trkpt lat="52.999550" lon="-3.264038"><ele>461</ele><time>2023-01-14T12:20:32Z</time><name>PT2232</name></trkpt>
<trkpt lat="52.999528" lon="-3.264032"><ele>460</ele><time>2023-01-14T12:20:35Z</time><name>PT2233</name></trkpt>
<trkpt lat="52.999498" lon="-3.264027"><ele>459</ele><time>2023-01-14T12:20:38Z</time><name>PT2234</name></trkpt>
<trkpt lat="52.999447" lon="-3.263998"><ele>459</ele><time>2023-01-14T12:20:43Z</time><name>PT2235</name></trkpt>
<trkpt lat="52.999416" lon="-3.263985"><ele>458</ele><time>2023-01-14T12:20:46Z</time><name>PT2236</name></trkpt>
<trkpt lat="52.999368" lon="-3.263966"><ele>458</ele><time>2023-01-14T12:20:49Z</time><name>PT2237</name></trkpt>
<trkpt lat="52.999323" lon="-3.263961"><ele>458</ele><time>2023-01-14T12:20:53Z</time><name>PT2238</name></trkpt>
<trkpt lat="52.999280" lon="-3.263966"><ele>458</ele><time>2023-01-14T12:20:58Z</time><name>PT2239</name></trkpt>
<trkpt lat="52.999252" lon="-3.263970"><ele>458</ele><time>2023-01-14T12:21:01Z</time><name>PT2240</name></trkpt>
<trkpt lat="52.999211" lon="-3.264011"><ele>457</ele><time>2023-01-14T12:21:04Z</time><name>PT2241</name></trkpt>
<trkpt lat="52.999193" lon="-3.264023"><ele>458</ele><time>2023-01-14T12:21:08Z</time><name>PT2242</name></trkpt>
<trkpt lat="52.999183" lon="-3.264034"><ele>458</ele><time>2023-01-14T12:21:11Z</time><name>PT2243</name></trkpt>
<trkpt lat="52.999178" lon="-3.264036"><ele>458</ele><time>2023-01-14T12:21:14Z</time><name>PT2244</name></trkpt>
<trkpt lat="52.999176" lon="-3.264035"><ele>458</ele><time>2023-01-14T12:21:19Z</time><name>PT2245</name></trkpt>
<trkpt lat="52.999177" lon="-3.264034"><ele>458</ele><time>2023-01-14T12:21:22Z</time><name>PT2246</name></trkpt>
<trkpt lat="52.999177" lon="-3.264033"><ele>458</ele><time>2023-01-14T12:21:26Z</time><name>PT2247</name></trkpt>
<trkpt lat="52.999156" lon="-3.264062"><ele>459</ele><time>2023-01-14T12:21:29Z</time><name>PT2248</name></trkpt>
<trkpt lat="52.999134" lon="-3.264095"><ele>459</ele><time>2023-01-14T12:21:32Z</time><name>PT2249</name></trkpt>
<trkpt lat="52.999101" lon="-3.264153"><ele>459</ele><time>2023-01-14T12:21:37Z</time><name>PT2250</name></trkpt>
<trkpt lat="52.999073" lon="-3.264201"><ele>458</ele><time>2023-01-14T12:21:40Z</time><name>PT2251</name></trkpt>
<trkpt lat="52.999039" lon="-3.264267"><ele>459</ele><time>2023-01-14T12:21:43Z</time><name>PT2252</name></trkpt>
<trkpt lat="52.999019" lon="-3.264323"><ele>459</ele><time>2023-01-14T12:21:47Z</time><name>PT2253</name></trkpt>
<trkpt lat="52.998998" lon="-3.264355"><ele>459</ele><time>2023-01-14T12:21:50Z</time><name>PT2254</name></trkpt>
<trkpt lat="52.998987" lon="-3.264393"><ele>459</ele><time>2023-01-14T12:21:53Z</time><name>PT2255</name></trkpt>
<trkpt lat="52.998961" lon="-3.264446"><ele>459</ele><time>2023-01-14T12:21:58Z</time><name>PT2256</name></trkpt>
<trkpt lat="52.998937" lon="-3.264489"><ele>460</ele><time>2023-01-14T12:22:01Z</time><name>PT2257</name></trkpt>
<trkpt lat="52.998913" lon="-3.264525"><ele>459</ele><time>2023-01-14T12:22:04Z</time><name>PT2258</name></trkpt>
<trkpt lat="52.998888" lon="-3.264569"><ele>459</ele><time>2023-01-14T12:22:07Z</time><name>PT2259</name></trkpt>
<trkpt lat="52.998863" lon="-3.264621"><ele>460</ele><time>2023-01-14T12:22:10Z</time><name>PT2260</name></trkpt>
<trkpt lat="52.998852" lon="-3.264655"><ele>460</ele><time>2023-01-14T12:22:13Z</time><name>PT2261</name></trkpt>
<trkpt lat="52.998829" lon="-3.264700"><ele>460</ele><time>2023-01-14T12:22:17Z</time><name>PT2262</name></trkpt>
<trkpt lat="52.998791" lon="-3.264742"><ele>459</ele><time>2023-01-14T12:22:22Z</time><name>PT2263</name></trkpt>
<trkpt lat="52.998753" lon="-3.264798"><ele>460</ele><time>2023-01-14T12:22:25Z</time><name>PT2264</name></trkpt>
<trkpt lat="52.998725" lon="-3.264848"><ele>461</ele><time>2023-01-14T12:22:29Z</time><name>PT2265</name></trkpt>
<trkpt lat="52.998702" lon="-3.264873"><ele>461</ele><time>2023-01-14T12:22:34Z</time><name>PT2266</name></trkpt>
<trkpt lat="52.998683" lon="-3.264907"><ele>461</ele><time>2023-01-14T12:22:37Z</time><name>PT2267</name></trkpt>
<trkpt lat="52.998664" lon="-3.264946"><ele>461</ele><time>2023-01-14T12:22:40Z</time><name>PT2268</name></trkpt>
<trkpt lat="52.998647" lon="-3.264983"><ele>461</ele><time>2023-01-14T12:22:43Z</time><name>PT2269</name></trkpt>
<trkpt lat="52.998628" lon="-3.265036"><ele>460</ele><time>2023-01-14T12:22:46Z</time><name>PT2270</name></trkpt>
<trkpt lat="52.998600" lon="-3.265084"><ele>460</ele><time>2023-01-14T12:22:50Z</time><name>PT2271</name></trkpt>
<trkpt lat="52.998575" lon="-3.265130"><ele>459</ele><time>2023-01-14T12:22:55Z</time><name>PT2272</name></trkpt>
<trkpt lat="52.998561" lon="-3.265206"><ele>459</ele><time>2023-01-14T12:22:58Z</time><name>PT2273</name></trkpt>
<trkpt lat="52.998547" lon="-3.265259"><ele>460</ele><time>2023-01-14T12:23:01Z</time><name>PT2274</name></trkpt>
<trkpt lat="52.998533" lon="-3.265307"><ele>460</ele><time>2023-01-14T12:23:05Z</time><name>PT2275</name></trkpt>
<trkpt lat="52.998522" lon="-3.265341"><ele>460</ele><time>2023-01-14T12:23:08Z</time><name>PT2276</name></trkpt>
<trkpt lat="52.998511" lon="-3.265392"><ele>461</ele><time>2023-01-14T12:23:13Z</time><name>PT2277</name></trkpt>
<trkpt lat="52.998509" lon="-3.265418"><ele>461</ele><time>2023-01-14T12:23:16Z</time><name>PT2278</name></trkpt>
<trkpt lat="52.998504" lon="-3.265447"><ele>461</ele><time>2023-01-14T12:23:19Z</time><name>PT2279</name></trkpt>
<trkpt lat="52.998496" lon="-3.265460"><ele>462</ele><time>2023-01-14T12:23:23Z</time><name>PT2280</name></trkpt>
<trkpt lat="52.998493" lon="-3.265482"><ele>463</ele><time>2023-01-14T12:23:26Z</time><name>PT2281</name></trkpt>
<trkpt lat="52.998484" lon="-3.265528"><ele>463</ele><time>2023-01-14T12:23:29Z</time><name>PT2282</name></trkpt>
<trkpt lat="52.998469" lon="-3.265575"><ele>463</ele><time>2023-01-14T12:23:32Z</time><name>PT2283</name></trkpt>
<trkpt lat="52.998449" lon="-3.265644"><ele>463</ele><time>2023-01-14T12:23:37Z</time><name>PT2284</name></trkpt>
<trkpt lat="52.998435" lon="-3.265723"><ele>464</ele><time>2023-01-14T12:23:40Z</time><name>PT2285</name></trkpt>
<trkpt lat="52.998422" lon="-3.265799"><ele>464</ele><time>2023-01-14T12:23:44Z</time><name>PT2286</name></trkpt>
<trkpt lat="52.998422" lon="-3.265860"><ele>465</ele><time>2023-01-14T12:23:49Z</time><name>PT2287</name></trkpt>
<trkpt lat="52.998414" lon="-3.265939"><ele>465</ele><time>2023-01-14T12:23:52Z</time><name>PT2288</name></trkpt>
<trkpt lat="52.998402" lon="-3.265996"><ele>464</ele><time>2023-01-14T12:23:55Z</time><name>PT2289</name></trkpt>
<trkpt lat="52.998403" lon="-3.266059"><ele>465</ele><time>2023-01-14T12:23:58Z</time><name>PT2290</name></trkpt>
<trkpt lat="52.998429" lon="-3.266126"><ele>465</ele><time>2023-01-14T12:24:02Z</time><name>PT2291</name></trkpt>
<trkpt lat="52.998445" lon="-3.266181"><ele>465</ele><time>2023-01-14T12:24:05Z</time><name>PT2292</name></trkpt>
<trkpt lat="52.998461" lon="-3.266240"><ele>465</ele><time>2023-01-14T12:24:08Z</time><name>PT2293</name></trkpt>
<trkpt lat="52.998472" lon="-3.266316"><ele>465</ele><time>2023-01-14T12:24:13Z</time><name>PT2294</name></trkpt>
<trkpt lat="52.998478" lon="-3.266376"><ele>466</ele><time>2023-01-14T12:24:16Z</time><name>PT2295</name></trkpt>
<trkpt lat="52.998489" lon="-3.266425"><ele>466</ele><time>2023-01-14T12:24:19Z</time><name>PT2296</name></trkpt>
<trkpt lat="52.998490" lon="-3.266494"><ele>465</ele><time>2023-01-14T12:24:22Z</time><name>PT2297</name></trkpt>
<trkpt lat="52.998494" lon="-3.266547"><ele>464</ele><time>2023-01-14T12:24:25Z</time><name>PT2298</name></trkpt>
<trkpt lat="52.998497" lon="-3.266614"><ele>466</ele><time>2023-01-14T12:24:28Z</time><name>PT2299</name></trkpt>
<trkpt lat="52.998495" lon="-3.266699"><ele>466</ele><time>2023-01-14T12:24:32Z</time><name>PT2300</name></trkpt>
<trkpt lat="52.998482" lon="-3.266781"><ele>466</ele><time>2023-01-14T12:24:37Z</time><name>PT2301</name></trkpt>
<trkpt lat="52.998466" lon="-3.266853"><ele>464</ele><time>2023-01-14T12:24:40Z</time><name>PT2302</name></trkpt>
<trkpt lat="52.998445" lon="-3.266915"><ele>464</ele><time>2023-01-14T12:24:43Z</time><name>PT2303</name></trkpt>
<trkpt lat="52.998424" lon="-3.266970"><ele>465</ele><time>2023-01-14T12:24:46Z</time><name>PT2304</name></trkpt>
<trkpt lat="52.998402" lon="-3.267007"><ele>464</ele><time>2023-01-14T12:24:49Z</time><name>PT2305</name></trkpt>
<trkpt lat="52.998375" lon="-3.267064"><ele>464</ele><time>2023-01-14T12:24:53Z</time><name>PT2306</name></trkpt>
<trkpt lat="52.998347" lon="-3.267123"><ele>463</ele><time>2023-01-14T12:24:58Z</time><name>PT2307</name></trkpt>
<trkpt lat="52.998330" lon="-3.267166"><ele>463</ele><time>2023-01-14T12:25:01Z</time><name>PT2308</name></trkpt>
<trkpt lat="52.998314" lon="-3.267202"><ele>462</ele><time>2023-01-14T12:25:04Z</time><name>PT2309</name></trkpt>
<trkpt lat="52.998294" lon="-3.267231"><ele>463</ele><time>2023-01-14T12:25:07Z</time><name>PT2310</name></trkpt>
<trkpt lat="52.998279" lon="-3.267259"><ele>462</ele><time>2023-01-14T12:25:10Z</time><name>PT2311</name></trkpt>
<trkpt lat="52.998255" lon="-3.267300"><ele>462</ele><time>2023-01-14T12:25:13Z</time><name>PT2312</name></trkpt>
<trkpt lat="52.998227" lon="-3.267342"><ele>460</ele><time>2023-01-14T12:25:17Z</time><name>PT2313</name></trkpt>
<trkpt lat="52.998195" lon="-3.267365"><ele>459</ele><time>2023-01-14T12:25:22Z</time><name>PT2314</name></trkpt>
<trkpt lat="52.998171" lon="-3.267382"><ele>459</ele><time>2023-01-14T12:25:25Z</time><name>PT2315</name></trkpt>
<trkpt lat="52.998150" lon="-3.267403"><ele>457</ele><time>2023-01-14T12:25:28Z</time><name>PT2316</name></trkpt>
<trkpt lat="52.998122" lon="-3.267434"><ele>456</ele><time>2023-01-14T12:25:31Z</time><name>PT2317</name></trkpt>
<trkpt lat="52.998106" lon="-3.267447"><ele>455</ele><time>2023-01-14T12:25:34Z</time><name>PT2318</name></trkpt>
<trkpt lat="52.998086" lon="-3.267455"><ele>455</ele><time>2023-01-14T12:25:37Z</time><name>PT2319</name></trkpt>
<trkpt lat="52.998058" lon="-3.267474"><ele>454</ele><time>2023-01-14T12:25:41Z</time><name>PT2320</name></trkpt>
<trkpt lat="52.998032" lon="-3.267502"><ele>452</ele><time>2023-01-14T12:25:46Z</time><name>PT2321</name></trkpt>
<trkpt lat="52.998013" lon="-3.267525"><ele>451</ele><time>2023-01-14T12:25:49Z</time><name>PT2322</name></trkpt>
<trkpt lat="52.997992" lon="-3.267545"><ele>450</ele><time>2023-01-14T12:25:52Z</time><name>PT2323</name></trkpt>
<trkpt lat="52.997964" lon="-3.267574"><ele>449</ele><time>2023-01-14T12:25:55Z</time><name>PT2324</name></trkpt>
<trkpt lat="52.997939" lon="-3.267601"><ele>448</ele><time>2023-01-14T12:25:58Z</time><name>PT2325</name></trkpt>
<trkpt lat="52.997912" lon="-3.267628"><ele>447</ele><time>2023-01-14T12:26:01Z</time><name>PT2326</name></trkpt>
<trkpt lat="52.997881" lon="-3.267662"><ele>447</ele><time>2023-01-14T12:26:05Z</time><name>PT2327</name></trkpt>
<trkpt lat="52.997858" lon="-3.267692"><ele>446</ele><time>2023-01-14T12:26:08Z</time><name>PT2328</name></trkpt>
<trkpt lat="52.997828" lon="-3.267742"><ele>446</ele><time>2023-01-14T12:26:13Z</time><name>PT2329</name></trkpt>
<trkpt lat="52.997807" lon="-3.267761"><ele>445</ele><time>2023-01-14T12:26:16Z</time><name>PT2330</name></trkpt>
<trkpt lat="52.997779" lon="-3.267795"><ele>445</ele><time>2023-01-14T12:26:19Z</time><name>PT2331</name></trkpt>
<trkpt lat="52.997761" lon="-3.267815"><ele>445</ele><time>2023-01-14T12:26:22Z</time><name>PT2332</name></trkpt>
<trkpt lat="52.997730" lon="-3.267834"><ele>443</ele><time>2023-01-14T12:26:26Z</time><name>PT2333</name></trkpt>
<trkpt lat="52.997713" lon="-3.267852"><ele>442</ele><time>2023-01-14T12:26:29Z</time><name>PT2334</name></trkpt>
<trkpt lat="52.997695" lon="-3.267870"><ele>441</ele><time>2023-01-14T12:26:32Z</time><name>PT2335</name></trkpt>
<trkpt lat="52.997670" lon="-3.267902"><ele>440</ele><time>2023-01-14T12:26:37Z</time><name>PT2336</name></trkpt>
<trkpt lat="52.997648" lon="-3.267936"><ele>439</ele><time>2023-01-14T12:26:40Z</time><name>PT2337</name></trkpt>
<trkpt lat="52.997639" lon="-3.267937"><ele>440</ele><time>2023-01-14T12:26:43Z</time><name>PT2338</name></trkpt>
<trkpt lat="52.997638" lon="-3.267943"><ele>440</ele><time>2023-01-14T12:26:47Z</time><name>PT2339</name></trkpt>
<trkpt lat="52.997627" lon="-3.267974"><ele>438</ele><time>2023-01-14T12:26:50Z</time><name>PT2340</name></trkpt>
<trkpt lat="52.997616" lon="-3.267995"><ele>436</ele><time>2023-01-14T12:26:53Z</time><name>PT2341</name></trkpt>
<trkpt lat="52.997598" lon="-3.268047"><ele>434</ele><time>2023-01-14T12:26:58Z</time><name>PT2342</name></trkpt>
<trkpt lat="52.997579" lon="-3.268073"><ele>434</ele><time>2023-01-14T12:27:01Z</time><name>PT2343</name></trkpt>
<trkpt lat="52.997535" lon="-3.268090"><ele>434</ele><time>2023-01-14T12:27:04Z</time><name>PT2344</name></trkpt>
<trkpt lat="52.997503" lon="-3.268111"><ele>432</ele><time>2023-01-14T12:27:08Z</time><name>PT2345</name></trkpt>
<trkpt lat="52.997474" lon="-3.268147"><ele>431</ele><time>2023-01-14T12:27:13Z</time><name>PT2346</name></trkpt>
<trkpt lat="52.997455" lon="-3.268167"><ele>430</ele><time>2023-01-14T12:27:16Z</time><name>PT2347</name></trkpt>
<trkpt lat="52.997433" lon="-3.268230"><ele>431</ele><time>2023-01-14T12:27:19Z</time><name>PT2348</name></trkpt>
<trkpt lat="52.997405" lon="-3.268286"><ele>430</ele><time>2023-01-14T12:27:23Z</time><name>PT2349</name></trkpt>
<trkpt lat="52.997386" lon="-3.268325"><ele>430</ele><time>2023-01-14T12:27:26Z</time><name>PT2350</name></trkpt>
<trkpt lat="52.997363" lon="-3.268359"><ele>430</ele><time>2023-01-14T12:27:29Z</time><name>PT2351</name></trkpt>
<trkpt lat="52.997342" lon="-3.268391"><ele>430</ele><time>2023-01-14T12:27:32Z</time><name>PT2352</name></trkpt>
<trkpt lat="52.997317" lon="-3.268435"><ele>429</ele><time>2023-01-14T12:27:37Z</time><name>PT2353</name></trkpt>
<trkpt lat="52.997297" lon="-3.268485"><ele>429</ele><time>2023-01-14T12:27:40Z</time><name>PT2354</name></trkpt>
<trkpt lat="52.997274" lon="-3.268521"><ele>429</ele><time>2023-01-14T12:27:43Z</time><name>PT2355</name></trkpt>
<trkpt lat="52.997240" lon="-3.268570"><ele>428</ele><time>2023-01-14T12:27:47Z</time><name>PT2356</name></trkpt>
<trkpt lat="52.997216" lon="-3.268606"><ele>427</ele><time>2023-01-14T12:27:50Z</time><name>PT2357</name></trkpt>
<trkpt lat="52.997182" lon="-3.268655"><ele>427</ele><time>2023-01-14T12:27:55Z</time><name>PT2358</name></trkpt>
<trkpt lat="52.997164" lon="-3.268680"><ele>426</ele><time>2023-01-14T12:27:58Z</time><name>PT2359</name></trkpt>
<trkpt lat="52.997133" lon="-3.268728"><ele>425</ele><time>2023-01-14T12:28:01Z</time><name>PT2360</name></trkpt>
<trkpt lat="52.997106" lon="-3.268772"><ele>423</ele><time>2023-01-14T12:28:05Z</time><name>PT2361</name></trkpt>
<trkpt lat="52.997086" lon="-3.268808"><ele>422</ele><time>2023-01-14T12:28:08Z</time><name>PT2362</name></trkpt>
<trkpt lat="52.997071" lon="-3.268841"><ele>422</ele><time>2023-01-14T12:28:11Z</time><name>PT2363</name></trkpt>
<trkpt lat="52.997050" lon="-3.268899"><ele>422</ele><time>2023-01-14T12:28:16Z</time><name>PT2364</name></trkpt>
<trkpt lat="52.997024" lon="-3.268930"><ele>422</ele><time>2023-01-14T12:28:19Z</time><name>PT2365</name></trkpt>
<trkpt lat="52.997000" lon="-3.268973"><ele>422</ele><time>2023-01-14T12:28:22Z</time><name>PT2366</name></trkpt>
<trkpt lat="52.996975" lon="-3.269012"><ele>420</ele><time>2023-01-14T12:28:25Z</time><name>PT2367</name></trkpt>
<trkpt lat="52.996954" lon="-3.269044"><ele>419</ele><time>2023-01-14T12:28:28Z</time><name>PT2368</name></trkpt>
<trkpt lat="52.996940" lon="-3.269067"><ele>418</ele><time>2023-01-14T12:28:31Z</time><name>PT2369</name></trkpt>
<trkpt lat="52.996919" lon="-3.269105"><ele>418</ele><time>2023-01-14T12:28:34Z</time><name>PT2370</name></trkpt>
<trkpt lat="52.996906" lon="-3.269137"><ele>417</ele><time>2023-01-14T12:28:37Z</time><name>PT2371</name></trkpt>
<trkpt lat="52.996887" lon="-3.269167"><ele>417</ele><time>2023-01-14T12:28:40Z</time><name>PT2372</name></trkpt>
<trkpt lat="52.996854" lon="-3.269217"><ele>416</ele><time>2023-01-14T12:28:44Z</time><name>PT2373</name></trkpt>
<trkpt lat="52.996832" lon="-3.269258"><ele>415</ele><time>2023-01-14T12:28:47Z</time><name>PT2374</name></trkpt>
<trkpt lat="52.996810" lon="-3.269299"><ele>414</ele><time>2023-01-14T12:28:50Z</time><name>PT2375</name></trkpt>
<trkpt lat="52.996796" lon="-3.269351"><ele>412</ele><time>2023-01-14T12:28:55Z</time><name>PT2376</name></trkpt>
<trkpt lat="52.996802" lon="-3.269383"><ele>411</ele><time>2023-01-14T12:28:58Z</time><name>PT2377</name></trkpt>
<trkpt lat="52.996802" lon="-3.269432"><ele>410</ele><time>2023-01-14T12:29:01Z</time><name>PT2378</name></trkpt>
<trkpt lat="52.996817" lon="-3.269464"><ele>408</ele><time>2023-01-14T12:29:04Z</time><name>PT2379</name></trkpt>
<trkpt lat="52.996842" lon="-3.269474"><ele>408</ele><time>2023-01-14T12:29:07Z</time><name>PT2380</name></trkpt>
<trkpt lat="52.996872" lon="-3.269489"><ele>408</ele><time>2023-01-14T12:29:10Z</time><name>PT2381</name></trkpt>
<trkpt lat="52.996898" lon="-3.269520"><ele>409</ele><time>2023-01-14T12:29:14Z</time><name>PT2382</name></trkpt>
<trkpt lat="52.996912" lon="-3.269538"><ele>410</ele><time>2023-01-14T12:29:19Z</time><name>PT2383</name></trkpt>
<trkpt lat="52.996914" lon="-3.269531"><ele>411</ele><time>2023-01-14T12:29:22Z</time><name>PT2384</name></trkpt>
<trkpt lat="52.996916" lon="-3.269513"><ele>416</ele><time>2023-01-14T12:29:25Z</time><name>PT2385</name></trkpt>
<trkpt lat="52.996928" lon="-3.269567"><ele>412</ele><time>2023-01-14T12:29:29Z</time><name>PT2386</name></trkpt>
<trkpt lat="52.996924" lon="-3.269565"><ele>412</ele><time>2023-01-14T12:29:32Z</time><name>PT2387</name></trkpt>
<trkpt lat="52.996910" lon="-3.269558"><ele>412</ele><time>2023-01-14T12:29:35Z</time><name>PT2388</name></trkpt>
<trkpt lat="52.996886" lon="-3.269544"><ele>411</ele><time>2023-01-14T12:29:38Z</time><name>PT2389</name></trkpt>
<trkpt lat="52.996860" lon="-3.269521"><ele>411</ele><time>2023-01-14T12:29:43Z</time><name>PT2390</name></trkpt>
<trkpt lat="52.996854" lon="-3.269520"><ele>410</ele><time>2023-01-14T12:29:46Z</time><name>PT2391</name></trkpt>
<trkpt lat="52.996874" lon="-3.269540"><ele>409</ele><time>2023-01-14T12:29:50Z</time><name>PT2392</name></trkpt>
<trkpt lat="52.996894" lon="-3.269550"><ele>409</ele><time>2023-01-14T12:29:53Z</time><name>PT2393</name></trkpt>
<trkpt lat="52.996921" lon="-3.269574"><ele>410</ele><time>2023-01-14T12:29:56Z</time><name>PT2394</name></trkpt>
<trkpt lat="52.996925" lon="-3.269589"><ele>409</ele><time>2023-01-14T12:30:01Z</time><name>PT2395</name></trkpt>
<trkpt lat="52.996925" lon="-3.269583"><ele>409</ele><time>2023-01-14T12:30:40Z</time><name>PT2396</name></trkpt>
<trkpt lat="52.996926" lon="-3.269584"><ele>410</ele><time>2023-01-14T12:30:43Z</time><name>PT2397</name></trkpt>
<trkpt lat="52.996958" lon="-3.269569"><ele>411</ele><time>2023-01-14T12:30:50Z</time><name>PT2398</name></trkpt>
<trkpt lat="52.996989" lon="-3.269573"><ele>411</ele><time>2023-01-14T12:30:53Z</time><name>PT2399</name></trkpt>
<trkpt lat="52.997019" lon="-3.269587"><ele>410</ele><time>2023-01-14T12:30:56Z</time><name>PT2400</name></trkpt>
<trkpt lat="52.997058" lon="-3.269606"><ele>411</ele><time>2023-01-14T12:30:59Z</time><name>PT2401</name></trkpt>
<trkpt lat="52.997155" lon="-3.269695"><ele>415</ele><time>2023-01-14T12:31:04Z</time><name>PT2402</name></trkpt>
<trkpt lat="52.997171" lon="-3.269736"><ele>412</ele><time>2023-01-14T12:31:07Z</time><name>PT2403</name></trkpt>
<trkpt lat="52.997207" lon="-3.269777"><ele>412</ele><time>2023-01-14T12:31:10Z</time><name>PT2404</name></trkpt>
<trkpt lat="52.997232" lon="-3.269812"><ele>412</ele><time>2023-01-14T12:31:14Z</time><name>PT2405</name></trkpt>
<trkpt lat="52.997260" lon="-3.269841"><ele>412</ele><time>2023-01-14T12:31:17Z</time><name>PT2406</name></trkpt>
<trkpt lat="52.997288" lon="-3.269871"><ele>412</ele><time>2023-01-14T12:31:22Z</time><name>PT2407</name></trkpt>
<trkpt lat="52.997299" lon="-3.269888"><ele>412</ele><time>2023-01-14T12:31:25Z</time><name>PT2408</name></trkpt>
<trkpt lat="52.997332" lon="-3.269938"><ele>412</ele><time>2023-01-14T12:31:28Z</time><name>PT2409</name></trkpt>
<trkpt lat="52.997373" lon="-3.269997"><ele>412</ele><time>2023-01-14T12:31:32Z</time><name>PT2410</name></trkpt>
<trkpt lat="52.997404" lon="-3.270041"><ele>412</ele><time>2023-01-14T12:31:35Z</time><name>PT2411</name></trkpt>
<trkpt lat="52.997443" lon="-3.270095"><ele>413</ele><time>2023-01-14T12:31:40Z</time><name>PT2412</name></trkpt>
<trkpt lat="52.997470" lon="-3.270133"><ele>413</ele><time>2023-01-14T12:31:43Z</time><name>PT2413</name></trkpt>
<trkpt lat="52.997495" lon="-3.270167"><ele>414</ele><time>2023-01-14T12:31:46Z</time><name>PT2414</name></trkpt>
<trkpt lat="52.997534" lon="-3.270211"><ele>414</ele><time>2023-01-14T12:31:49Z</time><name>PT2415</name></trkpt>
<trkpt lat="52.997578" lon="-3.270271"><ele>414</ele><time>2023-01-14T12:31:53Z</time><name>PT2416</name></trkpt>
<trkpt lat="52.997619" lon="-3.270329"><ele>413</ele><time>2023-01-14T12:31:58Z</time><name>PT2417</name></trkpt>
<trkpt lat="52.997659" lon="-3.270386"><ele>413</ele><time>2023-01-14T12:32:01Z</time><name>PT2418</name></trkpt>
<trkpt lat="52.997699" lon="-3.270447"><ele>412</ele><time>2023-01-14T12:32:05Z</time><name>PT2419</name></trkpt>
<trkpt lat="52.997738" lon="-3.270502"><ele>412</ele><time>2023-01-14T12:32:10Z</time><name>PT2420</name></trkpt>
<trkpt lat="52.997775" lon="-3.270561"><ele>412</ele><time>2023-01-14T12:32:13Z</time><name>PT2421</name></trkpt>
<trkpt lat="52.997814" lon="-3.270625"><ele>413</ele><time>2023-01-14T12:32:17Z</time><name>PT2422</name></trkpt>
<trkpt lat="52.997851" lon="-3.270688"><ele>412</ele><time>2023-01-14T12:32:22Z</time><name>PT2423</name></trkpt>
<trkpt lat="52.997882" lon="-3.270729"><ele>412</ele><time>2023-01-14T12:32:25Z</time><name>PT2424</name></trkpt>
<trkpt lat="52.997912" lon="-3.270768"><ele>412</ele><time>2023-01-14T12:32:28Z</time><name>PT2425</name></trkpt>
<trkpt lat="52.997948" lon="-3.270819"><ele>412</ele><time>2023-01-14T12:32:31Z</time><name>PT2426</name></trkpt>
<trkpt lat="52.997979" lon="-3.270855"><ele>412</ele><time>2023-01-14T12:32:34Z</time><name>PT2427</name></trkpt>
<trkpt lat="52.998011" lon="-3.270892"><ele>411</ele><time>2023-01-14T12:32:37Z</time><name>PT2428</name></trkpt>
<trkpt lat="52.998041" lon="-3.270933"><ele>412</ele><time>2023-01-14T12:32:40Z</time><name>PT2429</name></trkpt>
<trkpt lat="52.998072" lon="-3.270973"><ele>412</ele><time>2023-01-14T12:32:43Z</time><name>PT2430</name></trkpt>
<trkpt lat="52.998105" lon="-3.271006"><ele>412</ele><time>2023-01-14T12:32:46Z</time><name>PT2431</name></trkpt>
<trkpt lat="52.998146" lon="-3.271055"><ele>412</ele><time>2023-01-14T12:32:50Z</time><name>PT2432</name></trkpt>
<trkpt lat="52.998189" lon="-3.271103"><ele>412</ele><time>2023-01-14T12:32:55Z</time><name>PT2433</name></trkpt>
<trkpt lat="52.998229" lon="-3.271150"><ele>411</ele><time>2023-01-14T12:32:58Z</time><name>PT2434</name></trkpt>
<trkpt lat="52.998276" lon="-3.271186"><ele>415</ele><time>2023-01-14T12:33:02Z</time><name>PT2435</name></trkpt>
<trkpt lat="52.998320" lon="-3.271230"><ele>416</ele><time>2023-01-14T12:33:07Z</time><name>PT2436</name></trkpt>
<trkpt lat="52.998367" lon="-3.271266"><ele>416</ele><time>2023-01-14T12:33:10Z</time><name>PT2437</name></trkpt>
<trkpt lat="52.998401" lon="-3.271293"><ele>416</ele><time>2023-01-14T12:33:13Z</time><name>PT2438</name></trkpt>
<trkpt lat="52.998449" lon="-3.271326"><ele>416</ele><time>2023-01-14T12:33:17Z</time><name>PT2439</name></trkpt>
<trkpt lat="52.998493" lon="-3.271364"><ele>416</ele><time>2023-01-14T12:33:22Z</time><name>PT2440</name></trkpt>
<trkpt lat="52.998544" lon="-3.271403"><ele>416</ele><time>2023-01-14T12:33:25Z</time><name>PT2441</name></trkpt>
<trkpt lat="52.998584" lon="-3.271425"><ele>416</ele><time>2023-01-14T12:33:28Z</time><name>PT2442</name></trkpt>
<trkpt lat="52.998633" lon="-3.271460"><ele>416</ele><time>2023-01-14T12:33:32Z</time><name>PT2443</name></trkpt>
<trkpt lat="52.998688" lon="-3.271500"><ele>417</ele><time>2023-01-14T12:33:37Z</time><name>PT2444</name></trkpt>
<trkpt lat="52.998732" lon="-3.271521"><ele>416</ele><time>2023-01-14T12:33:40Z</time><name>PT2445</name></trkpt>
<trkpt lat="52.998767" lon="-3.271545"><ele>415</ele><time>2023-01-14T12:33:43Z</time><name>PT2446</name></trkpt>
<trkpt lat="52.998820" lon="-3.271573"><ele>417</ele><time>2023-01-14T12:33:47Z</time><name>PT2447</name></trkpt>
<trkpt lat="52.998855" lon="-3.271588"><ele>415</ele><time>2023-01-14T12:33:50Z</time><name>PT2448</name></trkpt>
<trkpt lat="52.998906" lon="-3.271612"><ele>415</ele><time>2023-01-14T12:33:55Z</time><name>PT2449</name></trkpt>
<trkpt lat="52.998943" lon="-3.271629"><ele>415</ele><time>2023-01-14T12:33:58Z</time><name>PT2450</name></trkpt>
<trkpt lat="52.998984" lon="-3.271639"><ele>415</ele><time>2023-01-14T12:34:01Z</time><name>PT2451</name></trkpt>
<trkpt lat="52.999023" lon="-3.271644"><ele>415</ele><time>2023-01-14T12:34:04Z</time><name>PT2452</name></trkpt>
<trkpt lat="52.999076" lon="-3.271643"><ele>416</ele><time>2023-01-14T12:34:07Z</time><name>PT2453</name></trkpt>
<trkpt lat="52.999116" lon="-3.271645"><ele>416</ele><time>2023-01-14T12:34:10Z</time><name>PT2454</name></trkpt>
<trkpt lat="52.999165" lon="-3.271654"><ele>415</ele><time>2023-01-14T12:34:14Z</time><name>PT2455</name></trkpt>
<trkpt lat="52.999197" lon="-3.271651"><ele>415</ele><time>2023-01-14T12:34:17Z</time><name>PT2456</name></trkpt>
<trkpt lat="52.999235" lon="-3.271671"><ele>414</ele><time>2023-01-14T12:34:22Z</time><name>PT2457</name></trkpt>
<trkpt lat="52.999249" lon="-3.271690"><ele>412</ele><time>2023-01-14T12:34:25Z</time><name>PT2458</name></trkpt>
<trkpt lat="52.999264" lon="-3.271697"><ele>414</ele><time>2023-01-14T12:34:28Z</time><name>PT2459</name></trkpt>
<trkpt lat="52.999276" lon="-3.271706"><ele>414</ele><time>2023-01-14T12:34:31Z</time><name>PT2460</name></trkpt>
<trkpt lat="52.999287" lon="-3.271751"><ele>414</ele><time>2023-01-14T12:34:35Z</time><name>PT2461</name></trkpt>
<trkpt lat="52.999300" lon="-3.271781"><ele>414</ele><time>2023-01-14T12:34:40Z</time><name>PT2462</name></trkpt>
<trkpt lat="52.999325" lon="-3.271828"><ele>413</ele><time>2023-01-14T12:34:43Z</time><name>PT2463</name></trkpt>
<trkpt lat="52.999348" lon="-3.271871"><ele>413</ele><time>2023-01-14T12:34:46Z</time><name>PT2464</name></trkpt>
<trkpt lat="52.999376" lon="-3.271930"><ele>413</ele><time>2023-01-14T12:34:49Z</time><name>PT2465</name></trkpt>
<trkpt lat="52.999403" lon="-3.271989"><ele>412</ele><time>2023-01-14T12:34:53Z</time><name>PT2466</name></trkpt>
<trkpt lat="52.999412" lon="-3.272063"><ele>412</ele><time>2023-01-14T12:34:58Z</time><name>PT2467</name></trkpt>
<trkpt lat="52.999426" lon="-3.272141"><ele>415</ele><time>2023-01-14T12:35:01Z</time><name>PT2468</name></trkpt>
<trkpt lat="52.999434" lon="-3.272214"><ele>415</ele><time>2023-01-14T12:35:05Z</time><name>PT2469</name></trkpt>
<trkpt lat="52.999443" lon="-3.272276"><ele>415</ele><time>2023-01-14T12:35:10Z</time><name>PT2470</name></trkpt>
<trkpt lat="52.999447" lon="-3.272359"><ele>415</ele><time>2023-01-14T12:35:13Z</time><name>PT2471</name></trkpt>
<trkpt lat="52.999453" lon="-3.272419"><ele>415</ele><time>2023-01-14T12:35:16Z</time><name>PT2472</name></trkpt>
<trkpt lat="52.999459" lon="-3.272501"><ele>415</ele><time>2023-01-14T12:35:20Z</time><name>PT2473</name></trkpt>
<trkpt lat="52.999468" lon="-3.272587"><ele>413</ele><time>2023-01-14T12:35:25Z</time><name>PT2474</name></trkpt>
<trkpt lat="52.999466" lon="-3.272658"><ele>414</ele><time>2023-01-14T12:35:28Z</time><name>PT2475</name></trkpt>
<trkpt lat="52.999465" lon="-3.272737"><ele>414</ele><time>2023-01-14T12:35:31Z</time><name>PT2476</name></trkpt>
<trkpt lat="52.999458" lon="-3.272790"><ele>413</ele><time>2023-01-14T12:35:34Z</time><name>PT2477</name></trkpt>
<trkpt lat="52.999436" lon="-3.272853"><ele>412</ele><time>2023-01-14T12:35:37Z</time><name>PT2478</name></trkpt>
<trkpt lat="52.999409" lon="-3.272929"><ele>411</ele><time>2023-01-14T12:35:41Z</time><name>PT2479</name></trkpt>
<trkpt lat="52.999380" lon="-3.272998"><ele>410</ele><time>2023-01-14T12:35:46Z</time><name>PT2480</name></trkpt>
<trkpt lat="52.999361" lon="-3.273050"><ele>409</ele><time>2023-01-14T12:35:49Z</time><name>PT2481</name></trkpt>
<trkpt lat="52.999342" lon="-3.273116"><ele>408</ele><time>2023-01-14T12:35:52Z</time><name>PT2482</name></trkpt>
<trkpt lat="52.999332" lon="-3.273173"><ele>408</ele><time>2023-01-14T12:35:55Z</time><name>PT2483</name></trkpt>
<trkpt lat="52.999314" lon="-3.273221"><ele>407</ele><time>2023-01-14T12:35:59Z</time><name>PT2484</name></trkpt>
<trkpt lat="52.999294" lon="-3.273247"><ele>406</ele><time>2023-01-14T12:36:03Z</time><name>PT2485</name></trkpt>
<trkpt lat="52.999291" lon="-3.273268"><ele>407</ele><time>2023-01-14T12:36:07Z</time><name>PT2486</name></trkpt>
<trkpt lat="52.999290" lon="-3.273270"><ele>407</ele><time>2023-01-14T12:36:10Z</time><name>PT2487</name></trkpt>
<trkpt lat="52.999291" lon="-3.273268"><ele>407</ele><time>2023-01-14T12:36:13Z</time><name>PT2488</name></trkpt>
<trkpt lat="52.999281" lon="-3.273267"><ele>407</ele><time>2023-01-14T12:36:25Z</time><name>PT2489</name></trkpt>
<trkpt lat="52.999280" lon="-3.273263"><ele>407</ele><time>2023-01-14T12:36:28Z</time><name>PT2490</name></trkpt>
<trkpt lat="52.999241" lon="-3.273251"><ele>406</ele><time>2023-01-14T12:36:32Z</time><name>PT2491</name></trkpt>
<trkpt lat="52.999198" lon="-3.273228"><ele>406</ele><time>2023-01-14T12:36:37Z</time><name>PT2492</name></trkpt>
<trkpt lat="52.999165" lon="-3.273208"><ele>405</ele><time>2023-01-14T12:36:40Z</time><name>PT2493</name></trkpt>
<trkpt lat="52.999133" lon="-3.273183"><ele>405</ele><time>2023-01-14T12:36:43Z</time><name>PT2494</name></trkpt>
<trkpt lat="52.999101" lon="-3.273155"><ele>405</ele><time>2023-01-14T12:36:46Z</time><name>PT2495</name></trkpt>
<trkpt lat="52.999063" lon="-3.273111"><ele>405</ele><time>2023-01-14T12:36:49Z</time><name>PT2496</name></trkpt>
<trkpt lat="52.999025" lon="-3.273058"><ele>405</ele><time>2023-01-14T12:36:53Z</time><name>PT2497</name></trkpt>
<trkpt lat="52.998985" lon="-3.273009"><ele>405</ele><time>2023-01-14T12:36:58Z</time><name>PT2498</name></trkpt>
<trkpt lat="52.998961" lon="-3.272973"><ele>404</ele><time>2023-01-14T12:37:01Z</time><name>PT2499</name></trkpt>
<trkpt lat="52.998924" lon="-3.272920"><ele>404</ele><time>2023-01-14T12:37:04Z</time><name>PT2500</name></trkpt>
<trkpt lat="52.998895" lon="-3.272887"><ele>404</ele><time>2023-01-14T12:37:07Z</time><name>PT2501</name></trkpt>
<trkpt lat="52.998857" lon="-3.272826"><ele>404</ele><time>2023-01-14T12:37:11Z</time><name>PT2502</name></trkpt>
<trkpt lat="52.998832" lon="-3.272784"><ele>405</ele><time>2023-01-14T12:37:14Z</time><name>PT2503</name></trkpt>
<trkpt lat="52.998811" lon="-3.272765"><ele>405</ele><time>2023-01-14T12:37:18Z</time><name>PT2504</name></trkpt>
<trkpt lat="52.998784" lon="-3.272732"><ele>404</ele><time>2023-01-14T12:37:21Z</time><name>PT2505</name></trkpt>
<trkpt lat="52.998757" lon="-3.272700"><ele>403</ele><time>2023-01-14T12:37:24Z</time><name>PT2506</name></trkpt>
<trkpt lat="52.998729" lon="-3.272676"><ele>402</ele><time>2023-01-14T12:37:27Z</time><name>PT2507</name></trkpt>
<trkpt lat="52.998687" lon="-3.272642"><ele>401</ele><time>2023-01-14T12:37:30Z</time><name>PT2508</name></trkpt>
<trkpt lat="52.998644" lon="-3.272602"><ele>401</ele><time>2023-01-14T12:37:34Z</time><name>PT2509</name></trkpt>
<trkpt lat="52.998608" lon="-3.272578"><ele>401</ele><time>2023-01-14T12:37:37Z</time><name>PT2510</name></trkpt>
<trkpt lat="52.998566" lon="-3.272558"><ele>400</ele><time>2023-01-14T12:37:42Z</time><name>PT2511</name></trkpt>
<trkpt lat="52.998523" lon="-3.272538"><ele>400</ele><time>2023-01-14T12:37:45Z</time><name>PT2512</name></trkpt>
<trkpt lat="52.998484" lon="-3.272526"><ele>399</ele><time>2023-01-14T12:37:49Z</time><name>PT2513</name></trkpt>
<trkpt lat="52.998450" lon="-3.272525"><ele>399</ele><time>2023-01-14T12:37:52Z</time><name>PT2514</name></trkpt>
<trkpt lat="52.998418" lon="-3.272520"><ele>398</ele><time>2023-01-14T12:37:55Z</time><name>PT2515</name></trkpt>
<trkpt lat="52.998385" lon="-3.272517"><ele>398</ele><time>2023-01-14T12:37:58Z</time><name>PT2516</name></trkpt>
<trkpt lat="52.998346" lon="-3.272523"><ele>396</ele><time>2023-01-14T12:38:03Z</time><name>PT2517</name></trkpt>
<trkpt lat="52.998304" lon="-3.272528"><ele>395</ele><time>2023-01-14T12:38:06Z</time><name>PT2518</name></trkpt>
<trkpt lat="52.998273" lon="-3.272538"><ele>394</ele><time>2023-01-14T12:38:09Z</time><name>PT2519</name></trkpt>
<trkpt lat="52.998216" lon="-3.272538"><ele>396</ele><time>2023-01-14T12:38:13Z</time><name>PT2520</name></trkpt>
<trkpt lat="52.998181" lon="-3.272541"><ele>395</ele><time>2023-01-14T12:38:16Z</time><name>PT2521</name></trkpt>
<trkpt lat="52.998130" lon="-3.272540"><ele>395</ele><time>2023-01-14T12:38:21Z</time><name>PT2522</name></trkpt>
<trkpt lat="52.998084" lon="-3.272540"><ele>395</ele><time>2023-01-14T12:38:24Z</time><name>PT2523</name></trkpt>
<trkpt lat="52.998041" lon="-3.272544"><ele>394</ele><time>2023-01-14T12:38:28Z</time><name>PT2524</name></trkpt>
<trkpt lat="52.998008" lon="-3.272553"><ele>394</ele><time>2023-01-14T12:38:31Z</time><name>PT2525</name></trkpt>
<trkpt lat="52.997963" lon="-3.272552"><ele>392</ele><time>2023-01-14T12:38:36Z</time><name>PT2526</name></trkpt>
<trkpt lat="52.997922" lon="-3.272550"><ele>392</ele><time>2023-01-14T12:38:39Z</time><name>PT2527</name></trkpt>
<trkpt lat="52.997892" lon="-3.272538"><ele>391</ele><time>2023-01-14T12:38:42Z</time><name>PT2528</name></trkpt>
<trkpt lat="52.997854" lon="-3.272511"><ele>390</ele><time>2023-01-14T12:38:46Z</time><name>PT2529</name></trkpt>
<trkpt lat="52.997830" lon="-3.272486"><ele>389</ele><time>2023-01-14T12:38:49Z</time><name>PT2530</name></trkpt>
<trkpt lat="52.997793" lon="-3.272443"><ele>388</ele><time>2023-01-14T12:38:54Z</time><name>PT2531</name></trkpt>
<trkpt lat="52.997757" lon="-3.272404"><ele>387</ele><time>2023-01-14T12:38:57Z</time><name>PT2532</name></trkpt>
<trkpt lat="52.997722" lon="-3.272356"><ele>386</ele><time>2023-01-14T12:39:01Z</time><name>PT2533</name></trkpt>
<trkpt lat="52.997698" lon="-3.272330"><ele>385</ele><time>2023-01-14T12:39:04Z</time><name>PT2534</name></trkpt>
<trkpt lat="52.997665" lon="-3.272294"><ele>384</ele><time>2023-01-14T12:39:09Z</time><name>PT2535</name></trkpt>
<trkpt lat="52.997634" lon="-3.272263"><ele>383</ele><time>2023-01-14T12:39:12Z</time><name>PT2536</name></trkpt>
<trkpt lat="52.997596" lon="-3.272240"><ele>381</ele><time>2023-01-14T12:39:16Z</time><name>PT2537</name></trkpt>
<trkpt lat="52.997561" lon="-3.272207"><ele>380</ele><time>2023-01-14T12:39:21Z</time><name>PT2538</name></trkpt>
<trkpt lat="52.997530" lon="-3.272165"><ele>379</ele><time>2023-01-14T12:39:24Z</time><name>PT2539</name></trkpt>
<trkpt lat="52.997498" lon="-3.272124"><ele>378</ele><time>2023-01-14T12:39:28Z</time><name>PT2540</name></trkpt>
<trkpt lat="52.997472" lon="-3.272091"><ele>376</ele><time>2023-01-14T12:39:31Z</time><name>PT2541</name></trkpt>
<trkpt lat="52.997442" lon="-3.272056"><ele>375</ele><time>2023-01-14T12:39:36Z</time><name>PT2542</name></trkpt>
<trkpt lat="52.997414" lon="-3.272033"><ele>374</ele><time>2023-01-14T12:39:39Z</time><name>PT2543</name></trkpt>
<trkpt lat="52.997389" lon="-3.271998"><ele>372</ele><time>2023-01-14T12:39:42Z</time><name>PT2544</name></trkpt>
<trkpt lat="52.997366" lon="-3.271972"><ele>371</ele><time>2023-01-14T12:39:45Z</time><name>PT2545</name></trkpt>
<trkpt lat="52.997340" lon="-3.271937"><ele>370</ele><time>2023-01-14T12:39:48Z</time><name>PT2546</name></trkpt>
<trkpt lat="52.997315" lon="-3.271905"><ele>369</ele><time>2023-01-14T12:39:51Z</time><name>PT2547</name></trkpt>
<trkpt lat="52.997281" lon="-3.271861"><ele>368</ele><time>2023-01-14T12:39:55Z</time><name>PT2548</name></trkpt>
<trkpt lat="52.997259" lon="-3.271829"><ele>367</ele><time>2023-01-14T12:39:58Z</time><name>PT2549</name></trkpt>
<trkpt lat="52.997231" lon="-3.271796"><ele>366</ele><time>2023-01-14T12:40:01Z</time><name>PT2550</name></trkpt>
<trkpt lat="52.997206" lon="-3.271768"><ele>365</ele><time>2023-01-14T12:40:04Z</time><name>PT2551</name></trkpt>
<trkpt lat="52.997175" lon="-3.271733"><ele>364</ele><time>2023-01-14T12:40:09Z</time><name>PT2552</name></trkpt>
<trkpt lat="52.997140" lon="-3.271694"><ele>363</ele><time>2023-01-14T12:40:12Z</time><name>PT2553</name></trkpt>
<trkpt lat="52.997101" lon="-3.271653"><ele>361</ele><time>2023-01-14T12:40:16Z</time><name>PT2554</name></trkpt>
<trkpt lat="52.997060" lon="-3.271615"><ele>360</ele><time>2023-01-14T12:40:21Z</time><name>PT2555</name></trkpt>
<trkpt lat="52.997031" lon="-3.271587"><ele>359</ele><time>2023-01-14T12:40:24Z</time><name>PT2556</name></trkpt>
<trkpt lat="52.996991" lon="-3.271551"><ele>359</ele><time>2023-01-14T12:40:27Z</time><name>PT2557</name></trkpt>
<trkpt lat="52.996955" lon="-3.271529"><ele>357</ele><time>2023-01-14T12:40:31Z</time><name>PT2558</name></trkpt>
<trkpt lat="52.996920" lon="-3.271504"><ele>356</ele><time>2023-01-14T12:40:36Z</time><name>PT2559</name></trkpt>
<trkpt lat="52.996891" lon="-3.271478"><ele>355</ele><time>2023-01-14T12:40:39Z</time><name>PT2560</name></trkpt>
<trkpt lat="52.996850" lon="-3.271450"><ele>354</ele><time>2023-01-14T12:40:42Z</time><name>PT2561</name></trkpt>
<trkpt lat="52.996811" lon="-3.271416"><ele>354</ele><time>2023-01-14T12:40:46Z</time><name>PT2562</name></trkpt>
<trkpt lat="52.996770" lon="-3.271395"><ele>353</ele><time>2023-01-14T12:40:51Z</time><name>PT2563</name></trkpt>
<trkpt lat="52.996726" lon="-3.271366"><ele>352</ele><time>2023-01-14T12:40:54Z</time><name>PT2564</name></trkpt>
<trkpt lat="52.996693" lon="-3.271334"><ele>351</ele><time>2023-01-14T12:40:58Z</time><name>PT2565</name></trkpt>
<trkpt lat="52.996658" lon="-3.271310"><ele>350</ele><time>2023-01-14T12:41:03Z</time><name>PT2566</name></trkpt>
<trkpt lat="52.996631" lon="-3.271312"><ele>350</ele><time>2023-01-14T12:41:06Z</time><name>PT2567</name></trkpt>
<trkpt lat="52.996600" lon="-3.271329"><ele>349</ele><time>2023-01-14T12:41:09Z</time><name>PT2568</name></trkpt>
<trkpt lat="52.996574" lon="-3.271352"><ele>349</ele><time>2023-01-14T12:41:12Z</time><name>PT2569</name></trkpt>
<trkpt lat="52.996545" lon="-3.271397"><ele>348</ele><time>2023-01-14T12:41:15Z</time><name>PT2570</name></trkpt>
<trkpt lat="52.996528" lon="-3.271441"><ele>347</ele><time>2023-01-14T12:41:18Z</time><name>PT2571</name></trkpt>
<trkpt lat="52.996513" lon="-3.271487"><ele>346</ele><time>2023-01-14T12:41:21Z</time><name>PT2572</name></trkpt>
<trkpt lat="52.996499" lon="-3.271548"><ele>345</ele><time>2023-01-14T12:41:25Z</time><name>PT2573</name></trkpt>
<trkpt lat="52.996482" lon="-3.271603"><ele>344</ele><time>2023-01-14T12:41:30Z</time><name>PT2574</name></trkpt>
<trkpt lat="52.996462" lon="-3.271672"><ele>344</ele><time>2023-01-14T12:41:33Z</time><name>PT2575</name></trkpt>
<trkpt lat="52.996448" lon="-3.271732"><ele>343</ele><time>2023-01-14T12:41:37Z</time><name>PT2576</name></trkpt>
<trkpt lat="52.996433" lon="-3.271797"><ele>341</ele><time>2023-01-14T12:41:42Z</time><name>PT2577</name></trkpt>
<trkpt lat="52.996424" lon="-3.271842"><ele>340</ele><time>2023-01-14T12:41:45Z</time><name>PT2578</name></trkpt>
<trkpt lat="52.996417" lon="-3.271883"><ele>339</ele><time>2023-01-14T12:41:48Z</time><name>PT2579</name></trkpt>
<trkpt lat="52.996402" lon="-3.271939"><ele>339</ele><time>2023-01-14T12:41:51Z</time><name>PT2580</name></trkpt>
<trkpt lat="52.996381" lon="-3.272025"><ele>339</ele><time>2023-01-14T12:41:54Z</time><name>PT2581</name></trkpt>
<trkpt lat="52.996374" lon="-3.272070"><ele>338</ele><time>2023-01-14T12:41:57Z</time><name>PT2582</name></trkpt>
<trkpt lat="52.996367" lon="-3.272147"><ele>337</ele><time>2023-01-14T12:42:01Z</time><name>PT2583</name></trkpt>
<trkpt lat="52.996357" lon="-3.272203"><ele>337</ele><time>2023-01-14T12:42:04Z</time><name>PT2584</name></trkpt>
<trkpt lat="52.996345" lon="-3.272266"><ele>336</ele><time>2023-01-14T12:42:07Z</time><name>PT2585</name></trkpt>
<trkpt lat="52.996325" lon="-3.272350"><ele>337</ele><time>2023-01-14T12:42:12Z</time><name>PT2586</name></trkpt>
<trkpt lat="52.996310" lon="-3.272414"><ele>336</ele><time>2023-01-14T12:42:15Z</time><name>PT2587</name></trkpt>
<trkpt lat="52.996289" lon="-3.272501"><ele>336</ele><time>2023-01-14T12:42:18Z</time><name>PT2588</name></trkpt>
<trkpt lat="52.996267" lon="-3.272584"><ele>336</ele><time>2023-01-14T12:42:22Z</time><name>PT2589</name></trkpt>
<trkpt lat="52.996251" lon="-3.272674"><ele>335</ele><time>2023-01-14T12:42:27Z</time><name>PT2590</name></trkpt>
<trkpt lat="52.996240" lon="-3.272732"><ele>335</ele><time>2023-01-14T12:42:30Z</time><name>PT2591</name></trkpt>
<trkpt lat="52.996228" lon="-3.272795"><ele>335</ele><time>2023-01-14T12:42:33Z</time><name>PT2592</name></trkpt>
<trkpt lat="52.996219" lon="-3.272852"><ele>335</ele><time>2023-01-14T12:42:36Z</time><name>PT2593</name></trkpt>
<trkpt lat="52.996208" lon="-3.272921"><ele>334</ele><time>2023-01-14T12:42:39Z</time><name>PT2594</name></trkpt>
<trkpt lat="52.996195" lon="-3.273005"><ele>334</ele><time>2023-01-14T12:42:42Z</time><name>PT2595</name></trkpt>
<trkpt lat="52.996188" lon="-3.273071"><ele>334</ele><time>2023-01-14T12:42:45Z</time><name>PT2596</name></trkpt>
<trkpt lat="52.996178" lon="-3.273134"><ele>334</ele><time>2023-01-14T12:42:48Z</time><name>PT2597</name></trkpt>
<trkpt lat="52.996167" lon="-3.273222"><ele>334</ele><time>2023-01-14T12:42:52Z</time><name>PT2598</name></trkpt>
<trkpt lat="52.996154" lon="-3.273301"><ele>334</ele><time>2023-01-14T12:42:57Z</time><name>PT2599</name></trkpt>
<trkpt lat="52.996146" lon="-3.273359"><ele>333</ele><time>2023-01-14T12:43:00Z</time><name>PT2600</name></trkpt>
<trkpt lat="52.996139" lon="-3.273423"><ele>333</ele><time>2023-01-14T12:43:03Z</time><name>PT2601</name></trkpt>
<trkpt lat="52.996130" lon="-3.273485"><ele>332</ele><time>2023-01-14T12:43:06Z</time><name>PT2602</name></trkpt>
<trkpt lat="52.996118" lon="-3.273565"><ele>332</ele><time>2023-01-14T12:43:09Z</time><name>PT2603</name></trkpt>
<trkpt lat="52.996110" lon="-3.273629"><ele>331</ele><time>2023-01-14T12:43:12Z</time><name>PT2604</name></trkpt>
<trkpt lat="52.996099" lon="-3.273706"><ele>330</ele><time>2023-01-14T12:43:16Z</time><name>PT2605</name></trkpt>
<trkpt lat="52.996091" lon="-3.273773"><ele>329</ele><time>2023-01-14T12:43:19Z</time><name>PT2606</name></trkpt>
<trkpt lat="52.996081" lon="-3.273859"><ele>329</ele><time>2023-01-14T12:43:24Z</time><name>PT2607</name></trkpt>
<trkpt lat="52.996068" lon="-3.273921"><ele>329</ele><time>2023-01-14T12:43:27Z</time><name>PT2608</name></trkpt>
<trkpt lat="52.996058" lon="-3.273980"><ele>328</ele><time>2023-01-14T12:43:30Z</time><name>PT2609</name></trkpt>
<trkpt lat="52.996050" lon="-3.274043"><ele>327</ele><time>2023-01-14T12:43:33Z</time><name>PT2610</name></trkpt>
<trkpt lat="52.996039" lon="-3.274122"><ele>327</ele><time>2023-01-14T12:43:36Z</time><name>PT2611</name></trkpt>
<trkpt lat="52.996028" lon="-3.274190"><ele>326</ele><time>2023-01-14T12:43:39Z</time><name>PT2612</name></trkpt>
<trkpt lat="52.996018" lon="-3.274248"><ele>326</ele><time>2023-01-14T12:43:42Z</time><name>PT2613</name></trkpt>
<trkpt lat="52.996006" lon="-3.274327"><ele>325</ele><time>2023-01-14T12:43:46Z</time><name>PT2614</name></trkpt>
<trkpt lat="52.995995" lon="-3.274378"><ele>325</ele><time>2023-01-14T12:43:49Z</time><name>PT2615</name></trkpt>
<trkpt lat="52.995985" lon="-3.274391"><ele>325</ele><time>2023-01-14T12:43:54Z</time><name>PT2616</name></trkpt>
<trkpt lat="52.995985" lon="-3.274395"><ele>325</ele><time>2023-01-14T12:43:57Z</time><name>PT2617</name></trkpt>
<trkpt lat="52.995995" lon="-3.274373"><ele>325</ele><time>2023-01-14T12:44:00Z</time><name>PT2618</name></trkpt>
<trkpt lat="52.996000" lon="-3.274361"><ele>325</ele><time>2023-01-14T12:44:04Z</time><name>PT2619</name></trkpt>
<trkpt lat="52.995994" lon="-3.274362"><ele>325</ele><time>2023-01-14T12:44:26Z</time><name>PT2620</name></trkpt>
<trkpt lat="52.995983" lon="-3.274421"><ele>324</ele><time>2023-01-14T12:44:30Z</time><name>PT2621</name></trkpt>
<trkpt lat="52.995979" lon="-3.274475"><ele>323</ele><time>2023-01-14T12:44:33Z</time><name>PT2622</name></trkpt>
<trkpt lat="52.995969" lon="-3.274535"><ele>323</ele><time>2023-01-14T12:44:36Z</time><name>PT2623</name></trkpt>
<trkpt lat="52.995955" lon="-3.274601"><ele>322</ele><time>2023-01-14T12:44:39Z</time><name>PT2624</name></trkpt>
<trkpt lat="52.995946" lon="-3.274672"><ele>322</ele><time>2023-01-14T12:44:43Z</time><name>PT2625</name></trkpt>
<trkpt lat="52.995950" lon="-3.274731"><ele>321</ele><time>2023-01-14T12:44:48Z</time><name>PT2626</name></trkpt>
<trkpt lat="52.995953" lon="-3.274769"><ele>320</ele><time>2023-01-14T12:44:51Z</time><name>PT2627</name></trkpt>
<trkpt lat="52.995950" lon="-3.274836"><ele>320</ele><time>2023-01-14T12:44:54Z</time><name>PT2628</name></trkpt>
<trkpt lat="52.995945" lon="-3.274902"><ele>319</ele><time>2023-01-14T12:44:58Z</time><name>PT2629</name></trkpt>
<trkpt lat="52.995934" lon="-3.274959"><ele>319</ele><time>2023-01-14T12:45:01Z</time><name>PT2630</name></trkpt>
<trkpt lat="52.995923" lon="-3.275026"><ele>319</ele><time>2023-01-14T12:45:06Z</time><name>PT2631</name></trkpt>
<trkpt lat="52.995915" lon="-3.275071"><ele>320</ele><time>2023-01-14T12:45:09Z</time><name>PT2632</name></trkpt>
<trkpt lat="52.995915" lon="-3.275066"><ele>319</ele><time>2023-01-14T12:45:13Z</time><name>PT2633</name></trkpt>
<trkpt lat="52.995912" lon="-3.275065"><ele>320</ele><time>2023-01-14T12:45:18Z</time><name>PT2634</name></trkpt>
<trkpt lat="52.995904" lon="-3.275081"><ele>320</ele><time>2023-01-14T12:45:21Z</time><name>PT2635</name></trkpt>
<trkpt lat="52.995883" lon="-3.275116"><ele>320</ele><time>2023-01-14T12:45:24Z</time><name>PT2636</name></trkpt>
<trkpt lat="52.995869" lon="-3.275152"><ele>320</ele><time>2023-01-14T12:45:27Z</time><name>PT2637</name></trkpt>
<trkpt lat="52.995858" lon="-3.275195"><ele>320</ele><time>2023-01-14T12:45:30Z</time><name>PT2638</name></trkpt>
<trkpt lat="52.995847" lon="-3.275253"><ele>319</ele><time>2023-01-14T12:45:34Z</time><name>PT2639</name></trkpt>
<trkpt lat="52.995831" lon="-3.275306"><ele>319</ele><time>2023-01-14T12:45:39Z</time><name>PT2640</name></trkpt>
<trkpt lat="52.995814" lon="-3.275356"><ele>318</ele><time>2023-01-14T12:45:42Z</time><name>PT2641</name></trkpt>
<trkpt lat="52.995794" lon="-3.275384"><ele>317</ele><time>2023-01-14T12:45:45Z</time><name>PT2642</name></trkpt>
<trkpt lat="52.995768" lon="-3.275420"><ele>316</ele><time>2023-01-14T12:45:49Z</time><name>PT2643</name></trkpt>
<trkpt lat="52.995750" lon="-3.275455"><ele>315</ele><time>2023-01-14T12:45:54Z</time><name>PT2644</name></trkpt>
<trkpt lat="52.995749" lon="-3.275460"><ele>315</ele><time>2023-01-14T12:45:57Z</time><name>PT2645</name></trkpt>
<trkpt lat="52.995738" lon="-3.275478"><ele>315</ele><time>2023-01-14T12:46:00Z</time><name>PT2646</name></trkpt>
<trkpt lat="52.995724" lon="-3.275497"><ele>316</ele><time>2023-01-14T12:46:04Z</time><name>PT2647</name></trkpt>
<trkpt lat="52.995718" lon="-3.275498"><ele>316</ele><time>2023-01-14T12:46:09Z</time><name>PT2648</name></trkpt>
<trkpt lat="52.995718" lon="-3.275497"><ele>315</ele><time>2023-01-14T12:46:12Z</time><name>PT2649</name></trkpt>
<trkpt lat="52.995711" lon="-3.275516"><ele>315</ele><time>2023-01-14T12:46:15Z</time><name>PT2650</name></trkpt>
<trkpt lat="52.995687" lon="-3.275554"><ele>314</ele><time>2023-01-14T12:46:19Z</time><name>PT2651</name></trkpt>
<trkpt lat="52.995662" lon="-3.275585"><ele>314</ele><time>2023-01-14T12:46:24Z</time><name>PT2652</name></trkpt>
<trkpt lat="52.995646" lon="-3.275606"><ele>314</ele><time>2023-01-14T12:46:27Z</time><name>PT2653</name></trkpt>
<trkpt lat="52.995620" lon="-3.275634"><ele>313</ele><time>2023-01-14T12:46:30Z</time><name>PT2654</name></trkpt>
<trkpt lat="52.995598" lon="-3.275663"><ele>312</ele><time>2023-01-14T12:46:34Z</time><name>PT2655</name></trkpt>
<trkpt lat="52.995576" lon="-3.275684"><ele>312</ele><time>2023-01-14T12:46:39Z</time><name>PT2656</name></trkpt>
<trkpt lat="52.995573" lon="-3.275689"><ele>312</ele><time>2023-01-14T12:46:42Z</time><name>PT2657</name></trkpt>
<trkpt lat="52.995562" lon="-3.275702"><ele>311</ele><time>2023-01-14T12:46:45Z</time><name>PT2658</name></trkpt>
<trkpt lat="52.995543" lon="-3.275718"><ele>311</ele><time>2023-01-14T12:46:48Z</time><name>PT2659</name></trkpt>
<trkpt lat="52.995526" lon="-3.275733"><ele>311</ele><time>2023-01-14T12:46:51Z</time><name>PT2660</name></trkpt>
<trkpt lat="52.995491" lon="-3.275775"><ele>310</ele><time>2023-01-14T12:46:55Z</time><name>PT2661</name></trkpt>
<trkpt lat="52.995462" lon="-3.275815"><ele>310</ele><time>2023-01-14T12:47:00Z</time><name>PT2662</name></trkpt>
<trkpt lat="52.995429" lon="-3.275852"><ele>309</ele><time>2023-01-14T12:47:03Z</time><name>PT2663</name></trkpt>
<trkpt lat="52.995394" lon="-3.275891"><ele>309</ele><time>2023-01-14T12:47:06Z</time><name>PT2664</name></trkpt>
<trkpt lat="52.995357" lon="-3.275926"><ele>309</ele><time>2023-01-14T12:47:10Z</time><name>PT2665</name></trkpt>
<trkpt lat="52.995320" lon="-3.275969"><ele>308</ele><time>2023-01-14T12:47:15Z</time><name>PT2666</name></trkpt>
<trkpt lat="52.995294" lon="-3.276006"><ele>307</ele><time>2023-01-14T12:47:18Z</time><name>PT2667</name></trkpt>
<trkpt lat="52.995264" lon="-3.276037"><ele>307</ele><time>2023-01-14T12:47:21Z</time><name>PT2668</name></trkpt>
<trkpt lat="52.995242" lon="-3.276045"><ele>307</ele><time>2023-01-14T12:47:24Z</time><name>PT2669</name></trkpt>
<trkpt lat="52.995209" lon="-3.276041"><ele>307</ele><time>2023-01-14T12:47:28Z</time><name>PT2670</name></trkpt>
<trkpt lat="52.995185" lon="-3.276030"><ele>307</ele><time>2023-01-14T12:47:31Z</time><name>PT2671</name></trkpt>
<trkpt lat="52.995159" lon="-3.276024"><ele>307</ele><time>2023-01-14T12:47:36Z</time><name>PT2672</name></trkpt>
<trkpt lat="52.995131" lon="-3.276009"><ele>308</ele><time>2023-01-14T12:47:39Z</time><name>PT2673</name></trkpt>
<trkpt lat="52.995091" lon="-3.275990"><ele>308</ele><time>2023-01-14T12:47:42Z</time><name>PT2674</name></trkpt>
<trkpt lat="52.995069" lon="-3.275983"><ele>308</ele><time>2023-01-14T12:47:46Z</time><name>PT2675</name></trkpt>
<trkpt lat="52.995044" lon="-3.275974"><ele>308</ele><time>2023-01-14T12:47:49Z</time><name>PT2676</name></trkpt>
<trkpt lat="52.995019" lon="-3.275965"><ele>308</ele><time>2023-01-14T12:47:54Z</time><name>PT2677</name></trkpt>
<trkpt lat="52.995019" lon="-3.275969"><ele>308</ele><time>2023-01-14T12:47:57Z</time><name>PT2678</name></trkpt>
<trkpt lat="52.995017" lon="-3.275965"><ele>308</ele><time>2023-01-14T12:48:00Z</time><name>PT2679</name></trkpt>
<trkpt lat="52.995014" lon="-3.275964"><ele>308</ele><time>2023-01-14T12:48:03Z</time><name>PT2680</name></trkpt>
<trkpt lat="52.995003" lon="-3.275968"><ele>308</ele><time>2023-01-14T12:48:06Z</time><name>PT2681</name></trkpt>
<trkpt lat="52.995001" lon="-3.275996"><ele>307</ele><time>2023-01-14T12:48:15Z</time><name>PT2682</name></trkpt>
<trkpt lat="52.994975" lon="-3.276023"><ele>306</ele><time>2023-01-14T12:48:18Z</time><name>PT2683</name></trkpt>
<trkpt lat="52.994963" lon="-3.276066"><ele>305</ele><time>2023-01-14T12:48:22Z</time><name>PT2684</name></trkpt>
<trkpt lat="52.994958" lon="-3.276091"><ele>304</ele><time>2023-01-14T12:48:25Z</time><name>PT2685</name></trkpt>
<trkpt lat="52.994959" lon="-3.276120"><ele>303</ele><time>2023-01-14T12:48:30Z</time><name>PT2686</name></trkpt>
<trkpt lat="52.994958" lon="-3.276137"><ele>303</ele><time>2023-01-14T12:48:33Z</time><name>PT2687</name></trkpt>
<trkpt lat="52.994956" lon="-3.276149"><ele>303</ele><time>2023-01-14T12:48:36Z</time><name>PT2688</name></trkpt>
<trkpt lat="52.994956" lon="-3.276159"><ele>302</ele><time>2023-01-14T12:48:43Z</time><name>PT2689</name></trkpt>
<trkpt lat="52.994953" lon="-3.276164"><ele>303</ele><time>2023-01-14T12:48:46Z</time><name>PT2690</name></trkpt>
<trkpt lat="52.994947" lon="-3.276146"><ele>303</ele><time>2023-01-14T12:49:18Z</time><name>PT2691</name></trkpt>
<trkpt lat="52.994956" lon="-3.276109"><ele>304</ele><time>2023-01-14T13:03:43Z</time><name>PT2692</name></trkpt>
<trkpt lat="52.994952" lon="-3.276088"><ele>305</ele><time>2023-01-14T13:03:48Z</time><name>PT2693</name></trkpt>
<trkpt lat="52.994951" lon="-3.276086"><ele>305</ele><time>2023-01-14T13:03:51Z</time><name>PT2694</name></trkpt>
<trkpt lat="52.994973" lon="-3.276131"><ele>307</ele><time>2023-01-14T13:04:24Z</time><name>PT2695</name></trkpt>
<trkpt lat="52.994981" lon="-3.276150"><ele>308</ele><time>2023-01-14T13:04:27Z</time><name>PT2696</name></trkpt>
<trkpt lat="52.994978" lon="-3.276156"><ele>309</ele><time>2023-01-14T13:04:30Z</time><name>PT2697</name></trkpt>
<trkpt lat="52.994978" lon="-3.276159"><ele>309</ele><time>2023-01-14T13:04:33Z</time><name>PT2698</name></trkpt>
<trkpt lat="52.994957" lon="-3.276154"><ele>309</ele><time>2023-01-14T13:04:36Z</time><name>PT2699</name></trkpt>
<trkpt lat="52.994920" lon="-3.276170"><ele>307</ele><time>2023-01-14T13:04:40Z</time><name>PT2700</name></trkpt>
<trkpt lat="52.994883" lon="-3.276183"><ele>306</ele><time>2023-01-14T13:04:45Z</time><name>PT2701</name></trkpt>
<trkpt lat="52.994855" lon="-3.276184"><ele>306</ele><time>2023-01-14T13:04:48Z</time><name>PT2702</name></trkpt>
<trkpt lat="52.994826" lon="-3.276192"><ele>306</ele><time>2023-01-14T13:04:51Z</time><name>PT2703</name></trkpt>
<trkpt lat="52.994793" lon="-3.276193"><ele>305</ele><time>2023-01-14T13:04:54Z</time><name>PT2704</name></trkpt>
<trkpt lat="52.994766" lon="-3.276197"><ele>304</ele><time>2023-01-14T13:04:58Z</time><name>PT2705</name></trkpt>
<trkpt lat="52.994749" lon="-3.276206"><ele>303</ele><time>2023-01-14T13:05:01Z</time><name>PT2706</name></trkpt>
<trkpt lat="52.994713" lon="-3.276212"><ele>303</ele><time>2023-01-14T13:05:06Z</time><name>PT2707</name></trkpt>
<trkpt lat="52.994693" lon="-3.276225"><ele>302</ele><time>2023-01-14T13:05:09Z</time><name>PT2708</name></trkpt>
<trkpt lat="52.994660" lon="-3.276230"><ele>302</ele><time>2023-01-14T13:05:12Z</time><name>PT2709</name></trkpt>
<trkpt lat="52.994638" lon="-3.276225"><ele>302</ele><time>2023-01-14T13:05:16Z</time><name>PT2710</name></trkpt>
<trkpt lat="52.994625" lon="-3.276222"><ele>301</ele><time>2023-01-14T13:05:21Z</time><name>PT2711</name></trkpt>
<trkpt lat="52.994621" lon="-3.276222"><ele>301</ele><time>2023-01-14T13:05:24Z</time><name>PT2712</name></trkpt>
<trkpt lat="52.994616" lon="-3.276224"><ele>301</ele><time>2023-01-14T13:05:28Z</time><name>PT2713</name></trkpt>
<trkpt lat="52.994611" lon="-3.276244"><ele>303</ele><time>2023-01-14T13:06:21Z</time><name>PT2714</name></trkpt>
<trkpt lat="52.994611" lon="-3.276254"><ele>303</ele><time>2023-01-14T13:06:24Z</time><name>PT2715</name></trkpt>
<trkpt lat="52.994608" lon="-3.276275"><ele>303</ele><time>2023-01-14T13:06:27Z</time><name>PT2716</name></trkpt>
<trkpt lat="52.994607" lon="-3.276281"><ele>303</ele><time>2023-01-14T13:06:31Z</time><name>PT2717</name></trkpt>
<trkpt lat="52.994625" lon="-3.276290"><ele>303</ele><time>2023-01-14T13:06:34Z</time><name>PT2718</name></trkpt>
<trkpt lat="52.994629" lon="-3.276264"><ele>304</ele><time>2023-01-14T13:06:39Z</time><name>PT2719</name></trkpt>
<trkpt lat="52.994631" lon="-3.276264"><ele>304</ele><time>2023-01-14T13:06:42Z</time><name>PT2720</name></trkpt>
<trkpt lat="52.994643" lon="-3.276246"><ele>304</ele><time>2023-01-14T13:07:10Z</time><name>PT2721</name></trkpt>
<trkpt lat="52.994682" lon="-3.276220"><ele>305</ele><time>2023-01-14T13:07:13Z</time><name>PT2722</name></trkpt>
<trkpt lat="52.994713" lon="-3.276210"><ele>305</ele><time>2023-01-14T13:07:18Z</time><name>PT2723</name></trkpt>
<trkpt lat="52.994733" lon="-3.276207"><ele>305</ele><time>2023-01-14T13:07:21Z</time><name>PT2724</name></trkpt>
<trkpt lat="52.994770" lon="-3.276201"><ele>305</ele><time>2023-01-14T13:07:24Z</time><name>PT2725</name></trkpt>
<trkpt lat="52.994799" lon="-3.276195"><ele>306</ele><time>2023-01-14T13:07:27Z</time><name>PT2726</name></trkpt>
<trkpt lat="52.994834" lon="-3.276190"><ele>307</ele><time>2023-01-14T13:07:31Z</time><name>PT2727</name></trkpt>
<trkpt lat="52.994862" lon="-3.276190"><ele>307</ele><time>2023-01-14T13:07:34Z</time><name>PT2728</name></trkpt>
<trkpt lat="52.994877" lon="-3.276185"><ele>305</ele><time>2023-01-14T13:07:37Z</time><name>PT2729</name></trkpt>
<trkpt lat="52.994898" lon="-3.276179"><ele>305</ele><time>2023-01-14T13:07:40Z</time><name>PT2730</name></trkpt>
<trkpt lat="52.994909" lon="-3.276162"><ele>303</ele><time>2023-01-14T13:07:45Z</time><name>PT2731</name></trkpt>
<trkpt lat="52.994917" lon="-3.276129"><ele>305</ele><time>2023-01-14T13:07:48Z</time><name>PT2732</name></trkpt>
<trkpt lat="52.994931" lon="-3.276121"><ele>307</ele><time>2023-01-14T13:07:52Z</time><name>PT2733</name></trkpt>
<trkpt lat="52.994947" lon="-3.276096"><ele>308</ele><time>2023-01-14T13:08:21Z</time><name>PT2734</name></trkpt>
<trkpt lat="52.994964" lon="-3.276124"><ele>309</ele><time>2023-01-14T13:08:24Z</time><name>PT2735</name></trkpt>
<trkpt lat="52.994973" lon="-3.276119"><ele>310</ele><time>2023-01-14T13:08:27Z</time><name>PT2736</name></trkpt>
<trkpt lat="52.994977" lon="-3.276139"><ele>312</ele><time>2023-01-14T13:09:04Z</time><name>PT2737</name></trkpt>
<trkpt lat="52.994972" lon="-3.276140"><ele>312</ele><time>2023-01-14T13:09:13Z</time><name>PT2738</name></trkpt>
<trkpt lat="52.994977" lon="-3.276155"><ele>313</ele><time>2023-01-14T13:09:17Z</time><name>PT2739</name></trkpt>
<trkpt lat="52.994981" lon="-3.276173"><ele>312</ele><time>2023-01-14T13:09:34Z</time><name>PT2740</name></trkpt>
<trkpt lat="52.994968" lon="-3.276183"><ele>311</ele><time>2023-01-14T13:09:37Z</time><name>PT2741</name></trkpt>
<trkpt lat="52.994951" lon="-3.276191"><ele>311</ele><time>2023-01-14T13:09:40Z</time><name>PT2742</name></trkpt>
<trkpt lat="52.994918" lon="-3.276184"><ele>312</ele><time>2023-01-14T13:09:45Z</time><name>PT2743</name></trkpt>
<trkpt lat="52.994896" lon="-3.276191"><ele>310</ele><time>2023-01-14T13:09:48Z</time><name>PT2744</name></trkpt>
<trkpt lat="52.994871" lon="-3.276196"><ele>308</ele><time>2023-01-14T13:09:52Z</time><name>PT2745</name></trkpt>
<trkpt lat="52.994838" lon="-3.276209"><ele>306</ele><time>2023-01-14T13:09:57Z</time><name>PT2746</name></trkpt>
<trkpt lat="52.994805" lon="-3.276215"><ele>305</ele><time>2023-01-14T13:10:00Z</time><name>PT2747</name></trkpt>
<trkpt lat="52.994778" lon="-3.276223"><ele>304</ele><time>2023-01-14T13:10:04Z</time><name>PT2748</name></trkpt>
<trkpt lat="52.994744" lon="-3.276224"><ele>304</ele><time>2023-01-14T13:10:09Z</time><name>PT2749</name></trkpt>
<trkpt lat="52.994725" lon="-3.276228"><ele>304</ele><time>2023-01-14T13:10:12Z</time><name>PT2750</name></trkpt>
<trkpt lat="52.994713" lon="-3.276253"><ele>303</ele><time>2023-01-14T13:10:15Z</time><name>PT2751</name></trkpt>
<trkpt lat="52.994704" lon="-3.276270"><ele>304</ele><time>2023-01-14T13:10:18Z</time><name>PT2752</name></trkpt>
<trkpt lat="52.994692" lon="-3.276273"><ele>304</ele><time>2023-01-14T13:10:22Z</time><name>PT2753</name></trkpt>
<trkpt lat="52.994685" lon="-3.276266"><ele>304</ele><time>2023-01-14T13:10:27Z</time><name>PT2754</name></trkpt>
<trkpt lat="52.994685" lon="-3.276260"><ele>304</ele><time>2023-01-14T13:10:30Z</time><name>PT2755</name></trkpt>
<trkpt lat="52.994663" lon="-3.276249"><ele>303</ele><time>2023-01-14T13:10:36Z</time><name>PT2756</name></trkpt>
<trkpt lat="52.994612" lon="-3.276246"><ele>302</ele><time>2023-01-14T13:10:40Z</time><name>PT2757</name></trkpt>
<trkpt lat="52.994560" lon="-3.276261"><ele>302</ele><time>2023-01-14T13:10:45Z</time><name>PT2758</name></trkpt>
<trkpt lat="52.994525" lon="-3.276258"><ele>301</ele><time>2023-01-14T13:10:48Z</time><name>PT2759</name></trkpt>
<trkpt lat="52.994500" lon="-3.276252"><ele>299</ele><time>2023-01-14T13:10:52Z</time><name>PT2760</name></trkpt>
<trkpt lat="52.994475" lon="-3.276237"><ele>298</ele><time>2023-01-14T13:10:57Z</time><name>PT2761</name></trkpt>
<trkpt lat="52.994455" lon="-3.276221"><ele>296</ele><time>2023-01-14T13:11:00Z</time><name>PT2762</name></trkpt>
<trkpt lat="52.994431" lon="-3.276210"><ele>294</ele><time>2023-01-14T13:11:03Z</time><name>PT2763</name></trkpt>
<trkpt lat="52.994393" lon="-3.276187"><ele>293</ele><time>2023-01-14T13:11:07Z</time><name>PT2764</name></trkpt>
<trkpt lat="52.994357" lon="-3.276174"><ele>291</ele><time>2023-01-14T13:11:12Z</time><name>PT2765</name></trkpt>
<trkpt lat="52.994345" lon="-3.276154"><ele>288</ele><time>2023-01-14T13:11:15Z</time><name>PT2766</name></trkpt>
<trkpt lat="52.994320" lon="-3.276144"><ele>283</ele><time>2023-01-14T13:11:18Z</time><name>PT2767</name></trkpt>
<trkpt lat="52.994294" lon="-3.276121"><ele>282</ele><time>2023-01-14T13:11:22Z</time><name>PT2768</name></trkpt>
<trkpt lat="52.994269" lon="-3.276114"><ele>280</ele><time>2023-01-14T13:11:25Z</time><name>PT2769</name></trkpt>
<trkpt lat="52.994243" lon="-3.276095"><ele>279</ele><time>2023-01-14T13:11:30Z</time><name>PT2770</name></trkpt>
<trkpt lat="52.994216" lon="-3.276072"><ele>278</ele><time>2023-01-14T13:11:33Z</time><name>PT2771</name></trkpt>
<trkpt lat="52.994180" lon="-3.276039"><ele>277</ele><time>2023-01-14T13:11:36Z</time><name>PT2772</name></trkpt>
<trkpt lat="52.994146" lon="-3.276033"><ele>276</ele><time>2023-01-14T13:11:39Z</time><name>PT2773</name></trkpt>
<trkpt lat="52.994128" lon="-3.276018"><ele>275</ele><time>2023-01-14T13:11:42Z</time><name>PT2774</name></trkpt>
<trkpt lat="52.994087" lon="-3.275977"><ele>275</ele><time>2023-01-14T13:11:46Z</time><name>PT2775</name></trkpt>
<trkpt lat="52.994054" lon="-3.275937"><ele>275</ele><time>2023-01-14T13:11:51Z</time><name>PT2776</name></trkpt>
<trkpt lat="52.994024" lon="-3.275900"><ele>274</ele><time>2023-01-14T13:11:54Z</time><name>PT2777</name></trkpt>
<trkpt lat="52.993995" lon="-3.275870"><ele>274</ele><time>2023-01-14T13:11:57Z</time><name>PT2778</name></trkpt>
<trkpt lat="52.993971" lon="-3.275835"><ele>272</ele><time>2023-01-14T13:12:01Z</time><name>PT2779</name></trkpt>
<trkpt lat="52.993937" lon="-3.275806"><ele>272</ele><time>2023-01-14T13:12:06Z</time><name>PT2780</name></trkpt>
<trkpt lat="52.993909" lon="-3.275771"><ele>271</ele><time>2023-01-14T13:12:09Z</time><name>PT2781</name></trkpt>
<trkpt lat="52.993854" lon="-3.275742"><ele>273</ele><time>2023-01-14T13:12:12Z</time><name>PT2782</name></trkpt>
<trkpt lat="52.993825" lon="-3.275716"><ele>274</ele><time>2023-01-14T13:12:15Z</time><name>PT2783</name></trkpt>
<trkpt lat="52.993792" lon="-3.275702"><ele>274</ele><time>2023-01-14T13:12:18Z</time><name>PT2784</name></trkpt>
<trkpt lat="52.993772" lon="-3.275677"><ele>274</ele><time>2023-01-14T13:12:21Z</time><name>PT2785</name></trkpt>
<trkpt lat="52.993733" lon="-3.275652"><ele>275</ele><time>2023-01-14T13:12:24Z</time><name>PT2786</name></trkpt>
<trkpt lat="52.993688" lon="-3.275621"><ele>276</ele><time>2023-01-14T13:12:28Z</time><name>PT2787</name></trkpt>
<trkpt lat="52.993642" lon="-3.275608"><ele>276</ele><time>2023-01-14T13:12:33Z</time><name>PT2788</name></trkpt>
<trkpt lat="52.993605" lon="-3.275601"><ele>275</ele><time>2023-01-14T13:12:36Z</time><name>PT2789</name></trkpt>
<trkpt lat="52.993568" lon="-3.275588"><ele>274</ele><time>2023-01-14T13:12:40Z</time><name>PT2790</name></trkpt>
<trkpt lat="52.993527" lon="-3.275574"><ele>276</ele><time>2023-01-14T13:12:43Z</time><name>PT2791</name></trkpt>
<trkpt lat="52.993492" lon="-3.275561"><ele>276</ele><time>2023-01-14T13:12:48Z</time><name>PT2792</name></trkpt>
<trkpt lat="52.993463" lon="-3.275547"><ele>273</ele><time>2023-01-14T13:12:51Z</time><name>PT2793</name></trkpt>
<trkpt lat="52.993433" lon="-3.275537"><ele>272</ele><time>2023-01-14T13:12:55Z</time><name>PT2794</name></trkpt>
<trkpt lat="52.993400" lon="-3.275548"><ele>271</ele><time>2023-01-14T13:12:58Z</time><name>PT2795</name></trkpt>
<trkpt lat="52.993364" lon="-3.275581"><ele>273</ele><time>2023-01-14T13:13:03Z</time><name>PT2796</name></trkpt>
<trkpt lat="52.993331" lon="-3.275604"><ele>274</ele><time>2023-01-14T13:13:06Z</time><name>PT2797</name></trkpt>
<trkpt lat="52.993308" lon="-3.275637"><ele>275</ele><time>2023-01-14T13:13:09Z</time><name>PT2798</name></trkpt>
<trkpt lat="52.993292" lon="-3.275672"><ele>275</ele><time>2023-01-14T13:13:12Z</time><name>PT2799</name></trkpt>
<trkpt lat="52.993257" lon="-3.275699"><ele>275</ele><time>2023-01-14T13:13:16Z</time><name>PT2800</name></trkpt>
<trkpt lat="52.993221" lon="-3.275710"><ele>275</ele><time>2023-01-14T13:13:19Z</time><name>PT2801</name></trkpt>
<trkpt lat="52.993174" lon="-3.275733"><ele>276</ele><time>2023-01-14T13:13:24Z</time><name>PT2802</name></trkpt>
<trkpt lat="52.993134" lon="-3.275764"><ele>275</ele><time>2023-01-14T13:13:27Z</time><name>PT2803</name></trkpt>
<trkpt lat="52.993099" lon="-3.275785"><ele>274</ele><time>2023-01-14T13:13:31Z</time><name>PT2804</name></trkpt>
<trkpt lat="52.993090" lon="-3.275795"><ele>274</ele><time>2023-01-14T13:13:34Z</time><name>PT2805</name></trkpt>
<trkpt lat="52.993097" lon="-3.275796"><ele>274</ele><time>2023-01-14T13:13:37Z</time><name>PT2806</name></trkpt>
<trkpt lat="52.993079" lon="-3.275820"><ele>273</ele><time>2023-01-14T13:13:42Z</time><name>PT2807</name></trkpt>
<trkpt lat="52.993068" lon="-3.275853"><ele>272</ele><time>2023-01-14T13:13:45Z</time><name>PT2808</name></trkpt>
<trkpt lat="52.993050" lon="-3.275894"><ele>272</ele><time>2023-01-14T13:13:48Z</time><name>PT2809</name></trkpt>
<trkpt lat="52.993034" lon="-3.275931"><ele>272</ele><time>2023-01-14T13:13:51Z</time><name>PT2810</name></trkpt>
<trkpt lat="52.992993" lon="-3.275983"><ele>273</ele><time>2023-01-14T13:13:55Z</time><name>PT2811</name></trkpt>
<trkpt lat="52.992973" lon="-3.276036"><ele>278</ele><time>2023-01-14T13:13:58Z</time><name>PT2812</name></trkpt>
<trkpt lat="52.992961" lon="-3.276071"><ele>281</ele><time>2023-01-14T13:14:01Z</time><name>PT2813</name></trkpt>
<trkpt lat="52.992945" lon="-3.276124"><ele>282</ele><time>2023-01-14T13:14:06Z</time><name>PT2814</name></trkpt>
<trkpt lat="52.992927" lon="-3.276139"><ele>283</ele><time>2023-01-14T13:14:09Z</time><name>PT2815</name></trkpt>
<trkpt lat="52.992894" lon="-3.276145"><ele>284</ele><time>2023-01-14T13:14:12Z</time><name>PT2816</name></trkpt>
<trkpt lat="52.992862" lon="-3.276164"><ele>284</ele><time>2023-01-14T13:14:15Z</time><name>PT2817</name></trkpt>
<trkpt lat="52.992826" lon="-3.276181"><ele>284</ele><time>2023-01-14T13:14:19Z</time><name>PT2818</name></trkpt>
<trkpt lat="52.992796" lon="-3.276203"><ele>283</ele><time>2023-01-14T13:14:22Z</time><name>PT2819</name></trkpt>
<trkpt lat="52.992752" lon="-3.276216"><ele>283</ele><time>2023-01-14T13:14:27Z</time><name>PT2820</name></trkpt>
<trkpt lat="52.992726" lon="-3.276240"><ele>283</ele><time>2023-01-14T13:14:30Z</time><name>PT2821</name></trkpt>
<trkpt lat="52.992696" lon="-3.276241"><ele>283</ele><time>2023-01-14T13:14:33Z</time><name>PT2822</name></trkpt>
<trkpt lat="52.992658" lon="-3.276247"><ele>283</ele><time>2023-01-14T13:14:37Z</time><name>PT2823</name></trkpt>
<trkpt lat="52.992631" lon="-3.276254"><ele>283</ele><time>2023-01-14T13:14:40Z</time><name>PT2824</name></trkpt>
<trkpt lat="52.992582" lon="-3.276275"><ele>283</ele><time>2023-01-14T13:14:45Z</time><name>PT2825</name></trkpt>
<trkpt lat="52.992550" lon="-3.276290"><ele>283</ele><time>2023-01-14T13:14:48Z</time><name>PT2826</name></trkpt>
<trkpt lat="52.992508" lon="-3.276305"><ele>283</ele><time>2023-01-14T13:14:51Z</time><name>PT2827</name></trkpt>
<trkpt lat="52.992474" lon="-3.276329"><ele>284</ele><time>2023-01-14T13:14:54Z</time><name>PT2828</name></trkpt>
<trkpt lat="52.992455" lon="-3.276365"><ele>284</ele><time>2023-01-14T13:14:58Z</time><name>PT2829</name></trkpt>
<trkpt lat="52.992440" lon="-3.276402"><ele>284</ele><time>2023-01-14T13:15:01Z</time><name>PT2830</name></trkpt>
<trkpt lat="52.992429" lon="-3.276433"><ele>285</ele><time>2023-01-14T13:15:04Z</time><name>PT2831</name></trkpt>
<trkpt lat="52.992419" lon="-3.276458"><ele>285</ele><time>2023-01-14T13:15:07Z</time><name>PT2832</name></trkpt>
<trkpt lat="52.992411" lon="-3.276482"><ele>286</ele><time>2023-01-14T13:15:10Z</time><name>PT2833</name></trkpt>
<trkpt lat="52.992422" lon="-3.276489"><ele>287</ele><time>2023-01-14T13:15:15Z</time><name>PT2834</name></trkpt>
<trkpt lat="52.992427" lon="-3.276503"><ele>286</ele><time>2023-01-14T13:15:18Z</time><name>PT2835</name></trkpt>
<trkpt lat="52.992421" lon="-3.276552"><ele>288</ele><time>2023-01-14T13:15:22Z</time><name>PT2836</name></trkpt>
<trkpt lat="52.992416" lon="-3.276585"><ele>288</ele><time>2023-01-14T13:15:25Z</time><name>PT2837</name></trkpt>
<trkpt lat="52.992410" lon="-3.276628"><ele>289</ele><time>2023-01-14T13:15:30Z</time><name>PT2838</name></trkpt>
<trkpt lat="52.992398" lon="-3.276661"><ele>289</ele><time>2023-01-14T13:15:33Z</time><name>PT2839</name></trkpt>
<trkpt lat="52.992384" lon="-3.276688"><ele>289</ele><time>2023-01-14T13:15:36Z</time><name>PT2840</name></trkpt>
<trkpt lat="52.992373" lon="-3.276722"><ele>289</ele><time>2023-01-14T13:15:39Z</time><name>PT2841</name></trkpt>
<trkpt lat="52.992350" lon="-3.276774"><ele>290</ele><time>2023-01-14T13:15:42Z</time><name>PT2842</name></trkpt>
<trkpt lat="52.992332" lon="-3.276826"><ele>290</ele><time>2023-01-14T13:15:46Z</time><name>PT2843</name></trkpt>
<trkpt lat="52.992317" lon="-3.276873"><ele>291</ele><time>2023-01-14T13:15:49Z</time><name>PT2844</name></trkpt>
<trkpt lat="52.992301" lon="-3.276920"><ele>293</ele><time>2023-01-14T13:15:52Z</time><name>PT2845</name></trkpt>
<trkpt lat="52.992277" lon="-3.276956"><ele>294</ele><time>2023-01-14T13:15:57Z</time><name>PT2846</name></trkpt>
<trkpt lat="52.992251" lon="-3.276993"><ele>294</ele><time>2023-01-14T13:16:00Z</time><name>PT2847</name></trkpt>
<trkpt lat="52.992233" lon="-3.277036"><ele>295</ele><time>2023-01-14T13:16:03Z</time><name>PT2848</name></trkpt>
<trkpt lat="52.992209" lon="-3.277079"><ele>295</ele><time>2023-01-14T13:16:07Z</time><name>PT2849</name></trkpt>
<trkpt lat="52.992184" lon="-3.277129"><ele>296</ele><time>2023-01-14T13:16:12Z</time><name>PT2850</name></trkpt>
<trkpt lat="52.992160" lon="-3.277163"><ele>296</ele><time>2023-01-14T13:16:15Z</time><name>PT2851</name></trkpt>
<trkpt lat="52.992125" lon="-3.277203"><ele>296</ele><time>2023-01-14T13:16:18Z</time><name>PT2852</name></trkpt>
<trkpt lat="52.992092" lon="-3.277248"><ele>297</ele><time>2023-01-14T13:16:21Z</time><name>PT2853</name></trkpt>
<trkpt lat="52.992063" lon="-3.277280"><ele>297</ele><time>2023-01-14T13:16:24Z</time><name>PT2854</name></trkpt>
<trkpt lat="52.992028" lon="-3.277308"><ele>298</ele><time>2023-01-14T13:16:28Z</time><name>PT2855</name></trkpt>
<trkpt lat="52.991992" lon="-3.277333"><ele>297</ele><time>2023-01-14T13:16:33Z</time><name>PT2856</name></trkpt>
<trkpt lat="52.991970" lon="-3.277342"><ele>297</ele><time>2023-01-14T13:16:36Z</time><name>PT2857</name></trkpt>
<trkpt lat="52.991940" lon="-3.277353"><ele>297</ele><time>2023-01-14T13:16:39Z</time><name>PT2858</name></trkpt>
<trkpt lat="52.991928" lon="-3.277369"><ele>297</ele><time>2023-01-14T13:16:42Z</time><name>PT2859</name></trkpt>
<trkpt lat="52.991915" lon="-3.277387"><ele>296</ele><time>2023-01-14T13:16:45Z</time><name>PT2860</name></trkpt>
<trkpt lat="52.991914" lon="-3.277392"><ele>297</ele><time>2023-01-14T13:16:49Z</time><name>PT2861</name></trkpt>
<trkpt lat="52.991894" lon="-3.277397"><ele>296</ele><time>2023-01-14T13:16:57Z</time><name>PT2862</name></trkpt>
<trkpt lat="52.991887" lon="-3.277423"><ele>296</ele><time>2023-01-14T13:17:00Z</time><name>PT2863</name></trkpt>
<trkpt lat="52.991884" lon="-3.277465"><ele>297</ele><time>2023-01-14T13:17:03Z</time><name>PT2864</name></trkpt>
<trkpt lat="52.991862" lon="-3.277485"><ele>296</ele><time>2023-01-14T13:17:06Z</time><name>PT2865</name></trkpt>
<trkpt lat="52.991833" lon="-3.277507"><ele>296</ele><time>2023-01-14T13:17:10Z</time><name>PT2866</name></trkpt>
<trkpt lat="52.991800" lon="-3.277553"><ele>298</ele><time>2023-01-14T13:17:13Z</time><name>PT2867</name></trkpt>
<trkpt lat="52.991764" lon="-3.277602"><ele>299</ele><time>2023-01-14T13:17:18Z</time><name>PT2868</name></trkpt>
<trkpt lat="52.991735" lon="-3.277619"><ele>299</ele><time>2023-01-14T13:17:21Z</time><name>PT2869</name></trkpt>
<trkpt lat="52.991707" lon="-3.277636"><ele>299</ele><time>2023-01-14T13:17:24Z</time><name>PT2870</name></trkpt>
<trkpt lat="52.991678" lon="-3.277646"><ele>299</ele><time>2023-01-14T13:17:27Z</time><name>PT2871</name></trkpt>
<trkpt lat="52.991646" lon="-3.277666"><ele>299</ele><time>2023-01-14T13:17:30Z</time><name>PT2872</name></trkpt>
<trkpt lat="52.991610" lon="-3.277697"><ele>300</ele><time>2023-01-14T13:17:34Z</time><name>PT2873</name></trkpt>
<trkpt lat="52.991580" lon="-3.277724"><ele>300</ele><time>2023-01-14T13:17:37Z</time><name>PT2874</name></trkpt>
<trkpt lat="52.991537" lon="-3.277764"><ele>301</ele><time>2023-01-14T13:17:42Z</time><name>PT2875</name></trkpt>
<trkpt lat="52.991506" lon="-3.277795"><ele>301</ele><time>2023-01-14T13:17:45Z</time><name>PT2876</name></trkpt>
<trkpt lat="52.991456" lon="-3.277842"><ele>302</ele><time>2023-01-14T13:17:48Z</time><name>PT2877</name></trkpt>
<trkpt lat="52.991429" lon="-3.277874"><ele>302</ele><time>2023-01-14T13:17:51Z</time><name>PT2878</name></trkpt>
<trkpt lat="52.991391" lon="-3.277917"><ele>302</ele><time>2023-01-14T13:17:55Z</time><name>PT2879</name></trkpt>
<trkpt lat="52.991368" lon="-3.277947"><ele>301</ele><time>2023-01-14T13:17:58Z</time><name>PT2880</name></trkpt>
<trkpt lat="52.991338" lon="-3.277984"><ele>300</ele><time>2023-01-14T13:18:03Z</time><name>PT2881</name></trkpt>
<trkpt lat="52.991317" lon="-3.278008"><ele>299</ele><time>2023-01-14T13:18:06Z</time><name>PT2882</name></trkpt>
<trkpt lat="52.991288" lon="-3.278038"><ele>299</ele><time>2023-01-14T13:18:09Z</time><name>PT2883</name></trkpt>
<trkpt lat="52.991264" lon="-3.278061"><ele>298</ele><time>2023-01-14T13:18:12Z</time><name>PT2884</name></trkpt>
<trkpt lat="52.991227" lon="-3.278099"><ele>298</ele><time>2023-01-14T13:18:15Z</time><name>PT2885</name></trkpt>
<trkpt lat="52.991179" lon="-3.278152"><ele>299</ele><time>2023-01-14T13:18:19Z</time><name>PT2886</name></trkpt>
<trkpt lat="52.991131" lon="-3.278202"><ele>300</ele><time>2023-01-14T13:18:24Z</time><name>PT2887</name></trkpt>
<trkpt lat="52.991096" lon="-3.278237"><ele>299</ele><time>2023-01-14T13:18:27Z</time><name>PT2888</name></trkpt>
<trkpt lat="52.991058" lon="-3.278274"><ele>299</ele><time>2023-01-14T13:18:30Z</time><name>PT2889</name></trkpt>
<trkpt lat="52.991027" lon="-3.278320"><ele>297</ele><time>2023-01-14T13:18:34Z</time><name>PT2890</name></trkpt>
<trkpt lat="52.990987" lon="-3.278370"><ele>297</ele><time>2023-01-14T13:18:39Z</time><name>PT2891</name></trkpt>
<trkpt lat="52.990952" lon="-3.278415"><ele>297</ele><time>2023-01-14T13:18:42Z</time><name>PT2892</name></trkpt>
<trkpt lat="52.990922" lon="-3.278463"><ele>296</ele><time>2023-01-14T13:18:46Z</time><name>PT2893</name></trkpt>
<trkpt lat="52.990882" lon="-3.278520"><ele>297</ele><time>2023-01-14T13:18:51Z</time><name>PT2894</name></trkpt>
<trkpt lat="52.990847" lon="-3.278577"><ele>298</ele><time>2023-01-14T13:18:54Z</time><name>PT2895</name></trkpt>
<trkpt lat="52.990824" lon="-3.278651"><ele>297</ele><time>2023-01-14T13:18:58Z</time><name>PT2896</name></trkpt>
<trkpt lat="52.990792" lon="-3.278750"><ele>296</ele><time>2023-01-14T13:19:03Z</time><name>PT2897</name></trkpt>
<trkpt lat="52.990773" lon="-3.278798"><ele>296</ele><time>2023-01-14T13:19:06Z</time><name>PT2898</name></trkpt>
<trkpt lat="52.990763" lon="-3.278857"><ele>295</ele><time>2023-01-14T13:19:09Z</time><name>PT2899</name></trkpt>
<trkpt lat="52.990748" lon="-3.278913"><ele>294</ele><time>2023-01-14T13:19:13Z</time><name>PT2900</name></trkpt>
<trkpt lat="52.990730" lon="-3.278975"><ele>294</ele><time>2023-01-14T13:19:18Z</time><name>PT2901</name></trkpt>
<trkpt lat="52.990725" lon="-3.279025"><ele>294</ele><time>2023-01-14T13:19:21Z</time><name>PT2902</name></trkpt>
<trkpt lat="52.990720" lon="-3.279083"><ele>293</ele><time>2023-01-14T13:19:24Z</time><name>PT2903</name></trkpt>
<trkpt lat="52.990719" lon="-3.279137"><ele>292</ele><time>2023-01-14T13:19:28Z</time><name>PT2904</name></trkpt>
<trkpt lat="52.990720" lon="-3.279169"><ele>291</ele><time>2023-01-14T13:19:31Z</time><name>PT2905</name></trkpt>
<trkpt lat="52.990720" lon="-3.279220"><ele>292</ele><time>2023-01-14T13:19:36Z</time><name>PT2906</name></trkpt>
<trkpt lat="52.990719" lon="-3.279270"><ele>292</ele><time>2023-01-14T13:19:39Z</time><name>PT2907</name></trkpt>
<trkpt lat="52.990699" lon="-3.279329"><ele>288</ele><time>2023-01-14T13:19:42Z</time><name>PT2908</name></trkpt>
<trkpt lat="52.990692" lon="-3.279397"><ele>287</ele><time>2023-01-14T13:19:46Z</time><name>PT2909</name></trkpt>
<trkpt lat="52.990678" lon="-3.279476"><ele>285</ele><time>2023-01-14T13:19:51Z</time><name>PT2910</name></trkpt>
<trkpt lat="52.990669" lon="-3.279568"><ele>285</ele><time>2023-01-14T13:19:54Z</time><name>PT2911</name></trkpt>
<trkpt lat="52.990668" lon="-3.279655"><ele>285</ele><time>2023-01-14T13:19:58Z</time><name>PT2912</name></trkpt>
<trkpt lat="52.990670" lon="-3.279705"><ele>284</ele><time>2023-01-14T13:20:01Z</time><name>PT2913</name></trkpt>
<trkpt lat="52.990661" lon="-3.279770"><ele>283</ele><time>2023-01-14T13:20:06Z</time><name>PT2914</name></trkpt>
<trkpt lat="52.990654" lon="-3.279850"><ele>283</ele><time>2023-01-14T13:20:09Z</time><name>PT2915</name></trkpt>
<trkpt lat="52.990635" lon="-3.279935"><ele>282</ele><time>2023-01-14T13:20:13Z</time><name>PT2916</name></trkpt>
<trkpt lat="52.990624" lon="-3.279977"><ele>280</ele><time>2023-01-14T13:20:16Z</time><name>PT2917</name></trkpt>
<trkpt lat="52.990606" lon="-3.280043"><ele>282</ele><time>2023-01-14T13:20:19Z</time><name>PT2918</name></trkpt>
<trkpt lat="52.990600" lon="-3.280104"><ele>282</ele><time>2023-01-14T13:20:22Z</time><name>PT2919</name></trkpt>
<trkpt lat="52.990594" lon="-3.280169"><ele>282</ele><time>2023-01-14T13:20:25Z</time><name>PT2920</name></trkpt>
<trkpt lat="52.990589" lon="-3.280277"><ele>284</ele><time>2023-01-14T13:20:30Z</time><name>PT2921</name></trkpt>
<trkpt lat="52.990584" lon="-3.280351"><ele>284</ele><time>2023-01-14T13:20:33Z</time><name>PT2922</name></trkpt>
<trkpt lat="52.990586" lon="-3.280432"><ele>285</ele><time>2023-01-14T13:20:37Z</time><name>PT2923</name></trkpt>
<trkpt lat="52.990585" lon="-3.280480"><ele>284</ele><time>2023-01-14T13:20:40Z</time><name>PT2924</name></trkpt>
<trkpt lat="52.990575" lon="-3.280580"><ele>284</ele><time>2023-01-14T13:20:45Z</time><name>PT2925</name></trkpt>
<trkpt lat="52.990562" lon="-3.280650"><ele>283</ele><time>2023-01-14T13:20:48Z</time><name>PT2926</name></trkpt>
<trkpt lat="52.990546" lon="-3.280688"><ele>282</ele><time>2023-01-14T13:20:52Z</time><name>PT2927</name></trkpt>
<trkpt lat="52.990524" lon="-3.280707"><ele>281</ele><time>2023-01-14T13:20:57Z</time><name>PT2928</name></trkpt>
<trkpt lat="52.990510" lon="-3.280724"><ele>283</ele><time>2023-01-14T13:21:00Z</time><name>PT2929</name></trkpt>
<trkpt lat="52.990510" lon="-3.280731"><ele>284</ele><time>2023-01-14T13:21:04Z</time><name>PT2930</name></trkpt>
<trkpt lat="52.990505" lon="-3.280736"><ele>283</ele><time>2023-01-14T13:21:07Z</time><name>PT2931</name></trkpt>
<trkpt lat="52.990479" lon="-3.280780"><ele>279</ele><time>2023-01-14T13:21:12Z</time><name>PT2932</name></trkpt>
<trkpt lat="52.990453" lon="-3.280778"><ele>277</ele><time>2023-01-14T13:21:15Z</time><name>PT2933</name></trkpt>
<trkpt lat="52.990425" lon="-3.280774"><ele>277</ele><time>2023-01-14T13:21:19Z</time><name>PT2934</name></trkpt>
<trkpt lat="52.990420" lon="-3.280767"><ele>276</ele><time>2023-01-14T13:21:24Z</time><name>PT2935</name></trkpt>
<trkpt lat="52.990388" lon="-3.280740"><ele>274</ele><time>2023-01-14T13:21:27Z</time><name>PT2936</name></trkpt>
<trkpt lat="52.990363" lon="-3.280698"><ele>274</ele><time>2023-01-14T13:21:30Z</time><name>PT2937</name></trkpt>
<trkpt lat="52.990342" lon="-3.280684"><ele>273</ele><time>2023-01-14T13:21:33Z</time><name>PT2938</name></trkpt>
<trkpt lat="52.990328" lon="-3.280681"><ele>271</ele><time>2023-01-14T13:21:36Z</time><name>PT2939</name></trkpt>
<trkpt lat="52.990309" lon="-3.280680"><ele>270</ele><time>2023-01-14T13:21:39Z</time><name>PT2940</name></trkpt>
<trkpt lat="52.990277" lon="-3.280681"><ele>271</ele><time>2023-01-14T13:21:43Z</time><name>PT2941</name></trkpt>
<trkpt lat="52.990240" lon="-3.280708"><ele>270</ele><time>2023-01-14T13:21:48Z</time><name>PT2942</name></trkpt>
<trkpt lat="52.990188" lon="-3.280729"><ele>274</ele><time>2023-01-14T13:21:51Z</time><name>PT2943</name></trkpt>
<trkpt lat="52.990135" lon="-3.280748"><ele>275</ele><time>2023-01-14T13:21:54Z</time><name>PT2944</name></trkpt>
<trkpt lat="52.990102" lon="-3.280767"><ele>276</ele><time>2023-01-14T13:21:58Z</time><name>PT2945</name></trkpt>
<trkpt lat="52.990065" lon="-3.280787"><ele>275</ele><time>2023-01-14T13:22:03Z</time><name>PT2946</name></trkpt>
<trkpt lat="52.990034" lon="-3.280811"><ele>275</ele><time>2023-01-14T13:22:06Z</time><name>PT2947</name></trkpt>
<trkpt lat="52.990003" lon="-3.280835"><ele>275</ele><time>2023-01-14T13:22:09Z</time><name>PT2948</name></trkpt>
<trkpt lat="52.989960" lon="-3.280867"><ele>274</ele><time>2023-01-14T13:22:12Z</time><name>PT2949</name></trkpt>
<trkpt lat="52.989919" lon="-3.280898"><ele>273</ele><time>2023-01-14T13:22:16Z</time><name>PT2950</name></trkpt>
<trkpt lat="52.989890" lon="-3.280922"><ele>273</ele><time>2023-01-14T13:22:19Z</time><name>PT2951</name></trkpt>
<trkpt lat="52.989846" lon="-3.280955"><ele>272</ele><time>2023-01-14T13:22:24Z</time><name>PT2952</name></trkpt>
<trkpt lat="52.989811" lon="-3.280980"><ele>272</ele><time>2023-01-14T13:22:27Z</time><name>PT2953</name></trkpt>
<trkpt lat="52.989779" lon="-3.281003"><ele>271</ele><time>2023-01-14T13:22:30Z</time><name>PT2954</name></trkpt>
<trkpt lat="52.989734" lon="-3.281035"><ele>271</ele><time>2023-01-14T13:22:33Z</time><name>PT2955</name></trkpt>
<trkpt lat="52.989700" lon="-3.281064"><ele>271</ele><time>2023-01-14T13:22:36Z</time><name>PT2956</name></trkpt>
<trkpt lat="52.989670" lon="-3.281089"><ele>270</ele><time>2023-01-14T13:22:39Z</time><name>PT2957</name></trkpt>
<trkpt lat="52.989628" lon="-3.281121"><ele>270</ele><time>2023-01-14T13:22:43Z</time><name>PT2958</name></trkpt>
<trkpt lat="52.989598" lon="-3.281146"><ele>269</ele><time>2023-01-14T13:22:46Z</time><name>PT2959</name></trkpt>
<trkpt lat="52.989559" lon="-3.281182"><ele>268</ele><time>2023-01-14T13:22:51Z</time><name>PT2960</name></trkpt>
<trkpt lat="52.989532" lon="-3.281202"><ele>267</ele><time>2023-01-14T13:22:54Z</time><name>PT2961</name></trkpt>
<trkpt lat="52.989512" lon="-3.281211"><ele>266</ele><time>2023-01-14T13:22:57Z</time><name>PT2962</name></trkpt>
<trkpt lat="52.989485" lon="-3.281238"><ele>265</ele><time>2023-01-14T13:23:00Z</time><name>PT2963</name></trkpt>
<trkpt lat="52.989452" lon="-3.281253"><ele>264</ele><time>2023-01-14T13:23:03Z</time><name>PT2964</name></trkpt>
<trkpt lat="52.989427" lon="-3.281273"><ele>261</ele><time>2023-01-14T13:23:07Z</time><name>PT2965</name></trkpt>
<trkpt lat="52.989403" lon="-3.281292"><ele>261</ele><time>2023-01-14T13:23:10Z</time><name>PT2966</name></trkpt>
<trkpt lat="52.989368" lon="-3.281306"><ele>260</ele><time>2023-01-14T13:23:15Z</time><name>PT2967</name></trkpt>
<trkpt lat="52.989330" lon="-3.281333"><ele>259</ele><time>2023-01-14T13:23:18Z</time><name>PT2968</name></trkpt>
<trkpt lat="52.989305" lon="-3.281350"><ele>260</ele><time>2023-01-14T13:23:21Z</time><name>PT2969</name></trkpt>
<trkpt lat="52.989278" lon="-3.281372"><ele>259</ele><time>2023-01-14T13:23:24Z</time><name>PT2970</name></trkpt>
<trkpt lat="52.989235" lon="-3.281404"><ele>259</ele><time>2023-01-14T13:23:29Z</time><name>PT2971</name></trkpt>
<trkpt lat="52.989202" lon="-3.281428"><ele>259</ele><time>2023-01-14T13:23:32Z</time><name>PT2972</name></trkpt>
<trkpt lat="52.989169" lon="-3.281460"><ele>259</ele><time>2023-01-14T13:23:35Z</time><name>PT2973</name></trkpt>
<trkpt lat="52.989132" lon="-3.281502"><ele>259</ele><time>2023-01-14T13:23:38Z</time><name>PT2974</name></trkpt>
<trkpt lat="52.989087" lon="-3.281553"><ele>259</ele><time>2023-01-14T13:23:41Z</time><name>PT2975</name></trkpt>
<trkpt lat="52.989048" lon="-3.281577"><ele>258</ele><time>2023-01-14T13:23:44Z</time><name>PT2976</name></trkpt>
<trkpt lat="52.989011" lon="-3.281602"><ele>258</ele><time>2023-01-14T13:23:47Z</time><name>PT2977</name></trkpt>
<trkpt lat="52.988977" lon="-3.281629"><ele>258</ele><time>2023-01-14T13:23:50Z</time><name>PT2978</name></trkpt>
<trkpt lat="52.988922" lon="-3.281673"><ele>257</ele><time>2023-01-14T13:23:54Z</time><name>PT2979</name></trkpt>
<trkpt lat="52.988876" lon="-3.281693"><ele>257</ele><time>2023-01-14T13:23:57Z</time><name>PT2980</name></trkpt>
<trkpt lat="52.988851" lon="-3.281709"><ele>256</ele><time>2023-01-14T13:24:00Z</time><name>PT2981</name></trkpt>
<trkpt lat="52.988828" lon="-3.281733"><ele>255</ele><time>2023-01-14T13:24:05Z</time><name>PT2982</name></trkpt>
<trkpt lat="52.988796" lon="-3.281753"><ele>254</ele><time>2023-01-14T13:24:08Z</time><name>PT2983</name></trkpt>
<trkpt lat="52.988758" lon="-3.281774"><ele>253</ele><time>2023-01-14T13:24:11Z</time><name>PT2984</name></trkpt>
<trkpt lat="52.988714" lon="-3.281809"><ele>253</ele><time>2023-01-14T13:24:14Z</time><name>PT2985</name></trkpt>
<trkpt lat="52.988681" lon="-3.281828"><ele>253</ele><time>2023-01-14T13:24:17Z</time><name>PT2986</name></trkpt>
<trkpt lat="52.988637" lon="-3.281855"><ele>253</ele><time>2023-01-14T13:24:20Z</time><name>PT2987</name></trkpt>
<trkpt lat="52.988603" lon="-3.281889"><ele>253</ele><time>2023-01-14T13:24:24Z</time><name>PT2988</name></trkpt>
<trkpt lat="52.988572" lon="-3.281923"><ele>252</ele><time>2023-01-14T13:24:27Z</time><name>PT2989</name></trkpt>
<trkpt lat="52.988536" lon="-3.281962"><ele>251</ele><time>2023-01-14T13:24:32Z</time><name>PT2990</name></trkpt>
<trkpt lat="52.988500" lon="-3.282005"><ele>251</ele><time>2023-01-14T13:24:35Z</time><name>PT2991</name></trkpt>
<trkpt lat="52.988478" lon="-3.282030"><ele>249</ele><time>2023-01-14T13:24:38Z</time><name>PT2992</name></trkpt>
<trkpt lat="52.988456" lon="-3.282046"><ele>247</ele><time>2023-01-14T13:24:41Z</time><name>PT2993</name></trkpt>
<trkpt lat="52.988420" lon="-3.282064"><ele>245</ele><time>2023-01-14T13:24:44Z</time><name>PT2994</name></trkpt>
<trkpt lat="52.988376" lon="-3.282080"><ele>244</ele><time>2023-01-14T13:24:48Z</time><name>PT2995</name></trkpt>
<trkpt lat="52.988355" lon="-3.282097"><ele>243</ele><time>2023-01-14T13:24:51Z</time><name>PT2996</name></trkpt>
<trkpt lat="52.988328" lon="-3.282138"><ele>240</ele><time>2023-01-14T13:24:56Z</time><name>PT2997</name></trkpt>
<trkpt lat="52.988298" lon="-3.282167"><ele>241</ele><time>2023-01-14T13:24:59Z</time><name>PT2998</name></trkpt>
<trkpt lat="52.988261" lon="-3.282221"><ele>242</ele><time>2023-01-14T13:25:02Z</time><name>PT2999</name></trkpt>
<trkpt lat="52.988214" lon="-3.282252"><ele>244</ele><time>2023-01-14T13:25:05Z</time><name>PT3000</name></trkpt>
<trkpt lat="52.988184" lon="-3.282286"><ele>244</ele><time>2023-01-14T13:25:09Z</time><name>PT3001</name></trkpt>
<trkpt lat="52.988142" lon="-3.282325"><ele>244</ele><time>2023-01-14T13:25:14Z</time><name>PT3002</name></trkpt>
<trkpt lat="52.988104" lon="-3.282375"><ele>243</ele><time>2023-01-14T13:25:17Z</time><name>PT3003</name></trkpt>
<trkpt lat="52.988057" lon="-3.282412"><ele>244</ele><time>2023-01-14T13:25:21Z</time><name>PT3004</name></trkpt>
<trkpt lat="52.988008" lon="-3.282450"><ele>245</ele><time>2023-01-14T13:25:26Z</time><name>PT3005</name></trkpt>
<trkpt lat="52.987970" lon="-3.282482"><ele>244</ele><time>2023-01-14T13:25:29Z</time><name>PT3006</name></trkpt>
<trkpt lat="52.987930" lon="-3.282502"><ele>246</ele><time>2023-01-14T13:25:32Z</time><name>PT3007</name></trkpt>
<trkpt lat="52.987890" lon="-3.282510"><ele>245</ele><time>2023-01-14T13:25:35Z</time><name>PT3008</name></trkpt>
<trkpt lat="52.987858" lon="-3.282517"><ele>245</ele><time>2023-01-14T13:25:38Z</time><name>PT3009</name></trkpt>
<trkpt lat="52.987798" lon="-3.282539"><ele>245</ele><time>2023-01-14T13:25:42Z</time><name>PT3010</name></trkpt>
<trkpt lat="52.987751" lon="-3.282561"><ele>247</ele><time>2023-01-14T13:25:47Z</time><name>PT3011</name></trkpt>
<trkpt lat="52.987736" lon="-3.282559"><ele>248</ele><time>2023-01-14T13:25:50Z</time><name>PT3012</name></trkpt>
<trkpt lat="52.987738" lon="-3.282558"><ele>248</ele><time>2023-01-14T13:25:53Z</time><name>PT3013</name></trkpt>
<trkpt lat="52.987738" lon="-3.282556"><ele>247</ele><time>2023-01-14T13:25:56Z</time><name>PT3014</name></trkpt>
<trkpt lat="52.987742" lon="-3.282544"><ele>247</ele><time>2023-01-14T13:25:59Z</time><name>PT3015</name></trkpt>
<trkpt lat="52.987739" lon="-3.282541"><ele>247</ele><time>2023-01-14T13:26:06Z</time><name>PT3016</name></trkpt>
<trkpt lat="52.987697" lon="-3.282529"><ele>245</ele><time>2023-01-14T13:26:11Z</time><name>PT3017</name></trkpt>
<trkpt lat="52.987665" lon="-3.282517"><ele>244</ele><time>2023-01-14T13:26:14Z</time><name>PT3018</name></trkpt>
<trkpt lat="52.987622" lon="-3.282503"><ele>244</ele><time>2023-01-14T13:26:17Z</time><name>PT3019</name></trkpt>
<trkpt lat="52.987601" lon="-3.282497"><ele>243</ele><time>2023-01-14T13:26:20Z</time><name>PT3020</name></trkpt>
<trkpt lat="52.987569" lon="-3.282486"><ele>242</ele><time>2023-01-14T13:26:24Z</time><name>PT3021</name></trkpt>
<trkpt lat="52.987542" lon="-3.282472"><ele>242</ele><time>2023-01-14T13:26:27Z</time><name>PT3022</name></trkpt>
<trkpt lat="52.987507" lon="-3.282464"><ele>241</ele><time>2023-01-14T13:26:30Z</time><name>PT3023</name></trkpt>
<trkpt lat="52.987477" lon="-3.282422"><ele>241</ele><time>2023-01-14T13:26:33Z</time><name>PT3024</name></trkpt>
<trkpt lat="52.987428" lon="-3.282399"><ele>238</ele><time>2023-01-14T13:26:38Z</time><name>PT3025</name></trkpt>
<trkpt lat="52.987376" lon="-3.282363"><ele>238</ele><time>2023-01-14T13:26:41Z</time><name>PT3026</name></trkpt>
<trkpt lat="52.987331" lon="-3.282308"><ele>239</ele><time>2023-01-14T13:26:44Z</time><name>PT3027</name></trkpt>
<trkpt lat="52.987324" lon="-3.282328"><ele>239</ele><time>2023-01-14T13:26:47Z</time><name>PT3028</name></trkpt>
<trkpt lat="52.987318" lon="-3.282352"><ele>240</ele><time>2023-01-14T13:26:51Z</time><name>PT3029</name></trkpt>
<trkpt lat="52.987309" lon="-3.282393"><ele>239</ele><time>2023-01-14T13:26:54Z</time><name>PT3030</name></trkpt>
<trkpt lat="52.987323" lon="-3.282426"><ele>242</ele><time>2023-01-14T13:26:59Z</time><name>PT3031</name></trkpt>
<trkpt lat="52.987321" lon="-3.282435"><ele>241</ele><time>2023-01-14T13:27:02Z</time><name>PT3032</name></trkpt>
<trkpt lat="52.987322" lon="-3.282462"><ele>241</ele><time>2023-01-14T13:27:06Z</time><name>PT3033</name></trkpt>
<trkpt lat="52.987318" lon="-3.282451"><ele>240</ele><time>2023-01-14T13:27:09Z</time><name>PT3034</name></trkpt>
<trkpt lat="52.987323" lon="-3.282450"><ele>244</ele><time>2023-01-14T13:27:14Z</time><name>PT3035</name></trkpt>
<trkpt lat="52.987332" lon="-3.282490"><ele>245</ele><time>2023-01-14T13:27:17Z</time><name>PT3036</name></trkpt>
<trkpt lat="52.987343" lon="-3.282509"><ele>248</ele><time>2023-01-14T13:27:20Z</time><name>PT3037</name></trkpt>
<trkpt lat="52.987351" lon="-3.282550"><ele>248</ele><time>2023-01-14T13:27:23Z</time><name>PT3038</name></trkpt>
<trkpt lat="52.987361" lon="-3.282611"><ele>250</ele><time>2023-01-14T13:27:26Z</time><name>PT3039</name></trkpt>
<trkpt lat="52.987367" lon="-3.282667"><ele>250</ele><time>2023-01-14T13:27:29Z</time><name>PT3040</name></trkpt>
<trkpt lat="52.987372" lon="-3.282696"><ele>251</ele><time>2023-01-14T13:27:32Z</time><name>PT3041</name></trkpt>
<trkpt lat="52.987373" lon="-3.282744"><ele>253</ele><time>2023-01-14T13:27:36Z</time><name>PT3042</name></trkpt>
<trkpt lat="52.987370" lon="-3.282798"><ele>253</ele><time>2023-01-14T13:27:41Z</time><name>PT3043</name></trkpt>
<trkpt lat="52.987383" lon="-3.282860"><ele>253</ele><time>2023-01-14T13:27:44Z</time><name>PT3044</name></trkpt>
<trkpt lat="52.987386" lon="-3.282905"><ele>254</ele><time>2023-01-14T13:27:47Z</time><name>PT3045</name></trkpt>
<trkpt lat="52.987388" lon="-3.282965"><ele>254</ele><time>2023-01-14T13:27:51Z</time><name>PT3046</name></trkpt>
<trkpt lat="52.987389" lon="-3.283004"><ele>254</ele><time>2023-01-14T13:27:54Z</time><name>PT3047</name></trkpt>
<trkpt lat="52.987400" lon="-3.283070"><ele>259</ele><time>2023-01-14T13:27:59Z</time><name>PT3048</name></trkpt>
<trkpt lat="52.987392" lon="-3.283122"><ele>257</ele><time>2023-01-14T13:28:02Z</time><name>PT3049</name></trkpt>
<trkpt lat="52.987393" lon="-3.283200"><ele>257</ele><time>2023-01-14T13:28:05Z</time><name>PT3050</name></trkpt>
<trkpt lat="52.987396" lon="-3.283250"><ele>257</ele><time>2023-01-14T13:28:08Z</time><name>PT3051</name></trkpt>
<trkpt lat="52.987401" lon="-3.283322"><ele>257</ele><time>2023-01-14T13:28:12Z</time><name>PT3052</name></trkpt>
<trkpt lat="52.987406" lon="-3.283377"><ele>258</ele><time>2023-01-14T13:28:15Z</time><name>PT3053</name></trkpt>
<trkpt lat="52.987407" lon="-3.283425"><ele>259</ele><time>2023-01-14T13:28:18Z</time><name>PT3054</name></trkpt>
<trkpt lat="52.987406" lon="-3.283497"><ele>260</ele><time>2023-01-14T13:28:23Z</time><name>PT3055</name></trkpt>
<trkpt lat="52.987410" lon="-3.283540"><ele>260</ele><time>2023-01-14T13:28:26Z</time><name>PT3056</name></trkpt>
<trkpt lat="52.987413" lon="-3.283595"><ele>262</ele><time>2023-01-14T13:28:29Z</time><name>PT3057</name></trkpt>
<trkpt lat="52.987421" lon="-3.283630"><ele>263</ele><time>2023-01-14T13:28:32Z</time><name>PT3058</name></trkpt>
<trkpt lat="52.987409" lon="-3.283685"><ele>263</ele><time>2023-01-14T13:28:36Z</time><name>PT3059</name></trkpt>
<trkpt lat="52.987410" lon="-3.283731"><ele>263</ele><time>2023-01-14T13:28:39Z</time><name>PT3060</name></trkpt>
<trkpt lat="52.987413" lon="-3.283776"><ele>263</ele><time>2023-01-14T13:28:44Z</time><name>PT3061</name></trkpt>
<trkpt lat="52.987410" lon="-3.283840"><ele>261</ele><time>2023-01-14T13:28:47Z</time><name>PT3062</name></trkpt>
<trkpt lat="52.987407" lon="-3.283891"><ele>263</ele><time>2023-01-14T13:28:51Z</time><name>PT3063</name></trkpt>
<trkpt lat="52.987396" lon="-3.283952"><ele>263</ele><time>2023-01-14T13:28:56Z</time><name>PT3064</name></trkpt>
<trkpt lat="52.987398" lon="-3.283989"><ele>264</ele><time>2023-01-14T13:28:59Z</time><name>PT3065</name></trkpt>
<trkpt lat="52.987399" lon="-3.284045"><ele>264</ele><time>2023-01-14T13:29:02Z</time><name>PT3066</name></trkpt>
<trkpt lat="52.987407" lon="-3.284098"><ele>265</ele><time>2023-01-14T13:29:06Z</time><name>PT3067</name></trkpt>
<trkpt lat="52.987406" lon="-3.284148"><ele>265</ele><time>2023-01-14T13:29:09Z</time><name>PT3068</name></trkpt>
<trkpt lat="52.987415" lon="-3.284193"><ele>266</ele><time>2023-01-14T13:29:12Z</time><name>PT3069</name></trkpt>
<trkpt lat="52.987416" lon="-3.284255"><ele>267</ele><time>2023-01-14T13:29:17Z</time><name>PT3070</name></trkpt>
<trkpt lat="52.987427" lon="-3.284332"><ele>271</ele><time>2023-01-14T13:29:20Z</time><name>PT3071</name></trkpt>
<trkpt lat="52.987434" lon="-3.284377"><ele>272</ele><time>2023-01-14T13:29:23Z</time><name>PT3072</name></trkpt>
<trkpt lat="52.987439" lon="-3.284411"><ele>271</ele><time>2023-01-14T13:29:27Z</time><name>PT3073</name></trkpt>
<trkpt lat="52.987441" lon="-3.284456"><ele>271</ele><time>2023-01-14T13:29:30Z</time><name>PT3074</name></trkpt>
<trkpt lat="52.987447" lon="-3.284509"><ele>272</ele><time>2023-01-14T13:29:35Z</time><name>PT3075</name></trkpt>
<trkpt lat="52.987454" lon="-3.284548"><ele>274</ele><time>2023-01-14T13:29:38Z</time><name>PT3076</name></trkpt>
<trkpt lat="52.987453" lon="-3.284614"><ele>273</ele><time>2023-01-14T13:29:41Z</time><name>PT3077</name></trkpt>
<trkpt lat="52.987471" lon="-3.284681"><ele>276</ele><time>2023-01-14T13:29:45Z</time><name>PT3078</name></trkpt>
<trkpt lat="52.987468" lon="-3.284726"><ele>276</ele><time>2023-01-14T13:29:48Z</time><name>PT3079</name></trkpt>
<trkpt lat="52.987461" lon="-3.284766"><ele>276</ele><time>2023-01-14T13:29:51Z</time><name>PT3080</name></trkpt>
<trkpt lat="52.987461" lon="-3.284806"><ele>277</ele><time>2023-01-14T13:29:54Z</time><name>PT3081</name></trkpt>
<trkpt lat="52.987459" lon="-3.284844"><ele>277</ele><time>2023-01-14T13:29:57Z</time><name>PT3082</name></trkpt>
<trkpt lat="52.987462" lon="-3.284891"><ele>279</ele><time>2023-01-14T13:30:02Z</time><name>PT3083</name></trkpt>
<trkpt lat="52.987466" lon="-3.284955"><ele>280</ele><time>2023-01-14T13:30:05Z</time><name>PT3084</name></trkpt>
<trkpt lat="52.987472" lon="-3.284991"><ele>283</ele><time>2023-01-14T13:30:08Z</time><name>PT3085</name></trkpt>
<trkpt lat="52.987471" lon="-3.285045"><ele>283</ele><time>2023-01-14T13:30:12Z</time><name>PT3086</name></trkpt>
<trkpt lat="52.987470" lon="-3.285105"><ele>282</ele><time>2023-01-14T13:30:17Z</time><name>PT3087</name></trkpt>
<trkpt lat="52.987469" lon="-3.285159"><ele>282</ele><time>2023-01-14T13:30:20Z</time><name>PT3088</name></trkpt>
<trkpt lat="52.987469" lon="-3.285193"><ele>284</ele><time>2023-01-14T13:30:23Z</time><name>PT3089</name></trkpt>
<trkpt lat="52.987464" lon="-3.285232"><ele>283</ele><time>2023-01-14T13:30:26Z</time><name>PT3090</name></trkpt>
<trkpt lat="52.987471" lon="-3.285260"><ele>283</ele><time>2023-01-14T13:30:30Z</time><name>PT3091</name></trkpt>
<trkpt lat="52.987482" lon="-3.285280"><ele>284</ele><time>2023-01-14T13:30:33Z</time><name>PT3092</name></trkpt>
<trkpt lat="52.987461" lon="-3.285265"><ele>281</ele><time>2023-01-14T13:30:38Z</time><name>PT3093</name></trkpt>
<trkpt lat="52.987478" lon="-3.285310"><ele>284</ele><time>2023-01-14T13:30:41Z</time><name>PT3094</name></trkpt>
<trkpt lat="52.987473" lon="-3.285384"><ele>283</ele><time>2023-01-14T13:30:44Z</time><name>PT3095</name></trkpt>
<trkpt lat="52.987467" lon="-3.285431"><ele>284</ele><time>2023-01-14T13:30:48Z</time><name>PT3096</name></trkpt>
<trkpt lat="52.987465" lon="-3.285474"><ele>285</ele><time>2023-01-14T13:30:51Z</time><name>PT3097</name></trkpt>
<trkpt lat="52.987464" lon="-3.285554"><ele>286</ele><time>2023-01-14T13:30:56Z</time><name>PT3098</name></trkpt>
<trkpt lat="52.987465" lon="-3.285603"><ele>286</ele><time>2023-01-14T13:30:59Z</time><name>PT3099</name></trkpt>
<trkpt lat="52.987465" lon="-3.285666"><ele>287</ele><time>2023-01-14T13:31:02Z</time><name>PT3100</name></trkpt>
<trkpt lat="52.987472" lon="-3.285729"><ele>288</ele><time>2023-01-14T13:31:06Z</time><name>PT3101</name></trkpt>
<trkpt lat="52.987475" lon="-3.285776"><ele>289</ele><time>2023-01-14T13:31:09Z</time><name>PT3102</name></trkpt>
<trkpt lat="52.987482" lon="-3.285831"><ele>291</ele><time>2023-01-14T13:31:14Z</time><name>PT3103</name></trkpt>
<trkpt lat="52.987484" lon="-3.285879"><ele>291</ele><time>2023-01-14T13:31:17Z</time><name>PT3104</name></trkpt>
<trkpt lat="52.987482" lon="-3.285941"><ele>290</ele><time>2023-01-14T13:31:20Z</time><name>PT3105</name></trkpt>
<trkpt lat="52.987485" lon="-3.285985"><ele>291</ele><time>2023-01-14T13:31:23Z</time><name>PT3106</name></trkpt>
<trkpt lat="52.987487" lon="-3.286023"><ele>292</ele><time>2023-01-14T13:31:26Z</time><name>PT3107</name></trkpt>
<trkpt lat="52.987491" lon="-3.286080"><ele>292</ele><time>2023-01-14T13:31:30Z</time><name>PT3108</name></trkpt>
<trkpt lat="52.987492" lon="-3.286134"><ele>292</ele><time>2023-01-14T13:31:33Z</time><name>PT3109</name></trkpt>
<trkpt lat="52.987492" lon="-3.286188"><ele>293</ele><time>2023-01-14T13:31:38Z</time><name>PT3110</name></trkpt>
<trkpt lat="52.987502" lon="-3.286261"><ele>294</ele><time>2023-01-14T13:31:41Z</time><name>PT3111</name></trkpt>
<trkpt lat="52.987507" lon="-3.286320"><ele>296</ele><time>2023-01-14T13:31:45Z</time><name>PT3112</name></trkpt>
<trkpt lat="52.987506" lon="-3.286367"><ele>297</ele><time>2023-01-14T13:31:48Z</time><name>PT3113</name></trkpt>
<trkpt lat="52.987508" lon="-3.286417"><ele>298</ele><time>2023-01-14T13:31:53Z</time><name>PT3114</name></trkpt>
<trkpt lat="52.987509" lon="-3.286475"><ele>300</ele><time>2023-01-14T13:31:56Z</time><name>PT3115</name></trkpt>
<trkpt lat="52.987507" lon="-3.286533"><ele>300</ele><time>2023-01-14T13:32:00Z</time><name>PT3116</name></trkpt>
<trkpt lat="52.987508" lon="-3.286586"><ele>300</ele><time>2023-01-14T13:32:05Z</time><name>PT3117</name></trkpt>
<trkpt lat="52.987508" lon="-3.286645"><ele>300</ele><time>2023-01-14T13:32:08Z</time><name>PT3118</name></trkpt>
<trkpt lat="52.987519" lon="-3.286704"><ele>301</ele><time>2023-01-14T13:32:11Z</time><name>PT3119</name></trkpt>
<trkpt lat="52.987535" lon="-3.286769"><ele>301</ele><time>2023-01-14T13:32:15Z</time><name>PT3120</name></trkpt>
<trkpt lat="52.987549" lon="-3.286822"><ele>301</ele><time>2023-01-14T13:32:18Z</time><name>PT3121</name></trkpt>
<trkpt lat="52.987557" lon="-3.286888"><ele>302</ele><time>2023-01-14T13:32:23Z</time><name>PT3122</name></trkpt>
<trkpt lat="52.987561" lon="-3.286953"><ele>303</ele><time>2023-01-14T13:32:26Z</time><name>PT3123</name></trkpt>
<trkpt lat="52.987557" lon="-3.287020"><ele>303</ele><time>2023-01-14T13:32:29Z</time><name>PT3124</name></trkpt>
<trkpt lat="52.987552" lon="-3.287099"><ele>302</ele><time>2023-01-14T13:32:32Z</time><name>PT3125</name></trkpt>
<trkpt lat="52.987550" lon="-3.287180"><ele>303</ele><time>2023-01-14T13:32:36Z</time><name>PT3126</name></trkpt>
<trkpt lat="52.987547" lon="-3.287235"><ele>303</ele><time>2023-01-14T13:32:39Z</time><name>PT3127</name></trkpt>
<trkpt lat="52.987540" lon="-3.287302"><ele>302</ele><time>2023-01-14T13:32:44Z</time><name>PT3128</name></trkpt>
<trkpt lat="52.987533" lon="-3.287347"><ele>301</ele><time>2023-01-14T13:32:47Z</time><name>PT3129</name></trkpt>
<trkpt lat="52.987529" lon="-3.287406"><ele>302</ele><time>2023-01-14T13:32:50Z</time><name>PT3130</name></trkpt>
<trkpt lat="52.987527" lon="-3.287468"><ele>302</ele><time>2023-01-14T13:32:53Z</time><name>PT3131</name></trkpt>
<trkpt lat="52.987519" lon="-3.287547"><ele>302</ele><time>2023-01-14T13:32:56Z</time><name>PT3132</name></trkpt>
<trkpt lat="52.987517" lon="-3.287602"><ele>303</ele><time>2023-01-14T13:32:59Z</time><name>PT3133</name></trkpt>
<trkpt lat="52.987514" lon="-3.287667"><ele>304</ele><time>2023-01-14T13:33:03Z</time><name>PT3134</name></trkpt>
<trkpt lat="52.987513" lon="-3.287718"><ele>304</ele><time>2023-01-14T13:33:06Z</time><name>PT3135</name></trkpt>
<trkpt lat="52.987506" lon="-3.287784"><ele>305</ele><time>2023-01-14T13:33:11Z</time><name>PT3136</name></trkpt>
<trkpt lat="52.987501" lon="-3.287836"><ele>306</ele><time>2023-01-14T13:33:14Z</time><name>PT3137</name></trkpt>
<trkpt lat="52.987496" lon="-3.287891"><ele>306</ele><time>2023-01-14T13:33:17Z</time><name>PT3138</name></trkpt>
<trkpt lat="52.987486" lon="-3.287972"><ele>305</ele><time>2023-01-14T13:33:20Z</time><name>PT3139</name></trkpt>
<trkpt lat="52.987482" lon="-3.288016"><ele>306</ele><time>2023-01-14T13:33:23Z</time><name>PT3140</name></trkpt>
<trkpt lat="52.987478" lon="-3.288074"><ele>306</ele><time>2023-01-14T13:33:26Z</time><name>PT3141</name></trkpt>
<trkpt lat="52.987480" lon="-3.288135"><ele>307</ele><time>2023-01-14T13:33:29Z</time><name>PT3142</name></trkpt>
<trkpt lat="52.987490" lon="-3.288183"><ele>309</ele><time>2023-01-14T13:33:33Z</time><name>PT3143</name></trkpt>
<trkpt lat="52.987484" lon="-3.288198"><ele>309</ele><time>2023-01-14T13:33:38Z</time><name>PT3144</name></trkpt>
<trkpt lat="52.987467" lon="-3.288215"><ele>308</ele><time>2023-01-14T13:33:41Z</time><name>PT3145</name></trkpt>
<trkpt lat="52.987466" lon="-3.288252"><ele>309</ele><time>2023-01-14T13:33:44Z</time><name>PT3146</name></trkpt>
<trkpt lat="52.987466" lon="-3.288289"><ele>309</ele><time>2023-01-14T13:33:47Z</time><name>PT3147</name></trkpt>
<trkpt lat="52.987471" lon="-3.288339"><ele>310</ele><time>2023-01-14T13:33:50Z</time><name>PT3148</name></trkpt>
<trkpt lat="52.987481" lon="-3.288399"><ele>310</ele><time>2023-01-14T13:33:53Z</time><name>PT3149</name></trkpt>
<trkpt lat="52.987489" lon="-3.288459"><ele>311</ele><time>2023-01-14T13:33:57Z</time><name>PT3150</name></trkpt>
<trkpt lat="52.987505" lon="-3.288530"><ele>312</ele><time>2023-01-14T13:34:02Z</time><name>PT3151</name></trkpt>
<trkpt lat="52.987520" lon="-3.288590"><ele>313</ele><time>2023-01-14T13:34:05Z</time><name>PT3152</name></trkpt>
<trkpt lat="52.987530" lon="-3.288666"><ele>315</ele><time>2023-01-14T13:34:08Z</time><name>PT3153</name></trkpt>
<trkpt lat="52.987543" lon="-3.288715"><ele>315</ele><time>2023-01-14T13:34:12Z</time><name>PT3154</name></trkpt>
<trkpt lat="52.987553" lon="-3.288753"><ele>315</ele><time>2023-01-14T13:34:15Z</time><name>PT3155</name></trkpt>
<trkpt lat="52.987560" lon="-3.288795"><ele>316</ele><time>2023-01-14T13:34:18Z</time><name>PT3156</name></trkpt>
<trkpt lat="52.987574" lon="-3.288857"><ele>317</ele><time>2023-01-14T13:34:23Z</time><name>PT3157</name></trkpt>
<trkpt lat="52.987582" lon="-3.288898"><ele>318</ele><time>2023-01-14T13:34:26Z</time><name>PT3158</name></trkpt>
<trkpt lat="52.987586" lon="-3.288936"><ele>318</ele><time>2023-01-14T13:34:29Z</time><name>PT3159</name></trkpt>
<trkpt lat="52.987595" lon="-3.288979"><ele>317</ele><time>2023-01-14T13:34:32Z</time><name>PT3160</name></trkpt>
<trkpt lat="52.987604" lon="-3.289034"><ele>318</ele><time>2023-01-14T13:34:36Z</time><name>PT3161</name></trkpt>
<trkpt lat="52.987612" lon="-3.289067"><ele>318</ele><time>2023-01-14T13:34:39Z</time><name>PT3162</name></trkpt>
<trkpt lat="52.987617" lon="-3.289115"><ele>317</ele><time>2023-01-14T13:34:44Z</time><name>PT3163</name></trkpt>
<trkpt lat="52.987623" lon="-3.289174"><ele>318</ele><time>2023-01-14T13:34:47Z</time><name>PT3164</name></trkpt>
<trkpt lat="52.987633" lon="-3.289234"><ele>319</ele><time>2023-01-14T13:34:51Z</time><name>PT3165</name></trkpt>
<trkpt lat="52.987639" lon="-3.289270"><ele>320</ele><time>2023-01-14T13:34:54Z</time><name>PT3166</name></trkpt>
<trkpt lat="52.987645" lon="-3.289314"><ele>320</ele><time>2023-01-14T13:34:57Z</time><name>PT3167</name></trkpt>
<trkpt lat="52.987655" lon="-3.289380"><ele>320</ele><time>2023-01-14T13:35:02Z</time><name>PT3168</name></trkpt>
<trkpt lat="52.987663" lon="-3.289450"><ele>321</ele><time>2023-01-14T13:35:05Z</time><name>PT3169</name></trkpt>
<trkpt lat="52.987670" lon="-3.289500"><ele>322</ele><time>2023-01-14T13:35:08Z</time><name>PT3170</name></trkpt>
<trkpt lat="52.987675" lon="-3.289544"><ele>322</ele><time>2023-01-14T13:35:11Z</time><name>PT3171</name></trkpt>
<trkpt lat="52.987679" lon="-3.289592"><ele>323</ele><time>2023-01-14T13:35:14Z</time><name>PT3172</name></trkpt>
<trkpt lat="52.987687" lon="-3.289660"><ele>324</ele><time>2023-01-14T13:35:18Z</time><name>PT3173</name></trkpt>
<trkpt lat="52.987691" lon="-3.289699"><ele>324</ele><time>2023-01-14T13:35:21Z</time><name>PT3174</name></trkpt>
<trkpt lat="52.987698" lon="-3.289756"><ele>325</ele><time>2023-01-14T13:35:24Z</time><name>PT3175</name></trkpt>
<trkpt lat="52.987708" lon="-3.289816"><ele>326</ele><time>2023-01-14T13:35:29Z</time><name>PT3176</name></trkpt>
<trkpt lat="52.987715" lon="-3.289880"><ele>327</ele><time>2023-01-14T13:35:32Z</time><name>PT3177</name></trkpt>
<trkpt lat="52.987718" lon="-3.289887"><ele>327</ele><time>2023-01-14T13:35:35Z</time><name>PT3178</name></trkpt>
<trkpt lat="52.987729" lon="-3.289888"><ele>328</ele><time>2023-01-14T13:36:02Z</time><name>PT3179</name></trkpt>
<trkpt lat="52.987734" lon="-3.289931"><ele>330</ele><time>2023-01-14T13:36:06Z</time><name>PT3180</name></trkpt>
<trkpt lat="52.987731" lon="-3.289955"><ele>330</ele><time>2023-01-14T13:36:09Z</time><name>PT3181</name></trkpt>
<trkpt lat="52.987738" lon="-3.289966"><ele>331</ele><time>2023-01-14T13:36:14Z</time><name>PT3182</name></trkpt>
<trkpt lat="52.987741" lon="-3.290015"><ele>331</ele><time>2023-01-14T13:36:17Z</time><name>PT3183</name></trkpt>
<trkpt lat="52.987744" lon="-3.290079"><ele>332</ele><time>2023-01-14T13:36:21Z</time><name>PT3184</name></trkpt>
<trkpt lat="52.987752" lon="-3.290150"><ele>332</ele><time>2023-01-14T13:36:26Z</time><name>PT3185</name></trkpt>
<trkpt lat="52.987758" lon="-3.290221"><ele>332</ele><time>2023-01-14T13:36:29Z</time><name>PT3186</name></trkpt>
<trkpt lat="52.987762" lon="-3.290276"><ele>333</ele><time>2023-01-14T13:36:32Z</time><name>PT3187</name></trkpt>
<trkpt lat="52.987770" lon="-3.290329"><ele>333</ele><time>2023-01-14T13:36:35Z</time><name>PT3188</name></trkpt>
<trkpt lat="52.987772" lon="-3.290379"><ele>333</ele><time>2023-01-14T13:36:38Z</time><name>PT3189</name></trkpt>
<trkpt lat="52.987775" lon="-3.290453"><ele>332</ele><time>2023-01-14T13:36:42Z</time><name>PT3190</name></trkpt>
<trkpt lat="52.987779" lon="-3.290507"><ele>332</ele><time>2023-01-14T13:36:45Z</time><name>PT3191</name></trkpt>
<trkpt lat="52.987785" lon="-3.290591"><ele>332</ele><time>2023-01-14T13:36:50Z</time><name>PT3192</name></trkpt>
<trkpt lat="52.987796" lon="-3.290669"><ele>332</ele><time>2023-01-14T13:36:53Z</time><name>PT3193</name></trkpt>
<trkpt lat="52.987803" lon="-3.290727"><ele>332</ele><time>2023-01-14T13:36:56Z</time><name>PT3194</name></trkpt>
<trkpt lat="52.987816" lon="-3.290804"><ele>332</ele><time>2023-01-14T13:37:00Z</time><name>PT3195</name></trkpt>
<trkpt lat="52.987816" lon="-3.290858"><ele>331</ele><time>2023-01-14T13:37:03Z</time><name>PT3196</name></trkpt>
<trkpt lat="52.987816" lon="-3.290931"><ele>331</ele><time>2023-01-14T13:37:08Z</time><name>PT3197</name></trkpt>
<trkpt lat="52.987812" lon="-3.290981"><ele>331</ele><time>2023-01-14T13:37:11Z</time><name>PT3198</name></trkpt>
<trkpt lat="52.987826" lon="-3.291036"><ele>331</ele><time>2023-01-14T13:37:14Z</time><name>PT3199</name></trkpt>
<trkpt lat="52.987819" lon="-3.291055"><ele>331</ele><time>2023-01-14T13:37:17Z</time><name>PT3200</name></trkpt>
<trkpt lat="52.987805" lon="-3.291067"><ele>331</ele><time>2023-01-14T13:37:21Z</time><name>PT3201</name></trkpt>
<trkpt lat="52.987804" lon="-3.291069"><ele>331</ele><time>2023-01-14T13:37:24Z</time><name>PT3202</name></trkpt>
<trkpt lat="52.987805" lon="-3.291081"><ele>331</ele><time>2023-01-14T13:37:32Z</time><name>PT3203</name></trkpt>
<trkpt lat="52.987815" lon="-3.291145"><ele>332</ele><time>2023-01-14T13:37:35Z</time><name>PT3204</name></trkpt>
<trkpt lat="52.987817" lon="-3.291195"><ele>332</ele><time>2023-01-14T13:37:38Z</time><name>PT3205</name></trkpt>
<trkpt lat="52.987815" lon="-3.291259"><ele>332</ele><time>2023-01-14T13:37:42Z</time><name>PT3206</name></trkpt>
<trkpt lat="52.987811" lon="-3.291332"><ele>332</ele><time>2023-01-14T13:37:47Z</time><name>PT3207</name></trkpt>
<trkpt lat="52.987811" lon="-3.291403"><ele>332</ele><time>2023-01-14T13:37:50Z</time><name>PT3208</name></trkpt>
<trkpt lat="52.987810" lon="-3.291476"><ele>333</ele><time>2023-01-14T13:37:54Z</time><name>PT3209</name></trkpt>
<trkpt lat="52.987814" lon="-3.291526"><ele>333</ele><time>2023-01-14T13:37:57Z</time><name>PT3210</name></trkpt>
<trkpt lat="52.987816" lon="-3.291577"><ele>333</ele><time>2023-01-14T13:38:00Z</time><name>PT3211</name></trkpt>
<trkpt lat="52.987828" lon="-3.291655"><ele>333</ele><time>2023-01-14T13:38:05Z</time><name>PT3212</name></trkpt>
<trkpt lat="52.987834" lon="-3.291705"><ele>334</ele><time>2023-01-14T13:38:08Z</time><name>PT3213</name></trkpt>
<trkpt lat="52.987844" lon="-3.291779"><ele>334</ele><time>2023-01-14T13:38:11Z</time><name>PT3214</name></trkpt>
<trkpt lat="52.987852" lon="-3.291852"><ele>334</ele><time>2023-01-14T13:38:15Z</time><name>PT3215</name></trkpt>
<trkpt lat="52.987856" lon="-3.291904"><ele>335</ele><time>2023-01-14T13:38:18Z</time><name>PT3216</name></trkpt>
<trkpt lat="52.987867" lon="-3.291957"><ele>335</ele><time>2023-01-14T13:38:21Z</time><name>PT3217</name></trkpt>
<trkpt lat="52.987876" lon="-3.292008"><ele>335</ele><time>2023-01-14T13:38:24Z</time><name>PT3218</name></trkpt>
<trkpt lat="52.987887" lon="-3.292078"><ele>336</ele><time>2023-01-14T13:38:29Z</time><name>PT3219</name></trkpt>
<trkpt lat="52.987897" lon="-3.292129"><ele>336</ele><time>2023-01-14T13:38:32Z</time><name>PT3220</name></trkpt>
<trkpt lat="52.987909" lon="-3.292196"><ele>336</ele><time>2023-01-14T13:38:35Z</time><name>PT3221</name></trkpt>
<trkpt lat="52.987920" lon="-3.292242"><ele>337</ele><time>2023-01-14T13:38:38Z</time><name>PT3222</name></trkpt>
<trkpt lat="52.987934" lon="-3.292304"><ele>337</ele><time>2023-01-14T13:38:42Z</time><name>PT3223</name></trkpt>
<trkpt lat="52.987951" lon="-3.292368"><ele>338</ele><time>2023-01-14T13:38:47Z</time><name>PT3224</name></trkpt>
<trkpt lat="52.987958" lon="-3.292401"><ele>339</ele><time>2023-01-14T13:38:50Z</time><name>PT3225</name></trkpt>
<trkpt lat="52.987967" lon="-3.292454"><ele>339</ele><time>2023-01-14T13:38:53Z</time><name>PT3226</name></trkpt>
<trkpt lat="52.987977" lon="-3.292527"><ele>339</ele><time>2023-01-14T13:38:56Z</time><name>PT3227</name></trkpt>
<trkpt lat="52.987983" lon="-3.292565"><ele>339</ele><time>2023-01-14T13:39:00Z</time><name>PT3228</name></trkpt>
<trkpt lat="52.987982" lon="-3.292565"><ele>339</ele><time>2023-01-14T13:39:03Z</time><name>PT3229</name></trkpt>
<trkpt lat="52.987983" lon="-3.292566"><ele>339</ele><time>2023-01-14T13:39:08Z</time><name>PT3230</name></trkpt>
<trkpt lat="52.987999" lon="-3.292620"><ele>340</ele><time>2023-01-14T13:39:11Z</time><name>PT3231</name></trkpt>
<trkpt lat="52.988014" lon="-3.292697"><ele>341</ele><time>2023-01-14T13:39:14Z</time><name>PT3232</name></trkpt>
<trkpt lat="52.988031" lon="-3.292762"><ele>341</ele><time>2023-01-14T13:39:17Z</time><name>PT3233</name></trkpt>
<trkpt lat="52.988040" lon="-3.292808"><ele>341</ele><time>2023-01-14T13:39:20Z</time><name>PT3234</name></trkpt>
<trkpt lat="52.988057" lon="-3.292876"><ele>341</ele><time>2023-01-14T13:39:24Z</time><name>PT3235</name></trkpt>
<trkpt lat="52.988071" lon="-3.292935"><ele>341</ele><time>2023-01-14T13:39:27Z</time><name>PT3236</name></trkpt>
<trkpt lat="52.988090" lon="-3.293011"><ele>341</ele><time>2023-01-14T13:39:32Z</time><name>PT3237</name></trkpt>
<trkpt lat="52.988103" lon="-3.293066"><ele>341</ele><time>2023-01-14T13:39:35Z</time><name>PT3238</name></trkpt>
<trkpt lat="52.988119" lon="-3.293137"><ele>341</ele><time>2023-01-14T13:39:38Z</time><name>PT3239</name></trkpt>
<trkpt lat="52.988138" lon="-3.293208"><ele>342</ele><time>2023-01-14T13:39:42Z</time><name>PT3240</name></trkpt>
<trkpt lat="52.988153" lon="-3.293275"><ele>342</ele><time>2023-01-14T13:39:45Z</time><name>PT3241</name></trkpt>
<trkpt lat="52.988172" lon="-3.293346"><ele>342</ele><time>2023-01-14T13:39:50Z</time><name>PT3242</name></trkpt>
<trkpt lat="52.988191" lon="-3.293394"><ele>342</ele><time>2023-01-14T13:39:53Z</time><name>PT3243</name></trkpt>
<trkpt lat="52.988214" lon="-3.293466"><ele>342</ele><time>2023-01-14T13:39:56Z</time><name>PT3244</name></trkpt>
<trkpt lat="52.988227" lon="-3.293523"><ele>342</ele><time>2023-01-14T13:39:59Z</time><name>PT3245</name></trkpt>
<trkpt lat="52.988244" lon="-3.293596"><ele>342</ele><time>2023-01-14T13:40:03Z</time><name>PT3246</name></trkpt>
<trkpt lat="52.988253" lon="-3.293650"><ele>342</ele><time>2023-01-14T13:40:06Z</time><name>PT3247</name></trkpt>
<trkpt lat="52.988265" lon="-3.293702"><ele>342</ele><time>2023-01-14T13:40:09Z</time><name>PT3248</name></trkpt>
<trkpt lat="52.988271" lon="-3.293744"><ele>342</ele><time>2023-01-14T13:40:12Z</time><name>PT3249</name></trkpt>
<trkpt lat="52.988272" lon="-3.293748"><ele>342</ele><time>2023-01-14T13:40:17Z</time><name>PT3250</name></trkpt>
<trkpt lat="52.988273" lon="-3.293756"><ele>342</ele><time>2023-01-14T13:40:29Z</time><name>PT3251</name></trkpt>
<trkpt lat="52.988291" lon="-3.293828"><ele>342</ele><time>2023-01-14T13:40:33Z</time><name>PT3252</name></trkpt>
<trkpt lat="52.988306" lon="-3.293881"><ele>342</ele><time>2023-01-14T13:40:36Z</time><name>PT3253</name></trkpt>
<trkpt lat="52.988320" lon="-3.293938"><ele>342</ele><time>2023-01-14T13:40:39Z</time><name>PT3254</name></trkpt>
<trkpt lat="52.988335" lon="-3.293999"><ele>342</ele><time>2023-01-14T13:40:42Z</time><name>PT3255</name></trkpt>
<trkpt lat="52.988354" lon="-3.294077"><ele>341</ele><time>2023-01-14T13:40:47Z</time><name>PT3256</name></trkpt>
<trkpt lat="52.988369" lon="-3.294135"><ele>341</ele><time>2023-01-14T13:40:50Z</time><name>PT3257</name></trkpt>
<trkpt lat="52.988387" lon="-3.294210"><ele>341</ele><time>2023-01-14T13:40:53Z</time><name>PT3258</name></trkpt>
<trkpt lat="52.988392" lon="-3.294264"><ele>340</ele><time>2023-01-14T13:40:56Z</time><name>PT3259</name></trkpt>
<trkpt lat="52.988409" lon="-3.294310"><ele>340</ele><time>2023-01-14T13:40:59Z</time><name>PT3260</name></trkpt>
<trkpt lat="52.988418" lon="-3.294353"><ele>340</ele><time>2023-01-14T13:41:03Z</time><name>PT3261</name></trkpt>
<trkpt lat="52.988418" lon="-3.294363"><ele>340</ele><time>2023-01-14T13:41:08Z</time><name>PT3262</name></trkpt>
<trkpt lat="52.988415" lon="-3.294383"><ele>340</ele><time>2023-01-14T13:41:11Z</time><name>PT3263</name></trkpt>
<trkpt lat="52.988399" lon="-3.294412"><ele>340</ele><time>2023-01-14T13:41:14Z</time><name>PT3264</name></trkpt>
<trkpt lat="52.988393" lon="-3.294424"><ele>340</ele><time>2023-01-14T13:41:17Z</time><name>PT3265</name></trkpt>
<trkpt lat="52.988392" lon="-3.294423"><ele>340</ele><time>2023-01-14T13:41:20Z</time><name>PT3266</name></trkpt>
<trkpt lat="52.988389" lon="-3.294435"><ele>339</ele><time>2023-01-14T13:41:32Z</time><name>PT3267</name></trkpt>
<trkpt lat="52.988390" lon="-3.294436"><ele>339</ele><time>2023-01-14T13:41:35Z</time><name>PT3268</name></trkpt>
<trkpt lat="52.988389" lon="-3.294436"><ele>339</ele><time>2023-01-14T13:41:38Z</time><name>PT3269</name></trkpt>
<trkpt lat="52.988370" lon="-3.294479"><ele>340</ele><time>2023-01-14T13:41:41Z</time><name>PT3270</name></trkpt>
<trkpt lat="52.988358" lon="-3.294491"><ele>340</ele><time>2023-01-14T13:41:44Z</time><name>PT3271</name></trkpt>
<trkpt lat="52.988356" lon="-3.294499"><ele>340</ele><time>2023-01-14T13:41:56Z</time><name>PT3272</name></trkpt>
<trkpt lat="52.988328" lon="-3.294578"><ele>340</ele><time>2023-01-14T13:41:59Z</time><name>PT3273</name></trkpt>
<trkpt lat="52.988300" lon="-3.294637"><ele>340</ele><time>2023-01-14T13:42:03Z</time><name>PT3274</name></trkpt>
<trkpt lat="52.988277" lon="-3.294686"><ele>340</ele><time>2023-01-14T13:42:06Z</time><name>PT3275</name></trkpt>
<trkpt lat="52.988241" lon="-3.294752"><ele>340</ele><time>2023-01-14T13:42:11Z</time><name>PT3276</name></trkpt>
<trkpt lat="52.988217" lon="-3.294804"><ele>340</ele><time>2023-01-14T13:42:14Z</time><name>PT3277</name></trkpt>
<trkpt lat="52.988179" lon="-3.294872"><ele>339</ele><time>2023-01-14T13:42:17Z</time><name>PT3278</name></trkpt>
<trkpt lat="52.988144" lon="-3.294936"><ele>339</ele><time>2023-01-14T13:42:21Z</time><name>PT3279</name></trkpt>
<trkpt lat="52.988118" lon="-3.294981"><ele>339</ele><time>2023-01-14T13:42:24Z</time><name>PT3280</name></trkpt>
<trkpt lat="52.988096" lon="-3.295027"><ele>339</ele><time>2023-01-14T13:42:27Z</time><name>PT3281</name></trkpt>
<trkpt lat="52.988079" lon="-3.295085"><ele>339</ele><time>2023-01-14T13:42:30Z</time><name>PT3282</name></trkpt>
<trkpt lat="52.988066" lon="-3.295142"><ele>339</ele><time>2023-01-14T13:42:33Z</time><name>PT3283</name></trkpt>
<trkpt lat="52.988046" lon="-3.295217"><ele>338</ele><time>2023-01-14T13:42:38Z</time><name>PT3284</name></trkpt>
<trkpt lat="52.988026" lon="-3.295293"><ele>338</ele><time>2023-01-14T13:42:41Z</time><name>PT3285</name></trkpt>
<trkpt lat="52.988001" lon="-3.295371"><ele>338</ele><time>2023-01-14T13:42:45Z</time><name>PT3286</name></trkpt>
<trkpt lat="52.987979" lon="-3.295419"><ele>337</ele><time>2023-01-14T13:42:48Z</time><name>PT3287</name></trkpt>
<trkpt lat="52.987952" lon="-3.295483"><ele>338</ele><time>2023-01-14T13:42:53Z</time><name>PT3288</name></trkpt>
<trkpt lat="52.987928" lon="-3.295528"><ele>337</ele><time>2023-01-14T13:42:56Z</time><name>PT3289</name></trkpt>
<trkpt lat="52.987890" lon="-3.295578"><ele>337</ele><time>2023-01-14T13:42:59Z</time><name>PT3290</name></trkpt>
<trkpt lat="52.987865" lon="-3.295644"><ele>337</ele><time>2023-01-14T13:43:03Z</time><name>PT3291</name></trkpt>
<trkpt lat="52.987851" lon="-3.295714"><ele>337</ele><time>2023-01-14T13:43:08Z</time><name>PT3292</name></trkpt>
<trkpt lat="52.987846" lon="-3.295774"><ele>337</ele><time>2023-01-14T13:43:11Z</time><name>PT3293</name></trkpt>
<trkpt lat="52.987839" lon="-3.295843"><ele>337</ele><time>2023-01-14T13:43:14Z</time><name>PT3294</name></trkpt>
<trkpt lat="52.987837" lon="-3.295918"><ele>336</ele><time>2023-01-14T13:43:18Z</time><name>PT3295</name></trkpt>
<trkpt lat="52.987829" lon="-3.295969"><ele>336</ele><time>2023-01-14T13:43:21Z</time><name>PT3296</name></trkpt>
<trkpt lat="52.987792" lon="-3.295992"><ele>337</ele><time>2023-01-14T13:43:26Z</time><name>PT3297</name></trkpt>
<trkpt lat="52.987762" lon="-3.295980"><ele>337</ele><time>2023-01-14T13:43:29Z</time><name>PT3298</name></trkpt>
<trkpt lat="52.987730" lon="-3.295945"><ele>337</ele><time>2023-01-14T13:43:33Z</time><name>PT3299</name></trkpt>
<trkpt lat="52.987730" lon="-3.295989"><ele>338</ele><time>2023-01-14T13:43:38Z</time><name>PT3300</name></trkpt>
<trkpt lat="52.987737" lon="-3.296032"><ele>337</ele><time>2023-01-14T13:43:41Z</time><name>PT3301</name></trkpt>
<trkpt lat="52.987722" lon="-3.295995"><ele>337</ele><time>2023-01-14T13:43:44Z</time><name>PT3302</name></trkpt>
<trkpt lat="52.987696" lon="-3.295961"><ele>337</ele><time>2023-01-14T13:43:47Z</time><name>PT3303</name></trkpt>
<trkpt lat="52.987669" lon="-3.295934"><ele>337</ele><time>2023-01-14T13:43:50Z</time><name>PT3304</name></trkpt>
<trkpt lat="52.987662" lon="-3.295924"><ele>337</ele><time>2023-01-14T13:43:54Z</time><name>PT3305</name></trkpt>
<trkpt lat="52.987658" lon="-3.295923"><ele>337</ele><time>2023-01-14T13:43:57Z</time><name>PT3306</name></trkpt>
<trkpt lat="52.987623" lon="-3.295923"><ele>337</ele><time>2023-01-14T13:44:02Z</time><name>PT3307</name></trkpt>
<trkpt lat="52.987610" lon="-3.295944"><ele>336</ele><time>2023-01-14T13:44:05Z</time><name>PT3308</name></trkpt>
<trkpt lat="52.987607" lon="-3.295946"><ele>336</ele><time>2023-01-14T13:44:08Z</time><name>PT3309</name></trkpt>
<trkpt lat="52.987603" lon="-3.295985"><ele>336</ele><time>2023-01-14T13:44:11Z</time><name>PT3310</name></trkpt>
<trkpt lat="52.987600" lon="-3.295996"><ele>336</ele><time>2023-01-14T13:44:14Z</time><name>PT3311</name></trkpt>
<trkpt lat="52.987583" lon="-3.296033"><ele>336</ele><time>2023-01-14T13:44:18Z</time><name>PT3312</name></trkpt>
<trkpt lat="52.987571" lon="-3.296072"><ele>337</ele><time>2023-01-14T13:44:21Z</time><name>PT3313</name></trkpt>
<trkpt lat="52.987565" lon="-3.296152"><ele>335</ele><time>2023-01-14T13:44:26Z</time><name>PT3314</name></trkpt>
<trkpt lat="52.987572" lon="-3.296231"><ele>335</ele><time>2023-01-14T13:44:29Z</time><name>PT3315</name></trkpt>
<trkpt lat="52.987578" lon="-3.296314"><ele>335</ele><time>2023-01-14T13:44:33Z</time><name>PT3316</name></trkpt>
<trkpt lat="52.987589" lon="-3.296403"><ele>334</ele><time>2023-01-14T13:44:38Z</time><name>PT3317</name></trkpt>
<trkpt lat="52.987607" lon="-3.296479"><ele>334</ele><time>2023-01-14T13:44:41Z</time><name>PT3318</name></trkpt>
<trkpt lat="52.987626" lon="-3.296548"><ele>333</ele><time>2023-01-14T13:44:45Z</time><name>PT3319</name></trkpt>
<trkpt lat="52.987640" lon="-3.296620"><ele>332</ele><time>2023-01-14T13:44:50Z</time><name>PT3320</name></trkpt>
<trkpt lat="52.987667" lon="-3.296676"><ele>332</ele><time>2023-01-14T13:44:53Z</time><name>PT3321</name></trkpt>
<trkpt lat="52.987697" lon="-3.296686"><ele>332</ele><time>2023-01-14T13:44:56Z</time><name>PT3322</name></trkpt>
<trkpt lat="52.987720" lon="-3.296741"><ele>331</ele><time>2023-01-14T13:45:00Z</time><name>PT3323</name></trkpt>
<trkpt lat="52.987723" lon="-3.296801"><ele>331</ele><time>2023-01-14T13:45:03Z</time><name>PT3324</name></trkpt>
<trkpt lat="52.987729" lon="-3.296887"><ele>329</ele><time>2023-01-14T13:45:08Z</time><name>PT3325</name></trkpt>
<trkpt lat="52.987730" lon="-3.296948"><ele>329</ele><time>2023-01-14T13:45:11Z</time><name>PT3326</name></trkpt>
<trkpt lat="52.987741" lon="-3.297009"><ele>328</ele><time>2023-01-14T13:45:14Z</time><name>PT3327</name></trkpt>
<trkpt lat="52.987760" lon="-3.297071"><ele>327</ele><time>2023-01-14T13:45:17Z</time><name>PT3328</name></trkpt>
<trkpt lat="52.987764" lon="-3.297123"><ele>326</ele><time>2023-01-14T13:45:20Z</time><name>PT3329</name></trkpt>
<trkpt lat="52.987776" lon="-3.297178"><ele>325</ele><time>2023-01-14T13:45:23Z</time><name>PT3330</name></trkpt>
<trkpt lat="52.987809" lon="-3.297233"><ele>325</ele><time>2023-01-14T13:45:27Z</time><name>PT3331</name></trkpt>
<trkpt lat="52.987844" lon="-3.297286"><ele>324</ele><time>2023-01-14T13:45:32Z</time><name>PT3332</name></trkpt>
<trkpt lat="52.987867" lon="-3.297338"><ele>323</ele><time>2023-01-14T13:45:35Z</time><name>PT3333</name></trkpt>
<trkpt lat="52.987910" lon="-3.297372"><ele>323</ele><time>2023-01-14T13:45:38Z</time><name>PT3334</name></trkpt>
<trkpt lat="52.987954" lon="-3.297403"><ele>324</ele><time>2023-01-14T13:45:42Z</time><name>PT3335</name></trkpt>
<trkpt lat="52.987987" lon="-3.297424"><ele>323</ele><time>2023-01-14T13:45:45Z</time><name>PT3336</name></trkpt>
<trkpt lat="52.988017" lon="-3.297464"><ele>323</ele><time>2023-01-14T13:45:50Z</time><name>PT3337</name></trkpt>
<trkpt lat="52.988038" lon="-3.297523"><ele>323</ele><time>2023-01-14T13:45:53Z</time><name>PT3338</name></trkpt>
<trkpt lat="52.988054" lon="-3.297572"><ele>322</ele><time>2023-01-14T13:45:57Z</time><name>PT3339</name></trkpt>
<trkpt lat="52.988067" lon="-3.297620"><ele>320</ele><time>2023-01-14T13:46:00Z</time><name>PT3340</name></trkpt>
<trkpt lat="52.988080" lon="-3.297678"><ele>318</ele><time>2023-01-14T13:46:05Z</time><name>PT3341</name></trkpt>
<trkpt lat="52.988090" lon="-3.297726"><ele>317</ele><time>2023-01-14T13:46:08Z</time><name>PT3342</name></trkpt>
<trkpt lat="52.988103" lon="-3.297776"><ele>317</ele><time>2023-01-14T13:46:12Z</time><name>PT3343</name></trkpt>
<trkpt lat="52.988123" lon="-3.297835"><ele>315</ele><time>2023-01-14T13:46:17Z</time><name>PT3344</name></trkpt>
<trkpt lat="52.988143" lon="-3.297886"><ele>315</ele><time>2023-01-14T13:46:20Z</time><name>PT3345</name></trkpt>
<trkpt lat="52.988159" lon="-3.297927"><ele>314</ele><time>2023-01-14T13:46:23Z</time><name>PT3346</name></trkpt>
<trkpt lat="52.988176" lon="-3.297974"><ele>314</ele><time>2023-01-14T13:46:27Z</time><name>PT3347</name></trkpt>
<trkpt lat="52.988186" lon="-3.298016"><ele>313</ele><time>2023-01-14T13:46:30Z</time><name>PT3348</name></trkpt>
<trkpt lat="52.988208" lon="-3.298119"><ele>313</ele><time>2023-01-14T13:46:35Z</time><name>PT3349</name></trkpt>
<trkpt lat="52.988221" lon="-3.298160"><ele>313</ele><time>2023-01-14T13:46:38Z</time><name>PT3350</name></trkpt>
<trkpt lat="52.988215" lon="-3.298226"><ele>312</ele><time>2023-01-14T13:46:41Z</time><name>PT3351</name></trkpt>
<trkpt lat="52.988203" lon="-3.298291"><ele>311</ele><time>2023-01-14T13:46:45Z</time><name>PT3352</name></trkpt>
<trkpt lat="52.988182" lon="-3.298341"><ele>309</ele><time>2023-01-14T13:46:49Z</time><name>PT3353</name></trkpt>
<trkpt lat="52.988180" lon="-3.298395"><ele>308</ele><time>2023-01-14T13:46:53Z</time><name>PT3354</name></trkpt>
<trkpt lat="52.988169" lon="-3.298449"><ele>308</ele><time>2023-01-14T13:46:56Z</time><name>PT3355</name></trkpt>
<trkpt lat="52.988164" lon="-3.298497"><ele>307</ele><time>2023-01-14T13:46:59Z</time><name>PT3356</name></trkpt>
<trkpt lat="52.988160" lon="-3.298531"><ele>309</ele><time>2023-01-14T13:47:03Z</time><name>PT3357</name></trkpt>
<trkpt lat="52.988132" lon="-3.298564"><ele>304</ele><time>2023-01-14T13:47:06Z</time><name>PT3358</name></trkpt>
<trkpt lat="52.988104" lon="-3.298594"><ele>296</ele><time>2023-01-14T13:47:11Z</time><name>PT3359</name></trkpt>
<trkpt lat="52.988089" lon="-3.298621"><ele>294</ele><time>2023-01-14T13:47:14Z</time><name>PT3360</name></trkpt>
<trkpt lat="52.988066" lon="-3.298661"><ele>294</ele><time>2023-01-14T13:47:17Z</time><name>PT3361</name></trkpt>
<trkpt lat="52.988040" lon="-3.298709"><ele>293</ele><time>2023-01-14T13:47:21Z</time><name>PT3362</name></trkpt>
<trkpt lat="52.988024" lon="-3.298743"><ele>292</ele><time>2023-01-14T13:47:24Z</time><name>PT3363</name></trkpt>
<trkpt lat="52.988009" lon="-3.298808"><ele>292</ele><time>2023-01-14T13:47:29Z</time><name>PT3364</name></trkpt>
<trkpt lat="52.987996" lon="-3.298858"><ele>292</ele><time>2023-01-14T13:47:32Z</time><name>PT3365</name></trkpt>
<trkpt lat="52.987984" lon="-3.298909"><ele>291</ele><time>2023-01-14T13:47:35Z</time><name>PT3366</name></trkpt>
<trkpt lat="52.987961" lon="-3.298972"><ele>292</ele><time>2023-01-14T13:47:38Z</time><name>PT3367</name></trkpt>
<trkpt lat="52.987944" lon="-3.299021"><ele>291</ele><time>2023-01-14T13:47:41Z</time><name>PT3368</name></trkpt>
<trkpt lat="52.987926" lon="-3.299077"><ele>291</ele><time>2023-01-14T13:47:44Z</time><name>PT3369</name></trkpt>
<trkpt lat="52.987913" lon="-3.299124"><ele>291</ele><time>2023-01-14T13:47:47Z</time><name>PT3370</name></trkpt>
<trkpt lat="52.987886" lon="-3.299198"><ele>291</ele><time>2023-01-14T13:47:51Z</time><name>PT3371</name></trkpt>
<trkpt lat="52.987875" lon="-3.299247"><ele>290</ele><time>2023-01-14T13:47:54Z</time><name>PT3372</name></trkpt>
<trkpt lat="52.987859" lon="-3.299282"><ele>290</ele><time>2023-01-14T13:47:57Z</time><name>PT3373</name></trkpt>
<trkpt lat="52.987839" lon="-3.299347"><ele>289</ele><time>2023-01-14T13:48:02Z</time><name>PT3374</name></trkpt>
<trkpt lat="52.987822" lon="-3.299403"><ele>289</ele><time>2023-01-14T13:48:05Z</time><name>PT3375</name></trkpt>
<trkpt lat="52.987804" lon="-3.299459"><ele>288</ele><time>2023-01-14T13:48:08Z</time><name>PT3376</name></trkpt>
<trkpt lat="52.987778" lon="-3.299531"><ele>287</ele><time>2023-01-14T13:48:12Z</time><name>PT3377</name></trkpt>
<trkpt lat="52.987761" lon="-3.299601"><ele>287</ele><time>2023-01-14T13:48:17Z</time><name>PT3378</name></trkpt>
<trkpt lat="52.987749" lon="-3.299673"><ele>286</ele><time>2023-01-14T13:48:20Z</time><name>PT3379</name></trkpt>
<trkpt lat="52.987740" lon="-3.299717"><ele>285</ele><time>2023-01-14T13:48:23Z</time><name>PT3380</name></trkpt>
<trkpt lat="52.987714" lon="-3.299792"><ele>285</ele><time>2023-01-14T13:48:27Z</time><name>PT3381</name></trkpt>
<trkpt lat="52.987696" lon="-3.299855"><ele>284</ele><time>2023-01-14T13:48:32Z</time><name>PT3382</name></trkpt>
<trkpt lat="52.987682" lon="-3.299903"><ele>282</ele><time>2023-01-14T13:48:35Z</time><name>PT3383</name></trkpt>
<trkpt lat="52.987671" lon="-3.299967"><ele>282</ele><time>2023-01-14T13:48:38Z</time><name>PT3384</name></trkpt>
<trkpt lat="52.987661" lon="-3.300029"><ele>280</ele><time>2023-01-14T13:48:41Z</time><name>PT3385</name></trkpt>
<trkpt lat="52.987644" lon="-3.300076"><ele>278</ele><time>2023-01-14T13:48:44Z</time><name>PT3386</name></trkpt>
<trkpt lat="52.987632" lon="-3.300137"><ele>277</ele><time>2023-01-14T13:48:47Z</time><name>PT3387</name></trkpt>
<trkpt lat="52.987615" lon="-3.300199"><ele>277</ele><time>2023-01-14T13:48:51Z</time><name>PT3388</name></trkpt>
<trkpt lat="52.987598" lon="-3.300267"><ele>275</ele><time>2023-01-14T13:48:56Z</time><name>PT3389</name></trkpt>
<trkpt lat="52.987580" lon="-3.300340"><ele>275</ele><time>2023-01-14T13:48:59Z</time><name>PT3390</name></trkpt>
<trkpt lat="52.987564" lon="-3.300404"><ele>274</ele><time>2023-01-14T13:49:03Z</time><name>PT3391</name></trkpt>
<trkpt lat="52.987552" lon="-3.300480"><ele>274</ele><time>2023-01-14T13:49:08Z</time><name>PT3392</name></trkpt>
<trkpt lat="52.987545" lon="-3.300553"><ele>274</ele><time>2023-01-14T13:49:11Z</time><name>PT3393</name></trkpt>
<trkpt lat="52.987540" lon="-3.300610"><ele>272</ele><time>2023-01-14T13:49:15Z</time><name>PT3394</name></trkpt>
<trkpt lat="52.987538" lon="-3.300643"><ele>270</ele><time>2023-01-14T13:49:18Z</time><name>PT3395</name></trkpt>
<trkpt lat="52.987536" lon="-3.300689"><ele>270</ele><time>2023-01-14T13:49:23Z</time><name>PT3396</name></trkpt>
<trkpt lat="52.987540" lon="-3.300739"><ele>269</ele><time>2023-01-14T13:49:26Z</time><name>PT3397</name></trkpt>
<trkpt lat="52.987542" lon="-3.300768"><ele>267</ele><time>2023-01-14T13:49:29Z</time><name>PT3398</name></trkpt>
<trkpt lat="52.987528" lon="-3.300804"><ele>267</ele><time>2023-01-14T13:49:32Z</time><name>PT3399</name></trkpt>
<trkpt lat="52.987520" lon="-3.300839"><ele>266</ele><time>2023-01-14T13:49:35Z</time><name>PT3400</name></trkpt>
<trkpt lat="52.987521" lon="-3.300871"><ele>266</ele><time>2023-01-14T13:49:39Z</time><name>PT3401</name></trkpt>
<trkpt lat="52.987519" lon="-3.300910"><ele>265</ele><time>2023-01-14T13:49:44Z</time><name>PT3402</name></trkpt>
<trkpt lat="52.987511" lon="-3.300962"><ele>264</ele><time>2023-01-14T13:49:47Z</time><name>PT3403</name></trkpt>
<trkpt lat="52.987508" lon="-3.301003"><ele>263</ele><time>2023-01-14T13:49:50Z</time><name>PT3404</name></trkpt>
<trkpt lat="52.987500" lon="-3.301073"><ele>263</ele><time>2023-01-14T13:49:54Z</time><name>PT3405</name></trkpt>
<trkpt lat="52.987487" lon="-3.301114"><ele>262</ele><time>2023-01-14T13:49:57Z</time><name>PT3406</name></trkpt>
<trkpt lat="52.987489" lon="-3.301198"><ele>261</ele><time>2023-01-14T13:50:02Z</time><name>PT3407</name></trkpt>
<trkpt lat="52.987489" lon="-3.301261"><ele>262</ele><time>2023-01-14T13:50:05Z</time><name>PT3408</name></trkpt>
<trkpt lat="52.987479" lon="-3.301317"><ele>262</ele><time>2023-01-14T13:50:08Z</time><name>PT3409</name></trkpt>
<trkpt lat="52.987461" lon="-3.301356"><ele>260</ele><time>2023-01-14T13:50:12Z</time><name>PT3410</name></trkpt>
<trkpt lat="52.987446" lon="-3.301427"><ele>260</ele><time>2023-01-14T13:50:17Z</time><name>PT3411</name></trkpt>
<trkpt lat="52.987438" lon="-3.301492"><ele>261</ele><time>2023-01-14T13:50:20Z</time><name>PT3412</name></trkpt>
<trkpt lat="52.987434" lon="-3.301537"><ele>262</ele><time>2023-01-14T13:50:23Z</time><name>PT3413</name></trkpt>
<trkpt lat="52.987434" lon="-3.301553"><ele>263</ele><time>2023-01-14T13:50:26Z</time><name>PT3414</name></trkpt>
<trkpt lat="52.987435" lon="-3.301606"><ele>262</ele><time>2023-01-14T13:50:29Z</time><name>PT3415</name></trkpt>
<trkpt lat="52.987417" lon="-3.301641"><ele>262</ele><time>2023-01-14T13:50:32Z</time><name>PT3416</name></trkpt>
<trkpt lat="52.987391" lon="-3.301724"><ele>262</ele><time>2023-01-14T13:50:36Z</time><name>PT3417</name></trkpt>
<trkpt lat="52.987374" lon="-3.301757"><ele>261</ele><time>2023-01-14T13:50:41Z</time><name>PT3418</name></trkpt>
<trkpt lat="52.987370" lon="-3.301763"><ele>261</ele><time>2023-01-14T13:50:44Z</time><name>PT3419</name></trkpt>
<trkpt lat="52.987375" lon="-3.301777"><ele>261</ele><time>2023-01-14T13:50:47Z</time><name>PT3420</name></trkpt>
<trkpt lat="52.987373" lon="-3.301785"><ele>260</ele><time>2023-01-14T13:50:51Z</time><name>PT3421</name></trkpt>
<trkpt lat="52.987371" lon="-3.301790"><ele>260</ele><time>2023-01-14T13:51:02Z</time><name>PT3422</name></trkpt>
<trkpt lat="52.987368" lon="-3.301797"><ele>261</ele><time>2023-01-14T13:51:06Z</time><name>PT3423</name></trkpt>
<trkpt lat="52.987369" lon="-3.301801"><ele>262</ele><time>2023-01-14T13:51:09Z</time><name>PT3424</name></trkpt>
<trkpt lat="52.987366" lon="-3.301803"><ele>262</ele><time>2023-01-14T13:51:23Z</time><name>PT3425</name></trkpt>
<trkpt lat="52.987378" lon="-3.301822"><ele>262</ele><time>2023-01-14T13:51:26Z</time><name>PT3426</name></trkpt>
<trkpt lat="52.987375" lon="-3.301842"><ele>261</ele><time>2023-01-14T13:51:41Z</time><name>PT3427</name></trkpt>
<trkpt lat="52.987377" lon="-3.301841"><ele>261</ele><time>2023-01-14T13:51:44Z</time><name>PT3428</name></trkpt>
<trkpt lat="52.987377" lon="-3.301841"><ele>260</ele><time>2023-01-14T13:51:47Z</time><name>PT3429</name></trkpt>
<trkpt lat="52.987375" lon="-3.301860"><ele>260</ele><time>2023-01-14T13:51:50Z</time><name>PT3430</name></trkpt>
<trkpt lat="52.987362" lon="-3.301877"><ele>260</ele><time>2023-01-14T13:51:54Z</time><name>PT3431</name></trkpt>
<trkpt lat="52.987363" lon="-3.301881"><ele>260</ele><time>2023-01-14T13:52:26Z</time><name>PT3432</name></trkpt>
<trkpt lat="52.987368" lon="-3.301878"><ele>262</ele><time>2023-01-14T13:52:36Z</time><name>PT3433</name></trkpt>
<trkpt lat="52.987375" lon="-3.301879"><ele>261</ele><time>2023-01-14T13:52:39Z</time><name>PT3434</name></trkpt>
<trkpt lat="52.987381" lon="-3.301876"><ele>261</ele><time>2023-01-14T13:52:42Z</time><name>PT3435</name></trkpt>
<trkpt lat="52.987384" lon="-3.301870"><ele>262</ele><time>2023-01-14T13:52:53Z</time><name>PT3436</name></trkpt>
<trkpt lat="52.987384" lon="-3.301870"><ele>261</ele><time>2023-01-14T13:52:56Z</time><name>PT3437</name></trkpt>
<trkpt lat="52.987378" lon="-3.301882"><ele>262</ele><time>2023-01-14T13:53:03Z</time><name>PT3438</name></trkpt>
<trkpt lat="52.987375" lon="-3.301900"><ele>261</ele><time>2023-01-14T13:53:08Z</time><name>PT3439</name></trkpt>
<trkpt lat="52.987376" lon="-3.301901"><ele>261</ele><time>2023-01-14T13:53:38Z</time><name>PT3440</name></trkpt>
<trkpt lat="52.987359" lon="-3.301914"><ele>262</ele><time>2023-01-14T13:53:41Z</time><name>PT3441</name></trkpt>
<trkpt lat="52.987346" lon="-3.301935"><ele>262</ele><time>2023-01-14T13:53:44Z</time><name>PT3442</name></trkpt>
<trkpt lat="52.987341" lon="-3.301960"><ele>262</ele><time>2023-01-14T13:53:48Z</time><name>PT3443</name></trkpt>
<trkpt lat="52.987324" lon="-3.301980"><ele>261</ele><time>2023-01-14T13:53:56Z</time><name>PT3444</name></trkpt>
<trkpt lat="52.987321" lon="-3.301984"><ele>261</ele><time>2023-01-14T13:53:59Z</time><name>PT3445</name></trkpt>
<trkpt lat="52.987315" lon="-3.301995"><ele>261</ele><time>2023-01-14T13:54:02Z</time><name>PT3446</name></trkpt>
<trkpt lat="52.987298" lon="-3.302018"><ele>261</ele><time>2023-01-14T13:54:05Z</time><name>PT3447</name></trkpt>
<trkpt lat="52.987267" lon="-3.302047"><ele>260</ele><time>2023-01-14T13:54:08Z</time><name>PT3448</name></trkpt>
<trkpt lat="52.987245" lon="-3.302070"><ele>260</ele><time>2023-01-14T13:54:11Z</time><name>PT3449</name></trkpt>
<trkpt lat="52.987240" lon="-3.302085"><ele>260</ele><time>2023-01-14T13:54:14Z</time><name>PT3450</name></trkpt>
<trkpt lat="52.987239" lon="-3.302087"><ele>260</ele><time>2023-01-14T13:54:18Z</time><name>PT3451</name></trkpt>
<trkpt lat="52.987222" lon="-3.302089"><ele>259</ele><time>2023-01-14T13:54:23Z</time><name>PT3452</name></trkpt>
<trkpt lat="52.987209" lon="-3.302129"><ele>257</ele><time>2023-01-14T13:54:26Z</time><name>PT3453</name></trkpt>
<trkpt lat="52.987192" lon="-3.302156"><ele>255</ele><time>2023-01-14T13:54:29Z</time><name>PT3454</name></trkpt>
<trkpt lat="52.987176" lon="-3.302184"><ele>253</ele><time>2023-01-14T13:54:32Z</time><name>PT3455</name></trkpt>
<trkpt lat="52.987167" lon="-3.302212"><ele>250</ele><time>2023-01-14T13:54:36Z</time><name>PT3456</name></trkpt>
<trkpt lat="52.987153" lon="-3.302254"><ele>247</ele><time>2023-01-14T13:54:41Z</time><name>PT3457</name></trkpt>
<trkpt lat="52.987114" lon="-3.302296"><ele>247</ele><time>2023-01-14T13:54:44Z</time><name>PT3458</name></trkpt>
<trkpt lat="52.987088" lon="-3.302308"><ele>246</ele><time>2023-01-14T13:54:48Z</time><name>PT3459</name></trkpt>
<trkpt lat="52.987061" lon="-3.302323"><ele>247</ele><time>2023-01-14T13:54:51Z</time><name>PT3460</name></trkpt>
<trkpt lat="52.987043" lon="-3.302340"><ele>246</ele><time>2023-01-14T13:54:54Z</time><name>PT3461</name></trkpt>
<trkpt lat="52.987019" lon="-3.302359"><ele>245</ele><time>2023-01-14T13:54:59Z</time><name>PT3462</name></trkpt>
<trkpt lat="52.986998" lon="-3.302368"><ele>246</ele><time>2023-01-14T13:55:02Z</time><name>PT3463</name></trkpt>
<trkpt lat="52.986969" lon="-3.302387"><ele>246</ele><time>2023-01-14T13:55:05Z</time><name>PT3464</name></trkpt>
<trkpt lat="52.986952" lon="-3.302393"><ele>247</ele><time>2023-01-14T13:55:08Z</time><name>PT3465</name></trkpt>
<trkpt lat="52.986929" lon="-3.302421"><ele>247</ele><time>2023-01-14T13:55:12Z</time><name>PT3466</name></trkpt>
<trkpt lat="52.986904" lon="-3.302441"><ele>245</ele><time>2023-01-14T13:55:15Z</time><name>PT3467</name></trkpt>
<trkpt lat="52.986884" lon="-3.302464"><ele>244</ele><time>2023-01-14T13:55:20Z</time><name>PT3468</name></trkpt>
<trkpt lat="52.986864" lon="-3.302515"><ele>240</ele><time>2023-01-14T13:55:23Z</time><name>PT3469</name></trkpt>
<trkpt lat="52.986834" lon="-3.302539"><ele>240</ele><time>2023-01-14T13:55:27Z</time><name>PT3470</name></trkpt>
<trkpt lat="52.986815" lon="-3.302551"><ele>240</ele><time>2023-01-14T13:55:30Z</time><name>PT3471</name></trkpt>
<trkpt lat="52.986796" lon="-3.302573"><ele>239</ele><time>2023-01-14T13:55:33Z</time><name>PT3472</name></trkpt>
<trkpt lat="52.986773" lon="-3.302597"><ele>239</ele><time>2023-01-14T13:55:36Z</time><name>PT3473</name></trkpt>
<trkpt lat="52.986738" lon="-3.302618"><ele>239</ele><time>2023-01-14T13:55:41Z</time><name>PT3474</name></trkpt>
<trkpt lat="52.986699" lon="-3.302643"><ele>241</ele><time>2023-01-14T13:55:44Z</time><name>PT3475</name></trkpt>
<trkpt lat="52.986678" lon="-3.302660"><ele>239</ele><time>2023-01-14T13:55:47Z</time><name>PT3476</name></trkpt>
<trkpt lat="52.986649" lon="-3.302680"><ele>237</ele><time>2023-01-14T13:55:50Z</time><name>PT3477</name></trkpt>
<trkpt lat="52.986622" lon="-3.302702"><ele>236</ele><time>2023-01-14T13:55:54Z</time><name>PT3478</name></trkpt>
<trkpt lat="52.986606" lon="-3.302706"><ele>234</ele><time>2023-01-14T13:55:57Z</time><name>PT3479</name></trkpt>
<trkpt lat="52.986574" lon="-3.302723"><ele>234</ele><time>2023-01-14T13:56:02Z</time><name>PT3480</name></trkpt>
<trkpt lat="52.986570" lon="-3.302746"><ele>233</ele><time>2023-01-14T13:56:05Z</time><name>PT3481</name></trkpt>
<trkpt lat="52.986546" lon="-3.302752"><ele>232</ele><time>2023-01-14T13:56:08Z</time><name>PT3482</name></trkpt>
<trkpt lat="52.986534" lon="-3.302762"><ele>230</ele><time>2023-01-14T13:56:11Z</time><name>PT3483</name></trkpt>
<trkpt lat="52.986516" lon="-3.302779"><ele>228</ele><time>2023-01-14T13:56:14Z</time><name>PT3484</name></trkpt>
<trkpt lat="52.986499" lon="-3.302789"><ele>227</ele><time>2023-01-14T13:56:17Z</time><name>PT3485</name></trkpt>
<trkpt lat="52.986490" lon="-3.302815"><ele>224</ele><time>2023-01-14T13:56:20Z</time><name>PT3486</name></trkpt>
<trkpt lat="52.986458" lon="-3.302838"><ele>224</ele><time>2023-01-14T13:56:24Z</time><name>PT3487</name></trkpt>
<trkpt lat="52.986441" lon="-3.302873"><ele>222</ele><time>2023-01-14T13:56:29Z</time><name>PT3488</name></trkpt>
<trkpt lat="52.986408" lon="-3.302927"><ele>222</ele><time>2023-01-14T13:56:32Z</time><name>PT3489</name></trkpt>
<trkpt lat="52.986386" lon="-3.302957"><ele>222</ele><time>2023-01-14T13:56:36Z</time><name>PT3490</name></trkpt>
<trkpt lat="52.986356" lon="-3.302994"><ele>223</ele><time>2023-01-14T13:56:41Z</time><name>PT3491</name></trkpt>
<trkpt lat="52.986331" lon="-3.303042"><ele>223</ele><time>2023-01-14T13:56:44Z</time><name>PT3492</name></trkpt>
<trkpt lat="52.986286" lon="-3.303093"><ele>225</ele><time>2023-01-14T13:56:47Z</time><name>PT3493</name></trkpt>
<trkpt lat="52.986253" lon="-3.303146"><ele>227</ele><time>2023-01-14T13:56:51Z</time><name>PT3494</name></trkpt>
<trkpt lat="52.986219" lon="-3.303196"><ele>228</ele><time>2023-01-14T13:56:56Z</time><name>PT3495</name></trkpt>
<trkpt lat="52.986196" lon="-3.303246"><ele>228</ele><time>2023-01-14T13:56:59Z</time><name>PT3496</name></trkpt>
<trkpt lat="52.986175" lon="-3.303278"><ele>229</ele><time>2023-01-14T13:57:02Z</time><name>PT3497</name></trkpt>
<trkpt lat="52.986157" lon="-3.303309"><ele>230</ele><time>2023-01-14T13:57:05Z</time><name>PT3498</name></trkpt>
<trkpt lat="52.986145" lon="-3.303331"><ele>230</ele><time>2023-01-14T13:57:08Z</time><name>PT3499</name></trkpt>
<trkpt lat="52.986144" lon="-3.303357"><ele>229</ele><time>2023-01-14T13:57:11Z</time><name>PT3500</name></trkpt>
<trkpt lat="52.986129" lon="-3.303442"><ele>227</ele><time>2023-01-14T13:57:15Z</time><name>PT3501</name></trkpt>
<trkpt lat="52.986107" lon="-3.303523"><ele>226</ele><time>2023-01-14T13:57:20Z</time><name>PT3502</name></trkpt>
<trkpt lat="52.986096" lon="-3.303571"><ele>225</ele><time>2023-01-14T13:57:23Z</time><name>PT3503</name></trkpt>
<trkpt lat="52.986081" lon="-3.303615"><ele>223</ele><time>2023-01-14T13:57:26Z</time><name>PT3504</name></trkpt>
<trkpt lat="52.986076" lon="-3.303683"><ele>221</ele><time>2023-01-14T13:57:29Z</time><name>PT3505</name></trkpt>
<trkpt lat="52.986074" lon="-3.303747"><ele>220</ele><time>2023-01-14T13:57:33Z</time><name>PT3506</name></trkpt>
<trkpt lat="52.986071" lon="-3.303800"><ele>219</ele><time>2023-01-14T13:57:38Z</time><name>PT3507</name></trkpt>
<trkpt lat="52.986066" lon="-3.303864"><ele>215</ele><time>2023-01-14T13:57:41Z</time><name>PT3508</name></trkpt>
<trkpt lat="52.986059" lon="-3.303917"><ele>213</ele><time>2023-01-14T13:57:44Z</time><name>PT3509</name></trkpt>
<trkpt lat="52.986056" lon="-3.303966"><ele>212</ele><time>2023-01-14T13:57:48Z</time><name>PT3510</name></trkpt>
<trkpt lat="52.986054" lon="-3.304011"><ele>210</ele><time>2023-01-14T13:57:53Z</time><name>PT3511</name></trkpt>
<trkpt lat="52.986055" lon="-3.304062"><ele>209</ele><time>2023-01-14T13:57:56Z</time><name>PT3512</name></trkpt>
<trkpt lat="52.986066" lon="-3.304092"><ele>207</ele><time>2023-01-14T13:57:59Z</time><name>PT3513</name></trkpt>
<trkpt lat="52.986062" lon="-3.304147"><ele>207</ele><time>2023-01-14T13:58:03Z</time><name>PT3514</name></trkpt>
<trkpt lat="52.986060" lon="-3.304179"><ele>206</ele><time>2023-01-14T13:58:06Z</time><name>PT3515</name></trkpt>
<trkpt lat="52.986064" lon="-3.304236"><ele>206</ele><time>2023-01-14T13:58:11Z</time><name>PT3516</name></trkpt>
<trkpt lat="52.986067" lon="-3.304282"><ele>206</ele><time>2023-01-14T13:58:14Z</time><name>PT3517</name></trkpt>
<trkpt lat="52.986068" lon="-3.304330"><ele>205</ele><time>2023-01-14T13:58:17Z</time><name>PT3518</name></trkpt>
<trkpt lat="52.986068" lon="-3.304382"><ele>204</ele><time>2023-01-14T13:58:20Z</time><name>PT3519</name></trkpt>
<trkpt lat="52.986074" lon="-3.304426"><ele>204</ele><time>2023-01-14T13:58:23Z</time><name>PT3520</name></trkpt>
<trkpt lat="52.986074" lon="-3.304489"><ele>204</ele><time>2023-01-14T13:58:27Z</time><name>PT3521</name></trkpt>
<trkpt lat="52.986075" lon="-3.304558"><ele>203</ele><time>2023-01-14T13:58:32Z</time><name>PT3522</name></trkpt>
<trkpt lat="52.986073" lon="-3.304614"><ele>202</ele><time>2023-01-14T13:58:35Z</time><name>PT3523</name></trkpt>
<trkpt lat="52.986077" lon="-3.304652"><ele>201</ele><time>2023-01-14T13:58:39Z</time><name>PT3524</name></trkpt>
<trkpt lat="52.986080" lon="-3.304688"><ele>200</ele><time>2023-01-14T13:58:42Z</time><name>PT3525</name></trkpt>
<trkpt lat="52.986076" lon="-3.304750"><ele>199</ele><time>2023-01-14T13:58:47Z</time><name>PT3526</name></trkpt>
<trkpt lat="52.986080" lon="-3.304797"><ele>199</ele><time>2023-01-14T13:58:50Z</time><name>PT3527</name></trkpt>
<trkpt lat="52.986084" lon="-3.304846"><ele>198</ele><time>2023-01-14T13:58:53Z</time><name>PT3528</name></trkpt>
<trkpt lat="52.986079" lon="-3.304888"><ele>198</ele><time>2023-01-14T13:58:56Z</time><name>PT3529</name></trkpt>
<trkpt lat="52.986087" lon="-3.304918"><ele>197</ele><time>2023-01-14T13:58:59Z</time><name>PT3530</name></trkpt>
<trkpt lat="52.986093" lon="-3.304965"><ele>196</ele><time>2023-01-14T13:59:02Z</time><name>PT3531</name></trkpt>
<trkpt lat="52.986086" lon="-3.305030"><ele>196</ele><time>2023-01-14T13:59:05Z</time><name>PT3532</name></trkpt>
<trkpt lat="52.986082" lon="-3.305104"><ele>197</ele><time>2023-01-14T13:59:09Z</time><name>PT3533</name></trkpt>
<trkpt lat="52.986084" lon="-3.305165"><ele>197</ele><time>2023-01-14T13:59:14Z</time><name>PT3534</name></trkpt>
<trkpt lat="52.986082" lon="-3.305213"><ele>197</ele><time>2023-01-14T13:59:17Z</time><name>PT3535</name></trkpt>
<trkpt lat="52.986081" lon="-3.305255"><ele>196</ele><time>2023-01-14T13:59:20Z</time><name>PT3536</name></trkpt>
<trkpt lat="52.986086" lon="-3.305315"><ele>195</ele><time>2023-01-14T13:59:23Z</time><name>PT3537</name></trkpt>
<trkpt lat="52.986085" lon="-3.305367"><ele>195</ele><time>2023-01-14T13:59:26Z</time><name>PT3538</name></trkpt>
<trkpt lat="52.986087" lon="-3.305404"><ele>194</ele><time>2023-01-14T13:59:29Z</time><name>PT3539</name></trkpt>
<trkpt lat="52.986084" lon="-3.305462"><ele>193</ele><time>2023-01-14T13:59:33Z</time><name>PT3540</name></trkpt>
<trkpt lat="52.986092" lon="-3.305507"><ele>192</ele><time>2023-01-14T13:59:36Z</time><name>PT3541</name></trkpt>
<trkpt lat="52.986097" lon="-3.305579"><ele>193</ele><time>2023-01-14T13:59:41Z</time><name>PT3542</name></trkpt>
<trkpt lat="52.986095" lon="-3.305641"><ele>191</ele><time>2023-01-14T13:59:44Z</time><name>PT3543</name></trkpt>
<trkpt lat="52.986101" lon="-3.305671"><ele>191</ele><time>2023-01-14T13:59:47Z</time><name>PT3544</name></trkpt>
<trkpt lat="52.986103" lon="-3.305725"><ele>191</ele><time>2023-01-14T13:59:51Z</time><name>PT3545</name></trkpt>
<trkpt lat="52.986102" lon="-3.305772"><ele>189</ele><time>2023-01-14T13:59:54Z</time><name>PT3546</name></trkpt>
<trkpt lat="52.986100" lon="-3.305832"><ele>188</ele><time>2023-01-14T13:59:59Z</time><name>PT3547</name></trkpt>
<trkpt lat="52.986097" lon="-3.305909"><ele>187</ele><time>2023-01-14T14:00:02Z</time><name>PT3548</name></trkpt>
<trkpt lat="52.986097" lon="-3.305956"><ele>187</ele><time>2023-01-14T14:00:05Z</time><name>PT3549</name></trkpt>
<trkpt lat="52.986088" lon="-3.306052"><ele>190</ele><time>2023-01-14T14:00:09Z</time><name>PT3550</name></trkpt>
<trkpt lat="52.986090" lon="-3.306129"><ele>190</ele><time>2023-01-14T14:00:14Z</time><name>PT3551</name></trkpt>
<trkpt lat="52.986096" lon="-3.306194"><ele>188</ele><time>2023-01-14T14:00:17Z</time><name>PT3552</name></trkpt>
<trkpt lat="52.986087" lon="-3.306271"><ele>188</ele><time>2023-01-14T14:00:21Z</time><name>PT3553</name></trkpt>
<trkpt lat="52.986082" lon="-3.306337"><ele>189</ele><time>2023-01-14T14:00:24Z</time><name>PT3554</name></trkpt>
<trkpt lat="52.986085" lon="-3.306400"><ele>190</ele><time>2023-01-14T14:00:29Z</time><name>PT3555</name></trkpt>
<trkpt lat="52.986086" lon="-3.306451"><ele>190</ele><time>2023-01-14T14:00:32Z</time><name>PT3556</name></trkpt>
<trkpt lat="52.986083" lon="-3.306492"><ele>190</ele><time>2023-01-14T14:00:35Z</time><name>PT3557</name></trkpt>
<trkpt lat="52.986075" lon="-3.306530"><ele>188</ele><time>2023-01-14T14:00:38Z</time><name>PT3558</name></trkpt>
<trkpt lat="52.986066" lon="-3.306599"><ele>189</ele><time>2023-01-14T14:00:41Z</time><name>PT3559</name></trkpt>
<trkpt lat="52.986071" lon="-3.306658"><ele>189</ele><time>2023-01-14T14:00:45Z</time><name>PT3560</name></trkpt>
<trkpt lat="52.986066" lon="-3.306719"><ele>188</ele><time>2023-01-14T14:00:50Z</time><name>PT3561</name></trkpt>
<trkpt lat="52.986063" lon="-3.306759"><ele>187</ele><time>2023-01-14T14:00:53Z</time><name>PT3562</name></trkpt>
<trkpt lat="52.986063" lon="-3.306808"><ele>187</ele><time>2023-01-14T14:00:56Z</time><name>PT3563</name></trkpt>
<trkpt lat="52.986059" lon="-3.306854"><ele>187</ele><time>2023-01-14T14:00:59Z</time><name>PT3564</name></trkpt>
<trkpt lat="52.986048" lon="-3.306946"><ele>186</ele><time>2023-01-14T14:01:03Z</time><name>PT3565</name></trkpt>
<trkpt lat="52.986041" lon="-3.306990"><ele>186</ele><time>2023-01-14T14:01:06Z</time><name>PT3566</name></trkpt>
<trkpt lat="52.986037" lon="-3.307044"><ele>186</ele><time>2023-01-14T14:01:09Z</time><name>PT3567</name></trkpt>
<trkpt lat="52.986036" lon="-3.307109"><ele>186</ele><time>2023-01-14T14:01:14Z</time><name>PT3568</name></trkpt>
<trkpt lat="52.986033" lon="-3.307184"><ele>186</ele><time>2023-01-14T14:01:17Z</time><name>PT3569</name></trkpt>
<trkpt lat="52.986027" lon="-3.307232"><ele>186</ele><time>2023-01-14T14:01:20Z</time><name>PT3570</name></trkpt>
<trkpt lat="52.986025" lon="-3.307278"><ele>184</ele><time>2023-01-14T14:01:23Z</time><name>PT3571</name></trkpt>
<trkpt lat="52.986017" lon="-3.307345"><ele>184</ele><time>2023-01-14T14:01:27Z</time><name>PT3572</name></trkpt>
<trkpt lat="52.986011" lon="-3.307397"><ele>184</ele><time>2023-01-14T14:01:30Z</time><name>PT3573</name></trkpt>
<trkpt lat="52.986003" lon="-3.307458"><ele>185</ele><time>2023-01-14T14:01:33Z</time><name>PT3574</name></trkpt>
<trkpt lat="52.985994" lon="-3.307548"><ele>184</ele><time>2023-01-14T14:01:38Z</time><name>PT3575</name></trkpt>
<trkpt lat="52.985989" lon="-3.307619"><ele>183</ele><time>2023-01-14T14:01:41Z</time><name>PT3576</name></trkpt>
<trkpt lat="52.985978" lon="-3.307710"><ele>184</ele><time>2023-01-14T14:01:45Z</time><name>PT3577</name></trkpt>
<trkpt lat="52.985971" lon="-3.307787"><ele>182</ele><time>2023-01-14T14:01:50Z</time><name>PT3578</name></trkpt>
<trkpt lat="52.985961" lon="-3.307825"><ele>182</ele><time>2023-01-14T14:01:53Z</time><name>PT3579</name></trkpt>
<trkpt lat="52.985963" lon="-3.307883"><ele>181</ele><time>2023-01-14T14:01:56Z</time><name>PT3580</name></trkpt>
<trkpt lat="52.985959" lon="-3.307932"><ele>179</ele><time>2023-01-14T14:01:59Z</time><name>PT3581</name></trkpt>
<trkpt lat="52.985958" lon="-3.307983"><ele>177</ele><time>2023-01-14T14:02:02Z</time><name>PT3582</name></trkpt>
<trkpt lat="52.985950" lon="-3.308026"><ele>177</ele><time>2023-01-14T14:02:05Z</time><name>PT3583</name></trkpt>
<trkpt lat="52.985933" lon="-3.308087"><ele>178</ele><time>2023-01-14T14:02:09Z</time><name>PT3584</name></trkpt>
<trkpt lat="52.985926" lon="-3.308143"><ele>180</ele><time>2023-01-14T14:02:14Z</time><name>PT3585</name></trkpt>
<trkpt lat="52.985912" lon="-3.308197"><ele>180</ele><time>2023-01-14T14:02:17Z</time><name>PT3586</name></trkpt>
<trkpt lat="52.985916" lon="-3.308256"><ele>179</ele><time>2023-01-14T14:02:20Z</time><name>PT3587</name></trkpt>
<trkpt lat="52.985916" lon="-3.308304"><ele>179</ele><time>2023-01-14T14:02:23Z</time><name>PT3588</name></trkpt>
<trkpt lat="52.985912" lon="-3.308357"><ele>177</ele><time>2023-01-14T14:02:27Z</time><name>PT3589</name></trkpt>
<trkpt lat="52.985912" lon="-3.308413"><ele>176</ele><time>2023-01-14T14:02:30Z</time><name>PT3590</name></trkpt>
<trkpt lat="52.985908" lon="-3.308477"><ele>175</ele><time>2023-01-14T14:02:35Z</time><name>PT3591</name></trkpt>
<trkpt lat="52.985901" lon="-3.308528"><ele>175</ele><time>2023-01-14T14:02:38Z</time><name>PT3592</name></trkpt>
<trkpt lat="52.985890" lon="-3.308564"><ele>176</ele><time>2023-01-14T14:02:41Z</time><name>PT3593</name></trkpt>
<trkpt lat="52.985882" lon="-3.308595"><ele>177</ele><time>2023-01-14T14:02:44Z</time><name>PT3594</name></trkpt>
<trkpt lat="52.985873" lon="-3.308636"><ele>178</ele><time>2023-01-14T14:03:02Z</time><name>PT3595</name></trkpt>
<trkpt lat="52.985851" lon="-3.308655"><ele>177</ele><time>2023-01-14T14:03:05Z</time><name>PT3596</name></trkpt>
<trkpt lat="52.985846" lon="-3.308643"><ele>176</ele><time>2023-01-14T14:03:08Z</time><name>PT3597</name></trkpt>
<trkpt lat="52.985845" lon="-3.308608"><ele>175</ele><time>2023-01-14T14:03:11Z</time><name>PT3598</name></trkpt>
<trkpt lat="52.985833" lon="-3.308578"><ele>174</ele><time>2023-01-14T14:03:14Z</time><name>PT3599</name></trkpt>
<trkpt lat="52.985826" lon="-3.308588"><ele>175</ele><time>2023-01-14T14:03:18Z</time><name>PT3600</name></trkpt>
<trkpt lat="52.985818" lon="-3.308572"><ele>173</ele><time>2023-01-14T14:03:26Z</time><name>PT3601</name></trkpt>
<trkpt lat="52.985809" lon="-3.308531"><ele>172</ele><time>2023-01-14T14:03:29Z</time><name>PT3602</name></trkpt>
<trkpt lat="52.985804" lon="-3.308498"><ele>170</ele><time>2023-01-14T14:03:32Z</time><name>PT3603</name></trkpt>
<trkpt lat="52.985800" lon="-3.308463"><ele>169</ele><time>2023-01-14T14:03:35Z</time><name>PT3604</name></trkpt>
<trkpt lat="52.985785" lon="-3.308425"><ele>170</ele><time>2023-01-14T14:03:39Z</time><name>PT3605</name></trkpt>
<trkpt lat="52.985782" lon="-3.308389"><ele>168</ele><time>2023-01-14T14:03:42Z</time><name>PT3606</name></trkpt>
<trkpt lat="52.985765" lon="-3.308334"><ele>169</ele><time>2023-01-14T14:03:47Z</time><name>PT3607</name></trkpt>
<trkpt lat="52.985768" lon="-3.308292"><ele>167</ele><time>2023-01-14T14:03:50Z</time><name>PT3608</name></trkpt>
<trkpt lat="52.985757" lon="-3.308264"><ele>166</ele><time>2023-01-14T14:03:53Z</time><name>PT3609</name></trkpt>
<trkpt lat="52.985740" lon="-3.308201"><ele>165</ele><time>2023-01-14T14:03:56Z</time><name>PT3610</name></trkpt>
<trkpt lat="52.985721" lon="-3.308119"><ele>163</ele><time>2023-01-14T14:03:59Z</time><name>PT3611</name></trkpt>
<trkpt lat="52.985711" lon="-3.308058"><ele>161</ele><time>2023-01-14T14:04:02Z</time><name>PT3612</name></trkpt>
<trkpt lat="52.985685" lon="-3.307987"><ele>160</ele><time>2023-01-14T14:04:06Z</time><name>PT3613</name></trkpt>
<trkpt lat="52.985678" lon="-3.307947"><ele>160</ele><time>2023-01-14T14:04:09Z</time><name>PT3614</name></trkpt>
<trkpt lat="52.985650" lon="-3.307898"><ele>162</ele><time>2023-01-14T14:04:14Z</time><name>PT3615</name></trkpt>
<trkpt lat="52.985639" lon="-3.307857"><ele>162</ele><time>2023-01-14T14:04:17Z</time><name>PT3616</name></trkpt>
<trkpt lat="52.985621" lon="-3.307814"><ele>163</ele><time>2023-01-14T14:04:20Z</time><name>PT3617</name></trkpt>
<trkpt lat="52.985602" lon="-3.307785"><ele>163</ele><time>2023-01-14T14:04:23Z</time><name>PT3618</name></trkpt>
<trkpt lat="52.985588" lon="-3.307751"><ele>163</ele><time>2023-01-14T14:04:27Z</time><name>PT3619</name></trkpt>
<trkpt lat="52.985574" lon="-3.307704"><ele>163</ele><time>2023-01-14T14:04:32Z</time><name>PT3620</name></trkpt>
<trkpt lat="52.985563" lon="-3.307671"><ele>163</ele><time>2023-01-14T14:04:35Z</time><name>PT3621</name></trkpt>
<trkpt lat="52.985553" lon="-3.307630"><ele>161</ele><time>2023-01-14T14:04:38Z</time><name>PT3622</name></trkpt>
<trkpt lat="52.985546" lon="-3.307599"><ele>160</ele><time>2023-01-14T14:04:41Z</time><name>PT3623</name></trkpt>
<trkpt lat="52.985537" lon="-3.307567"><ele>159</ele><time>2023-01-14T14:04:45Z</time><name>PT3624</name></trkpt>
<trkpt lat="52.985532" lon="-3.307535"><ele>158</ele><time>2023-01-14T14:04:48Z</time><name>PT3625</name></trkpt>
<trkpt lat="52.985536" lon="-3.307509"><ele>156</ele><time>2023-01-14T14:04:53Z</time><name>PT3626</name></trkpt>
<trkpt lat="52.985520" lon="-3.307462"><ele>157</ele><time>2023-01-14T14:04:56Z</time><name>PT3627</name></trkpt>
<trkpt lat="52.985517" lon="-3.307432"><ele>155</ele><time>2023-01-14T14:04:59Z</time><name>PT3628</name></trkpt>
<trkpt lat="52.985515" lon="-3.307395"><ele>153</ele><time>2023-01-14T14:05:03Z</time><name>PT3629</name></trkpt>
<trkpt lat="52.985518" lon="-3.307347"><ele>151</ele><time>2023-01-14T14:05:06Z</time><name>PT3630</name></trkpt>
<trkpt lat="52.985509" lon="-3.307308"><ele>150</ele><time>2023-01-14T14:05:09Z</time><name>PT3631</name></trkpt>
<trkpt lat="52.985495" lon="-3.307209"><ele>146</ele><time>2023-01-14T14:05:14Z</time><name>PT3632</name></trkpt>
<trkpt lat="52.985489" lon="-3.307143"><ele>144</ele><time>2023-01-14T14:05:17Z</time><name>PT3633</name></trkpt>
<trkpt lat="52.985474" lon="-3.307066"><ele>142</ele><time>2023-01-14T14:05:20Z</time><name>PT3634</name></trkpt>
<trkpt lat="52.985445" lon="-3.306990"><ele>142</ele><time>2023-01-14T14:05:24Z</time><name>PT3635</name></trkpt>
<trkpt lat="52.985431" lon="-3.306903"><ele>142</ele><time>2023-01-14T14:05:29Z</time><name>PT3636</name></trkpt>
<trkpt lat="52.985401" lon="-3.306828"><ele>143</ele><time>2023-01-14T14:05:32Z</time><name>PT3637</name></trkpt>
<trkpt lat="52.985377" lon="-3.306777"><ele>146</ele><time>2023-01-14T14:05:35Z</time><name>PT3638</name></trkpt>
<trkpt lat="52.985356" lon="-3.306723"><ele>146</ele><time>2023-01-14T14:05:38Z</time><name>PT3639</name></trkpt>
<trkpt lat="52.985341" lon="-3.306645"><ele>146</ele><time>2023-01-14T14:05:42Z</time><name>PT3640</name></trkpt>
<trkpt lat="52.985326" lon="-3.306607"><ele>145</ele><time>2023-01-14T14:05:45Z</time><name>PT3641</name></trkpt>
<trkpt lat="52.985338" lon="-3.306565"><ele>141</ele><time>2023-01-14T14:05:48Z</time><name>PT3642</name></trkpt>
<trkpt lat="52.985345" lon="-3.306503"><ele>139</ele><time>2023-01-14T14:05:53Z</time><name>PT3643</name></trkpt>
<trkpt lat="52.985352" lon="-3.306453"><ele>137</ele><time>2023-01-14T14:05:56Z</time><name>PT3644</name></trkpt>
<trkpt lat="52.985351" lon="-3.306399"><ele>134</ele><time>2023-01-14T14:05:59Z</time><name>PT3645</name></trkpt>
<trkpt lat="52.985321" lon="-3.306323"><ele>136</ele><time>2023-01-14T14:06:02Z</time><name>PT3646</name></trkpt>
<trkpt lat="52.985302" lon="-3.306271"><ele>135</ele><time>2023-01-14T14:06:05Z</time><name>PT3647</name></trkpt>
<trkpt lat="52.985286" lon="-3.306236"><ele>134</ele><time>2023-01-14T14:06:08Z</time><name>PT3648</name></trkpt>
<trkpt lat="52.985243" lon="-3.306156"><ele>138</ele><time>2023-01-14T14:06:11Z</time><name>PT3649</name></trkpt>
<trkpt lat="52.985235" lon="-3.306131"><ele>138</ele><time>2023-01-14T14:06:14Z</time><name>PT3650</name></trkpt>
<trkpt lat="52.985227" lon="-3.306088"><ele>137</ele><time>2023-01-14T14:06:17Z</time><name>PT3651</name></trkpt>
<trkpt lat="52.985219" lon="-3.306056"><ele>136</ele><time>2023-01-14T14:06:21Z</time><name>PT3652</name></trkpt>
<trkpt lat="52.985186" lon="-3.306006"><ele>139</ele><time>2023-01-14T14:06:26Z</time><name>PT3653</name></trkpt>
<trkpt lat="52.985181" lon="-3.305942"><ele>135</ele><time>2023-01-14T14:06:29Z</time><name>PT3654</name></trkpt>
<trkpt lat="52.985148" lon="-3.305828"><ele>134</ele><time>2023-01-14T14:06:32Z</time><name>PT3655</name></trkpt>
<trkpt lat="52.985145" lon="-3.305795"><ele>133</ele><time>2023-01-14T14:06:35Z</time><name>PT3656</name></trkpt>
<trkpt lat="52.985113" lon="-3.305705"><ele>130</ele><time>2023-01-14T14:06:38Z</time><name>PT3657</name></trkpt>
<trkpt lat="52.985108" lon="-3.305653"><ele>130</ele><time>2023-01-14T14:06:41Z</time><name>PT3658</name></trkpt>
<trkpt lat="52.985117" lon="-3.305608"><ele>128</ele><time>2023-01-14T14:06:44Z</time><name>PT3659</name></trkpt>
<trkpt lat="52.985088" lon="-3.305565"><ele>128</ele><time>2023-01-14T14:06:48Z</time><name>PT3660</name></trkpt>
<trkpt lat="52.985056" lon="-3.305533"><ele>127</ele><time>2023-01-14T14:06:53Z</time><name>PT3661</name></trkpt>
<trkpt lat="52.985025" lon="-3.305520"><ele>125</ele><time>2023-01-14T14:06:56Z</time><name>PT3662</name></trkpt>
<trkpt lat="52.984983" lon="-3.305533"><ele>126</ele><time>2023-01-14T14:06:59Z</time><name>PT3663</name></trkpt>
<trkpt lat="52.984944" lon="-3.305523"><ele>125</ele><time>2023-01-14T14:07:03Z</time><name>PT3664</name></trkpt>
<trkpt lat="52.984918" lon="-3.305514"><ele>124</ele><time>2023-01-14T14:07:06Z</time><name>PT3665</name></trkpt>
<trkpt lat="52.984863" lon="-3.305498"><ele>123</ele><time>2023-01-14T14:07:11Z</time><name>PT3666</name></trkpt>
<trkpt lat="52.984806" lon="-3.305526"><ele>124</ele><time>2023-01-14T14:07:14Z</time><name>PT3667</name></trkpt>
<trkpt lat="52.984791" lon="-3.305534"><ele>124</ele><time>2023-01-14T14:07:17Z</time><name>PT3668</name></trkpt>
<trkpt lat="52.984738" lon="-3.305580"><ele>127</ele><time>2023-01-14T14:07:20Z</time><name>PT3669</name></trkpt>
<trkpt lat="52.984710" lon="-3.305587"><ele>125</ele><time>2023-01-14T14:07:23Z</time><name>PT3670</name></trkpt>
<trkpt lat="52.984676" lon="-3.305536"><ele>123</ele><time>2023-01-14T14:07:27Z</time><name>PT3671</name></trkpt>
<trkpt lat="52.984656" lon="-3.305513"><ele>124</ele><time>2023-01-14T14:07:30Z</time><name>PT3672</name></trkpt>
<trkpt lat="52.984619" lon="-3.305463"><ele>124</ele><time>2023-01-14T14:07:35Z</time><name>PT3673</name></trkpt>
<trkpt lat="52.984587" lon="-3.305431"><ele>124</ele><time>2023-01-14T14:07:38Z</time><name>PT3674</name></trkpt>
<trkpt lat="52.984557" lon="-3.305410"><ele>125</ele><time>2023-01-14T14:07:41Z</time><name>PT3675</name></trkpt>
<trkpt lat="52.984532" lon="-3.305380"><ele>125</ele><time>2023-01-14T14:07:45Z</time><name>PT3676</name></trkpt>
<trkpt lat="52.984505" lon="-3.305376"><ele>125</ele><time>2023-01-14T14:07:50Z</time><name>PT3677</name></trkpt>
<trkpt lat="52.984492" lon="-3.305384"><ele>126</ele><time>2023-01-14T14:07:53Z</time><name>PT3678</name></trkpt>
<trkpt lat="52.984478" lon="-3.305419"><ele>126</ele><time>2023-01-14T14:07:56Z</time><name>PT3679</name></trkpt>
<trkpt lat="52.984465" lon="-3.305460"><ele>126</ele><time>2023-01-14T14:07:59Z</time><name>PT3680</name></trkpt>
<trkpt lat="52.984455" lon="-3.305506"><ele>125</ele><time>2023-01-14T14:08:02Z</time><name>PT3681</name></trkpt>
<trkpt lat="52.984441" lon="-3.305555"><ele>125</ele><time>2023-01-14T14:08:06Z</time><name>PT3682</name></trkpt>
<trkpt lat="52.984431" lon="-3.305597"><ele>124</ele><time>2023-01-14T14:08:09Z</time><name>PT3683</name></trkpt>
<trkpt lat="52.984422" lon="-3.305645"><ele>124</ele><time>2023-01-14T14:08:14Z</time><name>PT3684</name></trkpt>
<trkpt lat="52.984405" lon="-3.305705"><ele>123</ele><time>2023-01-14T14:08:17Z</time><name>PT3685</name></trkpt>
<trkpt lat="52.984399" lon="-3.305746"><ele>123</ele><time>2023-01-14T14:08:21Z</time><name>PT3686</name></trkpt>
<trkpt lat="52.984395" lon="-3.305797"><ele>123</ele><time>2023-01-14T14:08:24Z</time><name>PT3687</name></trkpt>
<trkpt lat="52.984381" lon="-3.305847"><ele>124</ele><time>2023-01-14T14:08:27Z</time><name>PT3688</name></trkpt>
<trkpt lat="52.984380" lon="-3.305893"><ele>124</ele><time>2023-01-14T14:08:30Z</time><name>PT3689</name></trkpt>
<trkpt lat="52.984370" lon="-3.305944"><ele>125</ele><time>2023-01-14T14:08:33Z</time><name>PT3690</name></trkpt>
<trkpt lat="52.984364" lon="-3.306020"><ele>126</ele><time>2023-01-14T14:08:38Z</time><name>PT3691</name></trkpt>
<trkpt lat="52.984357" lon="-3.306112"><ele>127</ele><time>2023-01-14T14:08:41Z</time><name>PT3692</name></trkpt>
<trkpt lat="52.984345" lon="-3.306198"><ele>126</ele><time>2023-01-14T14:08:45Z</time><name>PT3693</name></trkpt>
<trkpt lat="52.984336" lon="-3.306306"><ele>127</ele><time>2023-01-14T14:08:50Z</time><name>PT3694</name></trkpt>
<trkpt lat="52.984341" lon="-3.306382"><ele>126</ele><time>2023-01-14T14:08:53Z</time><name>PT3695</name></trkpt>
<trkpt lat="52.984344" lon="-3.306437"><ele>126</ele><time>2023-01-14T14:08:57Z</time><name>PT3696</name></trkpt>
<trkpt lat="52.984343" lon="-3.306453"><ele>127</ele><time>2023-01-14T14:09:00Z</time><name>PT3697</name></trkpt>
<trkpt lat="52.984344" lon="-3.306466"><ele>128</ele><time>2023-01-14T14:09:05Z</time><name>PT3698</name></trkpt>
<trkpt lat="52.984342" lon="-3.306504"><ele>127</ele><time>2023-01-14T14:09:08Z</time><name>PT3699</name></trkpt>
<trkpt lat="52.984341" lon="-3.306518"><ele>127</ele><time>2023-01-14T14:09:11Z</time><name>PT3700</name></trkpt>
<trkpt lat="52.984335" lon="-3.306483"><ele>126</ele><time>2023-01-14T14:09:17Z</time><name>PT3701</name></trkpt>
<trkpt lat="52.984340" lon="-3.306434"><ele>127</ele><time>2023-01-14T14:09:21Z</time><name>PT3702</name></trkpt>
<trkpt lat="52.984339" lon="-3.306420"><ele>127</ele><time>2023-01-14T14:09:24Z</time><name>PT3703</name></trkpt>
<trkpt lat="52.984338" lon="-3.306421"><ele>126</ele><time>2023-01-14T14:09:45Z</time><name>PT3704</name></trkpt>
<trkpt lat="52.984331" lon="-3.306433"><ele>127</ele><time>2023-01-14T14:09:48Z</time><name>PT3705</name></trkpt>
<trkpt lat="52.984329" lon="-3.306440"><ele>127</ele><time>2023-01-14T14:09:52Z</time><name>PT3706</name></trkpt>
<trkpt lat="52.984330" lon="-3.306444"><ele>127</ele><time>2023-01-14T14:10:03Z</time><name>PT3707</name></trkpt>
<trkpt lat="52.984329" lon="-3.306475"><ele>128</ele><time>2023-01-14T14:10:06Z</time><name>PT3708</name></trkpt>
<trkpt lat="52.984330" lon="-3.306546"><ele>128</ele><time>2023-01-14T14:10:11Z</time><name>PT3709</name></trkpt>
<trkpt lat="52.984332" lon="-3.306601"><ele>128</ele><time>2023-01-14T14:10:14Z</time><name>PT3710</name></trkpt>
<trkpt lat="52.984340" lon="-3.306670"><ele>128</ele><time>2023-01-14T14:10:17Z</time><name>PT3711</name></trkpt>
<trkpt lat="52.984345" lon="-3.306716"><ele>127</ele><time>2023-01-14T14:10:20Z</time><name>PT3712</name></trkpt>
<trkpt lat="52.984352" lon="-3.306757"><ele>126</ele><time>2023-01-14T14:10:23Z</time><name>PT3713</name></trkpt>
<trkpt lat="52.984361" lon="-3.306812"><ele>125</ele><time>2023-01-14T14:10:28Z</time><name>PT3714</name></trkpt>
<trkpt lat="52.984362" lon="-3.306879"><ele>124</ele><time>2023-01-14T14:10:31Z</time><name>PT3715</name></trkpt>
<trkpt lat="52.984362" lon="-3.306939"><ele>124</ele><time>2023-01-14T14:10:34Z</time><name>PT3716</name></trkpt>
<trkpt lat="52.984364" lon="-3.307024"><ele>123</ele><time>2023-01-14T14:10:38Z</time><name>PT3717</name></trkpt>
<trkpt lat="52.984361" lon="-3.307085"><ele>123</ele><time>2023-01-14T14:10:41Z</time><name>PT3718</name></trkpt>
<trkpt lat="52.984360" lon="-3.307166"><ele>122</ele><time>2023-01-14T14:10:46Z</time><name>PT3719</name></trkpt>
<trkpt lat="52.984359" lon="-3.307231"><ele>121</ele><time>2023-01-14T14:10:49Z</time><name>PT3720</name></trkpt>
<trkpt lat="52.984364" lon="-3.307291"><ele>121</ele><time>2023-01-14T14:10:52Z</time><name>PT3721</name></trkpt>
<trkpt lat="52.984371" lon="-3.307353"><ele>120</ele><time>2023-01-14T14:10:55Z</time><name>PT3722</name></trkpt>
<trkpt lat="52.984381" lon="-3.307424"><ele>119</ele><time>2023-01-14T14:10:58Z</time><name>PT3723</name></trkpt>
<trkpt lat="52.984397" lon="-3.307498"><ele>118</ele><time>2023-01-14T14:11:02Z</time><name>PT3724</name></trkpt>
<trkpt lat="52.984407" lon="-3.307547"><ele>118</ele><time>2023-01-14T14:11:05Z</time><name>PT3725</name></trkpt>
<trkpt lat="52.984423" lon="-3.307620"><ele>118</ele><time>2023-01-14T14:11:10Z</time><name>PT3726</name></trkpt>
<trkpt lat="52.984436" lon="-3.307670"><ele>117</ele><time>2023-01-14T14:11:13Z</time><name>PT3727</name></trkpt>
<trkpt lat="52.984444" lon="-3.307734"><ele>116</ele><time>2023-01-14T14:11:16Z</time><name>PT3728</name></trkpt>
<trkpt lat="52.984452" lon="-3.307776"><ele>115</ele><time>2023-01-14T14:11:19Z</time><name>PT3729</name></trkpt>
<trkpt lat="52.984476" lon="-3.307848"><ele>115</ele><time>2023-01-14T14:11:23Z</time><name>PT3730</name></trkpt>
<trkpt lat="52.984488" lon="-3.307897"><ele>114</ele><time>2023-01-14T14:11:26Z</time><name>PT3731</name></trkpt>
<trkpt lat="52.984507" lon="-3.307944"><ele>112</ele><time>2023-01-14T14:11:31Z</time><name>PT3732</name></trkpt>
<trkpt lat="52.984524" lon="-3.308017"><ele>112</ele><time>2023-01-14T14:11:34Z</time><name>PT3733</name></trkpt>
<trkpt lat="52.984534" lon="-3.308063"><ele>111</ele><time>2023-01-14T14:11:37Z</time><name>PT3734</name></trkpt>
<trkpt lat="52.984548" lon="-3.308134"><ele>110</ele><time>2023-01-14T14:11:41Z</time><name>PT3735</name></trkpt>
<trkpt lat="52.984555" lon="-3.308189"><ele>110</ele><time>2023-01-14T14:11:44Z</time><name>PT3736</name></trkpt>
<trkpt lat="52.984567" lon="-3.308269"><ele>111</ele><time>2023-01-14T14:11:49Z</time><name>PT3737</name></trkpt>
<trkpt lat="52.984571" lon="-3.308346"><ele>112</ele><time>2023-01-14T14:11:52Z</time><name>PT3738</name></trkpt>
<trkpt lat="52.984578" lon="-3.308410"><ele>112</ele><time>2023-01-14T14:11:55Z</time><name>PT3739</name></trkpt>
<trkpt lat="52.984582" lon="-3.308472"><ele>112</ele><time>2023-01-14T14:11:58Z</time><name>PT3740</name></trkpt>
<trkpt lat="52.984590" lon="-3.308548"><ele>111</ele><time>2023-01-14T14:12:01Z</time><name>PT3741</name></trkpt>
<trkpt lat="52.984593" lon="-3.308615"><ele>112</ele><time>2023-01-14T14:12:04Z</time><name>PT3742</name></trkpt>
<trkpt lat="52.984594" lon="-3.308683"><ele>113</ele><time>2023-01-14T14:12:07Z</time><name>PT3743</name></trkpt>
<trkpt lat="52.984589" lon="-3.308781"><ele>113</ele><time>2023-01-14T14:12:11Z</time><name>PT3744</name></trkpt>
<trkpt lat="52.984584" lon="-3.308866"><ele>115</ele><time>2023-01-14T14:12:16Z</time><name>PT3745</name></trkpt>
<trkpt lat="52.984592" lon="-3.308933"><ele>114</ele><time>2023-01-14T14:12:19Z</time><name>PT3746</name></trkpt>
<trkpt lat="52.984589" lon="-3.309007"><ele>115</ele><time>2023-01-14T14:12:22Z</time><name>PT3747</name></trkpt>
<trkpt lat="52.984598" lon="-3.309076"><ele>116</ele><time>2023-01-14T14:12:25Z</time><name>PT3748</name></trkpt>
<trkpt lat="52.984601" lon="-3.309162"><ele>113</ele><time>2023-01-14T14:12:29Z</time><name>PT3749</name></trkpt>
<trkpt lat="52.984600" lon="-3.309260"><ele>115</ele><time>2023-01-14T14:12:34Z</time><name>PT3750</name></trkpt>
<trkpt lat="52.984598" lon="-3.309375"><ele>115</ele><time>2023-01-14T14:12:37Z</time><name>PT3751</name></trkpt>
<trkpt lat="52.984586" lon="-3.309486"><ele>116</ele><time>2023-01-14T14:12:41Z</time><name>PT3752</name></trkpt>
<trkpt lat="52.984589" lon="-3.309582"><ele>119</ele><time>2023-01-14T14:12:46Z</time><name>PT3753</name></trkpt>
<trkpt lat="52.984597" lon="-3.309674"><ele>117</ele><time>2023-01-14T14:12:49Z</time><name>PT3754</name></trkpt>
<trkpt lat="52.984596" lon="-3.309748"><ele>117</ele><time>2023-01-14T14:12:52Z</time><name>PT3755</name></trkpt>
<trkpt lat="52.984592" lon="-3.309851"><ele>118</ele><time>2023-01-14T14:12:55Z</time><name>PT3756</name></trkpt>
<trkpt lat="52.984591" lon="-3.309942"><ele>119</ele><time>2023-01-14T14:12:59Z</time><name>PT3757</name></trkpt>
<trkpt lat="52.984599" lon="-3.309992"><ele>117</ele><time>2023-01-14T14:13:02Z</time><name>PT3758</name></trkpt>
<trkpt lat="52.984587" lon="-3.310069"><ele>118</ele><time>2023-01-14T14:13:07Z</time><name>PT3759</name></trkpt>
<trkpt lat="52.984582" lon="-3.310143"><ele>119</ele><time>2023-01-14T14:13:10Z</time><name>PT3760</name></trkpt>
<trkpt lat="52.984584" lon="-3.310220"><ele>117</ele><time>2023-01-14T14:13:13Z</time><name>PT3761</name></trkpt>
<trkpt lat="52.984582" lon="-3.310304"><ele>117</ele><time>2023-01-14T14:13:17Z</time><name>PT3762</name></trkpt>
<trkpt lat="52.984591" lon="-3.310372"><ele>117</ele><time>2023-01-14T14:13:22Z</time><name>PT3763</name></trkpt>
<trkpt lat="52.984595" lon="-3.310427"><ele>115</ele><time>2023-01-14T14:13:25Z</time><name>PT3764</name></trkpt>
<trkpt lat="52.984602" lon="-3.310496"><ele>114</ele><time>2023-01-14T14:13:28Z</time><name>PT3765</name></trkpt>
<trkpt lat="52.984613" lon="-3.310551"><ele>112</ele><time>2023-01-14T14:13:31Z</time><name>PT3766</name></trkpt>
<trkpt lat="52.984625" lon="-3.310600"><ele>110</ele><time>2023-01-14T14:13:35Z</time><name>PT3767</name></trkpt>
<trkpt lat="52.984639" lon="-3.310670"><ele>110</ele><time>2023-01-14T14:13:40Z</time><name>PT3768</name></trkpt>
<trkpt lat="52.984647" lon="-3.310734"><ele>111</ele><time>2023-01-14T14:13:43Z</time><name>PT3769</name></trkpt>
<trkpt lat="52.984657" lon="-3.310791"><ele>112</ele><time>2023-01-14T14:13:46Z</time><name>PT3770</name></trkpt>
<trkpt lat="52.984674" lon="-3.310846"><ele>111</ele><time>2023-01-14T14:13:49Z</time><name>PT3771</name></trkpt>
<trkpt lat="52.984681" lon="-3.310922"><ele>110</ele><time>2023-01-14T14:13:52Z</time><name>PT3772</name></trkpt>
<trkpt lat="52.984712" lon="-3.310989"><ele>110</ele><time>2023-01-14T14:13:56Z</time><name>PT3773</name></trkpt>
<trkpt lat="52.984736" lon="-3.311031"><ele>111</ele><time>2023-01-14T14:13:59Z</time><name>PT3774</name></trkpt>
<trkpt lat="52.984757" lon="-3.311109"><ele>111</ele><time>2023-01-14T14:14:04Z</time><name>PT3775</name></trkpt>
<trkpt lat="52.984766" lon="-3.311169"><ele>110</ele><time>2023-01-14T14:14:07Z</time><name>PT3776</name></trkpt>
<trkpt lat="52.984773" lon="-3.311255"><ele>111</ele><time>2023-01-14T14:14:10Z</time><name>PT3777</name></trkpt>
<trkpt lat="52.984780" lon="-3.311325"><ele>111</ele><time>2023-01-14T14:14:13Z</time><name>PT3778</name></trkpt>
<trkpt lat="52.984776" lon="-3.311394"><ele>114</ele><time>2023-01-14T14:14:16Z</time><name>PT3779</name></trkpt>
<trkpt lat="52.984779" lon="-3.311455"><ele>114</ele><time>2023-01-14T14:14:19Z</time><name>PT3780</name></trkpt>
<trkpt lat="52.984779" lon="-3.311522"><ele>116</ele><time>2023-01-14T14:14:22Z</time><name>PT3781</name></trkpt>
<trkpt lat="52.984772" lon="-3.311585"><ele>117</ele><time>2023-01-14T14:14:25Z</time><name>PT3782</name></trkpt>
<trkpt lat="52.984768" lon="-3.311659"><ele>119</ele><time>2023-01-14T14:14:29Z</time><name>PT3783</name></trkpt>
<trkpt lat="52.984764" lon="-3.311740"><ele>121</ele><time>2023-01-14T14:14:32Z</time><name>PT3784</name></trkpt>
<trkpt lat="52.984754" lon="-3.311820"><ele>119</ele><time>2023-01-14T14:14:37Z</time><name>PT3785</name></trkpt>
<trkpt lat="52.984751" lon="-3.311857"><ele>117</ele><time>2023-01-14T14:14:40Z</time><name>PT3786</name></trkpt>
<trkpt lat="52.984758" lon="-3.311932"><ele>115</ele><time>2023-01-14T14:14:43Z</time><name>PT3787</name></trkpt>
<trkpt lat="52.984749" lon="-3.312030"><ele>120</ele><time>2023-01-14T14:14:46Z</time><name>PT3788</name></trkpt>
<trkpt lat="52.984738" lon="-3.312111"><ele>121</ele><time>2023-01-14T14:14:49Z</time><name>PT3789</name></trkpt>
<trkpt lat="52.984724" lon="-3.312208"><ele>122</ele><time>2023-01-14T14:14:53Z</time><name>PT3790</name></trkpt>
<trkpt lat="52.984714" lon="-3.312272"><ele>122</ele><time>2023-01-14T14:14:56Z</time><name>PT3791</name></trkpt>
<trkpt lat="52.984700" lon="-3.312345"><ele>122</ele><time>2023-01-14T14:15:01Z</time><name>PT3792</name></trkpt>
<trkpt lat="52.984695" lon="-3.312373"><ele>121</ele><time>2023-01-14T14:15:04Z</time><name>PT3793</name></trkpt>
<trkpt lat="52.984686" lon="-3.312398"><ele>120</ele><time>2023-01-14T14:15:07Z</time><name>PT3794</name></trkpt>
<trkpt lat="52.984671" lon="-3.312455"><ele>119</ele><time>2023-01-14T14:15:10Z</time><name>PT3795</name></trkpt>
<trkpt lat="52.984666" lon="-3.312489"><ele>118</ele><time>2023-01-14T14:15:13Z</time><name>PT3796</name></trkpt>
<trkpt lat="52.984657" lon="-3.312536"><ele>118</ele><time>2023-01-14T14:15:16Z</time><name>PT3797</name></trkpt>
<trkpt lat="52.984651" lon="-3.312607"><ele>118</ele><time>2023-01-14T14:15:20Z</time><name>PT3798</name></trkpt>
<trkpt lat="52.984652" lon="-3.312677"><ele>118</ele><time>2023-01-14T14:15:25Z</time><name>PT3799</name></trkpt>
<trkpt lat="52.984653" lon="-3.312776"><ele>119</ele><time>2023-01-14T14:15:28Z</time><name>PT3800</name></trkpt>
<trkpt lat="52.984655" lon="-3.312870"><ele>120</ele><time>2023-01-14T14:15:32Z</time><name>PT3801</name></trkpt>
<trkpt lat="52.984658" lon="-3.312931"><ele>121</ele><time>2023-01-14T14:15:35Z</time><name>PT3802</name></trkpt>
<trkpt lat="52.984655" lon="-3.313036"><ele>125</ele><time>2023-01-14T14:15:40Z</time><name>PT3803</name></trkpt>
<trkpt lat="52.984663" lon="-3.313119"><ele>125</ele><time>2023-01-14T14:15:43Z</time><name>PT3804</name></trkpt>
<trkpt lat="52.984674" lon="-3.313180"><ele>124</ele><time>2023-01-14T14:15:46Z</time><name>PT3805</name></trkpt>
<trkpt lat="52.984684" lon="-3.313229"><ele>125</ele><time>2023-01-14T14:15:49Z</time><name>PT3806</name></trkpt>
<trkpt lat="52.984695" lon="-3.313288"><ele>123</ele><time>2023-01-14T14:15:53Z</time><name>PT3807</name></trkpt>
<trkpt lat="52.984694" lon="-3.313355"><ele>123</ele><time>2023-01-14T14:15:56Z</time><name>PT3808</name></trkpt>
<trkpt lat="52.984698" lon="-3.313402"><ele>123</ele><time>2023-01-14T14:16:01Z</time><name>PT3809</name></trkpt>
<trkpt lat="52.984695" lon="-3.313438"><ele>124</ele><time>2023-01-14T14:16:04Z</time><name>PT3810</name></trkpt>
<trkpt lat="52.984696" lon="-3.313472"><ele>124</ele><time>2023-01-14T14:16:14Z</time><name>PT3811</name></trkpt>
<trkpt lat="52.984704" lon="-3.313528"><ele>123</ele><time>2023-01-14T14:16:19Z</time><name>PT3812</name></trkpt>
<trkpt lat="52.984714" lon="-3.313580"><ele>122</ele><time>2023-01-14T14:16:22Z</time><name>PT3813</name></trkpt>
<trkpt lat="52.984717" lon="-3.313658"><ele>122</ele><time>2023-01-14T14:16:25Z</time><name>PT3814</name></trkpt>
<trkpt lat="52.984721" lon="-3.313723"><ele>122</ele><time>2023-01-14T14:16:28Z</time><name>PT3815</name></trkpt>
<trkpt lat="52.984724" lon="-3.313780"><ele>122</ele><time>2023-01-14T14:16:31Z</time><name>PT3816</name></trkpt>
<trkpt lat="52.984725" lon="-3.313840"><ele>120</ele><time>2023-01-14T14:16:36Z</time><name>PT3817</name></trkpt>
<trkpt lat="52.984729" lon="-3.313899"><ele>120</ele><time>2023-01-14T14:16:39Z</time><name>PT3818</name></trkpt>
<trkpt lat="52.984727" lon="-3.313953"><ele>120</ele><time>2023-01-14T14:16:42Z</time><name>PT3819</name></trkpt>
<trkpt lat="52.984724" lon="-3.314019"><ele>119</ele><time>2023-01-14T14:16:46Z</time><name>PT3820</name></trkpt>
<trkpt lat="52.984724" lon="-3.314087"><ele>120</ele><time>2023-01-14T14:16:51Z</time><name>PT3821</name></trkpt>
<trkpt lat="52.984719" lon="-3.314142"><ele>119</ele><time>2023-01-14T14:16:54Z</time><name>PT3822</name></trkpt>
<trkpt lat="52.984721" lon="-3.314201"><ele>119</ele><time>2023-01-14T14:16:57Z</time><name>PT3823</name></trkpt>
<trkpt lat="52.984725" lon="-3.314251"><ele>118</ele><time>2023-01-14T14:17:00Z</time><name>PT3824</name></trkpt>
<trkpt lat="52.984721" lon="-3.314315"><ele>118</ele><time>2023-01-14T14:17:03Z</time><name>PT3825</name></trkpt>
<trkpt lat="52.984714" lon="-3.314389"><ele>119</ele><time>2023-01-14T14:17:07Z</time><name>PT3826</name></trkpt>
<trkpt lat="52.984716" lon="-3.314438"><ele>119</ele><time>2023-01-14T14:17:10Z</time><name>PT3827</name></trkpt>
<trkpt lat="52.984721" lon="-3.314495"><ele>117</ele><time>2023-01-14T14:17:15Z</time><name>PT3828</name></trkpt>
<trkpt lat="52.984712" lon="-3.314572"><ele>117</ele><time>2023-01-14T14:17:18Z</time><name>PT3829</name></trkpt>
<trkpt lat="52.984702" lon="-3.314657"><ele>118</ele><time>2023-01-14T14:17:22Z</time><name>PT3830</name></trkpt>
<trkpt lat="52.984703" lon="-3.314712"><ele>118</ele><time>2023-01-14T14:17:25Z</time><name>PT3831</name></trkpt>
<trkpt lat="52.984708" lon="-3.314780"><ele>117</ele><time>2023-01-14T14:17:30Z</time><name>PT3832</name></trkpt>
<trkpt lat="52.984704" lon="-3.314846"><ele>117</ele><time>2023-01-14T14:17:33Z</time><name>PT3833</name></trkpt>
<trkpt lat="52.984700" lon="-3.314939"><ele>116</ele><time>2023-01-14T14:17:36Z</time><name>PT3834</name></trkpt>
<trkpt lat="52.984702" lon="-3.314998"><ele>116</ele><time>2023-01-14T14:17:39Z</time><name>PT3835</name></trkpt>
<trkpt lat="52.984700" lon="-3.315078"><ele>116</ele><time>2023-01-14T14:17:43Z</time><name>PT3836</name></trkpt>
<trkpt lat="52.984699" lon="-3.315149"><ele>116</ele><time>2023-01-14T14:17:46Z</time><name>PT3837</name></trkpt>
<trkpt lat="52.984701" lon="-3.315224"><ele>116</ele><time>2023-01-14T14:17:51Z</time><name>PT3838</name></trkpt>
<trkpt lat="52.984689" lon="-3.315303"><ele>117</ele><time>2023-01-14T14:17:54Z</time><name>PT3839</name></trkpt>
<trkpt lat="52.984675" lon="-3.315372"><ele>120</ele><time>2023-01-14T14:17:57Z</time><name>PT3840</name></trkpt>
<trkpt lat="52.984665" lon="-3.315443"><ele>120</ele><time>2023-01-14T14:18:00Z</time><name>PT3841</name></trkpt>
<trkpt lat="52.984644" lon="-3.315527"><ele>121</ele><time>2023-01-14T14:18:04Z</time><name>PT3842</name></trkpt>
<trkpt lat="52.984625" lon="-3.315595"><ele>124</ele><time>2023-01-14T14:18:07Z</time><name>PT3843</name></trkpt>
<trkpt lat="52.984594" lon="-3.315693"><ele>126</ele><time>2023-01-14T14:18:12Z</time><name>PT3844</name></trkpt>
<trkpt lat="52.984583" lon="-3.315752"><ele>126</ele><time>2023-01-14T14:18:15Z</time><name>PT3845</name></trkpt>
<trkpt lat="52.984557" lon="-3.315824"><ele>127</ele><time>2023-01-14T14:18:18Z</time><name>PT3846</name></trkpt>
<trkpt lat="52.984546" lon="-3.315876"><ele>126</ele><time>2023-01-14T14:18:21Z</time><name>PT3847</name></trkpt>
<trkpt lat="52.984530" lon="-3.315959"><ele>124</ele><time>2023-01-14T14:18:25Z</time><name>PT3848</name></trkpt>
<trkpt lat="52.984516" lon="-3.316016"><ele>125</ele><time>2023-01-14T14:18:28Z</time><name>PT3849</name></trkpt>
<trkpt lat="52.984502" lon="-3.316072"><ele>124</ele><time>2023-01-14T14:18:31Z</time><name>PT3850</name></trkpt>
<trkpt lat="52.984484" lon="-3.316166"><ele>124</ele><time>2023-01-14T14:18:36Z</time><name>PT3851</name></trkpt>
<trkpt lat="52.984473" lon="-3.316230"><ele>125</ele><time>2023-01-14T14:18:39Z</time><name>PT3852</name></trkpt>
<trkpt lat="52.984452" lon="-3.316316"><ele>125</ele><time>2023-01-14T14:18:42Z</time><name>PT3853</name></trkpt>
<trkpt lat="52.984435" lon="-3.316403"><ele>126</ele><time>2023-01-14T14:18:46Z</time><name>PT3854</name></trkpt>
<trkpt lat="52.984416" lon="-3.316474"><ele>126</ele><time>2023-01-14T14:18:49Z</time><name>PT3855</name></trkpt>
<trkpt lat="52.984400" lon="-3.316525"><ele>127</ele><time>2023-01-14T14:18:52Z</time><name>PT3856</name></trkpt>
<trkpt lat="52.984380" lon="-3.316596"><ele>127</ele><time>2023-01-14T14:18:57Z</time><name>PT3857</name></trkpt>
<trkpt lat="52.984363" lon="-3.316643"><ele>128</ele><time>2023-01-14T14:19:00Z</time><name>PT3858</name></trkpt>
<trkpt lat="52.984340" lon="-3.316724"><ele>128</ele><time>2023-01-14T14:19:03Z</time><name>PT3859</name></trkpt>
<trkpt lat="52.984328" lon="-3.316779"><ele>128</ele><time>2023-01-14T14:19:06Z</time><name>PT3860</name></trkpt>
<trkpt lat="52.984310" lon="-3.316846"><ele>128</ele><time>2023-01-14T14:19:10Z</time><name>PT3861</name></trkpt>
<trkpt lat="52.984298" lon="-3.316906"><ele>127</ele><time>2023-01-14T14:19:13Z</time><name>PT3862</name></trkpt>
<trkpt lat="52.984285" lon="-3.316956"><ele>127</ele><time>2023-01-14T14:19:17Z</time><name>PT3863</name></trkpt>
<trkpt lat="52.984266" lon="-3.317025"><ele>126</ele><time>2023-01-14T14:19:21Z</time><name>PT3864</name></trkpt>
<trkpt lat="52.984255" lon="-3.317070"><ele>125</ele><time>2023-01-14T14:19:24Z</time><name>PT3865</name></trkpt>
<trkpt lat="52.984239" lon="-3.317138"><ele>125</ele><time>2023-01-14T14:19:27Z</time><name>PT3866</name></trkpt>
<trkpt lat="52.984225" lon="-3.317205"><ele>124</ele><time>2023-01-14T14:19:31Z</time><name>PT3867</name></trkpt>
<trkpt lat="52.984207" lon="-3.317273"><ele>124</ele><time>2023-01-14T14:19:36Z</time><name>PT3868</name></trkpt>
<trkpt lat="52.984194" lon="-3.317323"><ele>124</ele><time>2023-01-14T14:19:39Z</time><name>PT3869</name></trkpt>
<trkpt lat="52.984176" lon="-3.317400"><ele>123</ele><time>2023-01-14T14:19:42Z</time><name>PT3870</name></trkpt>
<trkpt lat="52.984158" lon="-3.317460"><ele>123</ele><time>2023-01-14T14:19:45Z</time><name>PT3871</name></trkpt>
<trkpt lat="52.984137" lon="-3.317530"><ele>122</ele><time>2023-01-14T14:19:50Z</time><name>PT3872</name></trkpt>
<trkpt lat="52.984107" lon="-3.317607"><ele>122</ele><time>2023-01-14T14:19:53Z</time><name>PT3873</name></trkpt>
<trkpt lat="52.984091" lon="-3.317674"><ele>120</ele><time>2023-01-14T14:19:58Z</time><name>PT3874</name></trkpt>
<trkpt lat="52.984062" lon="-3.317734"><ele>119</ele><time>2023-01-14T14:20:02Z</time><name>PT3875</name></trkpt>
<trkpt lat="52.984035" lon="-3.317811"><ele>120</ele><time>2023-01-14T14:20:05Z</time><name>PT3876</name></trkpt>
<trkpt lat="52.984004" lon="-3.317887"><ele>121</ele><time>2023-01-14T14:20:09Z</time><name>PT3877</name></trkpt>
<trkpt lat="52.983976" lon="-3.317943"><ele>122</ele><time>2023-01-14T14:20:12Z</time><name>PT3878</name></trkpt>
<trkpt lat="52.983955" lon="-3.317996"><ele>122</ele><time>2023-01-14T14:20:15Z</time><name>PT3879</name></trkpt>
<trkpt lat="52.983925" lon="-3.318074"><ele>123</ele><time>2023-01-14T14:20:20Z</time><name>PT3880</name></trkpt>
<trkpt lat="52.983897" lon="-3.318155"><ele>124</ele><time>2023-01-14T14:20:23Z</time><name>PT3881</name></trkpt>
<trkpt lat="52.983884" lon="-3.318237"><ele>123</ele><time>2023-01-14T14:20:27Z</time><name>PT3882</name></trkpt>
<trkpt lat="52.983865" lon="-3.318321"><ele>123</ele><time>2023-01-14T14:20:32Z</time><name>PT3883</name></trkpt>
<trkpt lat="52.983855" lon="-3.318394"><ele>122</ele><time>2023-01-14T14:20:35Z</time><name>PT3884</name></trkpt>
<trkpt lat="52.983847" lon="-3.318447"><ele>122</ele><time>2023-01-14T14:20:38Z</time><name>PT3885</name></trkpt>
<trkpt lat="52.983831" lon="-3.318512"><ele>122</ele><time>2023-01-14T14:20:42Z</time><name>PT3886</name></trkpt>
<trkpt lat="52.983823" lon="-3.318578"><ele>123</ele><time>2023-01-14T14:20:47Z</time><name>PT3887</name></trkpt>
<trkpt lat="52.983821" lon="-3.318630"><ele>123</ele><time>2023-01-14T14:20:50Z</time><name>PT3888</name></trkpt>
<trkpt lat="52.983818" lon="-3.318682"><ele>122</ele><time>2023-01-14T14:20:53Z</time><name>PT3889</name></trkpt>
<trkpt lat="52.983816" lon="-3.318750"><ele>123</ele><time>2023-01-14T14:20:56Z</time><name>PT3890</name></trkpt>
<trkpt lat="52.983813" lon="-3.318829"><ele>123</ele><time>2023-01-14T14:21:00Z</time><name>PT3891</name></trkpt>
<trkpt lat="52.983803" lon="-3.318903"><ele>120</ele><time>2023-01-14T14:21:03Z</time><name>PT3892</name></trkpt>
<trkpt lat="52.983783" lon="-3.318971"><ele>120</ele><time>2023-01-14T14:21:06Z</time><name>PT3893</name></trkpt>
<trkpt lat="52.983736" lon="-3.319059"><ele>121</ele><time>2023-01-14T14:21:11Z</time><name>PT3894</name></trkpt>
<trkpt lat="52.983697" lon="-3.319109"><ele>121</ele><time>2023-01-14T14:21:14Z</time><name>PT3895</name></trkpt>
<trkpt lat="52.983646" lon="-3.319146"><ele>121</ele><time>2023-01-14T14:21:17Z</time><name>PT3896</name></trkpt>
<trkpt lat="52.983609" lon="-3.319157"><ele>121</ele><time>2023-01-14T14:21:20Z</time><name>PT3897</name></trkpt>
<trkpt lat="52.983554" lon="-3.319156"><ele>122</ele><time>2023-01-14T14:21:24Z</time><name>PT3898</name></trkpt>
<trkpt lat="52.983484" lon="-3.319176"><ele>124</ele><time>2023-01-14T14:21:28Z</time><name>PT3899</name></trkpt>
<trkpt lat="52.983440" lon="-3.319183"><ele>126</ele><time>2023-01-14T14:21:32Z</time><name>PT3900</name></trkpt>
<trkpt lat="52.983399" lon="-3.319184"><ele>126</ele><time>2023-01-14T14:21:35Z</time><name>PT3901</name></trkpt>
<trkpt lat="52.983361" lon="-3.319182"><ele>126</ele><time>2023-01-14T14:21:38Z</time><name>PT3902</name></trkpt>
<trkpt lat="52.983311" lon="-3.319176"><ele>127</ele><time>2023-01-14T14:21:41Z</time><name>PT3903</name></trkpt>
<trkpt lat="52.983261" lon="-3.319170"><ele>126</ele><time>2023-01-14T14:21:45Z</time><name>PT3904</name></trkpt>
<trkpt lat="52.983224" lon="-3.319156"><ele>126</ele><time>2023-01-14T14:21:48Z</time><name>PT3905</name></trkpt>
<trkpt lat="52.983187" lon="-3.319114"><ele>126</ele><time>2023-01-14T14:21:53Z</time><name>PT3906</name></trkpt></trkseg></trk></gpx>